<?xml version="1.0" encoding="UTF-8" standalone="no" ?>
<gpx xmlns="http://www.topografix.com/GPX/1/1" xmlns:xsi="http://www.w3.org/2001/XMLSchema-instance" xsi:schemaLocation="http://www.topografix.com/GPX/1/1 http://www.topografix.com/GPX/1/1/gpx.xsd" version="1.1" creator="VisuGPX - https://www.visugpx.com">
  <metadata>
    <name>Pornichet 16/12/2021</name>
    <desc><![CDATA[Sortie vtt jeudi 16 décembre 2021]]></desc>
  </metadata>
  <trk>
    <name><![CDATA[Pornichet Cyclisme]]></name>
    <trkseg>
      <trkpt lat="47.26437" lon="-2.31522">
        <ele>12.5</ele>
        <time>2021-12-16T08:15:26.000Z</time>
      </trkpt>
      <trkpt lat="47.26439" lon="-2.31541">
        <ele>12.1</ele>
        <time>2021-12-16T08:15:29.000Z</time>
      </trkpt>
      <trkpt lat="47.26439" lon="-2.31548">
        <ele>-0.20000000298023</ele>
        <time>2021-12-16T08:15:30.000Z</time>
      </trkpt>
      <trkpt lat="47.26438" lon="-2.31554">
        <ele>-0.20000000298023</ele>
        <time>2021-12-16T08:15:31.000Z</time>
      </trkpt>
      <trkpt lat="47.26438" lon="-2.31575">
        <ele>-0.20000000298023</ele>
        <time>2021-12-16T08:15:34.000Z</time>
      </trkpt>
      <trkpt lat="47.26439" lon="-2.31588">
        <ele>-0.20000000298023</ele>
        <time>2021-12-16T08:15:36.000Z</time>
      </trkpt>
      <trkpt lat="47.26439" lon="-2.31595">
        <ele>-0.20000000298023</ele>
        <time>2021-12-16T08:15:37.000Z</time>
      </trkpt>
      <trkpt lat="47.26438" lon="-2.31613">
        <ele>-0.20000000298023</ele>
        <time>2021-12-16T08:15:40.000Z</time>
      </trkpt>
      <trkpt lat="47.26434" lon="-2.31617">
        <ele>-0.20000000298023</ele>
        <time>2021-12-16T08:15:41.000Z</time>
      </trkpt>
      <trkpt lat="47.2642" lon="-2.31623">
        <ele>-0.20000000298023</ele>
        <time>2021-12-16T08:15:44.000Z</time>
      </trkpt>
      <trkpt lat="47.2639" lon="-2.3164">
        <ele>-0.60000002384186</ele>
        <time>2021-12-16T08:15:50.000Z</time>
      </trkpt>
      <trkpt lat="47.26384" lon="-2.31644">
        <ele>-1.6000000238419</ele>
        <time>2021-12-16T08:15:51.000Z</time>
      </trkpt>
      <trkpt lat="47.26379" lon="-2.31647">
        <ele>-2</ele>
        <time>2021-12-16T08:15:52.000Z</time>
      </trkpt>
      <trkpt lat="47.26373" lon="-2.3165">
        <ele>-2.4000000953674</ele>
        <time>2021-12-16T08:15:53.000Z</time>
      </trkpt>
      <trkpt lat="47.26345" lon="-2.31664">
        <ele>-2.4000000953674</ele>
        <time>2021-12-16T08:15:58.000Z</time>
      </trkpt>
      <trkpt lat="47.26334" lon="-2.3167">
        <ele>-2.7999999523163</ele>
        <time>2021-12-16T08:16:00.000Z</time>
      </trkpt>
      <trkpt lat="47.26329" lon="-2.31673">
        <ele>-3.2000000476837</ele>
        <time>2021-12-16T08:16:01.000Z</time>
      </trkpt>
      <trkpt lat="47.26327" lon="-2.31678">
        <ele>-3.5999999046326</ele>
        <time>2021-12-16T08:16:02.000Z</time>
      </trkpt>
      <trkpt lat="47.26326" lon="-2.31684">
        <ele>-4</ele>
        <time>2021-12-16T08:16:03.000Z</time>
      </trkpt>
      <trkpt lat="47.26327" lon="-2.3169">
        <ele>-4.4000000953674</ele>
        <time>2021-12-16T08:16:04.000Z</time>
      </trkpt>
      <trkpt lat="47.26329" lon="-2.31702">
        <ele>-4.4000000953674</ele>
        <time>2021-12-16T08:16:06.000Z</time>
      </trkpt>
      <trkpt lat="47.2633" lon="-2.31721">
        <ele>-4.4000000953674</ele>
        <time>2021-12-16T08:16:09.000Z</time>
      </trkpt>
      <trkpt lat="47.26331" lon="-2.31741">
        <ele>-4.4000000953674</ele>
        <time>2021-12-16T08:16:12.000Z</time>
      </trkpt>
      <trkpt lat="47.26329" lon="-2.31775">
        <ele>-4.4000000953674</ele>
        <time>2021-12-16T08:16:16.000Z</time>
      </trkpt>
      <trkpt lat="47.26328" lon="-2.31782">
        <ele>-4.4000000953674</ele>
        <time>2021-12-16T08:16:18.000Z</time>
      </trkpt>
      <trkpt lat="47.26326" lon="-2.31795">
        <ele>-4.4000000953674</ele>
        <time>2021-12-16T08:16:20.000Z</time>
      </trkpt>
      <trkpt lat="47.26322" lon="-2.31821">
        <ele>-4.4000000953674</ele>
        <time>2021-12-16T08:16:24.000Z</time>
      </trkpt>
      <trkpt lat="47.26319" lon="-2.31847">
        <ele>-4.4000000953674</ele>
        <time>2021-12-16T08:16:29.000Z</time>
      </trkpt>
      <trkpt lat="47.26318" lon="-2.31849">
        <ele>-4.4000000953674</ele>
        <time>2021-12-16T08:16:30.000Z</time>
      </trkpt>
      <trkpt lat="47.2631" lon="-2.31857">
        <ele>-4.4000000953674</ele>
        <time>2021-12-16T08:16:33.000Z</time>
      </trkpt>
      <trkpt lat="47.26291" lon="-2.3188">
        <ele>-4.4000000953674</ele>
        <time>2021-12-16T08:16:39.000Z</time>
      </trkpt>
      <trkpt lat="47.26284" lon="-2.31894">
        <ele>-4.8000001907349</ele>
        <time>2021-12-16T08:16:42.000Z</time>
      </trkpt>
      <trkpt lat="47.26281" lon="-2.31898">
        <ele>-5.1999998092651</ele>
        <time>2021-12-16T08:16:43.000Z</time>
      </trkpt>
      <trkpt lat="47.26279" lon="-2.31903">
        <ele>-5.5999999046326</ele>
        <time>2021-12-16T08:16:44.000Z</time>
      </trkpt>
      <trkpt lat="47.26277" lon="-2.31908">
        <ele>-6</ele>
        <time>2021-12-16T08:16:45.000Z</time>
      </trkpt>
      <trkpt lat="47.26275" lon="-2.31913">
        <ele>-6.4000000953674</ele>
        <time>2021-12-16T08:16:46.000Z</time>
      </trkpt>
      <trkpt lat="47.26271" lon="-2.31917">
        <ele>-6.4000000953674</ele>
        <time>2021-12-16T08:16:47.000Z</time>
      </trkpt>
      <trkpt lat="47.2626" lon="-2.31928">
        <ele>-6.4000000953674</ele>
        <time>2021-12-16T08:16:50.000Z</time>
      </trkpt>
      <trkpt lat="47.26248" lon="-2.31943">
        <ele>-6.4000000953674</ele>
        <time>2021-12-16T08:16:55.000Z</time>
      </trkpt>
      <trkpt lat="47.26233" lon="-2.31957">
        <ele>-6.4000000953674</ele>
        <time>2021-12-16T08:17:00.000Z</time>
      </trkpt>
      <trkpt lat="47.26228" lon="-2.31965">
        <ele>-6.4000000953674</ele>
        <time>2021-12-16T08:17:03.000Z</time>
      </trkpt>
      <trkpt lat="47.26227" lon="-2.31975">
        <ele>-6.4000000953674</ele>
        <time>2021-12-16T08:17:05.000Z</time>
      </trkpt>
      <trkpt lat="47.26221" lon="-2.31985">
        <ele>-6.4000000953674</ele>
        <time>2021-12-16T08:17:09.000Z</time>
      </trkpt>
      <trkpt lat="47.26219" lon="-2.31985">
        <ele>-6.4000000953674</ele>
        <time>2021-12-16T08:17:10.000Z</time>
      </trkpt>
      <trkpt lat="47.26205" lon="-2.31986">
        <ele>-6.4000000953674</ele>
        <time>2021-12-16T08:17:15.000Z</time>
      </trkpt>
      <trkpt lat="47.26186" lon="-2.31998">
        <ele>-6.4000000953674</ele>
        <time>2021-12-16T08:17:21.000Z</time>
      </trkpt>
      <trkpt lat="47.26174" lon="-2.32034">
        <ele>-6.4000000953674</ele>
        <time>2021-12-16T08:17:27.000Z</time>
      </trkpt>
      <trkpt lat="47.26158" lon="-2.32086">
        <ele>-6.4000000953674</ele>
        <time>2021-12-16T08:17:36.000Z</time>
      </trkpt>
      <trkpt lat="47.26144" lon="-2.32127">
        <ele>-6.4000000953674</ele>
        <time>2021-12-16T08:17:43.000Z</time>
      </trkpt>
      <trkpt lat="47.26124" lon="-2.32171">
        <ele>-6.4000000953674</ele>
        <time>2021-12-16T08:17:51.000Z</time>
      </trkpt>
      <trkpt lat="47.26116" lon="-2.32185">
        <ele>-6.4000000953674</ele>
        <time>2021-12-16T08:17:54.000Z</time>
      </trkpt>
      <trkpt lat="47.26106" lon="-2.32197">
        <ele>-6.4000000953674</ele>
        <time>2021-12-16T08:17:57.000Z</time>
      </trkpt>
      <trkpt lat="47.26086" lon="-2.32219">
        <ele>-6.4000000953674</ele>
        <time>2021-12-16T08:18:03.000Z</time>
      </trkpt>
      <trkpt lat="47.26052" lon="-2.32256">
        <ele>-6.4000000953674</ele>
        <time>2021-12-16T08:18:12.000Z</time>
      </trkpt>
      <trkpt lat="47.26029" lon="-2.32285">
        <ele>-6.4000000953674</ele>
        <time>2021-12-16T08:18:19.000Z</time>
      </trkpt>
      <trkpt lat="47.26025" lon="-2.3229">
        <ele>-6.4000000953674</ele>
        <time>2021-12-16T08:18:20.000Z</time>
      </trkpt>
      <trkpt lat="47.25988" lon="-2.32344">
        <ele>-6.4000000953674</ele>
        <time>2021-12-16T08:18:29.000Z</time>
      </trkpt>
      <trkpt lat="47.25957" lon="-2.32386">
        <ele>-6.4000000953674</ele>
        <time>2021-12-16T08:18:37.000Z</time>
      </trkpt>
      <trkpt lat="47.25928" lon="-2.32424">
        <ele>-6.4000000953674</ele>
        <time>2021-12-16T08:18:45.000Z</time>
      </trkpt>
      <trkpt lat="47.25911" lon="-2.32454">
        <ele>-6</ele>
        <time>2021-12-16T08:18:52.000Z</time>
      </trkpt>
      <trkpt lat="47.25913" lon="-2.32458">
        <ele>-5.5999999046326</ele>
        <time>2021-12-16T08:18:53.000Z</time>
      </trkpt>
      <trkpt lat="47.25916" lon="-2.32461">
        <ele>-5.1999998092651</ele>
        <time>2021-12-16T08:18:54.000Z</time>
      </trkpt>
      <trkpt lat="47.2592" lon="-2.32463">
        <ele>-4.8000001907349</ele>
        <time>2021-12-16T08:18:55.000Z</time>
      </trkpt>
      <trkpt lat="47.25923" lon="-2.32467">
        <ele>-4.4000000953674</ele>
        <time>2021-12-16T08:18:56.000Z</time>
      </trkpt>
      <trkpt lat="47.25932" lon="-2.32483">
        <ele>-4.4000000953674</ele>
        <time>2021-12-16T08:18:59.000Z</time>
      </trkpt>
      <trkpt lat="47.25934" lon="-2.3249">
        <ele>-4.4000000953674</ele>
        <time>2021-12-16T08:19:00.000Z</time>
      </trkpt>
      <trkpt lat="47.25947" lon="-2.32537">
        <ele>-4.4000000953674</ele>
        <time>2021-12-16T08:19:07.000Z</time>
      </trkpt>
      <trkpt lat="47.2596" lon="-2.32582">
        <ele>-4.4000000953674</ele>
        <time>2021-12-16T08:19:14.000Z</time>
      </trkpt>
      <trkpt lat="47.25961" lon="-2.32589">
        <ele>-4.4000000953674</ele>
        <time>2021-12-16T08:19:15.000Z</time>
      </trkpt>
      <trkpt lat="47.25967" lon="-2.32636">
        <ele>-4.4000000953674</ele>
        <time>2021-12-16T08:19:22.000Z</time>
      </trkpt>
      <trkpt lat="47.25967" lon="-2.32642">
        <ele>-4.4000000953674</ele>
        <time>2021-12-16T08:19:23.000Z</time>
      </trkpt>
      <trkpt lat="47.2597" lon="-2.32655">
        <ele>-4.4000000953674</ele>
        <time>2021-12-16T08:19:26.000Z</time>
      </trkpt>
      <trkpt lat="47.25973" lon="-2.32657">
        <ele>-4.4000000953674</ele>
        <time>2021-12-16T08:19:27.000Z</time>
      </trkpt>
      <trkpt lat="47.25979" lon="-2.32657">
        <ele>-4.4000000953674</ele>
        <time>2021-12-16T08:19:29.000Z</time>
      </trkpt>
      <trkpt lat="47.25983" lon="-2.32657">
        <ele>-4.4000000953674</ele>
        <time>2021-12-16T08:19:30.000Z</time>
      </trkpt>
      <trkpt lat="47.26001" lon="-2.3266">
        <ele>-4.4000000953674</ele>
        <time>2021-12-16T08:19:35.000Z</time>
      </trkpt>
      <trkpt lat="47.26013" lon="-2.32655">
        <ele>-4.4000000953674</ele>
        <time>2021-12-16T08:19:39.000Z</time>
      </trkpt>
      <trkpt lat="47.26016" lon="-2.32653">
        <ele>-4</ele>
        <time>2021-12-16T08:19:40.000Z</time>
      </trkpt>
      <trkpt lat="47.2602" lon="-2.32652">
        <ele>-3.4000000953674</ele>
        <time>2021-12-16T08:19:41.000Z</time>
      </trkpt>
      <trkpt lat="47.26023" lon="-2.32651">
        <ele>-3</ele>
        <time>2021-12-16T08:19:42.000Z</time>
      </trkpt>
      <trkpt lat="47.26027" lon="-2.3265">
        <ele>-2.5999999046326</ele>
        <time>2021-12-16T08:19:43.000Z</time>
      </trkpt>
      <trkpt lat="47.26032" lon="-2.32649">
        <ele>-2.2000000476837</ele>
        <time>2021-12-16T08:19:44.000Z</time>
      </trkpt>
      <trkpt lat="47.26035" lon="-2.32647">
        <ele>-2.2000000476837</ele>
        <time>2021-12-16T08:19:45.000Z</time>
      </trkpt>
      <trkpt lat="47.26055" lon="-2.32642">
        <ele>-2.2000000476837</ele>
        <time>2021-12-16T08:19:50.000Z</time>
      </trkpt>
      <trkpt lat="47.26089" lon="-2.32636">
        <ele>-2.2000000476837</ele>
        <time>2021-12-16T08:19:58.000Z</time>
      </trkpt>
      <trkpt lat="47.26111" lon="-2.32634">
        <ele>-1.7999999523163</ele>
        <time>2021-12-16T08:20:03.000Z</time>
      </trkpt>
      <trkpt lat="47.26115" lon="-2.32635">
        <ele>-1.3999999761581</ele>
        <time>2021-12-16T08:20:04.000Z</time>
      </trkpt>
      <trkpt lat="47.26119" lon="-2.32635">
        <ele>-1</ele>
        <time>2021-12-16T08:20:05.000Z</time>
      </trkpt>
      <trkpt lat="47.26124" lon="-2.32635">
        <ele>-0.60000002384186</ele>
        <time>2021-12-16T08:20:06.000Z</time>
      </trkpt>
      <trkpt lat="47.26128" lon="-2.32635">
        <ele>-0.20000000298023</ele>
        <time>2021-12-16T08:20:07.000Z</time>
      </trkpt>
      <trkpt lat="47.26149" lon="-2.32641">
        <ele>-0.20000000298023</ele>
        <time>2021-12-16T08:20:12.000Z</time>
      </trkpt>
      <trkpt lat="47.26183" lon="-2.32661">
        <ele>-0.20000000298023</ele>
        <time>2021-12-16T08:20:20.000Z</time>
      </trkpt>
      <trkpt lat="47.26198" lon="-2.32675">
        <ele>-0.20000000298023</ele>
        <time>2021-12-16T08:20:24.000Z</time>
      </trkpt>
      <trkpt lat="47.26212" lon="-2.32692">
        <ele>-0.20000000298023</ele>
        <time>2021-12-16T08:20:28.000Z</time>
      </trkpt>
      <trkpt lat="47.26237" lon="-2.32728">
        <ele>-0.20000000298023</ele>
        <time>2021-12-16T08:20:35.000Z</time>
      </trkpt>
      <trkpt lat="47.26264" lon="-2.32769">
        <ele>-0.20000000298023</ele>
        <time>2021-12-16T08:20:42.000Z</time>
      </trkpt>
      <trkpt lat="47.2628" lon="-2.3281">
        <ele>-0.20000000298023</ele>
        <time>2021-12-16T08:20:48.000Z</time>
      </trkpt>
      <trkpt lat="47.26284" lon="-2.32825">
        <ele>-0.20000000298023</ele>
        <time>2021-12-16T08:20:50.000Z</time>
      </trkpt>
      <trkpt lat="47.26288" lon="-2.32847">
        <ele>-0.20000000298023</ele>
        <time>2021-12-16T08:20:53.000Z</time>
      </trkpt>
      <trkpt lat="47.26299" lon="-2.32863">
        <ele>-0.20000000298023</ele>
        <time>2021-12-16T08:20:56.000Z</time>
      </trkpt>
      <trkpt lat="47.26309" lon="-2.32868">
        <ele>-0.20000000298023</ele>
        <time>2021-12-16T08:20:58.000Z</time>
      </trkpt>
      <trkpt lat="47.26314" lon="-2.32871">
        <ele>-0.20000000298023</ele>
        <time>2021-12-16T08:20:59.000Z</time>
      </trkpt>
      <trkpt lat="47.26318" lon="-2.32876">
        <ele>-0.20000000298023</ele>
        <time>2021-12-16T08:21:00.000Z</time>
      </trkpt>
      <trkpt lat="47.26325" lon="-2.32895">
        <ele>-0.20000000298023</ele>
        <time>2021-12-16T08:21:03.000Z</time>
      </trkpt>
      <trkpt lat="47.26327" lon="-2.32902">
        <ele>-0.20000000298023</ele>
        <time>2021-12-16T08:21:04.000Z</time>
      </trkpt>
      <trkpt lat="47.2634" lon="-2.32946">
        <ele>-0.20000000298023</ele>
        <time>2021-12-16T08:21:10.000Z</time>
      </trkpt>
      <trkpt lat="47.26345" lon="-2.32959">
        <ele>-0.20000000298023</ele>
        <time>2021-12-16T08:21:12.000Z</time>
      </trkpt>
      <trkpt lat="47.26348" lon="-2.32966">
        <ele>-0.20000000298023</ele>
        <time>2021-12-16T08:21:13.000Z</time>
      </trkpt>
      <trkpt lat="47.26358" lon="-2.32982">
        <ele>-0.20000000298023</ele>
        <time>2021-12-16T08:21:16.000Z</time>
      </trkpt>
      <trkpt lat="47.26362" lon="-2.32987">
        <ele>-0.20000000298023</ele>
        <time>2021-12-16T08:21:17.000Z</time>
      </trkpt>
      <trkpt lat="47.26364" lon="-2.32993">
        <ele>-0.20000000298023</ele>
        <time>2021-12-16T08:21:18.000Z</time>
      </trkpt>
      <trkpt lat="47.26368" lon="-2.3302">
        <ele>-0.20000000298023</ele>
        <time>2021-12-16T08:21:22.000Z</time>
      </trkpt>
      <trkpt lat="47.26371" lon="-2.33096">
        <ele>-0.20000000298023</ele>
        <time>2021-12-16T08:21:32.000Z</time>
      </trkpt>
      <trkpt lat="47.26375" lon="-2.33155">
        <ele>-0.20000000298023</ele>
        <time>2021-12-16T08:21:40.000Z</time>
      </trkpt>
      <trkpt lat="47.26379" lon="-2.33215">
        <ele>-0.20000000298023</ele>
        <time>2021-12-16T08:21:48.000Z</time>
      </trkpt>
      <trkpt lat="47.2638" lon="-2.33238">
        <ele>-0.20000000298023</ele>
        <time>2021-12-16T08:21:51.000Z</time>
      </trkpt>
      <trkpt lat="47.26386" lon="-2.33258">
        <ele>-0.20000000298023</ele>
        <time>2021-12-16T08:21:54.000Z</time>
      </trkpt>
      <trkpt lat="47.26397" lon="-2.33267">
        <ele>-0.20000000298023</ele>
        <time>2021-12-16T08:21:57.000Z</time>
      </trkpt>
      <trkpt lat="47.26411" lon="-2.33268">
        <ele>-0.20000000298023</ele>
        <time>2021-12-16T08:22:00.000Z</time>
      </trkpt>
      <trkpt lat="47.26425" lon="-2.33269">
        <ele>-0.20000000298023</ele>
        <time>2021-12-16T08:22:03.000Z</time>
      </trkpt>
      <trkpt lat="47.26457" lon="-2.33274">
        <ele>-0.20000000298023</ele>
        <time>2021-12-16T08:22:10.000Z</time>
      </trkpt>
      <trkpt lat="47.26461" lon="-2.33275">
        <ele>-0.20000000298023</ele>
        <time>2021-12-16T08:22:11.000Z</time>
      </trkpt>
      <trkpt lat="47.26471" lon="-2.33278">
        <ele>-0.20000000298023</ele>
        <time>2021-12-16T08:22:13.000Z</time>
      </trkpt>
      <trkpt lat="47.26475" lon="-2.33278">
        <ele>0.20000000298023</ele>
        <time>2021-12-16T08:22:14.000Z</time>
      </trkpt>
      <trkpt lat="47.26479" lon="-2.33279">
        <ele>0.60000002384186</ele>
        <time>2021-12-16T08:22:15.000Z</time>
      </trkpt>
      <trkpt lat="47.26483" lon="-2.33279">
        <ele>1</ele>
        <time>2021-12-16T08:22:16.000Z</time>
      </trkpt>
      <trkpt lat="47.26488" lon="-2.3328">
        <ele>1.3999999761581</ele>
        <time>2021-12-16T08:22:17.000Z</time>
      </trkpt>
      <trkpt lat="47.26492" lon="-2.3328">
        <ele>1.7999999523163</ele>
        <time>2021-12-16T08:22:18.000Z</time>
      </trkpt>
      <trkpt lat="47.265" lon="-2.33281">
        <ele>1.7999999523163</ele>
        <time>2021-12-16T08:22:20.000Z</time>
      </trkpt>
      <trkpt lat="47.26511" lon="-2.3329">
        <ele>1.7999999523163</ele>
        <time>2021-12-16T08:22:23.000Z</time>
      </trkpt>
      <trkpt lat="47.26519" lon="-2.33297">
        <ele>1.7999999523163</ele>
        <time>2021-12-16T08:22:25.000Z</time>
      </trkpt>
      <trkpt lat="47.26526" lon="-2.33315">
        <ele>1.7999999523163</ele>
        <time>2021-12-16T08:22:28.000Z</time>
      </trkpt>
      <trkpt lat="47.26526" lon="-2.33337">
        <ele>1.7999999523163</ele>
        <time>2021-12-16T08:22:31.000Z</time>
      </trkpt>
      <trkpt lat="47.2653" lon="-2.33361">
        <ele>1.7999999523163</ele>
        <time>2021-12-16T08:22:34.000Z</time>
      </trkpt>
      <trkpt lat="47.26532" lon="-2.33369">
        <ele>1.7999999523163</ele>
        <time>2021-12-16T08:22:35.000Z</time>
      </trkpt>
      <trkpt lat="47.26543" lon="-2.33414">
        <ele>1.7999999523163</ele>
        <time>2021-12-16T08:22:41.000Z</time>
      </trkpt>
      <trkpt lat="47.26552" lon="-2.3347">
        <ele>1.7999999523163</ele>
        <time>2021-12-16T08:22:48.000Z</time>
      </trkpt>
      <trkpt lat="47.26557" lon="-2.335">
        <ele>1.7999999523163</ele>
        <time>2021-12-16T08:22:52.000Z</time>
      </trkpt>
      <trkpt lat="47.26562" lon="-2.33514">
        <ele>1.7999999523163</ele>
        <time>2021-12-16T08:22:54.000Z</time>
      </trkpt>
      <trkpt lat="47.26563" lon="-2.33521">
        <ele>1.7999999523163</ele>
        <time>2021-12-16T08:22:55.000Z</time>
      </trkpt>
      <trkpt lat="47.26566" lon="-2.33543">
        <ele>1.7999999523163</ele>
        <time>2021-12-16T08:22:58.000Z</time>
      </trkpt>
      <trkpt lat="47.26568" lon="-2.33551">
        <ele>1.7999999523163</ele>
        <time>2021-12-16T08:22:59.000Z</time>
      </trkpt>
      <trkpt lat="47.26569" lon="-2.33558">
        <ele>2.2000000476837</ele>
        <time>2021-12-16T08:23:00.000Z</time>
      </trkpt>
      <trkpt lat="47.2657" lon="-2.33565">
        <ele>2.5999999046326</ele>
        <time>2021-12-16T08:23:01.000Z</time>
      </trkpt>
      <trkpt lat="47.26571" lon="-2.33573">
        <ele>3</ele>
        <time>2021-12-16T08:23:02.000Z</time>
      </trkpt>
      <trkpt lat="47.26572" lon="-2.3358">
        <ele>3.4000000953674</ele>
        <time>2021-12-16T08:23:03.000Z</time>
      </trkpt>
      <trkpt lat="47.26573" lon="-2.33586">
        <ele>3.7999999523163</ele>
        <time>2021-12-16T08:23:04.000Z</time>
      </trkpt>
      <trkpt lat="47.26574" lon="-2.33593">
        <ele>3.7999999523163</ele>
        <time>2021-12-16T08:23:05.000Z</time>
      </trkpt>
      <trkpt lat="47.26579" lon="-2.33634">
        <ele>3.7999999523163</ele>
        <time>2021-12-16T08:23:11.000Z</time>
      </trkpt>
      <trkpt lat="47.26582" lon="-2.33658">
        <ele>4.1999998092651</ele>
        <time>2021-12-16T08:23:15.000Z</time>
      </trkpt>
      <trkpt lat="47.26584" lon="-2.33663">
        <ele>4.8000001907349</ele>
        <time>2021-12-16T08:23:16.000Z</time>
      </trkpt>
      <trkpt lat="47.26586" lon="-2.33667">
        <ele>5.1999998092651</ele>
        <time>2021-12-16T08:23:17.000Z</time>
      </trkpt>
      <trkpt lat="47.26588" lon="-2.33671">
        <ele>5.5999999046326</ele>
        <time>2021-12-16T08:23:18.000Z</time>
      </trkpt>
      <trkpt lat="47.2659" lon="-2.33675">
        <ele>6</ele>
        <time>2021-12-16T08:23:19.000Z</time>
      </trkpt>
      <trkpt lat="47.26593" lon="-2.33681">
        <ele>6</ele>
        <time>2021-12-16T08:23:22.000Z</time>
      </trkpt>
      <trkpt lat="47.26598" lon="-2.33686">
        <ele>6</ele>
        <time>2021-12-16T08:23:29.000Z</time>
      </trkpt>
      <trkpt lat="47.266" lon="-2.3369">
        <ele>6</ele>
        <time>2021-12-16T08:23:35.000Z</time>
      </trkpt>
      <trkpt lat="47.26601" lon="-2.33693">
        <ele>6</ele>
        <time>2021-12-16T08:23:40.000Z</time>
      </trkpt>
      <trkpt lat="47.26608" lon="-2.33705">
        <ele>6.4000000953674</ele>
        <time>2021-12-16T08:23:44.000Z</time>
      </trkpt>
      <trkpt lat="47.26611" lon="-2.33709">
        <ele>6.8000001907349</ele>
        <time>2021-12-16T08:23:45.000Z</time>
      </trkpt>
      <trkpt lat="47.26614" lon="-2.33713">
        <ele>7.1999998092651</ele>
        <time>2021-12-16T08:23:46.000Z</time>
      </trkpt>
      <trkpt lat="47.26617" lon="-2.33717">
        <ele>7.5999999046326</ele>
        <time>2021-12-16T08:23:47.000Z</time>
      </trkpt>
      <trkpt lat="47.26621" lon="-2.33722">
        <ele>8</ele>
        <time>2021-12-16T08:23:48.000Z</time>
      </trkpt>
      <trkpt lat="47.26627" lon="-2.33732">
        <ele>8</ele>
        <time>2021-12-16T08:23:50.000Z</time>
      </trkpt>
      <trkpt lat="47.2665" lon="-2.33771">
        <ele>8.8000001907349</ele>
        <time>2021-12-16T08:23:57.000Z</time>
      </trkpt>
      <trkpt lat="47.26653" lon="-2.33776">
        <ele>9.1999998092651</ele>
        <time>2021-12-16T08:23:58.000Z</time>
      </trkpt>
      <trkpt lat="47.26656" lon="-2.33783">
        <ele>9.6000003814697</ele>
        <time>2021-12-16T08:23:59.000Z</time>
      </trkpt>
      <trkpt lat="47.26659" lon="-2.33788">
        <ele>10</ele>
        <time>2021-12-16T08:24:00.000Z</time>
      </trkpt>
      <trkpt lat="47.26682" lon="-2.33825">
        <ele>10</ele>
        <time>2021-12-16T08:24:07.000Z</time>
      </trkpt>
      <trkpt lat="47.26705" lon="-2.33862">
        <ele>10</ele>
        <time>2021-12-16T08:24:14.000Z</time>
      </trkpt>
      <trkpt lat="47.26733" lon="-2.33906">
        <ele>10</ele>
        <time>2021-12-16T08:24:22.000Z</time>
      </trkpt>
      <trkpt lat="47.26743" lon="-2.33923">
        <ele>10.39999961853</ele>
        <time>2021-12-16T08:24:25.000Z</time>
      </trkpt>
      <trkpt lat="47.26746" lon="-2.33928">
        <ele>10.800000190735</ele>
        <time>2021-12-16T08:24:26.000Z</time>
      </trkpt>
      <trkpt lat="47.2675" lon="-2.33934">
        <ele>11.39999961853</ele>
        <time>2021-12-16T08:24:27.000Z</time>
      </trkpt>
      <trkpt lat="47.26753" lon="-2.33939">
        <ele>11.800000190735</ele>
        <time>2021-12-16T08:24:28.000Z</time>
      </trkpt>
      <trkpt lat="47.26756" lon="-2.33944">
        <ele>12.199999809265</ele>
        <time>2021-12-16T08:24:29.000Z</time>
      </trkpt>
      <trkpt lat="47.26759" lon="-2.33949">
        <ele>12.199999809265</ele>
        <time>2021-12-16T08:24:30.000Z</time>
      </trkpt>
      <trkpt lat="47.26779" lon="-2.3398">
        <ele>12.199999809265</ele>
        <time>2021-12-16T08:24:36.000Z</time>
      </trkpt>
      <trkpt lat="47.26807" lon="-2.34026">
        <ele>12.199999809265</ele>
        <time>2021-12-16T08:24:44.000Z</time>
      </trkpt>
      <trkpt lat="47.26831" lon="-2.34063">
        <ele>12.199999809265</ele>
        <time>2021-12-16T08:24:51.000Z</time>
      </trkpt>
      <trkpt lat="47.26851" lon="-2.34099">
        <ele>12.60000038147</ele>
        <time>2021-12-16T08:24:57.000Z</time>
      </trkpt>
      <trkpt lat="47.26855" lon="-2.34104">
        <ele>13</ele>
        <time>2021-12-16T08:24:58.000Z</time>
      </trkpt>
      <trkpt lat="47.26858" lon="-2.34109">
        <ele>13.39999961853</ele>
        <time>2021-12-16T08:24:59.000Z</time>
      </trkpt>
      <trkpt lat="47.26861" lon="-2.34115">
        <ele>13.800000190735</ele>
        <time>2021-12-16T08:25:00.000Z</time>
      </trkpt>
      <trkpt lat="47.26864" lon="-2.3412">
        <ele>14.199999809265</ele>
        <time>2021-12-16T08:25:01.000Z</time>
      </trkpt>
      <trkpt lat="47.26879" lon="-2.34142">
        <ele>14.199999809265</ele>
        <time>2021-12-16T08:25:05.000Z</time>
      </trkpt>
      <trkpt lat="47.26902" lon="-2.34176">
        <ele>14.199999809265</ele>
        <time>2021-12-16T08:25:11.000Z</time>
      </trkpt>
      <trkpt lat="47.26926" lon="-2.34213">
        <ele>14.199999809265</ele>
        <time>2021-12-16T08:25:18.000Z</time>
      </trkpt>
      <trkpt lat="47.26955" lon="-2.34257">
        <ele>14.199999809265</ele>
        <time>2021-12-16T08:25:26.000Z</time>
      </trkpt>
      <trkpt lat="47.26969" lon="-2.3428">
        <ele>14.199999809265</ele>
        <time>2021-12-16T08:25:30.000Z</time>
      </trkpt>
      <trkpt lat="47.26983" lon="-2.343">
        <ele>14.199999809265</ele>
        <time>2021-12-16T08:25:34.000Z</time>
      </trkpt>
      <trkpt lat="47.26987" lon="-2.34306">
        <ele>14.199999809265</ele>
        <time>2021-12-16T08:25:35.000Z</time>
      </trkpt>
      <trkpt lat="47.26994" lon="-2.3432">
        <ele>14.199999809265</ele>
        <time>2021-12-16T08:25:38.000Z</time>
      </trkpt>
      <trkpt lat="47.27006" lon="-2.34322">
        <ele>14.199999809265</ele>
        <time>2021-12-16T08:25:41.000Z</time>
      </trkpt>
      <trkpt lat="47.27032" lon="-2.34324">
        <ele>14.199999809265</ele>
        <time>2021-12-16T08:25:47.000Z</time>
      </trkpt>
      <trkpt lat="47.27036" lon="-2.34327">
        <ele>14.199999809265</ele>
        <time>2021-12-16T08:25:48.000Z</time>
      </trkpt>
      <trkpt lat="47.27043" lon="-2.34344">
        <ele>14.60000038147</ele>
        <time>2021-12-16T08:25:51.000Z</time>
      </trkpt>
      <trkpt lat="47.27045" lon="-2.34351">
        <ele>15</ele>
        <time>2021-12-16T08:25:52.000Z</time>
      </trkpt>
      <trkpt lat="47.27047" lon="-2.34358">
        <ele>15.39999961853</ele>
        <time>2021-12-16T08:25:53.000Z</time>
      </trkpt>
      <trkpt lat="47.27048" lon="-2.34365">
        <ele>15.800000190735</ele>
        <time>2021-12-16T08:25:54.000Z</time>
      </trkpt>
      <trkpt lat="47.2705" lon="-2.34372">
        <ele>16.200000762939</ele>
        <time>2021-12-16T08:25:55.000Z</time>
      </trkpt>
      <trkpt lat="47.27055" lon="-2.34394">
        <ele>16.200000762939</ele>
        <time>2021-12-16T08:25:58.000Z</time>
      </trkpt>
      <trkpt lat="47.27069" lon="-2.34454">
        <ele>16.200000762939</ele>
        <time>2021-12-16T08:26:06.000Z</time>
      </trkpt>
      <trkpt lat="47.2708" lon="-2.34507">
        <ele>16.200000762939</ele>
        <time>2021-12-16T08:26:13.000Z</time>
      </trkpt>
      <trkpt lat="47.27093" lon="-2.34559">
        <ele>16.200000762939</ele>
        <time>2021-12-16T08:26:20.000Z</time>
      </trkpt>
      <trkpt lat="47.27111" lon="-2.34631">
        <ele>16.200000762939</ele>
        <time>2021-12-16T08:26:29.000Z</time>
      </trkpt>
      <trkpt lat="47.27124" lon="-2.34691">
        <ele>16.200000762939</ele>
        <time>2021-12-16T08:26:36.000Z</time>
      </trkpt>
      <trkpt lat="47.27137" lon="-2.34749">
        <ele>16.200000762939</ele>
        <time>2021-12-16T08:26:43.000Z</time>
      </trkpt>
      <trkpt lat="47.2714" lon="-2.34765">
        <ele>16.60000038147</ele>
        <time>2021-12-16T08:26:45.000Z</time>
      </trkpt>
      <trkpt lat="47.27142" lon="-2.34773">
        <ele>17</ele>
        <time>2021-12-16T08:26:46.000Z</time>
      </trkpt>
      <trkpt lat="47.27144" lon="-2.34781">
        <ele>17.39999961853</ele>
        <time>2021-12-16T08:26:47.000Z</time>
      </trkpt>
      <trkpt lat="47.27146" lon="-2.34789">
        <ele>18.200000762939</ele>
        <time>2021-12-16T08:26:48.000Z</time>
      </trkpt>
      <trkpt lat="47.27151" lon="-2.34814">
        <ele>18.200000762939</ele>
        <time>2021-12-16T08:26:51.000Z</time>
      </trkpt>
      <trkpt lat="47.27162" lon="-2.3487">
        <ele>18.200000762939</ele>
        <time>2021-12-16T08:26:58.000Z</time>
      </trkpt>
      <trkpt lat="47.27179" lon="-2.3493">
        <ele>18.200000762939</ele>
        <time>2021-12-16T08:27:06.000Z</time>
      </trkpt>
      <trkpt lat="47.27191" lon="-2.34967">
        <ele>18.60000038147</ele>
        <time>2021-12-16T08:27:11.000Z</time>
      </trkpt>
      <trkpt lat="47.27193" lon="-2.34974">
        <ele>19</ele>
        <time>2021-12-16T08:27:12.000Z</time>
      </trkpt>
      <trkpt lat="47.27196" lon="-2.34982">
        <ele>19.799999237061</ele>
        <time>2021-12-16T08:27:13.000Z</time>
      </trkpt>
      <trkpt lat="47.27198" lon="-2.34989">
        <ele>20.200000762939</ele>
        <time>2021-12-16T08:27:14.000Z</time>
      </trkpt>
      <trkpt lat="47.27207" lon="-2.35016">
        <ele>20.200000762939</ele>
        <time>2021-12-16T08:27:18.000Z</time>
      </trkpt>
      <trkpt lat="47.27213" lon="-2.35031">
        <ele>20.200000762939</ele>
        <time>2021-12-16T08:27:20.000Z</time>
      </trkpt>
      <trkpt lat="47.27232" lon="-2.35084">
        <ele>20.200000762939</ele>
        <time>2021-12-16T08:27:27.000Z</time>
      </trkpt>
      <trkpt lat="47.27254" lon="-2.35126">
        <ele>20.200000762939</ele>
        <time>2021-12-16T08:27:34.000Z</time>
      </trkpt>
      <trkpt lat="47.27268" lon="-2.35121">
        <ele>20.200000762939</ele>
        <time>2021-12-16T08:27:37.000Z</time>
      </trkpt>
      <trkpt lat="47.27277" lon="-2.35115">
        <ele>20.60000038147</ele>
        <time>2021-12-16T08:27:39.000Z</time>
      </trkpt>
      <trkpt lat="47.27281" lon="-2.35112">
        <ele>21</ele>
        <time>2021-12-16T08:27:40.000Z</time>
      </trkpt>
      <trkpt lat="47.27285" lon="-2.3511">
        <ele>21.60000038147</ele>
        <time>2021-12-16T08:27:41.000Z</time>
      </trkpt>
      <trkpt lat="47.27289" lon="-2.35108">
        <ele>22</ele>
        <time>2021-12-16T08:27:42.000Z</time>
      </trkpt>
      <trkpt lat="47.27292" lon="-2.35107">
        <ele>22.39999961853</ele>
        <time>2021-12-16T08:27:43.000Z</time>
      </trkpt>
      <trkpt lat="47.27294" lon="-2.35106">
        <ele>22.39999961853</ele>
        <time>2021-12-16T08:27:44.000Z</time>
      </trkpt>
      <trkpt lat="47.27297" lon="-2.35105">
        <ele>22.39999961853</ele>
        <time>2021-12-16T08:27:46.000Z</time>
      </trkpt>
      <trkpt lat="47.27301" lon="-2.35105">
        <ele>22.39999961853</ele>
        <time>2021-12-16T08:27:49.000Z</time>
      </trkpt>
      <trkpt lat="47.27314" lon="-2.35098">
        <ele>22.799999237061</ele>
        <time>2021-12-16T08:27:54.000Z</time>
      </trkpt>
      <trkpt lat="47.27317" lon="-2.35096">
        <ele>23.200000762939</ele>
        <time>2021-12-16T08:27:55.000Z</time>
      </trkpt>
      <trkpt lat="47.2732" lon="-2.35094">
        <ele>23.799999237061</ele>
        <time>2021-12-16T08:27:56.000Z</time>
      </trkpt>
      <trkpt lat="47.27324" lon="-2.35093">
        <ele>24.200000762939</ele>
        <time>2021-12-16T08:27:57.000Z</time>
      </trkpt>
      <trkpt lat="47.27327" lon="-2.35091">
        <ele>24.60000038147</ele>
        <time>2021-12-16T08:27:58.000Z</time>
      </trkpt>
      <trkpt lat="47.27334" lon="-2.35089">
        <ele>24.60000038147</ele>
        <time>2021-12-16T08:28:00.000Z</time>
      </trkpt>
      <trkpt lat="47.27341" lon="-2.35086">
        <ele>25.39999961853</ele>
        <time>2021-12-16T08:28:02.000Z</time>
      </trkpt>
      <trkpt lat="47.27344" lon="-2.35084">
        <ele>25.799999237061</ele>
        <time>2021-12-16T08:28:03.000Z</time>
      </trkpt>
      <trkpt lat="47.27348" lon="-2.35082">
        <ele>26.39999961853</ele>
        <time>2021-12-16T08:28:04.000Z</time>
      </trkpt>
      <trkpt lat="47.27352" lon="-2.35079">
        <ele>26.799999237061</ele>
        <time>2021-12-16T08:28:05.000Z</time>
      </trkpt>
      <trkpt lat="47.27356" lon="-2.35077">
        <ele>26.799999237061</ele>
        <time>2021-12-16T08:28:06.000Z</time>
      </trkpt>
      <trkpt lat="47.27368" lon="-2.35069">
        <ele>27.200000762939</ele>
        <time>2021-12-16T08:28:09.000Z</time>
      </trkpt>
      <trkpt lat="47.27371" lon="-2.35067">
        <ele>27.60000038147</ele>
        <time>2021-12-16T08:28:10.000Z</time>
      </trkpt>
      <trkpt lat="47.27375" lon="-2.35064">
        <ele>28</ele>
        <time>2021-12-16T08:28:11.000Z</time>
      </trkpt>
      <trkpt lat="47.27378" lon="-2.35062">
        <ele>28.39999961853</ele>
        <time>2021-12-16T08:28:12.000Z</time>
      </trkpt>
      <trkpt lat="47.27382" lon="-2.35059">
        <ele>28.799999237061</ele>
        <time>2021-12-16T08:28:13.000Z</time>
      </trkpt>
      <trkpt lat="47.27401" lon="-2.35058">
        <ele>28.799999237061</ele>
        <time>2021-12-16T08:28:19.000Z</time>
      </trkpt>
      <trkpt lat="47.27407" lon="-2.3508">
        <ele>29.200000762939</ele>
        <time>2021-12-16T08:28:23.000Z</time>
      </trkpt>
      <trkpt lat="47.27409" lon="-2.35085">
        <ele>29.799999237061</ele>
        <time>2021-12-16T08:28:24.000Z</time>
      </trkpt>
      <trkpt lat="47.2741" lon="-2.35091">
        <ele>30.200000762939</ele>
        <time>2021-12-16T08:28:25.000Z</time>
      </trkpt>
      <trkpt lat="47.27412" lon="-2.35097">
        <ele>30.60000038147</ele>
        <time>2021-12-16T08:28:26.000Z</time>
      </trkpt>
      <trkpt lat="47.27413" lon="-2.35103">
        <ele>31</ele>
        <time>2021-12-16T08:28:27.000Z</time>
      </trkpt>
      <trkpt lat="47.27417" lon="-2.35121">
        <ele>31</ele>
        <time>2021-12-16T08:28:30.000Z</time>
      </trkpt>
      <trkpt lat="47.27428" lon="-2.35168">
        <ele>31</ele>
        <time>2021-12-16T08:28:38.000Z</time>
      </trkpt>
      <trkpt lat="47.27431" lon="-2.35173">
        <ele>31</ele>
        <time>2021-12-16T08:28:39.000Z</time>
      </trkpt>
      <trkpt lat="47.27438" lon="-2.35174">
        <ele>31</ele>
        <time>2021-12-16T08:28:41.000Z</time>
      </trkpt>
      <trkpt lat="47.27453" lon="-2.35163">
        <ele>31</ele>
        <time>2021-12-16T08:28:45.000Z</time>
      </trkpt>
      <trkpt lat="47.27457" lon="-2.35161">
        <ele>31</ele>
        <time>2021-12-16T08:28:46.000Z</time>
      </trkpt>
      <trkpt lat="47.2747" lon="-2.35153">
        <ele>31.39999961853</ele>
        <time>2021-12-16T08:28:50.000Z</time>
      </trkpt>
      <trkpt lat="47.27473" lon="-2.35152">
        <ele>31.799999237061</ele>
        <time>2021-12-16T08:28:51.000Z</time>
      </trkpt>
      <trkpt lat="47.27476" lon="-2.35149">
        <ele>32.599998474121</ele>
        <time>2021-12-16T08:28:52.000Z</time>
      </trkpt>
      <trkpt lat="47.2748" lon="-2.35148">
        <ele>33.200000762939</ele>
        <time>2021-12-16T08:28:53.000Z</time>
      </trkpt>
      <trkpt lat="47.27501" lon="-2.35135">
        <ele>33.200000762939</ele>
        <time>2021-12-16T08:28:59.000Z</time>
      </trkpt>
      <trkpt lat="47.27506" lon="-2.35129">
        <ele>33.200000762939</ele>
        <time>2021-12-16T08:29:01.000Z</time>
      </trkpt>
      <trkpt lat="47.27514" lon="-2.3513">
        <ele>33.200000762939</ele>
        <time>2021-12-16T08:29:03.000Z</time>
      </trkpt>
      <trkpt lat="47.27517" lon="-2.35132">
        <ele>33.599998474121</ele>
        <time>2021-12-16T08:29:04.000Z</time>
      </trkpt>
      <trkpt lat="47.27521" lon="-2.35134">
        <ele>34</ele>
        <time>2021-12-16T08:29:05.000Z</time>
      </trkpt>
      <trkpt lat="47.27525" lon="-2.35136">
        <ele>34.400001525879</ele>
        <time>2021-12-16T08:29:06.000Z</time>
      </trkpt>
      <trkpt lat="47.27529" lon="-2.35138">
        <ele>34.799999237061</ele>
        <time>2021-12-16T08:29:07.000Z</time>
      </trkpt>
      <trkpt lat="47.27533" lon="-2.35139">
        <ele>35.200000762939</ele>
        <time>2021-12-16T08:29:08.000Z</time>
      </trkpt>
      <trkpt lat="47.27558" lon="-2.35138">
        <ele>35.200000762939</ele>
        <time>2021-12-16T08:29:14.000Z</time>
      </trkpt>
      <trkpt lat="47.27587" lon="-2.35134">
        <ele>35.200000762939</ele>
        <time>2021-12-16T08:29:21.000Z</time>
      </trkpt>
      <trkpt lat="47.276" lon="-2.35134">
        <ele>35.200000762939</ele>
        <time>2021-12-16T08:29:24.000Z</time>
      </trkpt>
      <trkpt lat="47.27607" lon="-2.35142">
        <ele>35.200000762939</ele>
        <time>2021-12-16T08:29:26.000Z</time>
      </trkpt>
      <trkpt lat="47.2761" lon="-2.35163">
        <ele>35.200000762939</ele>
        <time>2021-12-16T08:29:29.000Z</time>
      </trkpt>
      <trkpt lat="47.27621" lon="-2.35175">
        <ele>35.200000762939</ele>
        <time>2021-12-16T08:29:32.000Z</time>
      </trkpt>
      <trkpt lat="47.27637" lon="-2.35172">
        <ele>35.200000762939</ele>
        <time>2021-12-16T08:29:35.000Z</time>
      </trkpt>
      <trkpt lat="47.27665" lon="-2.35172">
        <ele>35.200000762939</ele>
        <time>2021-12-16T08:29:40.000Z</time>
      </trkpt>
      <trkpt lat="47.2767" lon="-2.35176">
        <ele>35.200000762939</ele>
        <time>2021-12-16T08:29:41.000Z</time>
      </trkpt>
      <trkpt lat="47.27675" lon="-2.3519">
        <ele>34.799999237061</ele>
        <time>2021-12-16T08:29:43.000Z</time>
      </trkpt>
      <trkpt lat="47.27676" lon="-2.35198">
        <ele>34.400001525879</ele>
        <time>2021-12-16T08:29:44.000Z</time>
      </trkpt>
      <trkpt lat="47.27676" lon="-2.35206">
        <ele>34</ele>
        <time>2021-12-16T08:29:45.000Z</time>
      </trkpt>
      <trkpt lat="47.27677" lon="-2.35212">
        <ele>33.400001525879</ele>
        <time>2021-12-16T08:29:46.000Z</time>
      </trkpt>
      <trkpt lat="47.27678" lon="-2.35216">
        <ele>33</ele>
        <time>2021-12-16T08:29:47.000Z</time>
      </trkpt>
      <trkpt lat="47.27685" lon="-2.35219">
        <ele>33</ele>
        <time>2021-12-16T08:29:49.000Z</time>
      </trkpt>
      <trkpt lat="47.27701" lon="-2.35215">
        <ele>33</ele>
        <time>2021-12-16T08:29:52.000Z</time>
      </trkpt>
      <trkpt lat="47.27706" lon="-2.35214">
        <ele>33</ele>
        <time>2021-12-16T08:29:53.000Z</time>
      </trkpt>
      <trkpt lat="47.27741" lon="-2.35204">
        <ele>32.599998474121</ele>
        <time>2021-12-16T08:29:59.000Z</time>
      </trkpt>
      <trkpt lat="47.27747" lon="-2.35202">
        <ele>32.200000762939</ele>
        <time>2021-12-16T08:30:00.000Z</time>
      </trkpt>
      <trkpt lat="47.27752" lon="-2.35201">
        <ele>31.799999237061</ele>
        <time>2021-12-16T08:30:01.000Z</time>
      </trkpt>
      <trkpt lat="47.27758" lon="-2.352">
        <ele>31.39999961853</ele>
        <time>2021-12-16T08:30:02.000Z</time>
      </trkpt>
      <trkpt lat="47.27762" lon="-2.35199">
        <ele>31</ele>
        <time>2021-12-16T08:30:03.000Z</time>
      </trkpt>
      <trkpt lat="47.2777" lon="-2.352">
        <ele>31</ele>
        <time>2021-12-16T08:30:05.000Z</time>
      </trkpt>
      <trkpt lat="47.27776" lon="-2.35215">
        <ele>30.60000038147</ele>
        <time>2021-12-16T08:30:08.000Z</time>
      </trkpt>
      <trkpt lat="47.27778" lon="-2.35222">
        <ele>30.200000762939</ele>
        <time>2021-12-16T08:30:09.000Z</time>
      </trkpt>
      <trkpt lat="47.27779" lon="-2.35229">
        <ele>29.60000038147</ele>
        <time>2021-12-16T08:30:10.000Z</time>
      </trkpt>
      <trkpt lat="47.2778" lon="-2.35237">
        <ele>29.200000762939</ele>
        <time>2021-12-16T08:30:11.000Z</time>
      </trkpt>
      <trkpt lat="47.27782" lon="-2.35245">
        <ele>28.799999237061</ele>
        <time>2021-12-16T08:30:12.000Z</time>
      </trkpt>
      <trkpt lat="47.27785" lon="-2.35261">
        <ele>28.799999237061</ele>
        <time>2021-12-16T08:30:14.000Z</time>
      </trkpt>
      <trkpt lat="47.27797" lon="-2.35318">
        <ele>28.799999237061</ele>
        <time>2021-12-16T08:30:21.000Z</time>
      </trkpt>
      <trkpt lat="47.27809" lon="-2.35356">
        <ele>28.799999237061</ele>
        <time>2021-12-16T08:30:26.000Z</time>
      </trkpt>
      <trkpt lat="47.27812" lon="-2.35361">
        <ele>28.799999237061</ele>
        <time>2021-12-16T08:30:27.000Z</time>
      </trkpt>
      <trkpt lat="47.27827" lon="-2.35363">
        <ele>28.799999237061</ele>
        <time>2021-12-16T08:30:30.000Z</time>
      </trkpt>
      <trkpt lat="47.27832" lon="-2.35362">
        <ele>28.799999237061</ele>
        <time>2021-12-16T08:30:31.000Z</time>
      </trkpt>
      <trkpt lat="47.27862" lon="-2.35359">
        <ele>29.200000762939</ele>
        <time>2021-12-16T08:30:37.000Z</time>
      </trkpt>
      <trkpt lat="47.27867" lon="-2.35359">
        <ele>29.60000038147</ele>
        <time>2021-12-16T08:30:38.000Z</time>
      </trkpt>
      <trkpt lat="47.27871" lon="-2.35359">
        <ele>30.200000762939</ele>
        <time>2021-12-16T08:30:39.000Z</time>
      </trkpt>
      <trkpt lat="47.27875" lon="-2.35359">
        <ele>30.60000038147</ele>
        <time>2021-12-16T08:30:40.000Z</time>
      </trkpt>
      <trkpt lat="47.27879" lon="-2.35362">
        <ele>31</ele>
        <time>2021-12-16T08:30:41.000Z</time>
      </trkpt>
      <trkpt lat="47.27882" lon="-2.35366">
        <ele>31</ele>
        <time>2021-12-16T08:30:42.000Z</time>
      </trkpt>
      <trkpt lat="47.279" lon="-2.35399">
        <ele>31</ele>
        <time>2021-12-16T08:30:48.000Z</time>
      </trkpt>
      <trkpt lat="47.27925" lon="-2.35433">
        <ele>31</ele>
        <time>2021-12-16T08:30:55.000Z</time>
      </trkpt>
      <trkpt lat="47.27946" lon="-2.35455">
        <ele>31</ele>
        <time>2021-12-16T08:31:00.000Z</time>
      </trkpt>
      <trkpt lat="47.27955" lon="-2.35462">
        <ele>31</ele>
        <time>2021-12-16T08:31:02.000Z</time>
      </trkpt>
      <trkpt lat="47.27973" lon="-2.35475">
        <ele>31</ele>
        <time>2021-12-16T08:31:06.000Z</time>
      </trkpt>
      <trkpt lat="47.27981" lon="-2.35485">
        <ele>31</ele>
        <time>2021-12-16T08:31:08.000Z</time>
      </trkpt>
      <trkpt lat="47.27988" lon="-2.35497">
        <ele>31</ele>
        <time>2021-12-16T08:31:10.000Z</time>
      </trkpt>
      <trkpt lat="47.27996" lon="-2.35514">
        <ele>31</ele>
        <time>2021-12-16T08:31:13.000Z</time>
      </trkpt>
      <trkpt lat="47.28" lon="-2.35525">
        <ele>31.39999961853</ele>
        <time>2021-12-16T08:31:15.000Z</time>
      </trkpt>
      <trkpt lat="47.28002" lon="-2.35531">
        <ele>31.799999237061</ele>
        <time>2021-12-16T08:31:16.000Z</time>
      </trkpt>
      <trkpt lat="47.28003" lon="-2.35535">
        <ele>32.200000762939</ele>
        <time>2021-12-16T08:31:17.000Z</time>
      </trkpt>
      <trkpt lat="47.28004" lon="-2.3554">
        <ele>32.599998474121</ele>
        <time>2021-12-16T08:31:18.000Z</time>
      </trkpt>
      <trkpt lat="47.28005" lon="-2.35545">
        <ele>33</ele>
        <time>2021-12-16T08:31:19.000Z</time>
      </trkpt>
      <trkpt lat="47.28014" lon="-2.35566">
        <ele>33</ele>
        <time>2021-12-16T08:31:24.000Z</time>
      </trkpt>
      <trkpt lat="47.28021" lon="-2.35565">
        <ele>33.400001525879</ele>
        <time>2021-12-16T08:31:26.000Z</time>
      </trkpt>
      <trkpt lat="47.28024" lon="-2.35566">
        <ele>33.799999237061</ele>
        <time>2021-12-16T08:31:27.000Z</time>
      </trkpt>
      <trkpt lat="47.28028" lon="-2.35568">
        <ele>34.200000762939</ele>
        <time>2021-12-16T08:31:28.000Z</time>
      </trkpt>
      <trkpt lat="47.28032" lon="-2.3557">
        <ele>34.599998474121</ele>
        <time>2021-12-16T08:31:29.000Z</time>
      </trkpt>
      <trkpt lat="47.28035" lon="-2.35573">
        <ele>35</ele>
        <time>2021-12-16T08:31:30.000Z</time>
      </trkpt>
      <trkpt lat="47.28043" lon="-2.35574">
        <ele>35</ele>
        <time>2021-12-16T08:31:33.000Z</time>
      </trkpt>
      <trkpt lat="47.28058" lon="-2.35578">
        <ele>35</ele>
        <time>2021-12-16T08:31:39.000Z</time>
      </trkpt>
      <trkpt lat="47.2806" lon="-2.35578">
        <ele>35.400001525879</ele>
        <time>2021-12-16T08:31:40.000Z</time>
      </trkpt>
      <trkpt lat="47.28061" lon="-2.35578">
        <ele>35.799999237061</ele>
        <time>2021-12-16T08:31:41.000Z</time>
      </trkpt>
      <trkpt lat="47.28063" lon="-2.35579">
        <ele>36.200000762939</ele>
        <time>2021-12-16T08:31:42.000Z</time>
      </trkpt>
      <trkpt lat="47.28065" lon="-2.3558">
        <ele>36.599998474121</ele>
        <time>2021-12-16T08:31:43.000Z</time>
      </trkpt>
      <trkpt lat="47.28066" lon="-2.35582">
        <ele>37</ele>
        <time>2021-12-16T08:31:44.000Z</time>
      </trkpt>
      <trkpt lat="47.28068" lon="-2.35583">
        <ele>37</ele>
        <time>2021-12-16T08:31:45.000Z</time>
      </trkpt>
      <trkpt lat="47.28068" lon="-2.35585">
        <ele>37</ele>
        <time>2021-12-16T08:31:46.000Z</time>
      </trkpt>
      <trkpt lat="47.28068" lon="-2.35586">
        <ele>37</ele>
        <time>2021-12-16T08:31:49.000Z</time>
      </trkpt>
      <trkpt lat="47.28072" lon="-2.35595">
        <ele>45.200000762939</ele>
        <time>2021-12-16T08:37:26.000Z</time>
      </trkpt>
      <trkpt lat="47.28074" lon="-2.35601">
        <ele>45.200000762939</ele>
        <time>2021-12-16T08:37:29.000Z</time>
      </trkpt>
      <trkpt lat="47.28074" lon="-2.35611">
        <ele>45.200000762939</ele>
        <time>2021-12-16T08:37:33.000Z</time>
      </trkpt>
      <trkpt lat="47.28074" lon="-2.35622">
        <ele>45.200000762939</ele>
        <time>2021-12-16T08:37:36.000Z</time>
      </trkpt>
      <trkpt lat="47.28074" lon="-2.35626">
        <ele>45.599998474121</ele>
        <time>2021-12-16T08:37:37.000Z</time>
      </trkpt>
      <trkpt lat="47.28074" lon="-2.3563">
        <ele>46</ele>
        <time>2021-12-16T08:37:38.000Z</time>
      </trkpt>
      <trkpt lat="47.28075" lon="-2.35634">
        <ele>46.400001525879</ele>
        <time>2021-12-16T08:37:39.000Z</time>
      </trkpt>
      <trkpt lat="47.28075" lon="-2.35638">
        <ele>46.799999237061</ele>
        <time>2021-12-16T08:37:40.000Z</time>
      </trkpt>
      <trkpt lat="47.28076" lon="-2.35642">
        <ele>47.200000762939</ele>
        <time>2021-12-16T08:37:41.000Z</time>
      </trkpt>
      <trkpt lat="47.28077" lon="-2.35647">
        <ele>47.599998474121</ele>
        <time>2021-12-16T08:37:42.000Z</time>
      </trkpt>
      <trkpt lat="47.28078" lon="-2.35651">
        <ele>48</ele>
        <time>2021-12-16T08:37:43.000Z</time>
      </trkpt>
      <trkpt lat="47.2808" lon="-2.35655">
        <ele>48.599998474121</ele>
        <time>2021-12-16T08:37:44.000Z</time>
      </trkpt>
      <trkpt lat="47.28081" lon="-2.3566">
        <ele>49</ele>
        <time>2021-12-16T08:37:45.000Z</time>
      </trkpt>
      <trkpt lat="47.28082" lon="-2.35665">
        <ele>49.400001525879</ele>
        <time>2021-12-16T08:37:46.000Z</time>
      </trkpt>
      <trkpt lat="47.28086" lon="-2.35677">
        <ele>49.799999237061</ele>
        <time>2021-12-16T08:37:49.000Z</time>
      </trkpt>
      <trkpt lat="47.28087" lon="-2.35679">
        <ele>50.200000762939</ele>
        <time>2021-12-16T08:37:50.000Z</time>
      </trkpt>
      <trkpt lat="47.28088" lon="-2.35682">
        <ele>50.599998474121</ele>
        <time>2021-12-16T08:37:51.000Z</time>
      </trkpt>
      <trkpt lat="47.28089" lon="-2.35684">
        <ele>51</ele>
        <time>2021-12-16T08:37:52.000Z</time>
      </trkpt>
      <trkpt lat="47.28089" lon="-2.35688">
        <ele>51.400001525879</ele>
        <time>2021-12-16T08:37:53.000Z</time>
      </trkpt>
      <trkpt lat="47.2809" lon="-2.35692">
        <ele>51.400001525879</ele>
        <time>2021-12-16T08:37:54.000Z</time>
      </trkpt>
      <trkpt lat="47.28093" lon="-2.357">
        <ele>51.799999237061</ele>
        <time>2021-12-16T08:37:56.000Z</time>
      </trkpt>
      <trkpt lat="47.28093" lon="-2.35703">
        <ele>52.200000762939</ele>
        <time>2021-12-16T08:37:57.000Z</time>
      </trkpt>
      <trkpt lat="47.28094" lon="-2.35707">
        <ele>52.599998474121</ele>
        <time>2021-12-16T08:37:58.000Z</time>
      </trkpt>
      <trkpt lat="47.28094" lon="-2.3571">
        <ele>53</ele>
        <time>2021-12-16T08:37:59.000Z</time>
      </trkpt>
      <trkpt lat="47.28093" lon="-2.35713">
        <ele>53.400001525879</ele>
        <time>2021-12-16T08:38:00.000Z</time>
      </trkpt>
      <trkpt lat="47.28088" lon="-2.3574">
        <ele>53.400001525879</ele>
        <time>2021-12-16T08:38:05.000Z</time>
      </trkpt>
      <trkpt lat="47.28085" lon="-2.35757">
        <ele>53.400001525879</ele>
        <time>2021-12-16T08:38:07.000Z</time>
      </trkpt>
      <trkpt lat="47.28083" lon="-2.3577">
        <ele>53.400001525879</ele>
        <time>2021-12-16T08:38:09.000Z</time>
      </trkpt>
      <trkpt lat="47.28078" lon="-2.35785">
        <ele>53</ele>
        <time>2021-12-16T08:38:12.000Z</time>
      </trkpt>
      <trkpt lat="47.28077" lon="-2.35789">
        <ele>52.599998474121</ele>
        <time>2021-12-16T08:38:13.000Z</time>
      </trkpt>
      <trkpt lat="47.28076" lon="-2.35794">
        <ele>52.200000762939</ele>
        <time>2021-12-16T08:38:14.000Z</time>
      </trkpt>
      <trkpt lat="47.28076" lon="-2.35798">
        <ele>51.799999237061</ele>
        <time>2021-12-16T08:38:15.000Z</time>
      </trkpt>
      <trkpt lat="47.28077" lon="-2.358">
        <ele>51.400001525879</ele>
        <time>2021-12-16T08:38:16.000Z</time>
      </trkpt>
      <trkpt lat="47.28078" lon="-2.35802">
        <ele>51.400001525879</ele>
        <time>2021-12-16T08:38:17.000Z</time>
      </trkpt>
      <trkpt lat="47.28079" lon="-2.35804">
        <ele>51</ele>
        <time>2021-12-16T08:38:18.000Z</time>
      </trkpt>
      <trkpt lat="47.28081" lon="-2.35804">
        <ele>50.400001525879</ele>
        <time>2021-12-16T08:38:19.000Z</time>
      </trkpt>
      <trkpt lat="47.28082" lon="-2.35803">
        <ele>49.599998474121</ele>
        <time>2021-12-16T08:38:20.000Z</time>
      </trkpt>
      <trkpt lat="47.28084" lon="-2.35801">
        <ele>49.200000762939</ele>
        <time>2021-12-16T08:38:21.000Z</time>
      </trkpt>
      <trkpt lat="47.28088" lon="-2.35795">
        <ele>49.200000762939</ele>
        <time>2021-12-16T08:38:23.000Z</time>
      </trkpt>
      <trkpt lat="47.28101" lon="-2.35769">
        <ele>49.200000762939</ele>
        <time>2021-12-16T08:38:30.000Z</time>
      </trkpt>
      <trkpt lat="47.28113" lon="-2.35751">
        <ele>49.200000762939</ele>
        <time>2021-12-16T08:38:36.000Z</time>
      </trkpt>
      <trkpt lat="47.28124" lon="-2.35749">
        <ele>49.200000762939</ele>
        <time>2021-12-16T08:38:41.000Z</time>
      </trkpt>
      <trkpt lat="47.28132" lon="-2.35753">
        <ele>49.200000762939</ele>
        <time>2021-12-16T08:38:45.000Z</time>
      </trkpt>
      <trkpt lat="47.28133" lon="-2.35756">
        <ele>49.200000762939</ele>
        <time>2021-12-16T08:38:47.000Z</time>
      </trkpt>
      <trkpt lat="47.28133" lon="-2.35759">
        <ele>49.200000762939</ele>
        <time>2021-12-16T08:38:48.000Z</time>
      </trkpt>
      <trkpt lat="47.28133" lon="-2.35771">
        <ele>49.200000762939</ele>
        <time>2021-12-16T08:38:52.000Z</time>
      </trkpt>
      <trkpt lat="47.28133" lon="-2.35773">
        <ele>49.200000762939</ele>
        <time>2021-12-16T08:38:53.000Z</time>
      </trkpt>
      <trkpt lat="47.28134" lon="-2.35778">
        <ele>49.200000762939</ele>
        <time>2021-12-16T08:38:54.000Z</time>
      </trkpt>
      <trkpt lat="47.28138" lon="-2.35789">
        <ele>49.200000762939</ele>
        <time>2021-12-16T08:38:57.000Z</time>
      </trkpt>
      <trkpt lat="47.28142" lon="-2.35805">
        <ele>49.200000762939</ele>
        <time>2021-12-16T08:39:02.000Z</time>
      </trkpt>
      <trkpt lat="47.28144" lon="-2.35807">
        <ele>49.200000762939</ele>
        <time>2021-12-16T08:39:03.000Z</time>
      </trkpt>
      <trkpt lat="47.28151" lon="-2.35815">
        <ele>49.200000762939</ele>
        <time>2021-12-16T08:39:06.000Z</time>
      </trkpt>
      <trkpt lat="47.28155" lon="-2.35819">
        <ele>49.200000762939</ele>
        <time>2021-12-16T08:39:08.000Z</time>
      </trkpt>
      <trkpt lat="47.28157" lon="-2.35821">
        <ele>50</ele>
        <time>2021-12-16T08:39:09.000Z</time>
      </trkpt>
      <trkpt lat="47.28159" lon="-2.35823">
        <ele>50.400001525879</ele>
        <time>2021-12-16T08:39:10.000Z</time>
      </trkpt>
      <trkpt lat="47.2816" lon="-2.35823">
        <ele>51</ele>
        <time>2021-12-16T08:39:11.000Z</time>
      </trkpt>
      <trkpt lat="47.28162" lon="-2.35825">
        <ele>51.400001525879</ele>
        <time>2021-12-16T08:39:12.000Z</time>
      </trkpt>
      <trkpt lat="47.28164" lon="-2.35827">
        <ele>51.400001525879</ele>
        <time>2021-12-16T08:39:13.000Z</time>
      </trkpt>
      <trkpt lat="47.28165" lon="-2.35829">
        <ele>51.400001525879</ele>
        <time>2021-12-16T08:39:14.000Z</time>
      </trkpt>
      <trkpt lat="47.28171" lon="-2.35845">
        <ele>51.400001525879</ele>
        <time>2021-12-16T08:39:20.000Z</time>
      </trkpt>
      <trkpt lat="47.28174" lon="-2.35873">
        <ele>51.400001525879</ele>
        <time>2021-12-16T08:39:28.000Z</time>
      </trkpt>
      <trkpt lat="47.28173" lon="-2.35876">
        <ele>51.400001525879</ele>
        <time>2021-12-16T08:39:30.000Z</time>
      </trkpt>
      <trkpt lat="47.28173" lon="-2.35916">
        <ele>51.400001525879</ele>
        <time>2021-12-16T08:39:56.000Z</time>
      </trkpt>
      <trkpt lat="47.28174" lon="-2.35925">
        <ele>51.400001525879</ele>
        <time>2021-12-16T08:39:58.000Z</time>
      </trkpt>
      <trkpt lat="47.28181" lon="-2.35957">
        <ele>51.400001525879</ele>
        <time>2021-12-16T08:40:04.000Z</time>
      </trkpt>
      <trkpt lat="47.28184" lon="-2.35978">
        <ele>51</ele>
        <time>2021-12-16T08:40:07.000Z</time>
      </trkpt>
      <trkpt lat="47.28186" lon="-2.35983">
        <ele>50.599998474121</ele>
        <time>2021-12-16T08:40:08.000Z</time>
      </trkpt>
      <trkpt lat="47.2819" lon="-2.35988">
        <ele>50</ele>
        <time>2021-12-16T08:40:09.000Z</time>
      </trkpt>
      <trkpt lat="47.28192" lon="-2.35994">
        <ele>49.599998474121</ele>
        <time>2021-12-16T08:40:10.000Z</time>
      </trkpt>
      <trkpt lat="47.28195" lon="-2.35999">
        <ele>49.200000762939</ele>
        <time>2021-12-16T08:40:11.000Z</time>
      </trkpt>
      <trkpt lat="47.28203" lon="-2.36013">
        <ele>49.200000762939</ele>
        <time>2021-12-16T08:40:14.000Z</time>
      </trkpt>
      <trkpt lat="47.28207" lon="-2.36023">
        <ele>49.200000762939</ele>
        <time>2021-12-16T08:40:18.000Z</time>
      </trkpt>
      <trkpt lat="47.28208" lon="-2.36024">
        <ele>49.200000762939</ele>
        <time>2021-12-16T08:40:19.000Z</time>
      </trkpt>
      <trkpt lat="47.28215" lon="-2.36031">
        <ele>49.200000762939</ele>
        <time>2021-12-16T08:40:23.000Z</time>
      </trkpt>
      <trkpt lat="47.28223" lon="-2.36035">
        <ele>49.200000762939</ele>
        <time>2021-12-16T08:40:29.000Z</time>
      </trkpt>
      <trkpt lat="47.28232" lon="-2.36028">
        <ele>49.200000762939</ele>
        <time>2021-12-16T08:40:37.000Z</time>
      </trkpt>
      <trkpt lat="47.28239" lon="-2.36023">
        <ele>49.200000762939</ele>
        <time>2021-12-16T08:40:40.000Z</time>
      </trkpt>
      <trkpt lat="47.28251" lon="-2.3602">
        <ele>49.599998474121</ele>
        <time>2021-12-16T08:40:45.000Z</time>
      </trkpt>
      <trkpt lat="47.28253" lon="-2.36019">
        <ele>50</ele>
        <time>2021-12-16T08:40:46.000Z</time>
      </trkpt>
      <trkpt lat="47.28255" lon="-2.36019">
        <ele>50.599998474121</ele>
        <time>2021-12-16T08:40:47.000Z</time>
      </trkpt>
      <trkpt lat="47.28257" lon="-2.36018">
        <ele>51.400001525879</ele>
        <time>2021-12-16T08:40:48.000Z</time>
      </trkpt>
      <trkpt lat="47.28267" lon="-2.36006">
        <ele>51.400001525879</ele>
        <time>2021-12-16T08:40:53.000Z</time>
      </trkpt>
      <trkpt lat="47.28282" lon="-2.35989">
        <ele>51.400001525879</ele>
        <time>2021-12-16T08:40:59.000Z</time>
      </trkpt>
      <trkpt lat="47.28285" lon="-2.35986">
        <ele>51.799999237061</ele>
        <time>2021-12-16T08:41:00.000Z</time>
      </trkpt>
      <trkpt lat="47.28288" lon="-2.35984">
        <ele>52.200000762939</ele>
        <time>2021-12-16T08:41:01.000Z</time>
      </trkpt>
      <trkpt lat="47.28291" lon="-2.35982">
        <ele>52.599998474121</ele>
        <time>2021-12-16T08:41:02.000Z</time>
      </trkpt>
      <trkpt lat="47.28293" lon="-2.35979">
        <ele>53</ele>
        <time>2021-12-16T08:41:03.000Z</time>
      </trkpt>
      <trkpt lat="47.28296" lon="-2.35977">
        <ele>53.400001525879</ele>
        <time>2021-12-16T08:41:04.000Z</time>
      </trkpt>
      <trkpt lat="47.28301" lon="-2.35972">
        <ele>53.400001525879</ele>
        <time>2021-12-16T08:41:06.000Z</time>
      </trkpt>
      <trkpt lat="47.2831" lon="-2.35956">
        <ele>53.400001525879</ele>
        <time>2021-12-16T08:41:11.000Z</time>
      </trkpt>
      <trkpt lat="47.28318" lon="-2.3594">
        <ele>53.799999237061</ele>
        <time>2021-12-16T08:41:16.000Z</time>
      </trkpt>
      <trkpt lat="47.2832" lon="-2.35937">
        <ele>54.200000762939</ele>
        <time>2021-12-16T08:41:17.000Z</time>
      </trkpt>
      <trkpt lat="47.28321" lon="-2.35935">
        <ele>54.599998474121</ele>
        <time>2021-12-16T08:41:18.000Z</time>
      </trkpt>
      <trkpt lat="47.28322" lon="-2.35933">
        <ele>55</ele>
        <time>2021-12-16T08:41:19.000Z</time>
      </trkpt>
      <trkpt lat="47.28324" lon="-2.3593">
        <ele>55.400001525879</ele>
        <time>2021-12-16T08:41:20.000Z</time>
      </trkpt>
      <trkpt lat="47.28335" lon="-2.3592">
        <ele>55.400001525879</ele>
        <time>2021-12-16T08:41:26.000Z</time>
      </trkpt>
      <trkpt lat="47.28339" lon="-2.35917">
        <ele>55.799999237061</ele>
        <time>2021-12-16T08:41:28.000Z</time>
      </trkpt>
      <trkpt lat="47.28342" lon="-2.35915">
        <ele>56.200000762939</ele>
        <time>2021-12-16T08:41:29.000Z</time>
      </trkpt>
      <trkpt lat="47.28344" lon="-2.35913">
        <ele>56.599998474121</ele>
        <time>2021-12-16T08:41:30.000Z</time>
      </trkpt>
      <trkpt lat="47.28345" lon="-2.35911">
        <ele>57.200000762939</ele>
        <time>2021-12-16T08:41:31.000Z</time>
      </trkpt>
      <trkpt lat="47.28347" lon="-2.3591">
        <ele>57.599998474121</ele>
        <time>2021-12-16T08:41:32.000Z</time>
      </trkpt>
      <trkpt lat="47.2835" lon="-2.35909">
        <ele>57.599998474121</ele>
        <time>2021-12-16T08:41:33.000Z</time>
      </trkpt>
      <trkpt lat="47.28364" lon="-2.35897">
        <ele>57.599998474121</ele>
        <time>2021-12-16T08:41:39.000Z</time>
      </trkpt>
      <trkpt lat="47.2838" lon="-2.35883">
        <ele>57.599998474121</ele>
        <time>2021-12-16T08:41:45.000Z</time>
      </trkpt>
      <trkpt lat="47.28396" lon="-2.35874">
        <ele>57.599998474121</ele>
        <time>2021-12-16T08:41:51.000Z</time>
      </trkpt>
      <trkpt lat="47.28401" lon="-2.35871">
        <ele>58</ele>
        <time>2021-12-16T08:41:53.000Z</time>
      </trkpt>
      <trkpt lat="47.28403" lon="-2.35869">
        <ele>58.400001525879</ele>
        <time>2021-12-16T08:41:54.000Z</time>
      </trkpt>
      <trkpt lat="47.28405" lon="-2.35868">
        <ele>58.799999237061</ele>
        <time>2021-12-16T08:41:55.000Z</time>
      </trkpt>
      <trkpt lat="47.28408" lon="-2.35867">
        <ele>59.200000762939</ele>
        <time>2021-12-16T08:41:56.000Z</time>
      </trkpt>
      <trkpt lat="47.2841" lon="-2.35865">
        <ele>59.599998474121</ele>
        <time>2021-12-16T08:41:57.000Z</time>
      </trkpt>
      <trkpt lat="47.28431" lon="-2.35855">
        <ele>59.599998474121</ele>
        <time>2021-12-16T08:42:04.000Z</time>
      </trkpt>
      <trkpt lat="47.28445" lon="-2.35846">
        <ele>59.599998474121</ele>
        <time>2021-12-16T08:42:10.000Z</time>
      </trkpt>
      <trkpt lat="47.28462" lon="-2.35836">
        <ele>59.599998474121</ele>
        <time>2021-12-16T08:42:18.000Z</time>
      </trkpt>
      <trkpt lat="47.28471" lon="-2.35828">
        <ele>59.599998474121</ele>
        <time>2021-12-16T08:42:23.000Z</time>
      </trkpt>
      <trkpt lat="47.28473" lon="-2.35824">
        <ele>59.599998474121</ele>
        <time>2021-12-16T08:42:25.000Z</time>
      </trkpt>
      <trkpt lat="47.28481" lon="-2.35822">
        <ele>59.599998474121</ele>
        <time>2021-12-16T08:42:29.000Z</time>
      </trkpt>
      <trkpt lat="47.28496" lon="-2.35829">
        <ele>59.599998474121</ele>
        <time>2021-12-16T08:42:34.000Z</time>
      </trkpt>
      <trkpt lat="47.28505" lon="-2.35832">
        <ele>60</ele>
        <time>2021-12-16T08:42:37.000Z</time>
      </trkpt>
      <trkpt lat="47.28509" lon="-2.35833">
        <ele>60.400001525879</ele>
        <time>2021-12-16T08:42:38.000Z</time>
      </trkpt>
      <trkpt lat="47.28512" lon="-2.35834">
        <ele>60.799999237061</ele>
        <time>2021-12-16T08:42:39.000Z</time>
      </trkpt>
      <trkpt lat="47.28516" lon="-2.35834">
        <ele>61.200000762939</ele>
        <time>2021-12-16T08:42:40.000Z</time>
      </trkpt>
      <trkpt lat="47.28519" lon="-2.35835">
        <ele>61.599998474121</ele>
        <time>2021-12-16T08:42:41.000Z</time>
      </trkpt>
      <trkpt lat="47.28533" lon="-2.35841">
        <ele>61.599998474121</ele>
        <time>2021-12-16T08:42:46.000Z</time>
      </trkpt>
      <trkpt lat="47.28542" lon="-2.35842">
        <ele>61.599998474121</ele>
        <time>2021-12-16T08:42:51.000Z</time>
      </trkpt>
      <trkpt lat="47.28545" lon="-2.35843">
        <ele>61.599998474121</ele>
        <time>2021-12-16T08:42:53.000Z</time>
      </trkpt>
      <trkpt lat="47.28555" lon="-2.35851">
        <ele>61.599998474121</ele>
        <time>2021-12-16T08:42:56.000Z</time>
      </trkpt>
      <trkpt lat="47.28559" lon="-2.35854">
        <ele>61.599998474121</ele>
        <time>2021-12-16T08:42:57.000Z</time>
      </trkpt>
      <trkpt lat="47.28576" lon="-2.35875">
        <ele>61.599998474121</ele>
        <time>2021-12-16T08:43:01.000Z</time>
      </trkpt>
      <trkpt lat="47.28585" lon="-2.35902">
        <ele>61.599998474121</ele>
        <time>2021-12-16T08:43:06.000Z</time>
      </trkpt>
      <trkpt lat="47.28596" lon="-2.35926">
        <ele>62</ele>
        <time>2021-12-16T08:43:10.000Z</time>
      </trkpt>
      <trkpt lat="47.28599" lon="-2.35932">
        <ele>62.400001525879</ele>
        <time>2021-12-16T08:43:11.000Z</time>
      </trkpt>
      <trkpt lat="47.28602" lon="-2.35937">
        <ele>62.799999237061</ele>
        <time>2021-12-16T08:43:12.000Z</time>
      </trkpt>
      <trkpt lat="47.28606" lon="-2.35941">
        <ele>63.400001525879</ele>
        <time>2021-12-16T08:43:13.000Z</time>
      </trkpt>
      <trkpt lat="47.28611" lon="-2.35946">
        <ele>63.799999237061</ele>
        <time>2021-12-16T08:43:14.000Z</time>
      </trkpt>
      <trkpt lat="47.2862" lon="-2.35953">
        <ele>63.799999237061</ele>
        <time>2021-12-16T08:43:16.000Z</time>
      </trkpt>
      <trkpt lat="47.28646" lon="-2.35957">
        <ele>63.799999237061</ele>
        <time>2021-12-16T08:43:21.000Z</time>
      </trkpt>
      <trkpt lat="47.28666" lon="-2.35961">
        <ele>63.799999237061</ele>
        <time>2021-12-16T08:43:25.000Z</time>
      </trkpt>
      <trkpt lat="47.28676" lon="-2.35966">
        <ele>63.799999237061</ele>
        <time>2021-12-16T08:43:27.000Z</time>
      </trkpt>
      <trkpt lat="47.28685" lon="-2.35986">
        <ele>63.799999237061</ele>
        <time>2021-12-16T08:43:30.000Z</time>
      </trkpt>
      <trkpt lat="47.28688" lon="-2.35993">
        <ele>63.799999237061</ele>
        <time>2021-12-16T08:43:31.000Z</time>
      </trkpt>
      <trkpt lat="47.28707" lon="-2.36039">
        <ele>64.199996948242</ele>
        <time>2021-12-16T08:43:38.000Z</time>
      </trkpt>
      <trkpt lat="47.28709" lon="-2.36046">
        <ele>64.599998474121</ele>
        <time>2021-12-16T08:43:39.000Z</time>
      </trkpt>
      <trkpt lat="47.28712" lon="-2.36052">
        <ele>65</ele>
        <time>2021-12-16T08:43:40.000Z</time>
      </trkpt>
      <trkpt lat="47.28714" lon="-2.36059">
        <ele>65.800003051758</ele>
        <time>2021-12-16T08:43:41.000Z</time>
      </trkpt>
      <trkpt lat="47.2873" lon="-2.36099">
        <ele>65.800003051758</ele>
        <time>2021-12-16T08:43:47.000Z</time>
      </trkpt>
      <trkpt lat="47.28736" lon="-2.36119">
        <ele>65.800003051758</ele>
        <time>2021-12-16T08:43:50.000Z</time>
      </trkpt>
      <trkpt lat="47.28742" lon="-2.3614">
        <ele>65.800003051758</ele>
        <time>2021-12-16T08:43:53.000Z</time>
      </trkpt>
      <trkpt lat="47.28753" lon="-2.36191">
        <ele>65.800003051758</ele>
        <time>2021-12-16T08:44:00.000Z</time>
      </trkpt>
      <trkpt lat="47.2876" lon="-2.36215">
        <ele>65.800003051758</ele>
        <time>2021-12-16T08:44:05.000Z</time>
      </trkpt>
      <trkpt lat="47.28769" lon="-2.36234">
        <ele>65.800003051758</ele>
        <time>2021-12-16T08:44:09.000Z</time>
      </trkpt>
      <trkpt lat="47.28775" lon="-2.36243">
        <ele>65.800003051758</ele>
        <time>2021-12-16T08:44:11.000Z</time>
      </trkpt>
      <trkpt lat="47.28789" lon="-2.3626">
        <ele>65.800003051758</ele>
        <time>2021-12-16T08:44:15.000Z</time>
      </trkpt>
      <trkpt lat="47.28793" lon="-2.36264">
        <ele>65.800003051758</ele>
        <time>2021-12-16T08:44:16.000Z</time>
      </trkpt>
      <trkpt lat="47.28823" lon="-2.3629">
        <ele>65.800003051758</ele>
        <time>2021-12-16T08:44:22.000Z</time>
      </trkpt>
      <trkpt lat="47.28835" lon="-2.36304">
        <ele>65.800003051758</ele>
        <time>2021-12-16T08:44:24.000Z</time>
      </trkpt>
      <trkpt lat="47.28842" lon="-2.36317">
        <ele>65.800003051758</ele>
        <time>2021-12-16T08:44:26.000Z</time>
      </trkpt>
      <trkpt lat="47.28844" lon="-2.36323">
        <ele>65.800003051758</ele>
        <time>2021-12-16T08:44:27.000Z</time>
      </trkpt>
      <trkpt lat="47.28843" lon="-2.36335">
        <ele>65.800003051758</ele>
        <time>2021-12-16T08:44:29.000Z</time>
      </trkpt>
      <trkpt lat="47.28831" lon="-2.36354">
        <ele>65.800003051758</ele>
        <time>2021-12-16T08:44:33.000Z</time>
      </trkpt>
      <trkpt lat="47.28829" lon="-2.36358">
        <ele>65.800003051758</ele>
        <time>2021-12-16T08:44:34.000Z</time>
      </trkpt>
      <trkpt lat="47.28819" lon="-2.36376">
        <ele>66.400001525879</ele>
        <time>2021-12-16T08:44:38.000Z</time>
      </trkpt>
      <trkpt lat="47.28816" lon="-2.3638">
        <ele>66.800003051758</ele>
        <time>2021-12-16T08:44:39.000Z</time>
      </trkpt>
      <trkpt lat="47.28814" lon="-2.36384">
        <ele>67.199996948242</ele>
        <time>2021-12-16T08:44:40.000Z</time>
      </trkpt>
      <trkpt lat="47.28812" lon="-2.36388">
        <ele>67.599998474121</ele>
        <time>2021-12-16T08:44:41.000Z</time>
      </trkpt>
      <trkpt lat="47.2881" lon="-2.36392">
        <ele>68</ele>
        <time>2021-12-16T08:44:42.000Z</time>
      </trkpt>
      <trkpt lat="47.28805" lon="-2.36404">
        <ele>68</ele>
        <time>2021-12-16T08:44:46.000Z</time>
      </trkpt>
      <trkpt lat="47.28808" lon="-2.36412">
        <ele>68</ele>
        <time>2021-12-16T08:44:50.000Z</time>
      </trkpt>
      <trkpt lat="47.2881" lon="-2.36412">
        <ele>68.400001525879</ele>
        <time>2021-12-16T08:44:51.000Z</time>
      </trkpt>
      <trkpt lat="47.28812" lon="-2.36411">
        <ele>68.800003051758</ele>
        <time>2021-12-16T08:44:52.000Z</time>
      </trkpt>
      <trkpt lat="47.28814" lon="-2.3641">
        <ele>69.199996948242</ele>
        <time>2021-12-16T08:44:53.000Z</time>
      </trkpt>
      <trkpt lat="47.28816" lon="-2.36409">
        <ele>69.599998474121</ele>
        <time>2021-12-16T08:44:54.000Z</time>
      </trkpt>
      <trkpt lat="47.28818" lon="-2.36408">
        <ele>70</ele>
        <time>2021-12-16T08:44:55.000Z</time>
      </trkpt>
      <trkpt lat="47.28822" lon="-2.36404">
        <ele>70</ele>
        <time>2021-12-16T08:44:57.000Z</time>
      </trkpt>
      <trkpt lat="47.2883" lon="-2.36402">
        <ele>70</ele>
        <time>2021-12-16T08:45:01.000Z</time>
      </trkpt>
      <trkpt lat="47.28833" lon="-2.36405">
        <ele>70</ele>
        <time>2021-12-16T08:45:02.000Z</time>
      </trkpt>
      <trkpt lat="47.28837" lon="-2.36415">
        <ele>70</ele>
        <time>2021-12-16T08:45:04.000Z</time>
      </trkpt>
      <trkpt lat="47.28844" lon="-2.36436">
        <ele>69.599998474121</ele>
        <time>2021-12-16T08:45:07.000Z</time>
      </trkpt>
      <trkpt lat="47.28847" lon="-2.36444">
        <ele>69.199996948242</ele>
        <time>2021-12-16T08:45:08.000Z</time>
      </trkpt>
      <trkpt lat="47.28851" lon="-2.36454">
        <ele>68.599998474121</ele>
        <time>2021-12-16T08:45:09.000Z</time>
      </trkpt>
      <trkpt lat="47.28852" lon="-2.36463">
        <ele>68.199996948242</ele>
        <time>2021-12-16T08:45:10.000Z</time>
      </trkpt>
      <trkpt lat="47.28853" lon="-2.36471">
        <ele>67.599998474121</ele>
        <time>2021-12-16T08:45:11.000Z</time>
      </trkpt>
      <trkpt lat="47.28854" lon="-2.36479">
        <ele>67</ele>
        <time>2021-12-16T08:45:12.000Z</time>
      </trkpt>
      <trkpt lat="47.28855" lon="-2.36485">
        <ele>66.599998474121</ele>
        <time>2021-12-16T08:45:13.000Z</time>
      </trkpt>
      <trkpt lat="47.28856" lon="-2.36491">
        <ele>66</ele>
        <time>2021-12-16T08:45:14.000Z</time>
      </trkpt>
      <trkpt lat="47.28858" lon="-2.36499">
        <ele>65.400001525879</ele>
        <time>2021-12-16T08:45:15.000Z</time>
      </trkpt>
      <trkpt lat="47.28861" lon="-2.36506">
        <ele>65</ele>
        <time>2021-12-16T08:45:16.000Z</time>
      </trkpt>
      <trkpt lat="47.28864" lon="-2.36515">
        <ele>64.599998474121</ele>
        <time>2021-12-16T08:45:17.000Z</time>
      </trkpt>
      <trkpt lat="47.28867" lon="-2.36524">
        <ele>64.199996948242</ele>
        <time>2021-12-16T08:45:18.000Z</time>
      </trkpt>
      <trkpt lat="47.28867" lon="-2.36531">
        <ele>63.799999237061</ele>
        <time>2021-12-16T08:45:19.000Z</time>
      </trkpt>
      <trkpt lat="47.28867" lon="-2.36539">
        <ele>62.799999237061</ele>
        <time>2021-12-16T08:45:20.000Z</time>
      </trkpt>
      <trkpt lat="47.28866" lon="-2.36546">
        <ele>62.400001525879</ele>
        <time>2021-12-16T08:45:21.000Z</time>
      </trkpt>
      <trkpt lat="47.28864" lon="-2.36552">
        <ele>61.799999237061</ele>
        <time>2021-12-16T08:45:22.000Z</time>
      </trkpt>
      <trkpt lat="47.28861" lon="-2.36561">
        <ele>61.400001525879</ele>
        <time>2021-12-16T08:45:23.000Z</time>
      </trkpt>
      <trkpt lat="47.28849" lon="-2.36592">
        <ele>61.400001525879</ele>
        <time>2021-12-16T08:45:27.000Z</time>
      </trkpt>
      <trkpt lat="47.28846" lon="-2.36598">
        <ele>61.400001525879</ele>
        <time>2021-12-16T08:45:28.000Z</time>
      </trkpt>
      <trkpt lat="47.28836" lon="-2.3662">
        <ele>61.400001525879</ele>
        <time>2021-12-16T08:45:32.000Z</time>
      </trkpt>
      <trkpt lat="47.28831" lon="-2.36628">
        <ele>61.400001525879</ele>
        <time>2021-12-16T08:45:34.000Z</time>
      </trkpt>
      <trkpt lat="47.28826" lon="-2.36629">
        <ele>61.400001525879</ele>
        <time>2021-12-16T08:45:36.000Z</time>
      </trkpt>
      <trkpt lat="47.28818" lon="-2.3662">
        <ele>61.400001525879</ele>
        <time>2021-12-16T08:45:40.000Z</time>
      </trkpt>
      <trkpt lat="47.28816" lon="-2.36608">
        <ele>61.400001525879</ele>
        <time>2021-12-16T08:45:43.000Z</time>
      </trkpt>
      <trkpt lat="47.28813" lon="-2.36601">
        <ele>61.799999237061</ele>
        <time>2021-12-16T08:45:45.000Z</time>
      </trkpt>
      <trkpt lat="47.28811" lon="-2.36597">
        <ele>62.200000762939</ele>
        <time>2021-12-16T08:45:46.000Z</time>
      </trkpt>
      <trkpt lat="47.2881" lon="-2.36594">
        <ele>62.599998474121</ele>
        <time>2021-12-16T08:45:47.000Z</time>
      </trkpt>
      <trkpt lat="47.28809" lon="-2.36592">
        <ele>63.200000762939</ele>
        <time>2021-12-16T08:45:48.000Z</time>
      </trkpt>
      <trkpt lat="47.28808" lon="-2.36589">
        <ele>63.599998474121</ele>
        <time>2021-12-16T08:45:49.000Z</time>
      </trkpt>
      <trkpt lat="47.28806" lon="-2.36581">
        <ele>63.599998474121</ele>
        <time>2021-12-16T08:45:52.000Z</time>
      </trkpt>
      <trkpt lat="47.28798" lon="-2.36579">
        <ele>63.599998474121</ele>
        <time>2021-12-16T08:45:56.000Z</time>
      </trkpt>
      <trkpt lat="47.28792" lon="-2.36586">
        <ele>63.599998474121</ele>
        <time>2021-12-16T08:46:00.000Z</time>
      </trkpt>
      <trkpt lat="47.28788" lon="-2.3659">
        <ele>63.599998474121</ele>
        <time>2021-12-16T08:46:02.000Z</time>
      </trkpt>
      <trkpt lat="47.28778" lon="-2.36609">
        <ele>63.599998474121</ele>
        <time>2021-12-16T08:46:07.000Z</time>
      </trkpt>
      <trkpt lat="47.2876" lon="-2.36639">
        <ele>63.599998474121</ele>
        <time>2021-12-16T08:46:15.000Z</time>
      </trkpt>
      <trkpt lat="47.28743" lon="-2.36666">
        <ele>63.599998474121</ele>
        <time>2021-12-16T08:46:19.000Z</time>
      </trkpt>
      <trkpt lat="47.2873" lon="-2.36691">
        <ele>63.200000762939</ele>
        <time>2021-12-16T08:46:22.000Z</time>
      </trkpt>
      <trkpt lat="47.28725" lon="-2.367">
        <ele>62.799999237061</ele>
        <time>2021-12-16T08:46:23.000Z</time>
      </trkpt>
      <trkpt lat="47.2872" lon="-2.36709">
        <ele>62.200000762939</ele>
        <time>2021-12-16T08:46:24.000Z</time>
      </trkpt>
      <trkpt lat="47.28715" lon="-2.36717">
        <ele>61.799999237061</ele>
        <time>2021-12-16T08:46:25.000Z</time>
      </trkpt>
      <trkpt lat="47.2871" lon="-2.36723">
        <ele>61.400001525879</ele>
        <time>2021-12-16T08:46:26.000Z</time>
      </trkpt>
      <trkpt lat="47.28694" lon="-2.36743">
        <ele>61.400001525879</ele>
        <time>2021-12-16T08:46:29.000Z</time>
      </trkpt>
      <trkpt lat="47.2869" lon="-2.3675">
        <ele>61</ele>
        <time>2021-12-16T08:46:30.000Z</time>
      </trkpt>
      <trkpt lat="47.28686" lon="-2.36756">
        <ele>60.400001525879</ele>
        <time>2021-12-16T08:46:31.000Z</time>
      </trkpt>
      <trkpt lat="47.28683" lon="-2.36762">
        <ele>60</ele>
        <time>2021-12-16T08:46:32.000Z</time>
      </trkpt>
      <trkpt lat="47.2868" lon="-2.36768">
        <ele>59.599998474121</ele>
        <time>2021-12-16T08:46:33.000Z</time>
      </trkpt>
      <trkpt lat="47.28678" lon="-2.36774">
        <ele>58.599998474121</ele>
        <time>2021-12-16T08:46:34.000Z</time>
      </trkpt>
      <trkpt lat="47.28677" lon="-2.36779">
        <ele>58.200000762939</ele>
        <time>2021-12-16T08:46:35.000Z</time>
      </trkpt>
      <trkpt lat="47.28676" lon="-2.36785">
        <ele>57.799999237061</ele>
        <time>2021-12-16T08:46:36.000Z</time>
      </trkpt>
      <trkpt lat="47.28674" lon="-2.3679">
        <ele>57.400001525879</ele>
        <time>2021-12-16T08:46:37.000Z</time>
      </trkpt>
      <trkpt lat="47.28674" lon="-2.36796">
        <ele>57</ele>
        <time>2021-12-16T08:46:38.000Z</time>
      </trkpt>
      <trkpt lat="47.28678" lon="-2.36815">
        <ele>57</ele>
        <time>2021-12-16T08:46:41.000Z</time>
      </trkpt>
      <trkpt lat="47.2868" lon="-2.36821">
        <ele>56.599998474121</ele>
        <time>2021-12-16T08:46:42.000Z</time>
      </trkpt>
      <trkpt lat="47.28682" lon="-2.36827">
        <ele>56.200000762939</ele>
        <time>2021-12-16T08:46:43.000Z</time>
      </trkpt>
      <trkpt lat="47.28683" lon="-2.36831">
        <ele>55.799999237061</ele>
        <time>2021-12-16T08:46:44.000Z</time>
      </trkpt>
      <trkpt lat="47.28685" lon="-2.36835">
        <ele>55.200000762939</ele>
        <time>2021-12-16T08:46:45.000Z</time>
      </trkpt>
      <trkpt lat="47.28687" lon="-2.36839">
        <ele>54.799999237061</ele>
        <time>2021-12-16T08:46:46.000Z</time>
      </trkpt>
      <trkpt lat="47.28689" lon="-2.36844">
        <ele>54.799999237061</ele>
        <time>2021-12-16T08:46:47.000Z</time>
      </trkpt>
      <trkpt lat="47.28698" lon="-2.36871">
        <ele>54.799999237061</ele>
        <time>2021-12-16T08:46:53.000Z</time>
      </trkpt>
      <trkpt lat="47.28708" lon="-2.36899">
        <ele>54.400001525879</ele>
        <time>2021-12-16T08:46:58.000Z</time>
      </trkpt>
      <trkpt lat="47.28709" lon="-2.36903">
        <ele>53.599998474121</ele>
        <time>2021-12-16T08:46:59.000Z</time>
      </trkpt>
      <trkpt lat="47.28711" lon="-2.36907">
        <ele>53</ele>
        <time>2021-12-16T08:47:00.000Z</time>
      </trkpt>
      <trkpt lat="47.28713" lon="-2.3691">
        <ele>52.599998474121</ele>
        <time>2021-12-16T08:47:01.000Z</time>
      </trkpt>
      <trkpt lat="47.28718" lon="-2.36915">
        <ele>52.200000762939</ele>
        <time>2021-12-16T08:47:03.000Z</time>
      </trkpt>
      <trkpt lat="47.28721" lon="-2.36918">
        <ele>51.599998474121</ele>
        <time>2021-12-16T08:47:04.000Z</time>
      </trkpt>
      <trkpt lat="47.28725" lon="-2.36922">
        <ele>51.200000762939</ele>
        <time>2021-12-16T08:47:05.000Z</time>
      </trkpt>
      <trkpt lat="47.28729" lon="-2.36926">
        <ele>50.599998474121</ele>
        <time>2021-12-16T08:47:06.000Z</time>
      </trkpt>
      <trkpt lat="47.28732" lon="-2.3693">
        <ele>50.200000762939</ele>
        <time>2021-12-16T08:47:07.000Z</time>
      </trkpt>
      <trkpt lat="47.28739" lon="-2.36941">
        <ele>50.200000762939</ele>
        <time>2021-12-16T08:47:10.000Z</time>
      </trkpt>
      <trkpt lat="47.28744" lon="-2.36949">
        <ele>50.599998474121</ele>
        <time>2021-12-16T08:47:12.000Z</time>
      </trkpt>
      <trkpt lat="47.28745" lon="-2.36953">
        <ele>51</ele>
        <time>2021-12-16T08:47:13.000Z</time>
      </trkpt>
      <trkpt lat="47.28746" lon="-2.36955">
        <ele>51.400001525879</ele>
        <time>2021-12-16T08:47:14.000Z</time>
      </trkpt>
      <trkpt lat="47.28747" lon="-2.36958">
        <ele>52</ele>
        <time>2021-12-16T08:47:15.000Z</time>
      </trkpt>
      <trkpt lat="47.28747" lon="-2.3696">
        <ele>52.400001525879</ele>
        <time>2021-12-16T08:47:16.000Z</time>
      </trkpt>
      <trkpt lat="47.28748" lon="-2.36961">
        <ele>52.799999237061</ele>
        <time>2021-12-16T08:47:17.000Z</time>
      </trkpt>
      <trkpt lat="47.28749" lon="-2.36963">
        <ele>53.400001525879</ele>
        <time>2021-12-16T08:47:18.000Z</time>
      </trkpt>
      <trkpt lat="47.2875" lon="-2.36966">
        <ele>53.799999237061</ele>
        <time>2021-12-16T08:47:19.000Z</time>
      </trkpt>
      <trkpt lat="47.2875" lon="-2.36968">
        <ele>54.400001525879</ele>
        <time>2021-12-16T08:47:20.000Z</time>
      </trkpt>
      <trkpt lat="47.28753" lon="-2.36975">
        <ele>54.799999237061</ele>
        <time>2021-12-16T08:47:22.000Z</time>
      </trkpt>
      <trkpt lat="47.28754" lon="-2.36979">
        <ele>55.200000762939</ele>
        <time>2021-12-16T08:47:23.000Z</time>
      </trkpt>
      <trkpt lat="47.28756" lon="-2.36983">
        <ele>56.200000762939</ele>
        <time>2021-12-16T08:47:24.000Z</time>
      </trkpt>
      <trkpt lat="47.28758" lon="-2.36986">
        <ele>56.599998474121</ele>
        <time>2021-12-16T08:47:25.000Z</time>
      </trkpt>
      <trkpt lat="47.2877" lon="-2.37003">
        <ele>56.599998474121</ele>
        <time>2021-12-16T08:47:31.000Z</time>
      </trkpt>
      <trkpt lat="47.28782" lon="-2.37034">
        <ele>56.599998474121</ele>
        <time>2021-12-16T08:47:37.000Z</time>
      </trkpt>
      <trkpt lat="47.28787" lon="-2.3705">
        <ele>56.200000762939</ele>
        <time>2021-12-16T08:47:40.000Z</time>
      </trkpt>
      <trkpt lat="47.28788" lon="-2.37056">
        <ele>55.799999237061</ele>
        <time>2021-12-16T08:47:41.000Z</time>
      </trkpt>
      <trkpt lat="47.2879" lon="-2.37062">
        <ele>55.400001525879</ele>
        <time>2021-12-16T08:47:42.000Z</time>
      </trkpt>
      <trkpt lat="47.28792" lon="-2.37069">
        <ele>54.799999237061</ele>
        <time>2021-12-16T08:47:43.000Z</time>
      </trkpt>
      <trkpt lat="47.28793" lon="-2.37077">
        <ele>54.400001525879</ele>
        <time>2021-12-16T08:47:44.000Z</time>
      </trkpt>
      <trkpt lat="47.28795" lon="-2.37084">
        <ele>54</ele>
        <time>2021-12-16T08:47:45.000Z</time>
      </trkpt>
      <trkpt lat="47.28797" lon="-2.37092">
        <ele>53.599998474121</ele>
        <time>2021-12-16T08:47:46.000Z</time>
      </trkpt>
      <trkpt lat="47.28798" lon="-2.37098">
        <ele>53</ele>
        <time>2021-12-16T08:47:47.000Z</time>
      </trkpt>
      <trkpt lat="47.288" lon="-2.37103">
        <ele>52.599998474121</ele>
        <time>2021-12-16T08:47:48.000Z</time>
      </trkpt>
      <trkpt lat="47.28802" lon="-2.37107">
        <ele>52.200000762939</ele>
        <time>2021-12-16T08:47:49.000Z</time>
      </trkpt>
      <trkpt lat="47.28803" lon="-2.37111">
        <ele>52.200000762939</ele>
        <time>2021-12-16T08:47:50.000Z</time>
      </trkpt>
      <trkpt lat="47.28808" lon="-2.37114">
        <ele>51.599998474121</ele>
        <time>2021-12-16T08:47:52.000Z</time>
      </trkpt>
      <trkpt lat="47.28811" lon="-2.37114">
        <ele>51.200000762939</ele>
        <time>2021-12-16T08:47:53.000Z</time>
      </trkpt>
      <trkpt lat="47.28814" lon="-2.37113">
        <ele>50.799999237061</ele>
        <time>2021-12-16T08:47:54.000Z</time>
      </trkpt>
      <trkpt lat="47.28816" lon="-2.37112">
        <ele>50.200000762939</ele>
        <time>2021-12-16T08:47:55.000Z</time>
      </trkpt>
      <trkpt lat="47.28818" lon="-2.37109">
        <ele>49.799999237061</ele>
        <time>2021-12-16T08:47:56.000Z</time>
      </trkpt>
      <trkpt lat="47.2882" lon="-2.37104">
        <ele>49.200000762939</ele>
        <time>2021-12-16T08:47:57.000Z</time>
      </trkpt>
      <trkpt lat="47.28822" lon="-2.37098">
        <ele>48.799999237061</ele>
        <time>2021-12-16T08:47:58.000Z</time>
      </trkpt>
      <trkpt lat="47.28823" lon="-2.37092">
        <ele>48.200000762939</ele>
        <time>2021-12-16T08:47:59.000Z</time>
      </trkpt>
      <trkpt lat="47.28823" lon="-2.37086">
        <ele>47.599998474121</ele>
        <time>2021-12-16T08:48:00.000Z</time>
      </trkpt>
      <trkpt lat="47.28823" lon="-2.37081">
        <ele>47.200000762939</ele>
        <time>2021-12-16T08:48:01.000Z</time>
      </trkpt>
      <trkpt lat="47.28822" lon="-2.37076">
        <ele>46.799999237061</ele>
        <time>2021-12-16T08:48:02.000Z</time>
      </trkpt>
      <trkpt lat="47.28822" lon="-2.3707">
        <ele>46.400001525879</ele>
        <time>2021-12-16T08:48:03.000Z</time>
      </trkpt>
      <trkpt lat="47.2882" lon="-2.37064">
        <ele>46</ele>
        <time>2021-12-16T08:48:04.000Z</time>
      </trkpt>
      <trkpt lat="47.28818" lon="-2.37058">
        <ele>45.599998474121</ele>
        <time>2021-12-16T08:48:05.000Z</time>
      </trkpt>
      <trkpt lat="47.28817" lon="-2.37052">
        <ele>45.599998474121</ele>
        <time>2021-12-16T08:48:06.000Z</time>
      </trkpt>
      <trkpt lat="47.28814" lon="-2.37047">
        <ele>45.599998474121</ele>
        <time>2021-12-16T08:48:07.000Z</time>
      </trkpt>
      <trkpt lat="47.28808" lon="-2.3703">
        <ele>45.599998474121</ele>
        <time>2021-12-16T08:48:10.000Z</time>
      </trkpt>
      <trkpt lat="47.28807" lon="-2.37023">
        <ele>45.599998474121</ele>
        <time>2021-12-16T08:48:11.000Z</time>
      </trkpt>
      <trkpt lat="47.28804" lon="-2.37011">
        <ele>45.599998474121</ele>
        <time>2021-12-16T08:48:13.000Z</time>
      </trkpt>
      <trkpt lat="47.288" lon="-2.36994">
        <ele>45.599998474121</ele>
        <time>2021-12-16T08:48:16.000Z</time>
      </trkpt>
      <trkpt lat="47.28795" lon="-2.36977">
        <ele>45.599998474121</ele>
        <time>2021-12-16T08:48:19.000Z</time>
      </trkpt>
      <trkpt lat="47.28791" lon="-2.36959">
        <ele>45.599998474121</ele>
        <time>2021-12-16T08:48:22.000Z</time>
      </trkpt>
      <trkpt lat="47.28783" lon="-2.36912">
        <ele>45.599998474121</ele>
        <time>2021-12-16T08:48:29.000Z</time>
      </trkpt>
      <trkpt lat="47.28782" lon="-2.36898">
        <ele>45.599998474121</ele>
        <time>2021-12-16T08:48:31.000Z</time>
      </trkpt>
      <trkpt lat="47.28782" lon="-2.36884">
        <ele>46</ele>
        <time>2021-12-16T08:48:33.000Z</time>
      </trkpt>
      <trkpt lat="47.28783" lon="-2.36877">
        <ele>46.400001525879</ele>
        <time>2021-12-16T08:48:34.000Z</time>
      </trkpt>
      <trkpt lat="47.28783" lon="-2.36871">
        <ele>46.799999237061</ele>
        <time>2021-12-16T08:48:35.000Z</time>
      </trkpt>
      <trkpt lat="47.28785" lon="-2.36865">
        <ele>47.200000762939</ele>
        <time>2021-12-16T08:48:36.000Z</time>
      </trkpt>
      <trkpt lat="47.28786" lon="-2.36859">
        <ele>47.599998474121</ele>
        <time>2021-12-16T08:48:37.000Z</time>
      </trkpt>
      <trkpt lat="47.28793" lon="-2.3684">
        <ele>47.599998474121</ele>
        <time>2021-12-16T08:48:40.000Z</time>
      </trkpt>
      <trkpt lat="47.28809" lon="-2.36815">
        <ele>47.599998474121</ele>
        <time>2021-12-16T08:48:46.000Z</time>
      </trkpt>
      <trkpt lat="47.28818" lon="-2.36824">
        <ele>47.599998474121</ele>
        <time>2021-12-16T08:48:49.000Z</time>
      </trkpt>
      <trkpt lat="47.28824" lon="-2.36837">
        <ele>47.599998474121</ele>
        <time>2021-12-16T08:48:52.000Z</time>
      </trkpt>
      <trkpt lat="47.28825" lon="-2.36842">
        <ele>47.599998474121</ele>
        <time>2021-12-16T08:48:53.000Z</time>
      </trkpt>
      <trkpt lat="47.28826" lon="-2.36845">
        <ele>48</ele>
        <time>2021-12-16T08:48:54.000Z</time>
      </trkpt>
      <trkpt lat="47.28827" lon="-2.36849">
        <ele>48.599998474121</ele>
        <time>2021-12-16T08:48:55.000Z</time>
      </trkpt>
      <trkpt lat="47.28828" lon="-2.36852">
        <ele>49</ele>
        <time>2021-12-16T08:48:56.000Z</time>
      </trkpt>
      <trkpt lat="47.28829" lon="-2.36855">
        <ele>49.599998474121</ele>
        <time>2021-12-16T08:48:57.000Z</time>
      </trkpt>
      <trkpt lat="47.28829" lon="-2.36859">
        <ele>50.200000762939</ele>
        <time>2021-12-16T08:48:58.000Z</time>
      </trkpt>
      <trkpt lat="47.2883" lon="-2.36863">
        <ele>50.599998474121</ele>
        <time>2021-12-16T08:48:59.000Z</time>
      </trkpt>
      <trkpt lat="47.28832" lon="-2.36866">
        <ele>51.200000762939</ele>
        <time>2021-12-16T08:49:00.000Z</time>
      </trkpt>
      <trkpt lat="47.28833" lon="-2.3687">
        <ele>51.599998474121</ele>
        <time>2021-12-16T08:49:01.000Z</time>
      </trkpt>
      <trkpt lat="47.28835" lon="-2.36873">
        <ele>52.200000762939</ele>
        <time>2021-12-16T08:49:02.000Z</time>
      </trkpt>
      <trkpt lat="47.28838" lon="-2.36876">
        <ele>52.799999237061</ele>
        <time>2021-12-16T08:49:03.000Z</time>
      </trkpt>
      <trkpt lat="47.2884" lon="-2.36878">
        <ele>53.200000762939</ele>
        <time>2021-12-16T08:49:04.000Z</time>
      </trkpt>
      <trkpt lat="47.28841" lon="-2.3688">
        <ele>53.799999237061</ele>
        <time>2021-12-16T08:49:05.000Z</time>
      </trkpt>
      <trkpt lat="47.28843" lon="-2.36882">
        <ele>54.200000762939</ele>
        <time>2021-12-16T08:49:06.000Z</time>
      </trkpt>
      <trkpt lat="47.28845" lon="-2.36884">
        <ele>54.799999237061</ele>
        <time>2021-12-16T08:49:07.000Z</time>
      </trkpt>
      <trkpt lat="47.28847" lon="-2.36886">
        <ele>55.400001525879</ele>
        <time>2021-12-16T08:49:08.000Z</time>
      </trkpt>
      <trkpt lat="47.28849" lon="-2.36888">
        <ele>55.799999237061</ele>
        <time>2021-12-16T08:49:09.000Z</time>
      </trkpt>
      <trkpt lat="47.28852" lon="-2.36891">
        <ele>56.400001525879</ele>
        <time>2021-12-16T08:49:10.000Z</time>
      </trkpt>
      <trkpt lat="47.28855" lon="-2.36893">
        <ele>57</ele>
        <time>2021-12-16T08:49:11.000Z</time>
      </trkpt>
      <trkpt lat="47.28862" lon="-2.36899">
        <ele>57</ele>
        <time>2021-12-16T08:49:13.000Z</time>
      </trkpt>
      <trkpt lat="47.28883" lon="-2.36919">
        <ele>57</ele>
        <time>2021-12-16T08:49:20.000Z</time>
      </trkpt>
      <trkpt lat="47.28889" lon="-2.36926">
        <ele>57.400001525879</ele>
        <time>2021-12-16T08:49:22.000Z</time>
      </trkpt>
      <trkpt lat="47.28893" lon="-2.3693">
        <ele>57.799999237061</ele>
        <time>2021-12-16T08:49:23.000Z</time>
      </trkpt>
      <trkpt lat="47.28896" lon="-2.36934">
        <ele>58.200000762939</ele>
        <time>2021-12-16T08:49:24.000Z</time>
      </trkpt>
      <trkpt lat="47.28899" lon="-2.36938">
        <ele>58.599998474121</ele>
        <time>2021-12-16T08:49:25.000Z</time>
      </trkpt>
      <trkpt lat="47.28902" lon="-2.36941">
        <ele>59</ele>
        <time>2021-12-16T08:49:26.000Z</time>
      </trkpt>
      <trkpt lat="47.28905" lon="-2.36945">
        <ele>59</ele>
        <time>2021-12-16T08:49:27.000Z</time>
      </trkpt>
      <trkpt lat="47.28925" lon="-2.36973">
        <ele>59</ele>
        <time>2021-12-16T08:49:34.000Z</time>
      </trkpt>
      <trkpt lat="47.28942" lon="-2.36994">
        <ele>59</ele>
        <time>2021-12-16T08:49:40.000Z</time>
      </trkpt>
      <trkpt lat="47.28951" lon="-2.36986">
        <ele>59</ele>
        <time>2021-12-16T08:49:43.000Z</time>
      </trkpt>
      <trkpt lat="47.28954" lon="-2.36983">
        <ele>59</ele>
        <time>2021-12-16T08:49:44.000Z</time>
      </trkpt>
      <trkpt lat="47.28957" lon="-2.3698">
        <ele>59.400001525879</ele>
        <time>2021-12-16T08:49:45.000Z</time>
      </trkpt>
      <trkpt lat="47.28959" lon="-2.36976">
        <ele>59.799999237061</ele>
        <time>2021-12-16T08:49:46.000Z</time>
      </trkpt>
      <trkpt lat="47.28962" lon="-2.36973">
        <ele>60.200000762939</ele>
        <time>2021-12-16T08:49:47.000Z</time>
      </trkpt>
      <trkpt lat="47.28964" lon="-2.36969">
        <ele>60.599998474121</ele>
        <time>2021-12-16T08:49:48.000Z</time>
      </trkpt>
      <trkpt lat="47.28966" lon="-2.36966">
        <ele>61</ele>
        <time>2021-12-16T08:49:49.000Z</time>
      </trkpt>
      <trkpt lat="47.28971" lon="-2.36958">
        <ele>61</ele>
        <time>2021-12-16T08:49:51.000Z</time>
      </trkpt>
      <trkpt lat="47.2898" lon="-2.36943">
        <ele>61.400001525879</ele>
        <time>2021-12-16T08:49:55.000Z</time>
      </trkpt>
      <trkpt lat="47.28982" lon="-2.36939">
        <ele>61.799999237061</ele>
        <time>2021-12-16T08:49:56.000Z</time>
      </trkpt>
      <trkpt lat="47.28985" lon="-2.36936">
        <ele>62.400001525879</ele>
        <time>2021-12-16T08:49:57.000Z</time>
      </trkpt>
      <trkpt lat="47.28987" lon="-2.36932">
        <ele>62.799999237061</ele>
        <time>2021-12-16T08:49:58.000Z</time>
      </trkpt>
      <trkpt lat="47.2899" lon="-2.36928">
        <ele>63.200000762939</ele>
        <time>2021-12-16T08:49:59.000Z</time>
      </trkpt>
      <trkpt lat="47.29002" lon="-2.36908">
        <ele>63.599998474121</ele>
        <time>2021-12-16T08:50:05.000Z</time>
      </trkpt>
      <trkpt lat="47.29004" lon="-2.36905">
        <ele>64</ele>
        <time>2021-12-16T08:50:06.000Z</time>
      </trkpt>
      <trkpt lat="47.29006" lon="-2.36901">
        <ele>64.400001525879</ele>
        <time>2021-12-16T08:50:07.000Z</time>
      </trkpt>
      <trkpt lat="47.29007" lon="-2.36898">
        <ele>64.800003051758</ele>
        <time>2021-12-16T08:50:08.000Z</time>
      </trkpt>
      <trkpt lat="47.29009" lon="-2.36896">
        <ele>65.199996948242</ele>
        <time>2021-12-16T08:50:09.000Z</time>
      </trkpt>
      <trkpt lat="47.29014" lon="-2.36891">
        <ele>65.199996948242</ele>
        <time>2021-12-16T08:50:11.000Z</time>
      </trkpt>
      <trkpt lat="47.29018" lon="-2.36888">
        <ele>65.199996948242</ele>
        <time>2021-12-16T08:50:13.000Z</time>
      </trkpt>
      <trkpt lat="47.29025" lon="-2.36889">
        <ele>65.199996948242</ele>
        <time>2021-12-16T08:50:16.000Z</time>
      </trkpt>
      <trkpt lat="47.29027" lon="-2.3689">
        <ele>65.599998474121</ele>
        <time>2021-12-16T08:50:17.000Z</time>
      </trkpt>
      <trkpt lat="47.2903" lon="-2.36892">
        <ele>66</ele>
        <time>2021-12-16T08:50:18.000Z</time>
      </trkpt>
      <trkpt lat="47.29032" lon="-2.36894">
        <ele>66.400001525879</ele>
        <time>2021-12-16T08:50:19.000Z</time>
      </trkpt>
      <trkpt lat="47.29034" lon="-2.36897">
        <ele>66.800003051758</ele>
        <time>2021-12-16T08:50:20.000Z</time>
      </trkpt>
      <trkpt lat="47.29036" lon="-2.36899">
        <ele>67.199996948242</ele>
        <time>2021-12-16T08:50:21.000Z</time>
      </trkpt>
      <trkpt lat="47.29041" lon="-2.36907">
        <ele>67.199996948242</ele>
        <time>2021-12-16T08:50:24.000Z</time>
      </trkpt>
      <trkpt lat="47.29044" lon="-2.36914">
        <ele>67.199996948242</ele>
        <time>2021-12-16T08:50:27.000Z</time>
      </trkpt>
      <trkpt lat="47.2905" lon="-2.36924">
        <ele>67.599998474121</ele>
        <time>2021-12-16T08:50:32.000Z</time>
      </trkpt>
      <trkpt lat="47.29051" lon="-2.36926">
        <ele>68</ele>
        <time>2021-12-16T08:50:33.000Z</time>
      </trkpt>
      <trkpt lat="47.29053" lon="-2.36928">
        <ele>68.400001525879</ele>
        <time>2021-12-16T08:50:34.000Z</time>
      </trkpt>
      <trkpt lat="47.29056" lon="-2.3693">
        <ele>69</ele>
        <time>2021-12-16T08:50:35.000Z</time>
      </trkpt>
      <trkpt lat="47.29058" lon="-2.36932">
        <ele>69.400001525879</ele>
        <time>2021-12-16T08:50:36.000Z</time>
      </trkpt>
      <trkpt lat="47.29064" lon="-2.36936">
        <ele>69.400001525879</ele>
        <time>2021-12-16T08:50:38.000Z</time>
      </trkpt>
      <trkpt lat="47.29085" lon="-2.36949">
        <ele>69.400001525879</ele>
        <time>2021-12-16T08:50:45.000Z</time>
      </trkpt>
      <trkpt lat="47.29109" lon="-2.36956">
        <ele>69.400001525879</ele>
        <time>2021-12-16T08:50:52.000Z</time>
      </trkpt>
      <trkpt lat="47.2913" lon="-2.36962">
        <ele>69.400001525879</ele>
        <time>2021-12-16T08:50:57.000Z</time>
      </trkpt>
      <trkpt lat="47.29146" lon="-2.36977">
        <ele>69.800003051758</ele>
        <time>2021-12-16T08:51:01.000Z</time>
      </trkpt>
      <trkpt lat="47.29149" lon="-2.3698">
        <ele>70.199996948242</ele>
        <time>2021-12-16T08:51:02.000Z</time>
      </trkpt>
      <trkpt lat="47.29152" lon="-2.36984">
        <ele>70.599998474121</ele>
        <time>2021-12-16T08:51:03.000Z</time>
      </trkpt>
      <trkpt lat="47.29154" lon="-2.36987">
        <ele>71</ele>
        <time>2021-12-16T08:51:04.000Z</time>
      </trkpt>
      <trkpt lat="47.29157" lon="-2.36991">
        <ele>71.400001525879</ele>
        <time>2021-12-16T08:51:05.000Z</time>
      </trkpt>
      <trkpt lat="47.29171" lon="-2.37008">
        <ele>71.400001525879</ele>
        <time>2021-12-16T08:51:09.000Z</time>
      </trkpt>
      <trkpt lat="47.29195" lon="-2.37037">
        <ele>71.400001525879</ele>
        <time>2021-12-16T08:51:15.000Z</time>
      </trkpt>
      <trkpt lat="47.29225" lon="-2.37074">
        <ele>71.400001525879</ele>
        <time>2021-12-16T08:51:22.000Z</time>
      </trkpt>
      <trkpt lat="47.29264" lon="-2.37116">
        <ele>71.400001525879</ele>
        <time>2021-12-16T08:51:31.000Z</time>
      </trkpt>
      <trkpt lat="47.2929" lon="-2.37144">
        <ele>71.400001525879</ele>
        <time>2021-12-16T08:51:37.000Z</time>
      </trkpt>
      <trkpt lat="47.29294" lon="-2.37149">
        <ele>71.400001525879</ele>
        <time>2021-12-16T08:51:38.000Z</time>
      </trkpt>
      <trkpt lat="47.29326" lon="-2.37182">
        <ele>71.400001525879</ele>
        <time>2021-12-16T08:51:45.000Z</time>
      </trkpt>
      <trkpt lat="47.2936" lon="-2.37205">
        <ele>71.400001525879</ele>
        <time>2021-12-16T08:51:51.000Z</time>
      </trkpt>
      <trkpt lat="47.29398" lon="-2.37224">
        <ele>71.400001525879</ele>
        <time>2021-12-16T08:51:58.000Z</time>
      </trkpt>
      <trkpt lat="47.29414" lon="-2.37232">
        <ele>71.400001525879</ele>
        <time>2021-12-16T08:52:01.000Z</time>
      </trkpt>
      <trkpt lat="47.29422" lon="-2.37242">
        <ele>71.400001525879</ele>
        <time>2021-12-16T08:52:03.000Z</time>
      </trkpt>
      <trkpt lat="47.2943" lon="-2.37252">
        <ele>71.400001525879</ele>
        <time>2021-12-16T08:52:05.000Z</time>
      </trkpt>
      <trkpt lat="47.29441" lon="-2.37265">
        <ele>71.400001525879</ele>
        <time>2021-12-16T08:52:08.000Z</time>
      </trkpt>
      <trkpt lat="47.29453" lon="-2.37275">
        <ele>71.400001525879</ele>
        <time>2021-12-16T08:52:11.000Z</time>
      </trkpt>
      <trkpt lat="47.29466" lon="-2.37285">
        <ele>71.400001525879</ele>
        <time>2021-12-16T08:52:14.000Z</time>
      </trkpt>
      <trkpt lat="47.29494" lon="-2.37318">
        <ele>71.400001525879</ele>
        <time>2021-12-16T08:52:21.000Z</time>
      </trkpt>
      <trkpt lat="47.29498" lon="-2.37323">
        <ele>71.800003051758</ele>
        <time>2021-12-16T08:52:22.000Z</time>
      </trkpt>
      <trkpt lat="47.29503" lon="-2.37328">
        <ele>72.199996948242</ele>
        <time>2021-12-16T08:52:23.000Z</time>
      </trkpt>
      <trkpt lat="47.29507" lon="-2.37333">
        <ele>72.599998474121</ele>
        <time>2021-12-16T08:52:24.000Z</time>
      </trkpt>
      <trkpt lat="47.29511" lon="-2.37338">
        <ele>73</ele>
        <time>2021-12-16T08:52:25.000Z</time>
      </trkpt>
      <trkpt lat="47.29515" lon="-2.37342">
        <ele>73.400001525879</ele>
        <time>2021-12-16T08:52:26.000Z</time>
      </trkpt>
      <trkpt lat="47.29531" lon="-2.3736">
        <ele>73.400001525879</ele>
        <time>2021-12-16T08:52:30.000Z</time>
      </trkpt>
      <trkpt lat="47.29542" lon="-2.37373">
        <ele>73.800003051758</ele>
        <time>2021-12-16T08:52:33.000Z</time>
      </trkpt>
      <trkpt lat="47.29545" lon="-2.37378">
        <ele>74.199996948242</ele>
        <time>2021-12-16T08:52:34.000Z</time>
      </trkpt>
      <trkpt lat="47.29549" lon="-2.37382">
        <ele>74.599998474121</ele>
        <time>2021-12-16T08:52:35.000Z</time>
      </trkpt>
      <trkpt lat="47.29552" lon="-2.37386">
        <ele>75.199996948242</ele>
        <time>2021-12-16T08:52:36.000Z</time>
      </trkpt>
      <trkpt lat="47.29555" lon="-2.37392">
        <ele>75.599998474121</ele>
        <time>2021-12-16T08:52:37.000Z</time>
      </trkpt>
      <trkpt lat="47.29559" lon="-2.37397">
        <ele>75.599998474121</ele>
        <time>2021-12-16T08:52:38.000Z</time>
      </trkpt>
      <trkpt lat="47.29589" lon="-2.37449">
        <ele>75.599998474121</ele>
        <time>2021-12-16T08:52:47.000Z</time>
      </trkpt>
      <trkpt lat="47.29615" lon="-2.37486">
        <ele>75.599998474121</ele>
        <time>2021-12-16T08:52:53.000Z</time>
      </trkpt>
      <trkpt lat="47.29647" lon="-2.37511">
        <ele>75.599998474121</ele>
        <time>2021-12-16T08:52:58.000Z</time>
      </trkpt>
      <trkpt lat="47.29654" lon="-2.37516">
        <ele>75.199996948242</ele>
        <time>2021-12-16T08:52:59.000Z</time>
      </trkpt>
      <trkpt lat="47.29661" lon="-2.37521">
        <ele>74.800003051758</ele>
        <time>2021-12-16T08:53:00.000Z</time>
      </trkpt>
      <trkpt lat="47.29668" lon="-2.37526">
        <ele>74.400001525879</ele>
        <time>2021-12-16T08:53:01.000Z</time>
      </trkpt>
      <trkpt lat="47.29675" lon="-2.37531">
        <ele>74</ele>
        <time>2021-12-16T08:53:02.000Z</time>
      </trkpt>
      <trkpt lat="47.29681" lon="-2.37536">
        <ele>73.599998474121</ele>
        <time>2021-12-16T08:53:03.000Z</time>
      </trkpt>
      <trkpt lat="47.29686" lon="-2.3754">
        <ele>73.599998474121</ele>
        <time>2021-12-16T08:53:04.000Z</time>
      </trkpt>
      <trkpt lat="47.2971" lon="-2.37562">
        <ele>73.599998474121</ele>
        <time>2021-12-16T08:53:09.000Z</time>
      </trkpt>
      <trkpt lat="47.29714" lon="-2.37568">
        <ele>73.599998474121</ele>
        <time>2021-12-16T08:53:10.000Z</time>
      </trkpt>
      <trkpt lat="47.29725" lon="-2.37582">
        <ele>73.599998474121</ele>
        <time>2021-12-16T08:53:13.000Z</time>
      </trkpt>
      <trkpt lat="47.29733" lon="-2.37591">
        <ele>73.599998474121</ele>
        <time>2021-12-16T08:53:15.000Z</time>
      </trkpt>
      <trkpt lat="47.29736" lon="-2.37595">
        <ele>73.599998474121</ele>
        <time>2021-12-16T08:53:16.000Z</time>
      </trkpt>
      <trkpt lat="47.29753" lon="-2.37619">
        <ele>74</ele>
        <time>2021-12-16T08:53:21.000Z</time>
      </trkpt>
      <trkpt lat="47.29757" lon="-2.37624">
        <ele>74.400001525879</ele>
        <time>2021-12-16T08:53:22.000Z</time>
      </trkpt>
      <trkpt lat="47.2976" lon="-2.37628">
        <ele>74.800003051758</ele>
        <time>2021-12-16T08:53:23.000Z</time>
      </trkpt>
      <trkpt lat="47.29764" lon="-2.37633">
        <ele>75.400001525879</ele>
        <time>2021-12-16T08:53:24.000Z</time>
      </trkpt>
      <trkpt lat="47.29767" lon="-2.37638">
        <ele>75.800003051758</ele>
        <time>2021-12-16T08:53:25.000Z</time>
      </trkpt>
      <trkpt lat="47.29777" lon="-2.37652">
        <ele>76.199996948242</ele>
        <time>2021-12-16T08:53:28.000Z</time>
      </trkpt>
      <trkpt lat="47.2978" lon="-2.37657">
        <ele>76.599998474121</ele>
        <time>2021-12-16T08:53:29.000Z</time>
      </trkpt>
      <trkpt lat="47.29784" lon="-2.37663">
        <ele>77.199996948242</ele>
        <time>2021-12-16T08:53:30.000Z</time>
      </trkpt>
      <trkpt lat="47.29787" lon="-2.37668">
        <ele>77.599998474121</ele>
        <time>2021-12-16T08:53:31.000Z</time>
      </trkpt>
      <trkpt lat="47.2979" lon="-2.37673">
        <ele>78</ele>
        <time>2021-12-16T08:53:32.000Z</time>
      </trkpt>
      <trkpt lat="47.29793" lon="-2.37678">
        <ele>78</ele>
        <time>2021-12-16T08:53:33.000Z</time>
      </trkpt>
      <trkpt lat="47.29804" lon="-2.37693">
        <ele>78</ele>
        <time>2021-12-16T08:53:36.000Z</time>
      </trkpt>
      <trkpt lat="47.29818" lon="-2.37716">
        <ele>78</ele>
        <time>2021-12-16T08:53:40.000Z</time>
      </trkpt>
      <trkpt lat="47.29844" lon="-2.37759">
        <ele>78</ele>
        <time>2021-12-16T08:53:47.000Z</time>
      </trkpt>
      <trkpt lat="47.29848" lon="-2.37765">
        <ele>77.599998474121</ele>
        <time>2021-12-16T08:53:48.000Z</time>
      </trkpt>
      <trkpt lat="47.29852" lon="-2.37772">
        <ele>77.199996948242</ele>
        <time>2021-12-16T08:53:49.000Z</time>
      </trkpt>
      <trkpt lat="47.29856" lon="-2.37778">
        <ele>76.800003051758</ele>
        <time>2021-12-16T08:53:50.000Z</time>
      </trkpt>
      <trkpt lat="47.2986" lon="-2.37785">
        <ele>76.400001525879</ele>
        <time>2021-12-16T08:53:51.000Z</time>
      </trkpt>
      <trkpt lat="47.29864" lon="-2.37791">
        <ele>76</ele>
        <time>2021-12-16T08:53:52.000Z</time>
      </trkpt>
      <trkpt lat="47.29868" lon="-2.37797">
        <ele>76</ele>
        <time>2021-12-16T08:53:53.000Z</time>
      </trkpt>
      <trkpt lat="47.2987" lon="-2.37803">
        <ele>76</ele>
        <time>2021-12-16T08:53:54.000Z</time>
      </trkpt>
      <trkpt lat="47.29869" lon="-2.37817">
        <ele>76</ele>
        <time>2021-12-16T08:53:56.000Z</time>
      </trkpt>
      <trkpt lat="47.29867" lon="-2.37823">
        <ele>75.599998474121</ele>
        <time>2021-12-16T08:53:57.000Z</time>
      </trkpt>
      <trkpt lat="47.29864" lon="-2.37829">
        <ele>75.199996948242</ele>
        <time>2021-12-16T08:53:58.000Z</time>
      </trkpt>
      <trkpt lat="47.29861" lon="-2.37834">
        <ele>74.800003051758</ele>
        <time>2021-12-16T08:53:59.000Z</time>
      </trkpt>
      <trkpt lat="47.29859" lon="-2.37841">
        <ele>74</ele>
        <time>2021-12-16T08:54:00.000Z</time>
      </trkpt>
      <trkpt lat="47.2984" lon="-2.37874">
        <ele>74</ele>
        <time>2021-12-16T08:54:06.000Z</time>
      </trkpt>
      <trkpt lat="47.29836" lon="-2.37878">
        <ele>74</ele>
        <time>2021-12-16T08:54:07.000Z</time>
      </trkpt>
      <trkpt lat="47.29805" lon="-2.37899">
        <ele>74</ele>
        <time>2021-12-16T08:54:14.000Z</time>
      </trkpt>
      <trkpt lat="47.29792" lon="-2.37906">
        <ele>74.400001525879</ele>
        <time>2021-12-16T08:54:17.000Z</time>
      </trkpt>
      <trkpt lat="47.29788" lon="-2.37909">
        <ele>74.800003051758</ele>
        <time>2021-12-16T08:54:18.000Z</time>
      </trkpt>
      <trkpt lat="47.29783" lon="-2.37913">
        <ele>75.199996948242</ele>
        <time>2021-12-16T08:54:19.000Z</time>
      </trkpt>
      <trkpt lat="47.29778" lon="-2.37917">
        <ele>75.599998474121</ele>
        <time>2021-12-16T08:54:20.000Z</time>
      </trkpt>
      <trkpt lat="47.29773" lon="-2.3792">
        <ele>76</ele>
        <time>2021-12-16T08:54:21.000Z</time>
      </trkpt>
      <trkpt lat="47.29764" lon="-2.37927">
        <ele>76</ele>
        <time>2021-12-16T08:54:23.000Z</time>
      </trkpt>
      <trkpt lat="47.29756" lon="-2.37935">
        <ele>76</ele>
        <time>2021-12-16T08:54:25.000Z</time>
      </trkpt>
      <trkpt lat="47.29743" lon="-2.37955">
        <ele>75.599998474121</ele>
        <time>2021-12-16T08:54:29.000Z</time>
      </trkpt>
      <trkpt lat="47.29741" lon="-2.37961">
        <ele>75</ele>
        <time>2021-12-16T08:54:30.000Z</time>
      </trkpt>
      <trkpt lat="47.29738" lon="-2.37967">
        <ele>74.599998474121</ele>
        <time>2021-12-16T08:54:31.000Z</time>
      </trkpt>
      <trkpt lat="47.29736" lon="-2.37973">
        <ele>74.199996948242</ele>
        <time>2021-12-16T08:54:32.000Z</time>
      </trkpt>
      <trkpt lat="47.29733" lon="-2.3798">
        <ele>73.800003051758</ele>
        <time>2021-12-16T08:54:33.000Z</time>
      </trkpt>
      <trkpt lat="47.29731" lon="-2.37986">
        <ele>73.199996948242</ele>
        <time>2021-12-16T08:54:34.000Z</time>
      </trkpt>
      <trkpt lat="47.29731" lon="-2.37992">
        <ele>72.800003051758</ele>
        <time>2021-12-16T08:54:35.000Z</time>
      </trkpt>
      <trkpt lat="47.2973" lon="-2.37998">
        <ele>72.199996948242</ele>
        <time>2021-12-16T08:54:36.000Z</time>
      </trkpt>
      <trkpt lat="47.29731" lon="-2.38005">
        <ele>71.599998474121</ele>
        <time>2021-12-16T08:54:37.000Z</time>
      </trkpt>
      <trkpt lat="47.29731" lon="-2.38011">
        <ele>71</ele>
        <time>2021-12-16T08:54:38.000Z</time>
      </trkpt>
      <trkpt lat="47.29732" lon="-2.38018">
        <ele>70.400001525879</ele>
        <time>2021-12-16T08:54:39.000Z</time>
      </trkpt>
      <trkpt lat="47.29733" lon="-2.38024">
        <ele>69.599998474121</ele>
        <time>2021-12-16T08:54:40.000Z</time>
      </trkpt>
      <trkpt lat="47.29733" lon="-2.38029">
        <ele>69</ele>
        <time>2021-12-16T08:54:41.000Z</time>
      </trkpt>
      <trkpt lat="47.29732" lon="-2.38034">
        <ele>68.400001525879</ele>
        <time>2021-12-16T08:54:42.000Z</time>
      </trkpt>
      <trkpt lat="47.29728" lon="-2.38039">
        <ele>67.599998474121</ele>
        <time>2021-12-16T08:54:43.000Z</time>
      </trkpt>
      <trkpt lat="47.29723" lon="-2.38043">
        <ele>66.800003051758</ele>
        <time>2021-12-16T08:54:44.000Z</time>
      </trkpt>
      <trkpt lat="47.29717" lon="-2.38047">
        <ele>66.199996948242</ele>
        <time>2021-12-16T08:54:45.000Z</time>
      </trkpt>
      <trkpt lat="47.29711" lon="-2.38052">
        <ele>65.400001525879</ele>
        <time>2021-12-16T08:54:46.000Z</time>
      </trkpt>
      <trkpt lat="47.29705" lon="-2.38058">
        <ele>64.800003051758</ele>
        <time>2021-12-16T08:54:47.000Z</time>
      </trkpt>
      <trkpt lat="47.29697" lon="-2.38064">
        <ele>64</ele>
        <time>2021-12-16T08:54:48.000Z</time>
      </trkpt>
      <trkpt lat="47.2969" lon="-2.38071">
        <ele>63.400001525879</ele>
        <time>2021-12-16T08:54:49.000Z</time>
      </trkpt>
      <trkpt lat="47.29682" lon="-2.38076">
        <ele>61.799999237061</ele>
        <time>2021-12-16T08:54:50.000Z</time>
      </trkpt>
      <trkpt lat="47.29674" lon="-2.38082">
        <ele>61.200000762939</ele>
        <time>2021-12-16T08:54:51.000Z</time>
      </trkpt>
      <trkpt lat="47.29665" lon="-2.38087">
        <ele>60.200000762939</ele>
        <time>2021-12-16T08:54:52.000Z</time>
      </trkpt>
      <trkpt lat="47.29656" lon="-2.38091">
        <ele>59.200000762939</ele>
        <time>2021-12-16T08:54:53.000Z</time>
      </trkpt>
      <trkpt lat="47.29647" lon="-2.38096">
        <ele>58.400001525879</ele>
        <time>2021-12-16T08:54:54.000Z</time>
      </trkpt>
      <trkpt lat="47.29639" lon="-2.381">
        <ele>57.599998474121</ele>
        <time>2021-12-16T08:54:55.000Z</time>
      </trkpt>
      <trkpt lat="47.29631" lon="-2.38105">
        <ele>56.799999237061</ele>
        <time>2021-12-16T08:54:56.000Z</time>
      </trkpt>
      <trkpt lat="47.29623" lon="-2.38108">
        <ele>56</ele>
        <time>2021-12-16T08:54:57.000Z</time>
      </trkpt>
      <trkpt lat="47.29614" lon="-2.38111">
        <ele>55.200000762939</ele>
        <time>2021-12-16T08:54:58.000Z</time>
      </trkpt>
      <trkpt lat="47.29606" lon="-2.38114">
        <ele>54.400001525879</ele>
        <time>2021-12-16T08:54:59.000Z</time>
      </trkpt>
      <trkpt lat="47.29589" lon="-2.38118">
        <ele>53.799999237061</ele>
        <time>2021-12-16T08:55:01.000Z</time>
      </trkpt>
      <trkpt lat="47.29581" lon="-2.3812">
        <ele>53.400001525879</ele>
        <time>2021-12-16T08:55:02.000Z</time>
      </trkpt>
      <trkpt lat="47.29573" lon="-2.38121">
        <ele>52.799999237061</ele>
        <time>2021-12-16T08:55:03.000Z</time>
      </trkpt>
      <trkpt lat="47.29565" lon="-2.38123">
        <ele>52.400001525879</ele>
        <time>2021-12-16T08:55:04.000Z</time>
      </trkpt>
      <trkpt lat="47.29558" lon="-2.38124">
        <ele>51.799999237061</ele>
        <time>2021-12-16T08:55:05.000Z</time>
      </trkpt>
      <trkpt lat="47.29542" lon="-2.38125">
        <ele>51.400001525879</ele>
        <time>2021-12-16T08:55:07.000Z</time>
      </trkpt>
      <trkpt lat="47.29534" lon="-2.38125">
        <ele>51</ele>
        <time>2021-12-16T08:55:08.000Z</time>
      </trkpt>
      <trkpt lat="47.29526" lon="-2.38125">
        <ele>50.599998474121</ele>
        <time>2021-12-16T08:55:09.000Z</time>
      </trkpt>
      <trkpt lat="47.29519" lon="-2.38124">
        <ele>50</ele>
        <time>2021-12-16T08:55:10.000Z</time>
      </trkpt>
      <trkpt lat="47.29512" lon="-2.38124">
        <ele>49.599998474121</ele>
        <time>2021-12-16T08:55:11.000Z</time>
      </trkpt>
      <trkpt lat="47.29498" lon="-2.38123">
        <ele>49.599998474121</ele>
        <time>2021-12-16T08:55:13.000Z</time>
      </trkpt>
      <trkpt lat="47.29491" lon="-2.38124">
        <ele>49.200000762939</ele>
        <time>2021-12-16T08:55:14.000Z</time>
      </trkpt>
      <trkpt lat="47.29484" lon="-2.38127">
        <ele>48.599998474121</ele>
        <time>2021-12-16T08:55:15.000Z</time>
      </trkpt>
      <trkpt lat="47.29478" lon="-2.38131">
        <ele>48.200000762939</ele>
        <time>2021-12-16T08:55:16.000Z</time>
      </trkpt>
      <trkpt lat="47.29472" lon="-2.38136">
        <ele>47.799999237061</ele>
        <time>2021-12-16T08:55:17.000Z</time>
      </trkpt>
      <trkpt lat="47.29466" lon="-2.3814">
        <ele>47.200000762939</ele>
        <time>2021-12-16T08:55:18.000Z</time>
      </trkpt>
      <trkpt lat="47.29461" lon="-2.38144">
        <ele>47.200000762939</ele>
        <time>2021-12-16T08:55:19.000Z</time>
      </trkpt>
      <trkpt lat="47.29456" lon="-2.38147">
        <ele>47.200000762939</ele>
        <time>2021-12-16T08:55:20.000Z</time>
      </trkpt>
      <trkpt lat="47.29449" lon="-2.38154">
        <ele>47.200000762939</ele>
        <time>2021-12-16T08:55:22.000Z</time>
      </trkpt>
      <trkpt lat="47.29447" lon="-2.38172">
        <ele>47.200000762939</ele>
        <time>2021-12-16T08:55:25.000Z</time>
      </trkpt>
      <trkpt lat="47.29448" lon="-2.38179">
        <ele>47.200000762939</ele>
        <time>2021-12-16T08:55:26.000Z</time>
      </trkpt>
      <trkpt lat="47.29452" lon="-2.3821">
        <ele>47.200000762939</ele>
        <time>2021-12-16T08:55:30.000Z</time>
      </trkpt>
      <trkpt lat="47.29458" lon="-2.38283">
        <ele>47.200000762939</ele>
        <time>2021-12-16T08:55:38.000Z</time>
      </trkpt>
      <trkpt lat="47.29456" lon="-2.38325">
        <ele>46.799999237061</ele>
        <time>2021-12-16T08:55:42.000Z</time>
      </trkpt>
      <trkpt lat="47.29456" lon="-2.38336">
        <ele>46.400001525879</ele>
        <time>2021-12-16T08:55:43.000Z</time>
      </trkpt>
      <trkpt lat="47.29455" lon="-2.38347">
        <ele>46</ele>
        <time>2021-12-16T08:55:44.000Z</time>
      </trkpt>
      <trkpt lat="47.29455" lon="-2.38358">
        <ele>45.599998474121</ele>
        <time>2021-12-16T08:55:45.000Z</time>
      </trkpt>
      <trkpt lat="47.29455" lon="-2.38369">
        <ele>45.200000762939</ele>
        <time>2021-12-16T08:55:46.000Z</time>
      </trkpt>
      <trkpt lat="47.29458" lon="-2.38423">
        <ele>45.200000762939</ele>
        <time>2021-12-16T08:55:51.000Z</time>
      </trkpt>
      <trkpt lat="47.29461" lon="-2.38485">
        <ele>45.200000762939</ele>
        <time>2021-12-16T08:55:57.000Z</time>
      </trkpt>
      <trkpt lat="47.29463" lon="-2.3856">
        <ele>45.200000762939</ele>
        <time>2021-12-16T08:56:05.000Z</time>
      </trkpt>
      <trkpt lat="47.29463" lon="-2.38639">
        <ele>45.200000762939</ele>
        <time>2021-12-16T08:56:14.000Z</time>
      </trkpt>
      <trkpt lat="47.29467" lon="-2.38682">
        <ele>45.200000762939</ele>
        <time>2021-12-16T08:56:19.000Z</time>
      </trkpt>
      <trkpt lat="47.29471" lon="-2.38729">
        <ele>45.200000762939</ele>
        <time>2021-12-16T08:56:25.000Z</time>
      </trkpt>
      <trkpt lat="47.29473" lon="-2.38756">
        <ele>45.200000762939</ele>
        <time>2021-12-16T08:56:29.000Z</time>
      </trkpt>
      <trkpt lat="47.29473" lon="-2.38762">
        <ele>45.200000762939</ele>
        <time>2021-12-16T08:56:30.000Z</time>
      </trkpt>
      <trkpt lat="47.29473" lon="-2.3878">
        <ele>45.200000762939</ele>
        <time>2021-12-16T08:56:33.000Z</time>
      </trkpt>
      <trkpt lat="47.29474" lon="-2.38786">
        <ele>45.599998474121</ele>
        <time>2021-12-16T08:56:34.000Z</time>
      </trkpt>
      <trkpt lat="47.29474" lon="-2.38792">
        <ele>46</ele>
        <time>2021-12-16T08:56:35.000Z</time>
      </trkpt>
      <trkpt lat="47.29474" lon="-2.38798">
        <ele>46.400001525879</ele>
        <time>2021-12-16T08:56:36.000Z</time>
      </trkpt>
      <trkpt lat="47.29474" lon="-2.38804">
        <ele>46.799999237061</ele>
        <time>2021-12-16T08:56:37.000Z</time>
      </trkpt>
      <trkpt lat="47.29474" lon="-2.3881">
        <ele>47.200000762939</ele>
        <time>2021-12-16T08:56:38.000Z</time>
      </trkpt>
      <trkpt lat="47.29475" lon="-2.38822">
        <ele>47.200000762939</ele>
        <time>2021-12-16T08:56:40.000Z</time>
      </trkpt>
      <trkpt lat="47.29478" lon="-2.38838">
        <ele>47.200000762939</ele>
        <time>2021-12-16T08:56:43.000Z</time>
      </trkpt>
      <trkpt lat="47.29488" lon="-2.38878">
        <ele>47.200000762939</ele>
        <time>2021-12-16T08:56:50.000Z</time>
      </trkpt>
      <trkpt lat="47.29506" lon="-2.38931">
        <ele>47.200000762939</ele>
        <time>2021-12-16T08:56:59.000Z</time>
      </trkpt>
      <trkpt lat="47.29509" lon="-2.38937">
        <ele>47.200000762939</ele>
        <time>2021-12-16T08:57:00.000Z</time>
      </trkpt>
      <trkpt lat="47.29524" lon="-2.38956">
        <ele>47.200000762939</ele>
        <time>2021-12-16T08:57:04.000Z</time>
      </trkpt>
      <trkpt lat="47.2954" lon="-2.38972">
        <ele>47.200000762939</ele>
        <time>2021-12-16T08:57:08.000Z</time>
      </trkpt>
      <trkpt lat="47.29544" lon="-2.38974">
        <ele>47.200000762939</ele>
        <time>2021-12-16T08:57:09.000Z</time>
      </trkpt>
      <trkpt lat="47.29576" lon="-2.38991">
        <ele>47.200000762939</ele>
        <time>2021-12-16T08:57:16.000Z</time>
      </trkpt>
      <trkpt lat="47.29603" lon="-2.39004">
        <ele>47.200000762939</ele>
        <time>2021-12-16T08:57:22.000Z</time>
      </trkpt>
      <trkpt lat="47.29615" lon="-2.39012">
        <ele>47.200000762939</ele>
        <time>2021-12-16T08:57:25.000Z</time>
      </trkpt>
      <trkpt lat="47.29621" lon="-2.39019">
        <ele>47.200000762939</ele>
        <time>2021-12-16T08:57:27.000Z</time>
      </trkpt>
      <trkpt lat="47.29628" lon="-2.39047">
        <ele>47.200000762939</ele>
        <time>2021-12-16T08:57:31.000Z</time>
      </trkpt>
      <trkpt lat="47.29628" lon="-2.39062">
        <ele>47.200000762939</ele>
        <time>2021-12-16T08:57:33.000Z</time>
      </trkpt>
      <trkpt lat="47.29628" lon="-2.39095">
        <ele>47.200000762939</ele>
        <time>2021-12-16T08:57:37.000Z</time>
      </trkpt>
      <trkpt lat="47.29634" lon="-2.39142">
        <ele>47.200000762939</ele>
        <time>2021-12-16T08:57:43.000Z</time>
      </trkpt>
      <trkpt lat="47.2964" lon="-2.39165">
        <ele>47.200000762939</ele>
        <time>2021-12-16T08:57:46.000Z</time>
      </trkpt>
      <trkpt lat="47.29647" lon="-2.39178">
        <ele>47.200000762939</ele>
        <time>2021-12-16T08:57:48.000Z</time>
      </trkpt>
      <trkpt lat="47.29658" lon="-2.39186">
        <ele>47.200000762939</ele>
        <time>2021-12-16T08:57:51.000Z</time>
      </trkpt>
      <trkpt lat="47.29665" lon="-2.39199">
        <ele>47.200000762939</ele>
        <time>2021-12-16T08:57:55.000Z</time>
      </trkpt>
      <trkpt lat="47.29658" lon="-2.39222">
        <ele>47.200000762939</ele>
        <time>2021-12-16T08:57:59.000Z</time>
      </trkpt>
      <trkpt lat="47.29654" lon="-2.39238">
        <ele>47.200000762939</ele>
        <time>2021-12-16T08:58:01.000Z</time>
      </trkpt>
      <trkpt lat="47.29652" lon="-2.39253">
        <ele>47.200000762939</ele>
        <time>2021-12-16T08:58:03.000Z</time>
      </trkpt>
      <trkpt lat="47.29645" lon="-2.39323">
        <ele>47.200000762939</ele>
        <time>2021-12-16T08:58:12.000Z</time>
      </trkpt>
      <trkpt lat="47.2964" lon="-2.39378">
        <ele>47.200000762939</ele>
        <time>2021-12-16T08:58:19.000Z</time>
      </trkpt>
      <trkpt lat="47.29639" lon="-2.39385">
        <ele>47.200000762939</ele>
        <time>2021-12-16T08:58:20.000Z</time>
      </trkpt>
      <trkpt lat="47.29634" lon="-2.394">
        <ele>46.799999237061</ele>
        <time>2021-12-16T08:58:22.000Z</time>
      </trkpt>
      <trkpt lat="47.29633" lon="-2.39408">
        <ele>46.400001525879</ele>
        <time>2021-12-16T08:58:23.000Z</time>
      </trkpt>
      <trkpt lat="47.29632" lon="-2.39416">
        <ele>46</ele>
        <time>2021-12-16T08:58:24.000Z</time>
      </trkpt>
      <trkpt lat="47.29631" lon="-2.39425">
        <ele>45.599998474121</ele>
        <time>2021-12-16T08:58:25.000Z</time>
      </trkpt>
      <trkpt lat="47.29629" lon="-2.39433">
        <ele>45.200000762939</ele>
        <time>2021-12-16T08:58:26.000Z</time>
      </trkpt>
      <trkpt lat="47.29622" lon="-2.39446">
        <ele>45.200000762939</ele>
        <time>2021-12-16T08:58:28.000Z</time>
      </trkpt>
      <trkpt lat="47.29615" lon="-2.39457">
        <ele>45.200000762939</ele>
        <time>2021-12-16T08:58:30.000Z</time>
      </trkpt>
      <trkpt lat="47.29602" lon="-2.3948">
        <ele>45.200000762939</ele>
        <time>2021-12-16T08:58:34.000Z</time>
      </trkpt>
      <trkpt lat="47.29596" lon="-2.3949">
        <ele>45.200000762939</ele>
        <time>2021-12-16T08:58:36.000Z</time>
      </trkpt>
      <trkpt lat="47.29584" lon="-2.39497">
        <ele>45.200000762939</ele>
        <time>2021-12-16T08:58:39.000Z</time>
      </trkpt>
      <trkpt lat="47.29572" lon="-2.39494">
        <ele>45.200000762939</ele>
        <time>2021-12-16T08:58:42.000Z</time>
      </trkpt>
      <trkpt lat="47.29569" lon="-2.39493">
        <ele>45.200000762939</ele>
        <time>2021-12-16T08:58:43.000Z</time>
      </trkpt>
      <trkpt lat="47.29562" lon="-2.39491">
        <ele>45.200000762939</ele>
        <time>2021-12-16T08:58:47.000Z</time>
      </trkpt>
      <trkpt lat="47.29558" lon="-2.39496">
        <ele>45.200000762939</ele>
        <time>2021-12-16T08:58:50.000Z</time>
      </trkpt>
      <trkpt lat="47.29555" lon="-2.39503">
        <ele>45.200000762939</ele>
        <time>2021-12-16T08:58:52.000Z</time>
      </trkpt>
      <trkpt lat="47.29555" lon="-2.39515">
        <ele>45.200000762939</ele>
        <time>2021-12-16T08:58:56.000Z</time>
      </trkpt>
      <trkpt lat="47.29555" lon="-2.39518">
        <ele>45.200000762939</ele>
        <time>2021-12-16T08:58:57.000Z</time>
      </trkpt>
      <trkpt lat="47.29556" lon="-2.39524">
        <ele>45.599998474121</ele>
        <time>2021-12-16T08:58:59.000Z</time>
      </trkpt>
      <trkpt lat="47.29557" lon="-2.39527">
        <ele>46</ele>
        <time>2021-12-16T08:59:00.000Z</time>
      </trkpt>
      <trkpt lat="47.29556" lon="-2.39531">
        <ele>46.400001525879</ele>
        <time>2021-12-16T08:59:01.000Z</time>
      </trkpt>
      <trkpt lat="47.29555" lon="-2.39534">
        <ele>46.799999237061</ele>
        <time>2021-12-16T08:59:02.000Z</time>
      </trkpt>
      <trkpt lat="47.29555" lon="-2.39537">
        <ele>47.400001525879</ele>
        <time>2021-12-16T08:59:03.000Z</time>
      </trkpt>
      <trkpt lat="47.29559" lon="-2.39542">
        <ele>47.400001525879</ele>
        <time>2021-12-16T08:59:06.000Z</time>
      </trkpt>
      <trkpt lat="47.29561" lon="-2.39542">
        <ele>47.799999237061</ele>
        <time>2021-12-16T08:59:07.000Z</time>
      </trkpt>
      <trkpt lat="47.29564" lon="-2.39542">
        <ele>48.200000762939</ele>
        <time>2021-12-16T08:59:08.000Z</time>
      </trkpt>
      <trkpt lat="47.29567" lon="-2.39542">
        <ele>48.599998474121</ele>
        <time>2021-12-16T08:59:09.000Z</time>
      </trkpt>
      <trkpt lat="47.2957" lon="-2.39542">
        <ele>49</ele>
        <time>2021-12-16T08:59:10.000Z</time>
      </trkpt>
      <trkpt lat="47.29573" lon="-2.39543">
        <ele>49.400001525879</ele>
        <time>2021-12-16T08:59:11.000Z</time>
      </trkpt>
      <trkpt lat="47.29583" lon="-2.39545">
        <ele>49.799999237061</ele>
        <time>2021-12-16T08:59:15.000Z</time>
      </trkpt>
      <trkpt lat="47.29586" lon="-2.39545">
        <ele>50.200000762939</ele>
        <time>2021-12-16T08:59:16.000Z</time>
      </trkpt>
      <trkpt lat="47.29588" lon="-2.39546">
        <ele>50.799999237061</ele>
        <time>2021-12-16T08:59:17.000Z</time>
      </trkpt>
      <trkpt lat="47.29591" lon="-2.39546">
        <ele>51.200000762939</ele>
        <time>2021-12-16T08:59:18.000Z</time>
      </trkpt>
      <trkpt lat="47.29594" lon="-2.39547">
        <ele>51.599998474121</ele>
        <time>2021-12-16T08:59:19.000Z</time>
      </trkpt>
      <trkpt lat="47.29612" lon="-2.39551">
        <ele>51.599998474121</ele>
        <time>2021-12-16T08:59:24.000Z</time>
      </trkpt>
      <trkpt lat="47.29621" lon="-2.39553">
        <ele>51.599998474121</ele>
        <time>2021-12-16T08:59:26.000Z</time>
      </trkpt>
      <trkpt lat="47.29625" lon="-2.39557">
        <ele>51.599998474121</ele>
        <time>2021-12-16T08:59:28.000Z</time>
      </trkpt>
      <trkpt lat="47.29625" lon="-2.39559">
        <ele>51.200000762939</ele>
        <time>2021-12-16T08:59:29.000Z</time>
      </trkpt>
      <trkpt lat="47.29622" lon="-2.39561">
        <ele>50.799999237061</ele>
        <time>2021-12-16T08:59:30.000Z</time>
      </trkpt>
      <trkpt lat="47.29618" lon="-2.39562">
        <ele>50.400001525879</ele>
        <time>2021-12-16T08:59:31.000Z</time>
      </trkpt>
      <trkpt lat="47.29615" lon="-2.39563">
        <ele>49.799999237061</ele>
        <time>2021-12-16T08:59:32.000Z</time>
      </trkpt>
      <trkpt lat="47.29612" lon="-2.39566">
        <ele>49.400001525879</ele>
        <time>2021-12-16T08:59:33.000Z</time>
      </trkpt>
      <trkpt lat="47.29611" lon="-2.39573">
        <ele>49.400001525879</ele>
        <time>2021-12-16T08:59:35.000Z</time>
      </trkpt>
      <trkpt lat="47.29617" lon="-2.39576">
        <ele>49</ele>
        <time>2021-12-16T08:59:37.000Z</time>
      </trkpt>
      <trkpt lat="47.29621" lon="-2.39577">
        <ele>48.599998474121</ele>
        <time>2021-12-16T08:59:38.000Z</time>
      </trkpt>
      <trkpt lat="47.29625" lon="-2.39578">
        <ele>48</ele>
        <time>2021-12-16T08:59:39.000Z</time>
      </trkpt>
      <trkpt lat="47.29629" lon="-2.39581">
        <ele>47.599998474121</ele>
        <time>2021-12-16T08:59:40.000Z</time>
      </trkpt>
      <trkpt lat="47.29631" lon="-2.39585">
        <ele>47.200000762939</ele>
        <time>2021-12-16T08:59:41.000Z</time>
      </trkpt>
      <trkpt lat="47.29631" lon="-2.39588">
        <ele>47.200000762939</ele>
        <time>2021-12-16T08:59:42.000Z</time>
      </trkpt>
      <trkpt lat="47.29632" lon="-2.39606">
        <ele>46.799999237061</ele>
        <time>2021-12-16T08:59:46.000Z</time>
      </trkpt>
      <trkpt lat="47.29633" lon="-2.39612">
        <ele>46</ele>
        <time>2021-12-16T08:59:47.000Z</time>
      </trkpt>
      <trkpt lat="47.29632" lon="-2.3962">
        <ele>45.599998474121</ele>
        <time>2021-12-16T08:59:48.000Z</time>
      </trkpt>
      <trkpt lat="47.29632" lon="-2.39627">
        <ele>45.200000762939</ele>
        <time>2021-12-16T08:59:49.000Z</time>
      </trkpt>
      <trkpt lat="47.2963" lon="-2.39637">
        <ele>45.200000762939</ele>
        <time>2021-12-16T08:59:51.000Z</time>
      </trkpt>
      <trkpt lat="47.29628" lon="-2.39641">
        <ele>45.200000762939</ele>
        <time>2021-12-16T08:59:54.000Z</time>
      </trkpt>
      <trkpt lat="47.29627" lon="-2.39648">
        <ele>45.200000762939</ele>
        <time>2021-12-16T09:00:14.000Z</time>
      </trkpt>
      <trkpt lat="47.29619" lon="-2.39666">
        <ele>45.200000762939</ele>
        <time>2021-12-16T09:00:18.000Z</time>
      </trkpt>
      <trkpt lat="47.29598" lon="-2.397">
        <ele>45.200000762939</ele>
        <time>2021-12-16T09:00:24.000Z</time>
      </trkpt>
      <trkpt lat="47.29573" lon="-2.39747">
        <ele>45.200000762939</ele>
        <time>2021-12-16T09:00:31.000Z</time>
      </trkpt>
      <trkpt lat="47.29553" lon="-2.39793">
        <ele>45.200000762939</ele>
        <time>2021-12-16T09:00:37.000Z</time>
      </trkpt>
      <trkpt lat="47.29531" lon="-2.39837">
        <ele>45.200000762939</ele>
        <time>2021-12-16T09:00:43.000Z</time>
      </trkpt>
      <trkpt lat="47.29505" lon="-2.3989">
        <ele>45.200000762939</ele>
        <time>2021-12-16T09:00:51.000Z</time>
      </trkpt>
      <trkpt lat="47.29499" lon="-2.39899">
        <ele>45.200000762939</ele>
        <time>2021-12-16T09:00:53.000Z</time>
      </trkpt>
      <trkpt lat="47.29493" lon="-2.39903">
        <ele>45.200000762939</ele>
        <time>2021-12-16T09:00:55.000Z</time>
      </trkpt>
      <trkpt lat="47.29489" lon="-2.39909">
        <ele>45.200000762939</ele>
        <time>2021-12-16T09:00:57.000Z</time>
      </trkpt>
      <trkpt lat="47.29487" lon="-2.39919">
        <ele>45.200000762939</ele>
        <time>2021-12-16T09:00:59.000Z</time>
      </trkpt>
      <trkpt lat="47.29483" lon="-2.3993">
        <ele>45.200000762939</ele>
        <time>2021-12-16T09:01:01.000Z</time>
      </trkpt>
      <trkpt lat="47.29477" lon="-2.39944">
        <ele>45.200000762939</ele>
        <time>2021-12-16T09:01:03.000Z</time>
      </trkpt>
      <trkpt lat="47.29461" lon="-2.39985">
        <ele>45.200000762939</ele>
        <time>2021-12-16T09:01:08.000Z</time>
      </trkpt>
      <trkpt lat="47.29459" lon="-2.39994">
        <ele>45.200000762939</ele>
        <time>2021-12-16T09:01:09.000Z</time>
      </trkpt>
      <trkpt lat="47.29458" lon="-2.40021">
        <ele>45.200000762939</ele>
        <time>2021-12-16T09:01:12.000Z</time>
      </trkpt>
      <trkpt lat="47.29458" lon="-2.4003">
        <ele>45.200000762939</ele>
        <time>2021-12-16T09:01:13.000Z</time>
      </trkpt>
      <trkpt lat="47.29461" lon="-2.40074">
        <ele>45.200000762939</ele>
        <time>2021-12-16T09:01:18.000Z</time>
      </trkpt>
      <trkpt lat="47.29456" lon="-2.40119">
        <ele>45.200000762939</ele>
        <time>2021-12-16T09:01:23.000Z</time>
      </trkpt>
      <trkpt lat="47.29453" lon="-2.40154">
        <ele>45.200000762939</ele>
        <time>2021-12-16T09:01:27.000Z</time>
      </trkpt>
      <trkpt lat="47.29452" lon="-2.40162">
        <ele>45.200000762939</ele>
        <time>2021-12-16T09:01:28.000Z</time>
      </trkpt>
      <trkpt lat="47.29446" lon="-2.40204">
        <ele>45.200000762939</ele>
        <time>2021-12-16T09:01:33.000Z</time>
      </trkpt>
      <trkpt lat="47.2944" lon="-2.40218">
        <ele>45.200000762939</ele>
        <time>2021-12-16T09:01:35.000Z</time>
      </trkpt>
      <trkpt lat="47.29436" lon="-2.4022">
        <ele>45.200000762939</ele>
        <time>2021-12-16T09:01:36.000Z</time>
      </trkpt>
      <trkpt lat="47.29417" lon="-2.40221">
        <ele>45.200000762939</ele>
        <time>2021-12-16T09:01:40.000Z</time>
      </trkpt>
      <trkpt lat="47.29399" lon="-2.4023">
        <ele>45.200000762939</ele>
        <time>2021-12-16T09:01:44.000Z</time>
      </trkpt>
      <trkpt lat="47.29394" lon="-2.40233">
        <ele>45.200000762939</ele>
        <time>2021-12-16T09:01:45.000Z</time>
      </trkpt>
      <trkpt lat="47.29375" lon="-2.40246">
        <ele>45.200000762939</ele>
        <time>2021-12-16T09:01:49.000Z</time>
      </trkpt>
      <trkpt lat="47.2937" lon="-2.4025">
        <ele>45.200000762939</ele>
        <time>2021-12-16T09:01:50.000Z</time>
      </trkpt>
      <trkpt lat="47.29351" lon="-2.40269">
        <ele>45.200000762939</ele>
        <time>2021-12-16T09:01:54.000Z</time>
      </trkpt>
      <trkpt lat="47.29346" lon="-2.40273">
        <ele>45.200000762939</ele>
        <time>2021-12-16T09:01:55.000Z</time>
      </trkpt>
      <trkpt lat="47.29328" lon="-2.40291">
        <ele>45.200000762939</ele>
        <time>2021-12-16T09:01:59.000Z</time>
      </trkpt>
      <trkpt lat="47.29324" lon="-2.40296">
        <ele>45.200000762939</ele>
        <time>2021-12-16T09:02:00.000Z</time>
      </trkpt>
      <trkpt lat="47.29304" lon="-2.40322">
        <ele>45.200000762939</ele>
        <time>2021-12-16T09:02:05.000Z</time>
      </trkpt>
      <trkpt lat="47.29289" lon="-2.40339">
        <ele>45.200000762939</ele>
        <time>2021-12-16T09:02:09.000Z</time>
      </trkpt>
      <trkpt lat="47.29286" lon="-2.40346">
        <ele>45.200000762939</ele>
        <time>2021-12-16T09:02:10.000Z</time>
      </trkpt>
      <trkpt lat="47.2929" lon="-2.40368">
        <ele>45.200000762939</ele>
        <time>2021-12-16T09:02:13.000Z</time>
      </trkpt>
      <trkpt lat="47.29299" lon="-2.40387">
        <ele>45.200000762939</ele>
        <time>2021-12-16T09:02:16.000Z</time>
      </trkpt>
      <trkpt lat="47.29305" lon="-2.40398">
        <ele>45.200000762939</ele>
        <time>2021-12-16T09:02:18.000Z</time>
      </trkpt>
      <trkpt lat="47.29306" lon="-2.40418">
        <ele>45.200000762939</ele>
        <time>2021-12-16T09:02:21.000Z</time>
      </trkpt>
      <trkpt lat="47.29302" lon="-2.40429">
        <ele>45.200000762939</ele>
        <time>2021-12-16T09:02:23.000Z</time>
      </trkpt>
      <trkpt lat="47.29296" lon="-2.40447">
        <ele>45.200000762939</ele>
        <time>2021-12-16T09:02:26.000Z</time>
      </trkpt>
      <trkpt lat="47.29291" lon="-2.40458">
        <ele>45.200000762939</ele>
        <time>2021-12-16T09:02:28.000Z</time>
      </trkpt>
      <trkpt lat="47.29283" lon="-2.40466">
        <ele>45.200000762939</ele>
        <time>2021-12-16T09:02:30.000Z</time>
      </trkpt>
      <trkpt lat="47.2927" lon="-2.40474">
        <ele>45.200000762939</ele>
        <time>2021-12-16T09:02:33.000Z</time>
      </trkpt>
      <trkpt lat="47.29265" lon="-2.40475">
        <ele>45.200000762939</ele>
        <time>2021-12-16T09:02:34.000Z</time>
      </trkpt>
      <trkpt lat="47.2926" lon="-2.40477">
        <ele>45.200000762939</ele>
        <time>2021-12-16T09:02:35.000Z</time>
      </trkpt>
      <trkpt lat="47.29233" lon="-2.40491">
        <ele>45.200000762939</ele>
        <time>2021-12-16T09:02:41.000Z</time>
      </trkpt>
      <trkpt lat="47.29202" lon="-2.40509">
        <ele>45.200000762939</ele>
        <time>2021-12-16T09:02:48.000Z</time>
      </trkpt>
      <trkpt lat="47.29183" lon="-2.40515">
        <ele>45.200000762939</ele>
        <time>2021-12-16T09:02:53.000Z</time>
      </trkpt>
      <trkpt lat="47.29174" lon="-2.40518">
        <ele>45.200000762939</ele>
        <time>2021-12-16T09:02:56.000Z</time>
      </trkpt>
      <trkpt lat="47.29171" lon="-2.40515">
        <ele>45.200000762939</ele>
        <time>2021-12-16T09:02:57.000Z</time>
      </trkpt>
      <trkpt lat="47.29166" lon="-2.40502">
        <ele>45.200000762939</ele>
        <time>2021-12-16T09:03:00.000Z</time>
      </trkpt>
      <trkpt lat="47.29164" lon="-2.40498">
        <ele>45.200000762939</ele>
        <time>2021-12-16T09:03:01.000Z</time>
      </trkpt>
      <trkpt lat="47.29151" lon="-2.40486">
        <ele>45.200000762939</ele>
        <time>2021-12-16T09:03:05.000Z</time>
      </trkpt>
      <trkpt lat="47.29133" lon="-2.4049">
        <ele>45.200000762939</ele>
        <time>2021-12-16T09:03:09.000Z</time>
      </trkpt>
      <trkpt lat="47.29108" lon="-2.40508">
        <ele>45.200000762939</ele>
        <time>2021-12-16T09:03:15.000Z</time>
      </trkpt>
      <trkpt lat="47.29099" lon="-2.40533">
        <ele>45.200000762939</ele>
        <time>2021-12-16T09:03:19.000Z</time>
      </trkpt>
      <trkpt lat="47.29104" lon="-2.40551">
        <ele>45.200000762939</ele>
        <time>2021-12-16T09:03:22.000Z</time>
      </trkpt>
      <trkpt lat="47.29116" lon="-2.40563">
        <ele>45.200000762939</ele>
        <time>2021-12-16T09:03:25.000Z</time>
      </trkpt>
      <trkpt lat="47.2912" lon="-2.40567">
        <ele>45.200000762939</ele>
        <time>2021-12-16T09:03:26.000Z</time>
      </trkpt>
      <trkpt lat="47.29124" lon="-2.40572">
        <ele>45.200000762939</ele>
        <time>2021-12-16T09:03:27.000Z</time>
      </trkpt>
      <trkpt lat="47.29136" lon="-2.40594">
        <ele>45.200000762939</ele>
        <time>2021-12-16T09:03:31.000Z</time>
      </trkpt>
      <trkpt lat="47.2914" lon="-2.40605">
        <ele>45.200000762939</ele>
        <time>2021-12-16T09:03:33.000Z</time>
      </trkpt>
      <trkpt lat="47.29143" lon="-2.40627">
        <ele>45.200000762939</ele>
        <time>2021-12-16T09:03:36.000Z</time>
      </trkpt>
      <trkpt lat="47.29145" lon="-2.40639">
        <ele>45.200000762939</ele>
        <time>2021-12-16T09:03:38.000Z</time>
      </trkpt>
      <trkpt lat="47.29151" lon="-2.40646">
        <ele>45.200000762939</ele>
        <time>2021-12-16T09:03:40.000Z</time>
      </trkpt>
      <trkpt lat="47.29161" lon="-2.40642">
        <ele>45.200000762939</ele>
        <time>2021-12-16T09:03:43.000Z</time>
      </trkpt>
      <trkpt lat="47.29167" lon="-2.40635">
        <ele>45.200000762939</ele>
        <time>2021-12-16T09:03:45.000Z</time>
      </trkpt>
      <trkpt lat="47.29176" lon="-2.40628">
        <ele>45.200000762939</ele>
        <time>2021-12-16T09:03:48.000Z</time>
      </trkpt>
      <trkpt lat="47.29194" lon="-2.40613">
        <ele>45.200000762939</ele>
        <time>2021-12-16T09:03:54.000Z</time>
      </trkpt>
      <trkpt lat="47.29198" lon="-2.40611">
        <ele>45.200000762939</ele>
        <time>2021-12-16T09:03:55.000Z</time>
      </trkpt>
      <trkpt lat="47.29207" lon="-2.40615">
        <ele>45.200000762939</ele>
        <time>2021-12-16T09:03:57.000Z</time>
      </trkpt>
      <trkpt lat="47.29217" lon="-2.40627">
        <ele>45.200000762939</ele>
        <time>2021-12-16T09:04:00.000Z</time>
      </trkpt>
      <trkpt lat="47.2922" lon="-2.40632">
        <ele>45.200000762939</ele>
        <time>2021-12-16T09:04:01.000Z</time>
      </trkpt>
      <trkpt lat="47.29225" lon="-2.40643">
        <ele>45.200000762939</ele>
        <time>2021-12-16T09:04:03.000Z</time>
      </trkpt>
      <trkpt lat="47.29231" lon="-2.4066">
        <ele>45.200000762939</ele>
        <time>2021-12-16T09:04:06.000Z</time>
      </trkpt>
      <trkpt lat="47.29233" lon="-2.40666">
        <ele>45.200000762939</ele>
        <time>2021-12-16T09:04:07.000Z</time>
      </trkpt>
      <trkpt lat="47.29232" lon="-2.40684">
        <ele>45.200000762939</ele>
        <time>2021-12-16T09:04:10.000Z</time>
      </trkpt>
      <trkpt lat="47.29229" lon="-2.40694">
        <ele>45.200000762939</ele>
        <time>2021-12-16T09:04:12.000Z</time>
      </trkpt>
      <trkpt lat="47.29224" lon="-2.40704">
        <ele>45.200000762939</ele>
        <time>2021-12-16T09:04:14.000Z</time>
      </trkpt>
      <trkpt lat="47.29219" lon="-2.40713">
        <ele>45.200000762939</ele>
        <time>2021-12-16T09:04:16.000Z</time>
      </trkpt>
      <trkpt lat="47.29217" lon="-2.40718">
        <ele>45.200000762939</ele>
        <time>2021-12-16T09:04:17.000Z</time>
      </trkpt>
      <trkpt lat="47.292" lon="-2.40743">
        <ele>45.200000762939</ele>
        <time>2021-12-16T09:04:22.000Z</time>
      </trkpt>
      <trkpt lat="47.29192" lon="-2.40754">
        <ele>45.200000762939</ele>
        <time>2021-12-16T09:04:24.000Z</time>
      </trkpt>
      <trkpt lat="47.29186" lon="-2.40774">
        <ele>45.200000762939</ele>
        <time>2021-12-16T09:04:27.000Z</time>
      </trkpt>
      <trkpt lat="47.29172" lon="-2.40814">
        <ele>45.200000762939</ele>
        <time>2021-12-16T09:04:33.000Z</time>
      </trkpt>
      <trkpt lat="47.29171" lon="-2.4082">
        <ele>45.200000762939</ele>
        <time>2021-12-16T09:04:34.000Z</time>
      </trkpt>
      <trkpt lat="47.29172" lon="-2.40847">
        <ele>45.200000762939</ele>
        <time>2021-12-16T09:04:38.000Z</time>
      </trkpt>
      <trkpt lat="47.29173" lon="-2.40861">
        <ele>45.200000762939</ele>
        <time>2021-12-16T09:04:40.000Z</time>
      </trkpt>
      <trkpt lat="47.29169" lon="-2.40881">
        <ele>45.200000762939</ele>
        <time>2021-12-16T09:04:43.000Z</time>
      </trkpt>
      <trkpt lat="47.29165" lon="-2.40893">
        <ele>45.200000762939</ele>
        <time>2021-12-16T09:04:45.000Z</time>
      </trkpt>
      <trkpt lat="47.29163" lon="-2.40904">
        <ele>45.200000762939</ele>
        <time>2021-12-16T09:04:47.000Z</time>
      </trkpt>
      <trkpt lat="47.29162" lon="-2.40911">
        <ele>45.200000762939</ele>
        <time>2021-12-16T09:04:48.000Z</time>
      </trkpt>
      <trkpt lat="47.29162" lon="-2.40923">
        <ele>45.200000762939</ele>
        <time>2021-12-16T09:04:50.000Z</time>
      </trkpt>
      <trkpt lat="47.29165" lon="-2.40935">
        <ele>45.200000762939</ele>
        <time>2021-12-16T09:04:52.000Z</time>
      </trkpt>
      <trkpt lat="47.29176" lon="-2.40944">
        <ele>45.200000762939</ele>
        <time>2021-12-16T09:04:55.000Z</time>
      </trkpt>
      <trkpt lat="47.2918" lon="-2.40946">
        <ele>45.200000762939</ele>
        <time>2021-12-16T09:04:56.000Z</time>
      </trkpt>
      <trkpt lat="47.29185" lon="-2.40947">
        <ele>45.200000762939</ele>
        <time>2021-12-16T09:04:57.000Z</time>
      </trkpt>
      <trkpt lat="47.29205" lon="-2.40953">
        <ele>45.200000762939</ele>
        <time>2021-12-16T09:05:02.000Z</time>
      </trkpt>
      <trkpt lat="47.29208" lon="-2.40956">
        <ele>45.200000762939</ele>
        <time>2021-12-16T09:05:03.000Z</time>
      </trkpt>
      <trkpt lat="47.29217" lon="-2.40971">
        <ele>45.200000762939</ele>
        <time>2021-12-16T09:05:06.000Z</time>
      </trkpt>
      <trkpt lat="47.29219" lon="-2.40977">
        <ele>45.200000762939</ele>
        <time>2021-12-16T09:05:07.000Z</time>
      </trkpt>
      <trkpt lat="47.29228" lon="-2.40999">
        <ele>45.200000762939</ele>
        <time>2021-12-16T09:05:11.000Z</time>
      </trkpt>
      <trkpt lat="47.29236" lon="-2.41015">
        <ele>45.200000762939</ele>
        <time>2021-12-16T09:05:14.000Z</time>
      </trkpt>
      <trkpt lat="47.29242" lon="-2.41024">
        <ele>45.200000762939</ele>
        <time>2021-12-16T09:05:16.000Z</time>
      </trkpt>
      <trkpt lat="47.29249" lon="-2.41032">
        <ele>45.200000762939</ele>
        <time>2021-12-16T09:05:18.000Z</time>
      </trkpt>
      <trkpt lat="47.29255" lon="-2.41041">
        <ele>45.200000762939</ele>
        <time>2021-12-16T09:05:20.000Z</time>
      </trkpt>
      <trkpt lat="47.29255" lon="-2.41059">
        <ele>45.200000762939</ele>
        <time>2021-12-16T09:05:23.000Z</time>
      </trkpt>
      <trkpt lat="47.29246" lon="-2.41079">
        <ele>45.200000762939</ele>
        <time>2021-12-16T09:05:27.000Z</time>
      </trkpt>
      <trkpt lat="47.29251" lon="-2.41095">
        <ele>45.200000762939</ele>
        <time>2021-12-16T09:05:30.000Z</time>
      </trkpt>
      <trkpt lat="47.29253" lon="-2.411">
        <ele>45.200000762939</ele>
        <time>2021-12-16T09:05:31.000Z</time>
      </trkpt>
      <trkpt lat="47.29256" lon="-2.41104">
        <ele>45.200000762939</ele>
        <time>2021-12-16T09:05:32.000Z</time>
      </trkpt>
      <trkpt lat="47.29262" lon="-2.41112">
        <ele>45.200000762939</ele>
        <time>2021-12-16T09:05:34.000Z</time>
      </trkpt>
      <trkpt lat="47.29269" lon="-2.4112">
        <ele>45.200000762939</ele>
        <time>2021-12-16T09:05:36.000Z</time>
      </trkpt>
      <trkpt lat="47.29289" lon="-2.41148">
        <ele>45.200000762939</ele>
        <time>2021-12-16T09:05:42.000Z</time>
      </trkpt>
      <trkpt lat="47.29302" lon="-2.4118">
        <ele>45.200000762939</ele>
        <time>2021-12-16T09:05:48.000Z</time>
      </trkpt>
      <trkpt lat="47.29305" lon="-2.41186">
        <ele>45.200000762939</ele>
        <time>2021-12-16T09:05:49.000Z</time>
      </trkpt>
      <trkpt lat="47.29317" lon="-2.412">
        <ele>45.200000762939</ele>
        <time>2021-12-16T09:05:52.000Z</time>
      </trkpt>
      <trkpt lat="47.29342" lon="-2.4123">
        <ele>45.200000762939</ele>
        <time>2021-12-16T09:05:59.000Z</time>
      </trkpt>
      <trkpt lat="47.29357" lon="-2.41254">
        <ele>45.200000762939</ele>
        <time>2021-12-16T09:06:05.000Z</time>
      </trkpt>
      <trkpt lat="47.29359" lon="-2.41266">
        <ele>45.200000762939</ele>
        <time>2021-12-16T09:06:07.000Z</time>
      </trkpt>
      <trkpt lat="47.2936" lon="-2.41283">
        <ele>45.200000762939</ele>
        <time>2021-12-16T09:06:10.000Z</time>
      </trkpt>
      <trkpt lat="47.29362" lon="-2.41304">
        <ele>45.200000762939</ele>
        <time>2021-12-16T09:06:14.000Z</time>
      </trkpt>
      <trkpt lat="47.2936" lon="-2.4131">
        <ele>45.200000762939</ele>
        <time>2021-12-16T09:06:15.000Z</time>
      </trkpt>
      <trkpt lat="47.2935" lon="-2.41332">
        <ele>45.200000762939</ele>
        <time>2021-12-16T09:06:19.000Z</time>
      </trkpt>
      <trkpt lat="47.29349" lon="-2.41338">
        <ele>45.200000762939</ele>
        <time>2021-12-16T09:06:20.000Z</time>
      </trkpt>
      <trkpt lat="47.29354" lon="-2.41358">
        <ele>45.200000762939</ele>
        <time>2021-12-16T09:06:23.000Z</time>
      </trkpt>
      <trkpt lat="47.29364" lon="-2.4137">
        <ele>45.200000762939</ele>
        <time>2021-12-16T09:06:26.000Z</time>
      </trkpt>
      <trkpt lat="47.29367" lon="-2.41375">
        <ele>45.200000762939</ele>
        <time>2021-12-16T09:06:27.000Z</time>
      </trkpt>
      <trkpt lat="47.29381" lon="-2.41398">
        <ele>45.200000762939</ele>
        <time>2021-12-16T09:06:32.000Z</time>
      </trkpt>
      <trkpt lat="47.29399" lon="-2.41439">
        <ele>45.200000762939</ele>
        <time>2021-12-16T09:06:40.000Z</time>
      </trkpt>
      <trkpt lat="47.29414" lon="-2.41464">
        <ele>45.200000762939</ele>
        <time>2021-12-16T09:06:46.000Z</time>
      </trkpt>
      <trkpt lat="47.29435" lon="-2.41485">
        <ele>45.200000762939</ele>
        <time>2021-12-16T09:06:53.000Z</time>
      </trkpt>
      <trkpt lat="47.29448" lon="-2.41487">
        <ele>45.200000762939</ele>
        <time>2021-12-16T09:06:57.000Z</time>
      </trkpt>
      <trkpt lat="47.29472" lon="-2.41483">
        <ele>45.200000762939</ele>
        <time>2021-12-16T09:07:03.000Z</time>
      </trkpt>
      <trkpt lat="47.29491" lon="-2.41486">
        <ele>45.200000762939</ele>
        <time>2021-12-16T09:07:08.000Z</time>
      </trkpt>
      <trkpt lat="47.29506" lon="-2.41477">
        <ele>45.200000762939</ele>
        <time>2021-12-16T09:07:13.000Z</time>
      </trkpt>
      <trkpt lat="47.29519" lon="-2.41481">
        <ele>45.200000762939</ele>
        <time>2021-12-16T09:07:17.000Z</time>
      </trkpt>
      <trkpt lat="47.29533" lon="-2.41503">
        <ele>45.200000762939</ele>
        <time>2021-12-16T09:07:23.000Z</time>
      </trkpt>
      <trkpt lat="47.29542" lon="-2.41527">
        <ele>45.200000762939</ele>
        <time>2021-12-16T09:07:30.000Z</time>
      </trkpt>
      <trkpt lat="47.2954" lon="-2.41554">
        <ele>45.200000762939</ele>
        <time>2021-12-16T09:07:36.000Z</time>
      </trkpt>
      <trkpt lat="47.29531" lon="-2.4158">
        <ele>45.200000762939</ele>
        <time>2021-12-16T09:07:42.000Z</time>
      </trkpt>
      <trkpt lat="47.29527" lon="-2.416">
        <ele>45.200000762939</ele>
        <time>2021-12-16T09:07:47.000Z</time>
      </trkpt>
      <trkpt lat="47.29532" lon="-2.41638">
        <ele>45.200000762939</ele>
        <time>2021-12-16T09:07:55.000Z</time>
      </trkpt>
      <trkpt lat="47.29539" lon="-2.41662">
        <ele>45.200000762939</ele>
        <time>2021-12-16T09:08:01.000Z</time>
      </trkpt>
      <trkpt lat="47.29553" lon="-2.41693">
        <ele>45.200000762939</ele>
        <time>2021-12-16T09:08:09.000Z</time>
      </trkpt>
      <trkpt lat="47.29566" lon="-2.41708">
        <ele>45.200000762939</ele>
        <time>2021-12-16T09:08:14.000Z</time>
      </trkpt>
      <trkpt lat="47.29584" lon="-2.41717">
        <ele>45.200000762939</ele>
        <time>2021-12-16T09:08:20.000Z</time>
      </trkpt>
      <trkpt lat="47.29606" lon="-2.41737">
        <ele>45.200000762939</ele>
        <time>2021-12-16T09:08:27.000Z</time>
      </trkpt>
      <trkpt lat="47.29624" lon="-2.41757">
        <ele>45.200000762939</ele>
        <time>2021-12-16T09:08:33.000Z</time>
      </trkpt>
      <trkpt lat="47.29637" lon="-2.41782">
        <ele>45.200000762939</ele>
        <time>2021-12-16T09:08:39.000Z</time>
      </trkpt>
      <trkpt lat="47.29637" lon="-2.41801">
        <ele>45.200000762939</ele>
        <time>2021-12-16T09:08:43.000Z</time>
      </trkpt>
      <trkpt lat="47.29643" lon="-2.41822">
        <ele>45.200000762939</ele>
        <time>2021-12-16T09:08:47.000Z</time>
      </trkpt>
      <trkpt lat="47.29656" lon="-2.41833">
        <ele>45.200000762939</ele>
        <time>2021-12-16T09:08:51.000Z</time>
      </trkpt>
      <trkpt lat="47.2966" lon="-2.41832">
        <ele>45.200000762939</ele>
        <time>2021-12-16T09:08:52.000Z</time>
      </trkpt>
      <trkpt lat="47.29667" lon="-2.41827">
        <ele>45.200000762939</ele>
        <time>2021-12-16T09:08:54.000Z</time>
      </trkpt>
      <trkpt lat="47.29678" lon="-2.4182">
        <ele>45.200000762939</ele>
        <time>2021-12-16T09:08:58.000Z</time>
      </trkpt>
      <trkpt lat="47.29685" lon="-2.4182">
        <ele>45.200000762939</ele>
        <time>2021-12-16T09:09:00.000Z</time>
      </trkpt>
      <trkpt lat="47.297" lon="-2.41814">
        <ele>45.200000762939</ele>
        <time>2021-12-16T09:09:04.000Z</time>
      </trkpt>
      <trkpt lat="47.29713" lon="-2.41797">
        <ele>45.200000762939</ele>
        <time>2021-12-16T09:09:09.000Z</time>
      </trkpt>
      <trkpt lat="47.29726" lon="-2.41774">
        <ele>45.200000762939</ele>
        <time>2021-12-16T09:09:15.000Z</time>
      </trkpt>
      <trkpt lat="47.29741" lon="-2.41759">
        <ele>45.200000762939</ele>
        <time>2021-12-16T09:09:20.000Z</time>
      </trkpt>
      <trkpt lat="47.29761" lon="-2.41749">
        <ele>45.200000762939</ele>
        <time>2021-12-16T09:09:26.000Z</time>
      </trkpt>
      <trkpt lat="47.29766" lon="-2.41751">
        <ele>45.200000762939</ele>
        <time>2021-12-16T09:09:28.000Z</time>
      </trkpt>
      <trkpt lat="47.29771" lon="-2.4176">
        <ele>45.200000762939</ele>
        <time>2021-12-16T09:09:30.000Z</time>
      </trkpt>
      <trkpt lat="47.29773" lon="-2.41779">
        <ele>45.200000762939</ele>
        <time>2021-12-16T09:09:33.000Z</time>
      </trkpt>
      <trkpt lat="47.29774" lon="-2.41786">
        <ele>45.200000762939</ele>
        <time>2021-12-16T09:09:34.000Z</time>
      </trkpt>
      <trkpt lat="47.29774" lon="-2.41814">
        <ele>45.200000762939</ele>
        <time>2021-12-16T09:09:38.000Z</time>
      </trkpt>
      <trkpt lat="47.29773" lon="-2.4183">
        <ele>45.200000762939</ele>
        <time>2021-12-16T09:09:40.000Z</time>
      </trkpt>
      <trkpt lat="47.2977" lon="-2.41881">
        <ele>45.200000762939</ele>
        <time>2021-12-16T09:09:46.000Z</time>
      </trkpt>
      <trkpt lat="47.29771" lon="-2.41889">
        <ele>45.200000762939</ele>
        <time>2021-12-16T09:09:47.000Z</time>
      </trkpt>
      <trkpt lat="47.29782" lon="-2.4195">
        <ele>45.200000762939</ele>
        <time>2021-12-16T09:09:54.000Z</time>
      </trkpt>
      <trkpt lat="47.29784" lon="-2.41958">
        <ele>45.200000762939</ele>
        <time>2021-12-16T09:09:55.000Z</time>
      </trkpt>
      <trkpt lat="47.2979" lon="-2.41994">
        <ele>45.200000762939</ele>
        <time>2021-12-16T09:09:59.000Z</time>
      </trkpt>
      <trkpt lat="47.29791" lon="-2.42004">
        <ele>45.200000762939</ele>
        <time>2021-12-16T09:10:00.000Z</time>
      </trkpt>
      <trkpt lat="47.29784" lon="-2.42032">
        <ele>45.200000762939</ele>
        <time>2021-12-16T09:10:03.000Z</time>
      </trkpt>
      <trkpt lat="47.29771" lon="-2.42056">
        <ele>45.200000762939</ele>
        <time>2021-12-16T09:10:06.000Z</time>
      </trkpt>
      <trkpt lat="47.29762" lon="-2.42071">
        <ele>45.200000762939</ele>
        <time>2021-12-16T09:10:08.000Z</time>
      </trkpt>
      <trkpt lat="47.29741" lon="-2.4211">
        <ele>45.200000762939</ele>
        <time>2021-12-16T09:10:13.000Z</time>
      </trkpt>
      <trkpt lat="47.29732" lon="-2.42125">
        <ele>45.200000762939</ele>
        <time>2021-12-16T09:10:15.000Z</time>
      </trkpt>
      <trkpt lat="47.297" lon="-2.42179">
        <ele>45.200000762939</ele>
        <time>2021-12-16T09:10:22.000Z</time>
      </trkpt>
      <trkpt lat="47.29668" lon="-2.42243">
        <ele>45.200000762939</ele>
        <time>2021-12-16T09:10:30.000Z</time>
      </trkpt>
      <trkpt lat="47.29657" lon="-2.42292">
        <ele>45.200000762939</ele>
        <time>2021-12-16T09:10:35.000Z</time>
      </trkpt>
      <trkpt lat="47.2964" lon="-2.42369">
        <ele>45.200000762939</ele>
        <time>2021-12-16T09:10:43.000Z</time>
      </trkpt>
      <trkpt lat="47.29627" lon="-2.42431">
        <ele>45.200000762939</ele>
        <time>2021-12-16T09:10:50.000Z</time>
      </trkpt>
      <trkpt lat="47.29623" lon="-2.42436">
        <ele>45.200000762939</ele>
        <time>2021-12-16T09:10:51.000Z</time>
      </trkpt>
      <trkpt lat="47.29614" lon="-2.42439">
        <ele>45.200000762939</ele>
        <time>2021-12-16T09:10:53.000Z</time>
      </trkpt>
      <trkpt lat="47.29599" lon="-2.42431">
        <ele>45.200000762939</ele>
        <time>2021-12-16T09:10:56.000Z</time>
      </trkpt>
      <trkpt lat="47.29594" lon="-2.42429">
        <ele>45.200000762939</ele>
        <time>2021-12-16T09:10:57.000Z</time>
      </trkpt>
      <trkpt lat="47.29578" lon="-2.42425">
        <ele>45.200000762939</ele>
        <time>2021-12-16T09:11:00.000Z</time>
      </trkpt>
      <trkpt lat="47.29568" lon="-2.42426">
        <ele>45.200000762939</ele>
        <time>2021-12-16T09:11:02.000Z</time>
      </trkpt>
      <trkpt lat="47.29551" lon="-2.42438">
        <ele>45.200000762939</ele>
        <time>2021-12-16T09:11:06.000Z</time>
      </trkpt>
      <trkpt lat="47.29538" lon="-2.42463">
        <ele>45.200000762939</ele>
        <time>2021-12-16T09:11:10.000Z</time>
      </trkpt>
      <trkpt lat="47.29521" lon="-2.42481">
        <ele>45.200000762939</ele>
        <time>2021-12-16T09:11:14.000Z</time>
      </trkpt>
      <trkpt lat="47.29516" lon="-2.42484">
        <ele>45.200000762939</ele>
        <time>2021-12-16T09:11:15.000Z</time>
      </trkpt>
      <trkpt lat="47.29503" lon="-2.42496">
        <ele>45.200000762939</ele>
        <time>2021-12-16T09:11:18.000Z</time>
      </trkpt>
      <trkpt lat="47.29492" lon="-2.42509">
        <ele>45.200000762939</ele>
        <time>2021-12-16T09:11:21.000Z</time>
      </trkpt>
      <trkpt lat="47.29489" lon="-2.42512">
        <ele>45.200000762939</ele>
        <time>2021-12-16T09:11:22.000Z</time>
      </trkpt>
      <trkpt lat="47.29481" lon="-2.42519">
        <ele>45.599998474121</ele>
        <time>2021-12-16T09:11:24.000Z</time>
      </trkpt>
      <trkpt lat="47.29477" lon="-2.42523">
        <ele>46</ele>
        <time>2021-12-16T09:11:25.000Z</time>
      </trkpt>
      <trkpt lat="47.29473" lon="-2.42528">
        <ele>46.400001525879</ele>
        <time>2021-12-16T09:11:26.000Z</time>
      </trkpt>
      <trkpt lat="47.29469" lon="-2.42533">
        <ele>46.799999237061</ele>
        <time>2021-12-16T09:11:27.000Z</time>
      </trkpt>
      <trkpt lat="47.29465" lon="-2.42538">
        <ele>47.200000762939</ele>
        <time>2021-12-16T09:11:28.000Z</time>
      </trkpt>
      <trkpt lat="47.29453" lon="-2.4255">
        <ele>47.200000762939</ele>
        <time>2021-12-16T09:11:31.000Z</time>
      </trkpt>
      <trkpt lat="47.29444" lon="-2.42558">
        <ele>47.200000762939</ele>
        <time>2021-12-16T09:11:33.000Z</time>
      </trkpt>
      <trkpt lat="47.2944" lon="-2.42563">
        <ele>47.200000762939</ele>
        <time>2021-12-16T09:11:34.000Z</time>
      </trkpt>
      <trkpt lat="47.29429" lon="-2.42578">
        <ele>47.200000762939</ele>
        <time>2021-12-16T09:11:37.000Z</time>
      </trkpt>
      <trkpt lat="47.29423" lon="-2.42589">
        <ele>47.200000762939</ele>
        <time>2021-12-16T09:11:39.000Z</time>
      </trkpt>
      <trkpt lat="47.29421" lon="-2.42603">
        <ele>47.200000762939</ele>
        <time>2021-12-16T09:11:41.000Z</time>
      </trkpt>
      <trkpt lat="47.29421" lon="-2.42617">
        <ele>47.200000762939</ele>
        <time>2021-12-16T09:11:43.000Z</time>
      </trkpt>
      <trkpt lat="47.2942" lon="-2.42624">
        <ele>47.200000762939</ele>
        <time>2021-12-16T09:11:44.000Z</time>
      </trkpt>
      <trkpt lat="47.29419" lon="-2.42646">
        <ele>47.200000762939</ele>
        <time>2021-12-16T09:11:47.000Z</time>
      </trkpt>
      <trkpt lat="47.29413" lon="-2.42686">
        <ele>47.200000762939</ele>
        <time>2021-12-16T09:11:53.000Z</time>
      </trkpt>
      <trkpt lat="47.2941" lon="-2.42692">
        <ele>47.200000762939</ele>
        <time>2021-12-16T09:11:54.000Z</time>
      </trkpt>
      <trkpt lat="47.29392" lon="-2.42734">
        <ele>47.200000762939</ele>
        <time>2021-12-16T09:12:01.000Z</time>
      </trkpt>
      <trkpt lat="47.29382" lon="-2.42768">
        <ele>47.200000762939</ele>
        <time>2021-12-16T09:12:07.000Z</time>
      </trkpt>
      <trkpt lat="47.29376" lon="-2.42792">
        <ele>47.200000762939</ele>
        <time>2021-12-16T09:12:12.000Z</time>
      </trkpt>
      <trkpt lat="47.29374" lon="-2.42798">
        <ele>47.200000762939</ele>
        <time>2021-12-16T09:12:13.000Z</time>
      </trkpt>
      <trkpt lat="47.29362" lon="-2.4281">
        <ele>47.200000762939</ele>
        <time>2021-12-16T09:12:16.000Z</time>
      </trkpt>
      <trkpt lat="47.29342" lon="-2.42835">
        <ele>47.200000762939</ele>
        <time>2021-12-16T09:12:21.000Z</time>
      </trkpt>
      <trkpt lat="47.29337" lon="-2.42849">
        <ele>47.200000762939</ele>
        <time>2021-12-16T09:12:23.000Z</time>
      </trkpt>
      <trkpt lat="47.29333" lon="-2.42855">
        <ele>47.200000762939</ele>
        <time>2021-12-16T09:12:24.000Z</time>
      </trkpt>
      <trkpt lat="47.2933" lon="-2.42862">
        <ele>47.200000762939</ele>
        <time>2021-12-16T09:12:25.000Z</time>
      </trkpt>
      <trkpt lat="47.29327" lon="-2.4287">
        <ele>47.200000762939</ele>
        <time>2021-12-16T09:12:26.000Z</time>
      </trkpt>
      <trkpt lat="47.29319" lon="-2.42902">
        <ele>47.200000762939</ele>
        <time>2021-12-16T09:12:30.000Z</time>
      </trkpt>
      <trkpt lat="47.29311" lon="-2.42947">
        <ele>47.200000762939</ele>
        <time>2021-12-16T09:12:35.000Z</time>
      </trkpt>
      <trkpt lat="47.29312" lon="-2.42957">
        <ele>47.200000762939</ele>
        <time>2021-12-16T09:12:36.000Z</time>
      </trkpt>
      <trkpt lat="47.29313" lon="-2.42992">
        <ele>47.200000762939</ele>
        <time>2021-12-16T09:12:40.000Z</time>
      </trkpt>
      <trkpt lat="47.29311" lon="-2.43009">
        <ele>47.200000762939</ele>
        <time>2021-12-16T09:12:42.000Z</time>
      </trkpt>
      <trkpt lat="47.29305" lon="-2.43044">
        <ele>47.200000762939</ele>
        <time>2021-12-16T09:12:46.000Z</time>
      </trkpt>
      <trkpt lat="47.29305" lon="-2.43054">
        <ele>47.200000762939</ele>
        <time>2021-12-16T09:12:47.000Z</time>
      </trkpt>
      <trkpt lat="47.29313" lon="-2.43078">
        <ele>47.200000762939</ele>
        <time>2021-12-16T09:12:50.000Z</time>
      </trkpt>
      <trkpt lat="47.29324" lon="-2.43081">
        <ele>47.200000762939</ele>
        <time>2021-12-16T09:12:52.000Z</time>
      </trkpt>
      <trkpt lat="47.29329" lon="-2.43082">
        <ele>47.200000762939</ele>
        <time>2021-12-16T09:12:53.000Z</time>
      </trkpt>
      <trkpt lat="47.29333" lon="-2.43086">
        <ele>47.200000762939</ele>
        <time>2021-12-16T09:12:54.000Z</time>
      </trkpt>
      <trkpt lat="47.29343" lon="-2.43095">
        <ele>47.200000762939</ele>
        <time>2021-12-16T09:12:56.000Z</time>
      </trkpt>
      <trkpt lat="47.29351" lon="-2.43106">
        <ele>47.200000762939</ele>
        <time>2021-12-16T09:12:58.000Z</time>
      </trkpt>
      <trkpt lat="47.29356" lon="-2.4312">
        <ele>47.200000762939</ele>
        <time>2021-12-16T09:13:00.000Z</time>
      </trkpt>
      <trkpt lat="47.29372" lon="-2.43166">
        <ele>47.200000762939</ele>
        <time>2021-12-16T09:13:06.000Z</time>
      </trkpt>
      <trkpt lat="47.29377" lon="-2.43198">
        <ele>47.200000762939</ele>
        <time>2021-12-16T09:13:10.000Z</time>
      </trkpt>
      <trkpt lat="47.29377" lon="-2.43205">
        <ele>47.200000762939</ele>
        <time>2021-12-16T09:13:11.000Z</time>
      </trkpt>
      <trkpt lat="47.29376" lon="-2.43213">
        <ele>47.200000762939</ele>
        <time>2021-12-16T09:13:12.000Z</time>
      </trkpt>
      <trkpt lat="47.29367" lon="-2.43229">
        <ele>47.200000762939</ele>
        <time>2021-12-16T09:13:15.000Z</time>
      </trkpt>
      <trkpt lat="47.29362" lon="-2.43237">
        <ele>47.200000762939</ele>
        <time>2021-12-16T09:13:17.000Z</time>
      </trkpt>
      <trkpt lat="47.2936" lon="-2.43245">
        <ele>47.200000762939</ele>
        <time>2021-12-16T09:13:18.000Z</time>
      </trkpt>
      <trkpt lat="47.2936" lon="-2.43275">
        <ele>47.200000762939</ele>
        <time>2021-12-16T09:13:22.000Z</time>
      </trkpt>
      <trkpt lat="47.2936" lon="-2.43282">
        <ele>47.200000762939</ele>
        <time>2021-12-16T09:13:23.000Z</time>
      </trkpt>
      <trkpt lat="47.29362" lon="-2.43289">
        <ele>47.200000762939</ele>
        <time>2021-12-16T09:13:24.000Z</time>
      </trkpt>
      <trkpt lat="47.29369" lon="-2.43302">
        <ele>47.200000762939</ele>
        <time>2021-12-16T09:13:26.000Z</time>
      </trkpt>
      <trkpt lat="47.29382" lon="-2.43318">
        <ele>47.200000762939</ele>
        <time>2021-12-16T09:13:29.000Z</time>
      </trkpt>
      <trkpt lat="47.29394" lon="-2.43335">
        <ele>47.200000762939</ele>
        <time>2021-12-16T09:13:32.000Z</time>
      </trkpt>
      <trkpt lat="47.29405" lon="-2.43349">
        <ele>47.200000762939</ele>
        <time>2021-12-16T09:13:35.000Z</time>
      </trkpt>
      <trkpt lat="47.29409" lon="-2.43362">
        <ele>47.200000762939</ele>
        <time>2021-12-16T09:13:37.000Z</time>
      </trkpt>
      <trkpt lat="47.29412" lon="-2.43375">
        <ele>47.200000762939</ele>
        <time>2021-12-16T09:13:39.000Z</time>
      </trkpt>
      <trkpt lat="47.29415" lon="-2.43386">
        <ele>47.200000762939</ele>
        <time>2021-12-16T09:13:41.000Z</time>
      </trkpt>
      <trkpt lat="47.29418" lon="-2.43387">
        <ele>47.200000762939</ele>
        <time>2021-12-16T09:13:42.000Z</time>
      </trkpt>
      <trkpt lat="47.29426" lon="-2.43389">
        <ele>47.200000762939</ele>
        <time>2021-12-16T09:13:44.000Z</time>
      </trkpt>
      <trkpt lat="47.29436" lon="-2.43406">
        <ele>47.200000762939</ele>
        <time>2021-12-16T09:13:48.000Z</time>
      </trkpt>
      <trkpt lat="47.2944" lon="-2.43434">
        <ele>47.200000762939</ele>
        <time>2021-12-16T09:13:52.000Z</time>
      </trkpt>
      <trkpt lat="47.2945" lon="-2.43462">
        <ele>47.200000762939</ele>
        <time>2021-12-16T09:13:57.000Z</time>
      </trkpt>
      <trkpt lat="47.29454" lon="-2.4348">
        <ele>47.200000762939</ele>
        <time>2021-12-16T09:14:01.000Z</time>
      </trkpt>
      <trkpt lat="47.29461" lon="-2.43503">
        <ele>47.200000762939</ele>
        <time>2021-12-16T09:14:07.000Z</time>
      </trkpt>
      <trkpt lat="47.29472" lon="-2.4352">
        <ele>47.200000762939</ele>
        <time>2021-12-16T09:14:13.000Z</time>
      </trkpt>
      <trkpt lat="47.29474" lon="-2.4352">
        <ele>47.200000762939</ele>
        <time>2021-12-16T09:14:14.000Z</time>
      </trkpt>
      <trkpt lat="47.2948" lon="-2.4352">
        <ele>47.200000762939</ele>
        <time>2021-12-16T09:14:17.000Z</time>
      </trkpt>
      <trkpt lat="47.29485" lon="-2.43521">
        <ele>47.200000762939</ele>
        <time>2021-12-16T09:14:20.000Z</time>
      </trkpt>
      <trkpt lat="47.29489" lon="-2.43524">
        <ele>47.200000762939</ele>
        <time>2021-12-16T09:14:22.000Z</time>
      </trkpt>
      <trkpt lat="47.29503" lon="-2.43532">
        <ele>47.200000762939</ele>
        <time>2021-12-16T09:14:27.000Z</time>
      </trkpt>
      <trkpt lat="47.2952" lon="-2.43542">
        <ele>47.200000762939</ele>
        <time>2021-12-16T09:14:33.000Z</time>
      </trkpt>
      <trkpt lat="47.29528" lon="-2.43551">
        <ele>47.200000762939</ele>
        <time>2021-12-16T09:14:38.000Z</time>
      </trkpt>
      <trkpt lat="47.29528" lon="-2.4356">
        <ele>47.200000762939</ele>
        <time>2021-12-16T09:14:41.000Z</time>
      </trkpt>
      <trkpt lat="47.29526" lon="-2.43564">
        <ele>47.200000762939</ele>
        <time>2021-12-16T09:14:43.000Z</time>
      </trkpt>
      <trkpt lat="47.29517" lon="-2.43573">
        <ele>47.200000762939</ele>
        <time>2021-12-16T09:14:47.000Z</time>
      </trkpt>
      <trkpt lat="47.2951" lon="-2.43574">
        <ele>47.200000762939</ele>
        <time>2021-12-16T09:14:49.000Z</time>
      </trkpt>
      <trkpt lat="47.29498" lon="-2.43575">
        <ele>47.200000762939</ele>
        <time>2021-12-16T09:14:53.000Z</time>
      </trkpt>
      <trkpt lat="47.29474" lon="-2.43578">
        <ele>47.200000762939</ele>
        <time>2021-12-16T09:15:00.000Z</time>
      </trkpt>
      <trkpt lat="47.29442" lon="-2.4359">
        <ele>47.200000762939</ele>
        <time>2021-12-16T09:15:07.000Z</time>
      </trkpt>
      <trkpt lat="47.29401" lon="-2.43612">
        <ele>47.200000762939</ele>
        <time>2021-12-16T09:15:16.000Z</time>
      </trkpt>
      <trkpt lat="47.29369" lon="-2.43636">
        <ele>47.200000762939</ele>
        <time>2021-12-16T09:15:23.000Z</time>
      </trkpt>
      <trkpt lat="47.29361" lon="-2.43645">
        <ele>47.200000762939</ele>
        <time>2021-12-16T09:15:25.000Z</time>
      </trkpt>
      <trkpt lat="47.29329" lon="-2.43675">
        <ele>47.200000762939</ele>
        <time>2021-12-16T09:15:32.000Z</time>
      </trkpt>
      <trkpt lat="47.29319" lon="-2.43683">
        <ele>47.200000762939</ele>
        <time>2021-12-16T09:15:34.000Z</time>
      </trkpt>
      <trkpt lat="47.293" lon="-2.43695">
        <ele>47.200000762939</ele>
        <time>2021-12-16T09:15:38.000Z</time>
      </trkpt>
      <trkpt lat="47.29267" lon="-2.43723">
        <ele>47.200000762939</ele>
        <time>2021-12-16T09:15:45.000Z</time>
      </trkpt>
      <trkpt lat="47.29218" lon="-2.43765">
        <ele>47.200000762939</ele>
        <time>2021-12-16T09:15:55.000Z</time>
      </trkpt>
      <trkpt lat="47.29174" lon="-2.43803">
        <ele>47.200000762939</ele>
        <time>2021-12-16T09:16:04.000Z</time>
      </trkpt>
      <trkpt lat="47.29133" lon="-2.4384">
        <ele>47.200000762939</ele>
        <time>2021-12-16T09:16:12.000Z</time>
      </trkpt>
      <trkpt lat="47.29091" lon="-2.43864">
        <ele>47.200000762939</ele>
        <time>2021-12-16T09:16:19.000Z</time>
      </trkpt>
      <trkpt lat="47.29082" lon="-2.43872">
        <ele>47.200000762939</ele>
        <time>2021-12-16T09:16:21.000Z</time>
      </trkpt>
      <trkpt lat="47.29072" lon="-2.43883">
        <ele>47.200000762939</ele>
        <time>2021-12-16T09:16:23.000Z</time>
      </trkpt>
      <trkpt lat="47.29062" lon="-2.43888">
        <ele>47.200000762939</ele>
        <time>2021-12-16T09:16:25.000Z</time>
      </trkpt>
      <trkpt lat="47.29056" lon="-2.43885">
        <ele>47.200000762939</ele>
        <time>2021-12-16T09:16:26.000Z</time>
      </trkpt>
      <trkpt lat="47.29045" lon="-2.43866">
        <ele>47.200000762939</ele>
        <time>2021-12-16T09:16:29.000Z</time>
      </trkpt>
      <trkpt lat="47.29022" lon="-2.43839">
        <ele>47.200000762939</ele>
        <time>2021-12-16T09:16:34.000Z</time>
      </trkpt>
      <trkpt lat="47.29017" lon="-2.43835">
        <ele>47.200000762939</ele>
        <time>2021-12-16T09:16:35.000Z</time>
      </trkpt>
      <trkpt lat="47.28983" lon="-2.43814">
        <ele>47.200000762939</ele>
        <time>2021-12-16T09:16:41.000Z</time>
      </trkpt>
      <trkpt lat="47.28949" lon="-2.43804">
        <ele>47.200000762939</ele>
        <time>2021-12-16T09:16:47.000Z</time>
      </trkpt>
      <trkpt lat="47.28906" lon="-2.43809">
        <ele>47.200000762939</ele>
        <time>2021-12-16T09:16:54.000Z</time>
      </trkpt>
      <trkpt lat="47.28877" lon="-2.43823">
        <ele>47.200000762939</ele>
        <time>2021-12-16T09:16:59.000Z</time>
      </trkpt>
      <trkpt lat="47.28835" lon="-2.43835">
        <ele>47.200000762939</ele>
        <time>2021-12-16T09:17:06.000Z</time>
      </trkpt>
      <trkpt lat="47.28805" lon="-2.43823">
        <ele>47.200000762939</ele>
        <time>2021-12-16T09:17:11.000Z</time>
      </trkpt>
      <trkpt lat="47.28799" lon="-2.43818">
        <ele>47.200000762939</ele>
        <time>2021-12-16T09:17:12.000Z</time>
      </trkpt>
      <trkpt lat="47.28761" lon="-2.43787">
        <ele>47.200000762939</ele>
        <time>2021-12-16T09:17:19.000Z</time>
      </trkpt>
      <trkpt lat="47.28713" lon="-2.43749">
        <ele>47.200000762939</ele>
        <time>2021-12-16T09:17:28.000Z</time>
      </trkpt>
      <trkpt lat="47.28663" lon="-2.43709">
        <ele>47.200000762939</ele>
        <time>2021-12-16T09:17:37.000Z</time>
      </trkpt>
      <trkpt lat="47.28658" lon="-2.43705">
        <ele>47.200000762939</ele>
        <time>2021-12-16T09:17:38.000Z</time>
      </trkpt>
      <trkpt lat="47.28619" lon="-2.43676">
        <ele>47.200000762939</ele>
        <time>2021-12-16T09:17:45.000Z</time>
      </trkpt>
      <trkpt lat="47.28613" lon="-2.43673">
        <ele>47.200000762939</ele>
        <time>2021-12-16T09:17:46.000Z</time>
      </trkpt>
      <trkpt lat="47.28608" lon="-2.43668">
        <ele>47.200000762939</ele>
        <time>2021-12-16T09:17:47.000Z</time>
      </trkpt>
      <trkpt lat="47.28588" lon="-2.43652">
        <ele>47.200000762939</ele>
        <time>2021-12-16T09:17:51.000Z</time>
      </trkpt>
      <trkpt lat="47.28553" lon="-2.43625">
        <ele>47.200000762939</ele>
        <time>2021-12-16T09:17:58.000Z</time>
      </trkpt>
      <trkpt lat="47.28517" lon="-2.43596">
        <ele>47.200000762939</ele>
        <time>2021-12-16T09:18:05.000Z</time>
      </trkpt>
      <trkpt lat="47.28475" lon="-2.43563">
        <ele>47.200000762939</ele>
        <time>2021-12-16T09:18:13.000Z</time>
      </trkpt>
      <trkpt lat="47.28436" lon="-2.43534">
        <ele>47.200000762939</ele>
        <time>2021-12-16T09:18:20.000Z</time>
      </trkpt>
      <trkpt lat="47.28385" lon="-2.43493">
        <ele>47.200000762939</ele>
        <time>2021-12-16T09:18:30.000Z</time>
      </trkpt>
      <trkpt lat="47.28366" lon="-2.43477">
        <ele>47.200000762939</ele>
        <time>2021-12-16T09:18:34.000Z</time>
      </trkpt>
      <trkpt lat="47.28357" lon="-2.4347">
        <ele>47.200000762939</ele>
        <time>2021-12-16T09:18:36.000Z</time>
      </trkpt>
      <trkpt lat="47.2832" lon="-2.4344">
        <ele>47.200000762939</ele>
        <time>2021-12-16T09:18:44.000Z</time>
      </trkpt>
      <trkpt lat="47.28282" lon="-2.43406">
        <ele>47.200000762939</ele>
        <time>2021-12-16T09:18:52.000Z</time>
      </trkpt>
      <trkpt lat="47.28245" lon="-2.43377">
        <ele>47.200000762939</ele>
        <time>2021-12-16T09:19:00.000Z</time>
      </trkpt>
      <trkpt lat="47.28228" lon="-2.43362">
        <ele>47.200000762939</ele>
        <time>2021-12-16T09:19:04.000Z</time>
      </trkpt>
      <trkpt lat="47.28222" lon="-2.43352">
        <ele>47.200000762939</ele>
        <time>2021-12-16T09:19:06.000Z</time>
      </trkpt>
      <trkpt lat="47.28206" lon="-2.43326">
        <ele>47.200000762939</ele>
        <time>2021-12-16T09:19:11.000Z</time>
      </trkpt>
      <trkpt lat="47.28193" lon="-2.43328">
        <ele>47.200000762939</ele>
        <time>2021-12-16T09:19:14.000Z</time>
      </trkpt>
      <trkpt lat="47.28185" lon="-2.43336">
        <ele>47.200000762939</ele>
        <time>2021-12-16T09:19:17.000Z</time>
      </trkpt>
      <trkpt lat="47.28181" lon="-2.43335">
        <ele>47.200000762939</ele>
        <time>2021-12-16T09:19:18.000Z</time>
      </trkpt>
      <trkpt lat="47.28174" lon="-2.43334">
        <ele>47.200000762939</ele>
        <time>2021-12-16T09:19:20.000Z</time>
      </trkpt>
      <trkpt lat="47.2817" lon="-2.43338">
        <ele>47.200000762939</ele>
        <time>2021-12-16T09:19:21.000Z</time>
      </trkpt>
      <trkpt lat="47.28149" lon="-2.43371">
        <ele>47.200000762939</ele>
        <time>2021-12-16T09:19:27.000Z</time>
      </trkpt>
      <trkpt lat="47.28116" lon="-2.43422">
        <ele>47.200000762939</ele>
        <time>2021-12-16T09:19:36.000Z</time>
      </trkpt>
      <trkpt lat="47.28087" lon="-2.43464">
        <ele>47.200000762939</ele>
        <time>2021-12-16T09:19:44.000Z</time>
      </trkpt>
      <trkpt lat="47.28061" lon="-2.43503">
        <ele>47.200000762939</ele>
        <time>2021-12-16T09:19:51.000Z</time>
      </trkpt>
      <trkpt lat="47.28038" lon="-2.43536">
        <ele>47.200000762939</ele>
        <time>2021-12-16T09:19:58.000Z</time>
      </trkpt>
      <trkpt lat="47.28011" lon="-2.43574">
        <ele>47.200000762939</ele>
        <time>2021-12-16T09:20:06.000Z</time>
      </trkpt>
      <trkpt lat="47.27987" lon="-2.43608">
        <ele>47.200000762939</ele>
        <time>2021-12-16T09:20:13.000Z</time>
      </trkpt>
      <trkpt lat="47.27984" lon="-2.43614">
        <ele>47.200000762939</ele>
        <time>2021-12-16T09:20:14.000Z</time>
      </trkpt>
      <trkpt lat="47.27967" lon="-2.43639">
        <ele>47.200000762939</ele>
        <time>2021-12-16T09:20:19.000Z</time>
      </trkpt>
      <trkpt lat="47.27936" lon="-2.43683">
        <ele>47.200000762939</ele>
        <time>2021-12-16T09:20:27.000Z</time>
      </trkpt>
      <trkpt lat="47.27904" lon="-2.43726">
        <ele>47.200000762939</ele>
        <time>2021-12-16T09:20:35.000Z</time>
      </trkpt>
      <trkpt lat="47.27875" lon="-2.43757">
        <ele>47.200000762939</ele>
        <time>2021-12-16T09:20:42.000Z</time>
      </trkpt>
      <trkpt lat="47.27842" lon="-2.43784">
        <ele>47.200000762939</ele>
        <time>2021-12-16T09:20:49.000Z</time>
      </trkpt>
      <trkpt lat="47.27822" lon="-2.43795">
        <ele>47.200000762939</ele>
        <time>2021-12-16T09:20:53.000Z</time>
      </trkpt>
      <trkpt lat="47.27817" lon="-2.43797">
        <ele>47.200000762939</ele>
        <time>2021-12-16T09:20:54.000Z</time>
      </trkpt>
      <trkpt lat="47.27803" lon="-2.43795">
        <ele>47.200000762939</ele>
        <time>2021-12-16T09:20:58.000Z</time>
      </trkpt>
      <trkpt lat="47.27792" lon="-2.43795">
        <ele>47.200000762939</ele>
        <time>2021-12-16T09:21:03.000Z</time>
      </trkpt>
      <trkpt lat="47.27791" lon="-2.43804">
        <ele>47.200000762939</ele>
        <time>2021-12-16T09:21:07.000Z</time>
      </trkpt>
      <trkpt lat="47.27794" lon="-2.43819">
        <ele>47.200000762939</ele>
        <time>2021-12-16T09:21:10.000Z</time>
      </trkpt>
      <trkpt lat="47.27795" lon="-2.43825">
        <ele>47.200000762939</ele>
        <time>2021-12-16T09:21:11.000Z</time>
      </trkpt>
      <trkpt lat="47.27793" lon="-2.43845">
        <ele>47.200000762939</ele>
        <time>2021-12-16T09:21:14.000Z</time>
      </trkpt>
      <trkpt lat="47.27781" lon="-2.43861">
        <ele>47.200000762939</ele>
        <time>2021-12-16T09:21:17.000Z</time>
      </trkpt>
      <trkpt lat="47.27777" lon="-2.43866">
        <ele>47.200000762939</ele>
        <time>2021-12-16T09:21:18.000Z</time>
      </trkpt>
      <trkpt lat="47.2777" lon="-2.4388">
        <ele>47.200000762939</ele>
        <time>2021-12-16T09:21:20.000Z</time>
      </trkpt>
      <trkpt lat="47.27755" lon="-2.43927">
        <ele>47.200000762939</ele>
        <time>2021-12-16T09:21:26.000Z</time>
      </trkpt>
      <trkpt lat="47.27734" lon="-2.44003">
        <ele>47.200000762939</ele>
        <time>2021-12-16T09:21:35.000Z</time>
      </trkpt>
      <trkpt lat="47.27729" lon="-2.4402">
        <ele>47.200000762939</ele>
        <time>2021-12-16T09:21:37.000Z</time>
      </trkpt>
      <trkpt lat="47.2772" lon="-2.44053">
        <ele>47.200000762939</ele>
        <time>2021-12-16T09:21:41.000Z</time>
      </trkpt>
      <trkpt lat="47.2772" lon="-2.44061">
        <ele>47.200000762939</ele>
        <time>2021-12-16T09:21:42.000Z</time>
      </trkpt>
      <trkpt lat="47.27712" lon="-2.44082">
        <ele>47.200000762939</ele>
        <time>2021-12-16T09:21:45.000Z</time>
      </trkpt>
      <trkpt lat="47.27701" lon="-2.44083">
        <ele>47.200000762939</ele>
        <time>2021-12-16T09:21:47.000Z</time>
      </trkpt>
      <trkpt lat="47.27692" lon="-2.44076">
        <ele>47.200000762939</ele>
        <time>2021-12-16T09:21:49.000Z</time>
      </trkpt>
      <trkpt lat="47.27681" lon="-2.44069">
        <ele>47.200000762939</ele>
        <time>2021-12-16T09:21:51.000Z</time>
      </trkpt>
      <trkpt lat="47.27671" lon="-2.44064">
        <ele>47.200000762939</ele>
        <time>2021-12-16T09:21:53.000Z</time>
      </trkpt>
      <trkpt lat="47.27661" lon="-2.44068">
        <ele>47.200000762939</ele>
        <time>2021-12-16T09:21:55.000Z</time>
      </trkpt>
      <trkpt lat="47.27652" lon="-2.44077">
        <ele>47.200000762939</ele>
        <time>2021-12-16T09:21:57.000Z</time>
      </trkpt>
      <trkpt lat="47.27639" lon="-2.44093">
        <ele>47.200000762939</ele>
        <time>2021-12-16T09:22:00.000Z</time>
      </trkpt>
      <trkpt lat="47.27635" lon="-2.441">
        <ele>47.200000762939</ele>
        <time>2021-12-16T09:22:01.000Z</time>
      </trkpt>
      <trkpt lat="47.27604" lon="-2.44152">
        <ele>47.200000762939</ele>
        <time>2021-12-16T09:22:09.000Z</time>
      </trkpt>
      <trkpt lat="47.27573" lon="-2.44206">
        <ele>47.200000762939</ele>
        <time>2021-12-16T09:22:17.000Z</time>
      </trkpt>
      <trkpt lat="47.27549" lon="-2.44254">
        <ele>47.200000762939</ele>
        <time>2021-12-16T09:22:23.000Z</time>
      </trkpt>
      <trkpt lat="47.27546" lon="-2.44263">
        <ele>47.200000762939</ele>
        <time>2021-12-16T09:22:24.000Z</time>
      </trkpt>
      <trkpt lat="47.2754" lon="-2.44293">
        <ele>47.200000762939</ele>
        <time>2021-12-16T09:22:27.000Z</time>
      </trkpt>
      <trkpt lat="47.27537" lon="-2.44311">
        <ele>47.200000762939</ele>
        <time>2021-12-16T09:22:29.000Z</time>
      </trkpt>
      <trkpt lat="47.2753" lon="-2.44358">
        <ele>47.200000762939</ele>
        <time>2021-12-16T09:22:34.000Z</time>
      </trkpt>
      <trkpt lat="47.27528" lon="-2.44367">
        <ele>47.200000762939</ele>
        <time>2021-12-16T09:22:35.000Z</time>
      </trkpt>
      <trkpt lat="47.27514" lon="-2.44386">
        <ele>47.200000762939</ele>
        <time>2021-12-16T09:22:38.000Z</time>
      </trkpt>
      <trkpt lat="47.27489" lon="-2.444">
        <ele>47.200000762939</ele>
        <time>2021-12-16T09:22:42.000Z</time>
      </trkpt>
      <trkpt lat="47.27478" lon="-2.44404">
        <ele>47.200000762939</ele>
        <time>2021-12-16T09:22:44.000Z</time>
      </trkpt>
      <trkpt lat="47.27466" lon="-2.44406">
        <ele>47.200000762939</ele>
        <time>2021-12-16T09:22:46.000Z</time>
      </trkpt>
      <trkpt lat="47.27461" lon="-2.44406">
        <ele>47.200000762939</ele>
        <time>2021-12-16T09:22:47.000Z</time>
      </trkpt>
      <trkpt lat="47.27445" lon="-2.44404">
        <ele>47.200000762939</ele>
        <time>2021-12-16T09:22:50.000Z</time>
      </trkpt>
      <trkpt lat="47.27442" lon="-2.44405">
        <ele>47.200000762939</ele>
        <time>2021-12-16T09:22:51.000Z</time>
      </trkpt>
      <trkpt lat="47.27433" lon="-2.44419">
        <ele>47.200000762939</ele>
        <time>2021-12-16T09:22:55.000Z</time>
      </trkpt>
      <trkpt lat="47.27432" lon="-2.44427">
        <ele>47.200000762939</ele>
        <time>2021-12-16T09:22:57.000Z</time>
      </trkpt>
      <trkpt lat="47.27432" lon="-2.44441">
        <ele>47.200000762939</ele>
        <time>2021-12-16T09:23:00.000Z</time>
      </trkpt>
      <trkpt lat="47.27436" lon="-2.44481">
        <ele>47.200000762939</ele>
        <time>2021-12-16T09:23:07.000Z</time>
      </trkpt>
      <trkpt lat="47.27438" lon="-2.44499">
        <ele>47.200000762939</ele>
        <time>2021-12-16T09:23:10.000Z</time>
      </trkpt>
      <trkpt lat="47.27442" lon="-2.44517">
        <ele>47.200000762939</ele>
        <time>2021-12-16T09:23:13.000Z</time>
      </trkpt>
      <trkpt lat="47.27446" lon="-2.44529">
        <ele>47.200000762939</ele>
        <time>2021-12-16T09:23:15.000Z</time>
      </trkpt>
      <trkpt lat="47.27449" lon="-2.44556">
        <ele>47.200000762939</ele>
        <time>2021-12-16T09:23:19.000Z</time>
      </trkpt>
      <trkpt lat="47.27452" lon="-2.44593">
        <ele>47.200000762939</ele>
        <time>2021-12-16T09:23:24.000Z</time>
      </trkpt>
      <trkpt lat="47.27454" lon="-2.446">
        <ele>47.200000762939</ele>
        <time>2021-12-16T09:23:25.000Z</time>
      </trkpt>
      <trkpt lat="47.27466" lon="-2.44626">
        <ele>47.200000762939</ele>
        <time>2021-12-16T09:23:29.000Z</time>
      </trkpt>
      <trkpt lat="47.2747" lon="-2.44633">
        <ele>47.200000762939</ele>
        <time>2021-12-16T09:23:30.000Z</time>
      </trkpt>
      <trkpt lat="47.27494" lon="-2.44675">
        <ele>47.200000762939</ele>
        <time>2021-12-16T09:23:36.000Z</time>
      </trkpt>
      <trkpt lat="47.27511" lon="-2.447">
        <ele>47.200000762939</ele>
        <time>2021-12-16T09:23:40.000Z</time>
      </trkpt>
      <trkpt lat="47.27516" lon="-2.44715">
        <ele>47.200000762939</ele>
        <time>2021-12-16T09:23:42.000Z</time>
      </trkpt>
      <trkpt lat="47.27533" lon="-2.4479">
        <ele>47.200000762939</ele>
        <time>2021-12-16T09:23:52.000Z</time>
      </trkpt>
      <trkpt lat="47.27536" lon="-2.4481">
        <ele>47.200000762939</ele>
        <time>2021-12-16T09:23:55.000Z</time>
      </trkpt>
      <trkpt lat="47.27532" lon="-2.44822">
        <ele>47.200000762939</ele>
        <time>2021-12-16T09:23:57.000Z</time>
      </trkpt>
      <trkpt lat="47.27519" lon="-2.44835">
        <ele>47.200000762939</ele>
        <time>2021-12-16T09:24:00.000Z</time>
      </trkpt>
      <trkpt lat="47.27515" lon="-2.44838">
        <ele>47.200000762939</ele>
        <time>2021-12-16T09:24:01.000Z</time>
      </trkpt>
      <trkpt lat="47.27507" lon="-2.44846">
        <ele>47.200000762939</ele>
        <time>2021-12-16T09:24:03.000Z</time>
      </trkpt>
      <trkpt lat="47.27503" lon="-2.44857">
        <ele>47.599998474121</ele>
        <time>2021-12-16T09:24:05.000Z</time>
      </trkpt>
      <trkpt lat="47.27503" lon="-2.44864">
        <ele>48</ele>
        <time>2021-12-16T09:24:06.000Z</time>
      </trkpt>
      <trkpt lat="47.27503" lon="-2.44871">
        <ele>48.599998474121</ele>
        <time>2021-12-16T09:24:07.000Z</time>
      </trkpt>
      <trkpt lat="47.27504" lon="-2.44879">
        <ele>49</ele>
        <time>2021-12-16T09:24:08.000Z</time>
      </trkpt>
      <trkpt lat="47.27506" lon="-2.44887">
        <ele>49.400001525879</ele>
        <time>2021-12-16T09:24:09.000Z</time>
      </trkpt>
      <trkpt lat="47.27518" lon="-2.44938">
        <ele>49.400001525879</ele>
        <time>2021-12-16T09:24:15.000Z</time>
      </trkpt>
      <trkpt lat="47.27539" lon="-2.44999">
        <ele>49.400001525879</ele>
        <time>2021-12-16T09:24:22.000Z</time>
      </trkpt>
      <trkpt lat="47.27564" lon="-2.45059">
        <ele>49.400001525879</ele>
        <time>2021-12-16T09:24:29.000Z</time>
      </trkpt>
      <trkpt lat="47.27577" lon="-2.45084">
        <ele>49.400001525879</ele>
        <time>2021-12-16T09:24:33.000Z</time>
      </trkpt>
      <trkpt lat="47.27575" lon="-2.45095">
        <ele>49.400001525879</ele>
        <time>2021-12-16T09:24:35.000Z</time>
      </trkpt>
      <trkpt lat="47.27565" lon="-2.45107">
        <ele>49.400001525879</ele>
        <time>2021-12-16T09:24:38.000Z</time>
      </trkpt>
      <trkpt lat="47.27557" lon="-2.45115">
        <ele>49.400001525879</ele>
        <time>2021-12-16T09:24:40.000Z</time>
      </trkpt>
      <trkpt lat="47.2755" lon="-2.45124">
        <ele>49.400001525879</ele>
        <time>2021-12-16T09:24:42.000Z</time>
      </trkpt>
      <trkpt lat="47.27535" lon="-2.45144">
        <ele>49.400001525879</ele>
        <time>2021-12-16T09:24:46.000Z</time>
      </trkpt>
      <trkpt lat="47.2752" lon="-2.45163">
        <ele>49.400001525879</ele>
        <time>2021-12-16T09:24:50.000Z</time>
      </trkpt>
      <trkpt lat="47.27511" lon="-2.45171">
        <ele>48.599998474121</ele>
        <time>2021-12-16T09:24:52.000Z</time>
      </trkpt>
      <trkpt lat="47.27507" lon="-2.45174">
        <ele>48.200000762939</ele>
        <time>2021-12-16T09:24:53.000Z</time>
      </trkpt>
      <trkpt lat="47.27502" lon="-2.45177">
        <ele>47.799999237061</ele>
        <time>2021-12-16T09:24:54.000Z</time>
      </trkpt>
      <trkpt lat="47.27498" lon="-2.45181">
        <ele>47.400001525879</ele>
        <time>2021-12-16T09:24:55.000Z</time>
      </trkpt>
      <trkpt lat="47.2748" lon="-2.45196">
        <ele>47.400001525879</ele>
        <time>2021-12-16T09:24:59.000Z</time>
      </trkpt>
      <trkpt lat="47.27471" lon="-2.45202">
        <ele>47.400001525879</ele>
        <time>2021-12-16T09:25:01.000Z</time>
      </trkpt>
      <trkpt lat="47.27449" lon="-2.45214">
        <ele>47.400001525879</ele>
        <time>2021-12-16T09:25:06.000Z</time>
      </trkpt>
      <trkpt lat="47.2744" lon="-2.45217">
        <ele>47.400001525879</ele>
        <time>2021-12-16T09:25:08.000Z</time>
      </trkpt>
      <trkpt lat="47.27435" lon="-2.45217">
        <ele>47.400001525879</ele>
        <time>2021-12-16T09:25:09.000Z</time>
      </trkpt>
      <trkpt lat="47.27421" lon="-2.45217">
        <ele>47.400001525879</ele>
        <time>2021-12-16T09:25:12.000Z</time>
      </trkpt>
      <trkpt lat="47.2739" lon="-2.45215">
        <ele>47.400001525879</ele>
        <time>2021-12-16T09:25:19.000Z</time>
      </trkpt>
      <trkpt lat="47.27381" lon="-2.45216">
        <ele>47.400001525879</ele>
        <time>2021-12-16T09:25:21.000Z</time>
      </trkpt>
      <trkpt lat="47.2737" lon="-2.45222">
        <ele>47.400001525879</ele>
        <time>2021-12-16T09:25:24.000Z</time>
      </trkpt>
      <trkpt lat="47.2736" lon="-2.45232">
        <ele>47.400001525879</ele>
        <time>2021-12-16T09:25:27.000Z</time>
      </trkpt>
      <trkpt lat="47.27353" lon="-2.45242">
        <ele>47.400001525879</ele>
        <time>2021-12-16T09:25:29.000Z</time>
      </trkpt>
      <trkpt lat="47.27344" lon="-2.45254">
        <ele>47.799999237061</ele>
        <time>2021-12-16T09:25:32.000Z</time>
      </trkpt>
      <trkpt lat="47.2734" lon="-2.45257">
        <ele>48.200000762939</ele>
        <time>2021-12-16T09:25:33.000Z</time>
      </trkpt>
      <trkpt lat="47.27337" lon="-2.4526">
        <ele>48.599998474121</ele>
        <time>2021-12-16T09:25:34.000Z</time>
      </trkpt>
      <trkpt lat="47.27333" lon="-2.45262">
        <ele>49</ele>
        <time>2021-12-16T09:25:35.000Z</time>
      </trkpt>
      <trkpt lat="47.27329" lon="-2.45262">
        <ele>49.400001525879</ele>
        <time>2021-12-16T09:25:36.000Z</time>
      </trkpt>
      <trkpt lat="47.27321" lon="-2.45264">
        <ele>49.400001525879</ele>
        <time>2021-12-16T09:25:38.000Z</time>
      </trkpt>
      <trkpt lat="47.27317" lon="-2.45265">
        <ele>49.400001525879</ele>
        <time>2021-12-16T09:25:39.000Z</time>
      </trkpt>
      <trkpt lat="47.27313" lon="-2.45266">
        <ele>49.400001525879</ele>
        <time>2021-12-16T09:25:40.000Z</time>
      </trkpt>
      <trkpt lat="47.27292" lon="-2.45272">
        <ele>49.400001525879</ele>
        <time>2021-12-16T09:25:45.000Z</time>
      </trkpt>
      <trkpt lat="47.2727" lon="-2.45277">
        <ele>49.400001525879</ele>
        <time>2021-12-16T09:25:50.000Z</time>
      </trkpt>
      <trkpt lat="47.27261" lon="-2.45277">
        <ele>49.400001525879</ele>
        <time>2021-12-16T09:25:52.000Z</time>
      </trkpt>
      <trkpt lat="47.27235" lon="-2.45276">
        <ele>49.799999237061</ele>
        <time>2021-12-16T09:25:58.000Z</time>
      </trkpt>
      <trkpt lat="47.27231" lon="-2.45276">
        <ele>50.200000762939</ele>
        <time>2021-12-16T09:25:59.000Z</time>
      </trkpt>
      <trkpt lat="47.27227" lon="-2.45276">
        <ele>50.599998474121</ele>
        <time>2021-12-16T09:26:00.000Z</time>
      </trkpt>
      <trkpt lat="47.27223" lon="-2.45276">
        <ele>51</ele>
        <time>2021-12-16T09:26:01.000Z</time>
      </trkpt>
      <trkpt lat="47.27218" lon="-2.45276">
        <ele>51.400001525879</ele>
        <time>2021-12-16T09:26:02.000Z</time>
      </trkpt>
      <trkpt lat="47.27206" lon="-2.45277">
        <ele>51.400001525879</ele>
        <time>2021-12-16T09:26:06.000Z</time>
      </trkpt>
      <trkpt lat="47.27206" lon="-2.45277">
        <ele>51.400001525879</ele>
        <time>2021-12-16T09:26:07.000Z</time>
      </trkpt>
      <trkpt lat="47.27205" lon="-2.45277">
        <ele>51.400001525879</ele>
        <time>2021-12-16T09:26:17.000Z</time>
      </trkpt>
      <trkpt lat="47.27203" lon="-2.45277">
        <ele>51.400001525879</ele>
        <time>2021-12-16T09:26:18.000Z</time>
      </trkpt>
      <trkpt lat="47.27198" lon="-2.45274">
        <ele>51.400001525879</ele>
        <time>2021-12-16T09:26:21.000Z</time>
      </trkpt>
      <trkpt lat="47.27196" lon="-2.45272">
        <ele>51.400001525879</ele>
        <time>2021-12-16T09:26:22.000Z</time>
      </trkpt>
      <trkpt lat="47.27192" lon="-2.45269">
        <ele>51.400001525879</ele>
        <time>2021-12-16T09:26:25.000Z</time>
      </trkpt>
      <trkpt lat="47.27189" lon="-2.45269">
        <ele>51.400001525879</ele>
        <time>2021-12-16T09:26:26.000Z</time>
      </trkpt>
      <trkpt lat="47.27172" lon="-2.45266">
        <ele>51.400001525879</ele>
        <time>2021-12-16T09:26:31.000Z</time>
      </trkpt>
      <trkpt lat="47.27149" lon="-2.45259">
        <ele>51.400001525879</ele>
        <time>2021-12-16T09:26:38.000Z</time>
      </trkpt>
      <trkpt lat="47.27128" lon="-2.4526">
        <ele>51.400001525879</ele>
        <time>2021-12-16T09:26:44.000Z</time>
      </trkpt>
      <trkpt lat="47.27117" lon="-2.4526">
        <ele>52</ele>
        <time>2021-12-16T09:26:47.000Z</time>
      </trkpt>
      <trkpt lat="47.27113" lon="-2.45261">
        <ele>52.400001525879</ele>
        <time>2021-12-16T09:26:48.000Z</time>
      </trkpt>
      <trkpt lat="47.2711" lon="-2.45261">
        <ele>52.799999237061</ele>
        <time>2021-12-16T09:26:49.000Z</time>
      </trkpt>
      <trkpt lat="47.27106" lon="-2.45262">
        <ele>53.200000762939</ele>
        <time>2021-12-16T09:26:50.000Z</time>
      </trkpt>
      <trkpt lat="47.27103" lon="-2.45263">
        <ele>53.799999237061</ele>
        <time>2021-12-16T09:26:51.000Z</time>
      </trkpt>
      <trkpt lat="47.27096" lon="-2.45265">
        <ele>53.799999237061</ele>
        <time>2021-12-16T09:26:53.000Z</time>
      </trkpt>
      <trkpt lat="47.27083" lon="-2.45272">
        <ele>53.799999237061</ele>
        <time>2021-12-16T09:26:58.000Z</time>
      </trkpt>
      <trkpt lat="47.27082" lon="-2.45275">
        <ele>53.799999237061</ele>
        <time>2021-12-16T09:26:59.000Z</time>
      </trkpt>
      <trkpt lat="47.27086" lon="-2.45285">
        <ele>53.799999237061</ele>
        <time>2021-12-16T09:27:02.000Z</time>
      </trkpt>
      <trkpt lat="47.27087" lon="-2.45288">
        <ele>53.799999237061</ele>
        <time>2021-12-16T09:27:03.000Z</time>
      </trkpt>
      <trkpt lat="47.27097" lon="-2.45301">
        <ele>53.799999237061</ele>
        <time>2021-12-16T09:27:07.000Z</time>
      </trkpt>
      <trkpt lat="47.27115" lon="-2.45327">
        <ele>53.799999237061</ele>
        <time>2021-12-16T09:27:14.000Z</time>
      </trkpt>
      <trkpt lat="47.27131" lon="-2.45354">
        <ele>53.799999237061</ele>
        <time>2021-12-16T09:27:21.000Z</time>
      </trkpt>
      <trkpt lat="47.27145" lon="-2.45371">
        <ele>53.799999237061</ele>
        <time>2021-12-16T09:27:27.000Z</time>
      </trkpt>
      <trkpt lat="47.27157" lon="-2.45382">
        <ele>53.799999237061</ele>
        <time>2021-12-16T09:27:32.000Z</time>
      </trkpt>
      <trkpt lat="47.27181" lon="-2.45403">
        <ele>53.400001525879</ele>
        <time>2021-12-16T09:27:40.000Z</time>
      </trkpt>
      <trkpt lat="47.27185" lon="-2.45406">
        <ele>53</ele>
        <time>2021-12-16T09:27:41.000Z</time>
      </trkpt>
      <trkpt lat="47.27188" lon="-2.45409">
        <ele>52.599998474121</ele>
        <time>2021-12-16T09:27:42.000Z</time>
      </trkpt>
      <trkpt lat="47.27191" lon="-2.45413">
        <ele>52.200000762939</ele>
        <time>2021-12-16T09:27:43.000Z</time>
      </trkpt>
      <trkpt lat="47.27194" lon="-2.45416">
        <ele>51.799999237061</ele>
        <time>2021-12-16T09:27:44.000Z</time>
      </trkpt>
      <trkpt lat="47.27203" lon="-2.45423">
        <ele>51.799999237061</ele>
        <time>2021-12-16T09:27:47.000Z</time>
      </trkpt>
      <trkpt lat="47.2722" lon="-2.45437">
        <ele>51.799999237061</ele>
        <time>2021-12-16T09:27:53.000Z</time>
      </trkpt>
      <trkpt lat="47.27238" lon="-2.45452">
        <ele>51.799999237061</ele>
        <time>2021-12-16T09:27:59.000Z</time>
      </trkpt>
      <trkpt lat="47.27248" lon="-2.45467">
        <ele>51.799999237061</ele>
        <time>2021-12-16T09:28:03.000Z</time>
      </trkpt>
      <trkpt lat="47.27262" lon="-2.45489">
        <ele>51.799999237061</ele>
        <time>2021-12-16T09:28:09.000Z</time>
      </trkpt>
      <trkpt lat="47.27279" lon="-2.45519">
        <ele>51.799999237061</ele>
        <time>2021-12-16T09:28:16.000Z</time>
      </trkpt>
      <trkpt lat="47.27294" lon="-2.45555">
        <ele>51.799999237061</ele>
        <time>2021-12-16T09:28:24.000Z</time>
      </trkpt>
      <trkpt lat="47.27305" lon="-2.45586">
        <ele>51.799999237061</ele>
        <time>2021-12-16T09:28:31.000Z</time>
      </trkpt>
      <trkpt lat="47.27316" lon="-2.45606">
        <ele>51.799999237061</ele>
        <time>2021-12-16T09:28:37.000Z</time>
      </trkpt>
      <trkpt lat="47.27319" lon="-2.45609">
        <ele>51.799999237061</ele>
        <time>2021-12-16T09:28:39.000Z</time>
      </trkpt>
      <trkpt lat="47.27321" lon="-2.45615">
        <ele>51.799999237061</ele>
        <time>2021-12-16T09:28:42.000Z</time>
      </trkpt>
      <trkpt lat="47.27322" lon="-2.45617">
        <ele>51.799999237061</ele>
        <time>2021-12-16T09:28:43.000Z</time>
      </trkpt>
      <trkpt lat="47.27322" lon="-2.45617">
        <ele>51.799999237061</ele>
        <time>2021-12-16T09:28:44.000Z</time>
      </trkpt>
      <trkpt lat="47.27323" lon="-2.45623">
        <ele>51.799999237061</ele>
        <time>2021-12-16T09:33:32.000Z</time>
      </trkpt>
      <trkpt lat="47.27324" lon="-2.45626">
        <ele>51.799999237061</ele>
        <time>2021-12-16T09:33:33.000Z</time>
      </trkpt>
      <trkpt lat="47.27327" lon="-2.45642">
        <ele>51.799999237061</ele>
        <time>2021-12-16T09:33:38.000Z</time>
      </trkpt>
      <trkpt lat="47.27328" lon="-2.45645">
        <ele>51.799999237061</ele>
        <time>2021-12-16T09:33:39.000Z</time>
      </trkpt>
      <trkpt lat="47.27338" lon="-2.45674">
        <ele>51.799999237061</ele>
        <time>2021-12-16T09:33:46.000Z</time>
      </trkpt>
      <trkpt lat="47.27348" lon="-2.45701">
        <ele>51.799999237061</ele>
        <time>2021-12-16T09:33:52.000Z</time>
      </trkpt>
      <trkpt lat="47.27361" lon="-2.45738">
        <ele>51.799999237061</ele>
        <time>2021-12-16T09:33:59.000Z</time>
      </trkpt>
      <trkpt lat="47.27371" lon="-2.4577">
        <ele>51.799999237061</ele>
        <time>2021-12-16T09:34:05.000Z</time>
      </trkpt>
      <trkpt lat="47.27372" lon="-2.45778">
        <ele>51.799999237061</ele>
        <time>2021-12-16T09:34:07.000Z</time>
      </trkpt>
      <trkpt lat="47.27368" lon="-2.45784">
        <ele>51.799999237061</ele>
        <time>2021-12-16T09:34:09.000Z</time>
      </trkpt>
      <trkpt lat="47.2736" lon="-2.45787">
        <ele>51.799999237061</ele>
        <time>2021-12-16T09:34:11.000Z</time>
      </trkpt>
      <trkpt lat="47.27352" lon="-2.45791">
        <ele>51.799999237061</ele>
        <time>2021-12-16T09:34:13.000Z</time>
      </trkpt>
      <trkpt lat="47.27325" lon="-2.45806">
        <ele>51.799999237061</ele>
        <time>2021-12-16T09:34:19.000Z</time>
      </trkpt>
      <trkpt lat="47.27296" lon="-2.45822">
        <ele>51.799999237061</ele>
        <time>2021-12-16T09:34:25.000Z</time>
      </trkpt>
      <trkpt lat="47.27287" lon="-2.45828">
        <ele>51.799999237061</ele>
        <time>2021-12-16T09:34:27.000Z</time>
      </trkpt>
      <trkpt lat="47.27263" lon="-2.45842">
        <ele>52.200000762939</ele>
        <time>2021-12-16T09:34:32.000Z</time>
      </trkpt>
      <trkpt lat="47.27258" lon="-2.45845">
        <ele>52.599998474121</ele>
        <time>2021-12-16T09:34:33.000Z</time>
      </trkpt>
      <trkpt lat="47.27254" lon="-2.45848">
        <ele>53</ele>
        <time>2021-12-16T09:34:34.000Z</time>
      </trkpt>
      <trkpt lat="47.27249" lon="-2.45851">
        <ele>53.400001525879</ele>
        <time>2021-12-16T09:34:35.000Z</time>
      </trkpt>
      <trkpt lat="47.27245" lon="-2.45854">
        <ele>53.799999237061</ele>
        <time>2021-12-16T09:34:36.000Z</time>
      </trkpt>
      <trkpt lat="47.27208" lon="-2.45874">
        <ele>53.799999237061</ele>
        <time>2021-12-16T09:34:44.000Z</time>
      </trkpt>
      <trkpt lat="47.27179" lon="-2.45886">
        <ele>53.799999237061</ele>
        <time>2021-12-16T09:34:52.000Z</time>
      </trkpt>
      <trkpt lat="47.27174" lon="-2.45894">
        <ele>53.799999237061</ele>
        <time>2021-12-16T09:34:54.000Z</time>
      </trkpt>
      <trkpt lat="47.27172" lon="-2.45899">
        <ele>53.799999237061</ele>
        <time>2021-12-16T09:34:55.000Z</time>
      </trkpt>
      <trkpt lat="47.27177" lon="-2.45919">
        <ele>53.799999237061</ele>
        <time>2021-12-16T09:34:58.000Z</time>
      </trkpt>
      <trkpt lat="47.27179" lon="-2.45925">
        <ele>53.799999237061</ele>
        <time>2021-12-16T09:34:59.000Z</time>
      </trkpt>
      <trkpt lat="47.272" lon="-2.45977">
        <ele>53.799999237061</ele>
        <time>2021-12-16T09:35:06.000Z</time>
      </trkpt>
      <trkpt lat="47.27217" lon="-2.46035">
        <ele>53.799999237061</ele>
        <time>2021-12-16T09:35:13.000Z</time>
      </trkpt>
      <trkpt lat="47.27229" lon="-2.46089">
        <ele>53.799999237061</ele>
        <time>2021-12-16T09:35:19.000Z</time>
      </trkpt>
      <trkpt lat="47.27246" lon="-2.46169">
        <ele>53.799999237061</ele>
        <time>2021-12-16T09:35:28.000Z</time>
      </trkpt>
      <trkpt lat="47.27248" lon="-2.46177">
        <ele>53.799999237061</ele>
        <time>2021-12-16T09:35:29.000Z</time>
      </trkpt>
      <trkpt lat="47.27253" lon="-2.46194">
        <ele>53.799999237061</ele>
        <time>2021-12-16T09:35:31.000Z</time>
      </trkpt>
      <trkpt lat="47.27255" lon="-2.462">
        <ele>53.799999237061</ele>
        <time>2021-12-16T09:35:32.000Z</time>
      </trkpt>
      <trkpt lat="47.27261" lon="-2.46205">
        <ele>53.799999237061</ele>
        <time>2021-12-16T09:35:34.000Z</time>
      </trkpt>
      <trkpt lat="47.27264" lon="-2.46203">
        <ele>53.799999237061</ele>
        <time>2021-12-16T09:35:35.000Z</time>
      </trkpt>
      <trkpt lat="47.2728" lon="-2.46189">
        <ele>53.799999237061</ele>
        <time>2021-12-16T09:35:40.000Z</time>
      </trkpt>
      <trkpt lat="47.27284" lon="-2.46186">
        <ele>53.799999237061</ele>
        <time>2021-12-16T09:35:41.000Z</time>
      </trkpt>
      <trkpt lat="47.27305" lon="-2.46168">
        <ele>53.799999237061</ele>
        <time>2021-12-16T09:35:46.000Z</time>
      </trkpt>
      <trkpt lat="47.27325" lon="-2.46152">
        <ele>53.799999237061</ele>
        <time>2021-12-16T09:35:51.000Z</time>
      </trkpt>
      <trkpt lat="47.27329" lon="-2.46149">
        <ele>53.799999237061</ele>
        <time>2021-12-16T09:35:52.000Z</time>
      </trkpt>
      <trkpt lat="47.27342" lon="-2.46143">
        <ele>53.799999237061</ele>
        <time>2021-12-16T09:35:55.000Z</time>
      </trkpt>
      <trkpt lat="47.27351" lon="-2.46143">
        <ele>53.799999237061</ele>
        <time>2021-12-16T09:35:57.000Z</time>
      </trkpt>
      <trkpt lat="47.27383" lon="-2.46139">
        <ele>53.799999237061</ele>
        <time>2021-12-16T09:36:04.000Z</time>
      </trkpt>
      <trkpt lat="47.27413" lon="-2.46131">
        <ele>53.799999237061</ele>
        <time>2021-12-16T09:36:11.000Z</time>
      </trkpt>
      <trkpt lat="47.27435" lon="-2.46124">
        <ele>53.799999237061</ele>
        <time>2021-12-16T09:36:16.000Z</time>
      </trkpt>
      <trkpt lat="47.27443" lon="-2.46118">
        <ele>53.799999237061</ele>
        <time>2021-12-16T09:36:18.000Z</time>
      </trkpt>
      <trkpt lat="47.27451" lon="-2.46112">
        <ele>53.799999237061</ele>
        <time>2021-12-16T09:36:20.000Z</time>
      </trkpt>
      <trkpt lat="47.27468" lon="-2.46097">
        <ele>53.799999237061</ele>
        <time>2021-12-16T09:36:24.000Z</time>
      </trkpt>
      <trkpt lat="47.27498" lon="-2.46071">
        <ele>53.799999237061</ele>
        <time>2021-12-16T09:36:31.000Z</time>
      </trkpt>
      <trkpt lat="47.27534" lon="-2.46043">
        <ele>53.799999237061</ele>
        <time>2021-12-16T09:36:39.000Z</time>
      </trkpt>
      <trkpt lat="47.27538" lon="-2.4604">
        <ele>53.400001525879</ele>
        <time>2021-12-16T09:36:40.000Z</time>
      </trkpt>
      <trkpt lat="47.27542" lon="-2.46037">
        <ele>53</ele>
        <time>2021-12-16T09:36:41.000Z</time>
      </trkpt>
      <trkpt lat="47.27546" lon="-2.46033">
        <ele>52.599998474121</ele>
        <time>2021-12-16T09:36:42.000Z</time>
      </trkpt>
      <trkpt lat="47.27551" lon="-2.4603">
        <ele>52</ele>
        <time>2021-12-16T09:36:43.000Z</time>
      </trkpt>
      <trkpt lat="47.27555" lon="-2.46027">
        <ele>51.599998474121</ele>
        <time>2021-12-16T09:36:44.000Z</time>
      </trkpt>
      <trkpt lat="47.27569" lon="-2.46016">
        <ele>51.599998474121</ele>
        <time>2021-12-16T09:36:47.000Z</time>
      </trkpt>
      <trkpt lat="47.276" lon="-2.45982">
        <ele>51.599998474121</ele>
        <time>2021-12-16T09:36:55.000Z</time>
      </trkpt>
      <trkpt lat="47.27625" lon="-2.45961">
        <ele>51.599998474121</ele>
        <time>2021-12-16T09:37:01.000Z</time>
      </trkpt>
      <trkpt lat="47.27636" lon="-2.45956">
        <ele>51.599998474121</ele>
        <time>2021-12-16T09:37:05.000Z</time>
      </trkpt>
      <trkpt lat="47.27639" lon="-2.45957">
        <ele>51.599998474121</ele>
        <time>2021-12-16T09:37:07.000Z</time>
      </trkpt>
      <trkpt lat="47.27641" lon="-2.45963">
        <ele>51.599998474121</ele>
        <time>2021-12-16T09:37:09.000Z</time>
      </trkpt>
      <trkpt lat="47.2764" lon="-2.45971">
        <ele>51.599998474121</ele>
        <time>2021-12-16T09:37:11.000Z</time>
      </trkpt>
      <trkpt lat="47.27641" lon="-2.4599">
        <ele>51.599998474121</ele>
        <time>2021-12-16T09:37:14.000Z</time>
      </trkpt>
      <trkpt lat="47.27642" lon="-2.46003">
        <ele>51.599998474121</ele>
        <time>2021-12-16T09:37:16.000Z</time>
      </trkpt>
      <trkpt lat="47.27648" lon="-2.46033">
        <ele>51.599998474121</ele>
        <time>2021-12-16T09:37:20.000Z</time>
      </trkpt>
      <trkpt lat="47.27654" lon="-2.4607">
        <ele>51.599998474121</ele>
        <time>2021-12-16T09:37:25.000Z</time>
      </trkpt>
      <trkpt lat="47.27655" lon="-2.46077">
        <ele>51.599998474121</ele>
        <time>2021-12-16T09:37:26.000Z</time>
      </trkpt>
      <trkpt lat="47.27662" lon="-2.4612">
        <ele>51.599998474121</ele>
        <time>2021-12-16T09:37:33.000Z</time>
      </trkpt>
      <trkpt lat="47.27666" lon="-2.46145">
        <ele>51.599998474121</ele>
        <time>2021-12-16T09:37:38.000Z</time>
      </trkpt>
      <trkpt lat="47.27668" lon="-2.46167">
        <ele>51.599998474121</ele>
        <time>2021-12-16T09:37:43.000Z</time>
      </trkpt>
      <trkpt lat="47.27668" lon="-2.46185">
        <ele>51.599998474121</ele>
        <time>2021-12-16T09:37:46.000Z</time>
      </trkpt>
      <trkpt lat="47.27668" lon="-2.46198">
        <ele>51.599998474121</ele>
        <time>2021-12-16T09:37:48.000Z</time>
      </trkpt>
      <trkpt lat="47.27669" lon="-2.46205">
        <ele>51.599998474121</ele>
        <time>2021-12-16T09:37:49.000Z</time>
      </trkpt>
      <trkpt lat="47.2767" lon="-2.46218">
        <ele>51.599998474121</ele>
        <time>2021-12-16T09:37:51.000Z</time>
      </trkpt>
      <trkpt lat="47.27671" lon="-2.4623">
        <ele>51.599998474121</ele>
        <time>2021-12-16T09:37:53.000Z</time>
      </trkpt>
      <trkpt lat="47.27673" lon="-2.46256">
        <ele>51.599998474121</ele>
        <time>2021-12-16T09:37:57.000Z</time>
      </trkpt>
      <trkpt lat="47.27669" lon="-2.46266">
        <ele>51.599998474121</ele>
        <time>2021-12-16T09:37:59.000Z</time>
      </trkpt>
      <trkpt lat="47.27663" lon="-2.46274">
        <ele>51.599998474121</ele>
        <time>2021-12-16T09:38:01.000Z</time>
      </trkpt>
      <trkpt lat="47.27659" lon="-2.4629">
        <ele>51.599998474121</ele>
        <time>2021-12-16T09:38:04.000Z</time>
      </trkpt>
      <trkpt lat="47.27667" lon="-2.46304">
        <ele>51.599998474121</ele>
        <time>2021-12-16T09:38:07.000Z</time>
      </trkpt>
      <trkpt lat="47.27675" lon="-2.46329">
        <ele>51.599998474121</ele>
        <time>2021-12-16T09:38:12.000Z</time>
      </trkpt>
      <trkpt lat="47.27676" lon="-2.46342">
        <ele>52</ele>
        <time>2021-12-16T09:38:14.000Z</time>
      </trkpt>
      <trkpt lat="47.27678" lon="-2.46349">
        <ele>52.400001525879</ele>
        <time>2021-12-16T09:38:15.000Z</time>
      </trkpt>
      <trkpt lat="47.27679" lon="-2.46357">
        <ele>52.799999237061</ele>
        <time>2021-12-16T09:38:16.000Z</time>
      </trkpt>
      <trkpt lat="47.27682" lon="-2.46364">
        <ele>53.200000762939</ele>
        <time>2021-12-16T09:38:17.000Z</time>
      </trkpt>
      <trkpt lat="47.27684" lon="-2.46373">
        <ele>53.599998474121</ele>
        <time>2021-12-16T09:38:18.000Z</time>
      </trkpt>
      <trkpt lat="47.27697" lon="-2.46405">
        <ele>53.599998474121</ele>
        <time>2021-12-16T09:38:22.000Z</time>
      </trkpt>
      <trkpt lat="47.27719" lon="-2.46454">
        <ele>53.599998474121</ele>
        <time>2021-12-16T09:38:28.000Z</time>
      </trkpt>
      <trkpt lat="47.27735" lon="-2.46503">
        <ele>53.599998474121</ele>
        <time>2021-12-16T09:38:34.000Z</time>
      </trkpt>
      <trkpt lat="47.27748" lon="-2.46562">
        <ele>53.599998474121</ele>
        <time>2021-12-16T09:38:41.000Z</time>
      </trkpt>
      <trkpt lat="47.27757" lon="-2.46585">
        <ele>53.599998474121</ele>
        <time>2021-12-16T09:38:44.000Z</time>
      </trkpt>
      <trkpt lat="47.27766" lon="-2.46596">
        <ele>53.599998474121</ele>
        <time>2021-12-16T09:38:46.000Z</time>
      </trkpt>
      <trkpt lat="47.27778" lon="-2.46602">
        <ele>53.599998474121</ele>
        <time>2021-12-16T09:38:48.000Z</time>
      </trkpt>
      <trkpt lat="47.27782" lon="-2.46603">
        <ele>53.599998474121</ele>
        <time>2021-12-16T09:38:49.000Z</time>
      </trkpt>
      <trkpt lat="47.27787" lon="-2.46603">
        <ele>53.599998474121</ele>
        <time>2021-12-16T09:38:50.000Z</time>
      </trkpt>
      <trkpt lat="47.27799" lon="-2.46601">
        <ele>52.799999237061</ele>
        <time>2021-12-16T09:38:53.000Z</time>
      </trkpt>
      <trkpt lat="47.27802" lon="-2.46602">
        <ele>52.400001525879</ele>
        <time>2021-12-16T09:38:54.000Z</time>
      </trkpt>
      <trkpt lat="47.27804" lon="-2.46604">
        <ele>52</ele>
        <time>2021-12-16T09:38:55.000Z</time>
      </trkpt>
      <trkpt lat="47.27804" lon="-2.46605">
        <ele>51.599998474121</ele>
        <time>2021-12-16T09:38:56.000Z</time>
      </trkpt>
      <trkpt lat="47.27802" lon="-2.46605">
        <ele>51.599998474121</ele>
        <time>2021-12-16T09:38:58.000Z</time>
      </trkpt>
      <trkpt lat="47.27795" lon="-2.46606">
        <ele>51.599998474121</ele>
        <time>2021-12-16T09:39:01.000Z</time>
      </trkpt>
      <trkpt lat="47.27789" lon="-2.46606">
        <ele>51.599998474121</ele>
        <time>2021-12-16T09:39:03.000Z</time>
      </trkpt>
      <trkpt lat="47.27771" lon="-2.46601">
        <ele>51.599998474121</ele>
        <time>2021-12-16T09:39:08.000Z</time>
      </trkpt>
      <trkpt lat="47.27768" lon="-2.46602">
        <ele>51.599998474121</ele>
        <time>2021-12-16T09:39:09.000Z</time>
      </trkpt>
      <trkpt lat="47.27765" lon="-2.46609">
        <ele>51.599998474121</ele>
        <time>2021-12-16T09:39:11.000Z</time>
      </trkpt>
      <trkpt lat="47.27762" lon="-2.46621">
        <ele>51.599998474121</ele>
        <time>2021-12-16T09:39:14.000Z</time>
      </trkpt>
      <trkpt lat="47.2776" lon="-2.46624">
        <ele>51.599998474121</ele>
        <time>2021-12-16T09:39:15.000Z</time>
      </trkpt>
      <trkpt lat="47.27761" lon="-2.46639">
        <ele>51.599998474121</ele>
        <time>2021-12-16T09:39:18.000Z</time>
      </trkpt>
      <trkpt lat="47.27761" lon="-2.46663">
        <ele>51.599998474121</ele>
        <time>2021-12-16T09:39:22.000Z</time>
      </trkpt>
      <trkpt lat="47.27761" lon="-2.46688">
        <ele>51.599998474121</ele>
        <time>2021-12-16T09:39:25.000Z</time>
      </trkpt>
      <trkpt lat="47.27761" lon="-2.46696">
        <ele>51.599998474121</ele>
        <time>2021-12-16T09:39:26.000Z</time>
      </trkpt>
      <trkpt lat="47.27758" lon="-2.46726">
        <ele>51.599998474121</ele>
        <time>2021-12-16T09:39:30.000Z</time>
      </trkpt>
      <trkpt lat="47.27762" lon="-2.46747">
        <ele>51.599998474121</ele>
        <time>2021-12-16T09:39:33.000Z</time>
      </trkpt>
      <trkpt lat="47.27763" lon="-2.46754">
        <ele>51.599998474121</ele>
        <time>2021-12-16T09:39:34.000Z</time>
      </trkpt>
      <trkpt lat="47.27767" lon="-2.46766">
        <ele>51.599998474121</ele>
        <time>2021-12-16T09:39:36.000Z</time>
      </trkpt>
      <trkpt lat="47.27772" lon="-2.4678">
        <ele>51.599998474121</ele>
        <time>2021-12-16T09:39:38.000Z</time>
      </trkpt>
      <trkpt lat="47.27774" lon="-2.46795">
        <ele>51.599998474121</ele>
        <time>2021-12-16T09:39:40.000Z</time>
      </trkpt>
      <trkpt lat="47.27779" lon="-2.46815">
        <ele>51.599998474121</ele>
        <time>2021-12-16T09:39:43.000Z</time>
      </trkpt>
      <trkpt lat="47.27784" lon="-2.46839">
        <ele>51.599998474121</ele>
        <time>2021-12-16T09:39:48.000Z</time>
      </trkpt>
      <trkpt lat="47.27785" lon="-2.46856">
        <ele>51.599998474121</ele>
        <time>2021-12-16T09:39:51.000Z</time>
      </trkpt>
      <trkpt lat="47.27785" lon="-2.46862">
        <ele>51.599998474121</ele>
        <time>2021-12-16T09:39:52.000Z</time>
      </trkpt>
      <trkpt lat="47.27783" lon="-2.4688">
        <ele>51.599998474121</ele>
        <time>2021-12-16T09:39:55.000Z</time>
      </trkpt>
      <trkpt lat="47.27777" lon="-2.46897">
        <ele>51.599998474121</ele>
        <time>2021-12-16T09:39:58.000Z</time>
      </trkpt>
      <trkpt lat="47.27774" lon="-2.46902">
        <ele>51.599998474121</ele>
        <time>2021-12-16T09:39:59.000Z</time>
      </trkpt>
      <trkpt lat="47.2777" lon="-2.46923">
        <ele>51.599998474121</ele>
        <time>2021-12-16T09:40:03.000Z</time>
      </trkpt>
      <trkpt lat="47.2777" lon="-2.46933">
        <ele>51.599998474121</ele>
        <time>2021-12-16T09:40:05.000Z</time>
      </trkpt>
      <trkpt lat="47.27767" lon="-2.46943">
        <ele>51.599998474121</ele>
        <time>2021-12-16T09:40:07.000Z</time>
      </trkpt>
      <trkpt lat="47.27768" lon="-2.46969">
        <ele>51.599998474121</ele>
        <time>2021-12-16T09:40:11.000Z</time>
      </trkpt>
      <trkpt lat="47.27769" lon="-2.46976">
        <ele>51.599998474121</ele>
        <time>2021-12-16T09:40:12.000Z</time>
      </trkpt>
      <trkpt lat="47.27772" lon="-2.47001">
        <ele>51.599998474121</ele>
        <time>2021-12-16T09:40:16.000Z</time>
      </trkpt>
      <trkpt lat="47.27773" lon="-2.47015">
        <ele>51.599998474121</ele>
        <time>2021-12-16T09:40:18.000Z</time>
      </trkpt>
      <trkpt lat="47.27774" lon="-2.47059">
        <ele>51.599998474121</ele>
        <time>2021-12-16T09:40:24.000Z</time>
      </trkpt>
      <trkpt lat="47.27773" lon="-2.47121">
        <ele>51.599998474121</ele>
        <time>2021-12-16T09:40:32.000Z</time>
      </trkpt>
      <trkpt lat="47.27775" lon="-2.47149">
        <ele>51.599998474121</ele>
        <time>2021-12-16T09:40:36.000Z</time>
      </trkpt>
      <trkpt lat="47.27777" lon="-2.47154">
        <ele>51.599998474121</ele>
        <time>2021-12-16T09:40:37.000Z</time>
      </trkpt>
      <trkpt lat="47.27784" lon="-2.47173">
        <ele>51.599998474121</ele>
        <time>2021-12-16T09:40:41.000Z</time>
      </trkpt>
      <trkpt lat="47.27784" lon="-2.47189">
        <ele>51.599998474121</ele>
        <time>2021-12-16T09:40:44.000Z</time>
      </trkpt>
      <trkpt lat="47.27784" lon="-2.47196">
        <ele>51.599998474121</ele>
        <time>2021-12-16T09:40:45.000Z</time>
      </trkpt>
      <trkpt lat="47.27785" lon="-2.47202">
        <ele>51.599998474121</ele>
        <time>2021-12-16T09:40:46.000Z</time>
      </trkpt>
      <trkpt lat="47.27785" lon="-2.47207">
        <ele>51.599998474121</ele>
        <time>2021-12-16T09:40:47.000Z</time>
      </trkpt>
      <trkpt lat="47.2779" lon="-2.47235">
        <ele>51.599998474121</ele>
        <time>2021-12-16T09:40:52.000Z</time>
      </trkpt>
      <trkpt lat="47.27791" lon="-2.47241">
        <ele>51.599998474121</ele>
        <time>2021-12-16T09:40:53.000Z</time>
      </trkpt>
      <trkpt lat="47.27796" lon="-2.47261">
        <ele>51.599998474121</ele>
        <time>2021-12-16T09:40:56.000Z</time>
      </trkpt>
      <trkpt lat="47.27795" lon="-2.47282">
        <ele>51.599998474121</ele>
        <time>2021-12-16T09:40:59.000Z</time>
      </trkpt>
      <trkpt lat="47.27795" lon="-2.4729">
        <ele>51.599998474121</ele>
        <time>2021-12-16T09:41:00.000Z</time>
      </trkpt>
      <trkpt lat="47.27795" lon="-2.47306">
        <ele>51.599998474121</ele>
        <time>2021-12-16T09:41:02.000Z</time>
      </trkpt>
      <trkpt lat="47.27793" lon="-2.4733">
        <ele>51.599998474121</ele>
        <time>2021-12-16T09:41:05.000Z</time>
      </trkpt>
      <trkpt lat="47.27793" lon="-2.4739">
        <ele>51.599998474121</ele>
        <time>2021-12-16T09:41:12.000Z</time>
      </trkpt>
      <trkpt lat="47.27792" lon="-2.47445">
        <ele>51.599998474121</ele>
        <time>2021-12-16T09:41:19.000Z</time>
      </trkpt>
      <trkpt lat="47.27793" lon="-2.47514">
        <ele>52.200000762939</ele>
        <time>2021-12-16T09:41:28.000Z</time>
      </trkpt>
      <trkpt lat="47.27794" lon="-2.47521">
        <ele>52.599998474121</ele>
        <time>2021-12-16T09:41:29.000Z</time>
      </trkpt>
      <trkpt lat="47.27795" lon="-2.47528">
        <ele>53</ele>
        <time>2021-12-16T09:41:30.000Z</time>
      </trkpt>
      <trkpt lat="47.27796" lon="-2.47536">
        <ele>53.400001525879</ele>
        <time>2021-12-16T09:41:31.000Z</time>
      </trkpt>
      <trkpt lat="47.27797" lon="-2.47544">
        <ele>53.799999237061</ele>
        <time>2021-12-16T09:41:32.000Z</time>
      </trkpt>
      <trkpt lat="47.27799" lon="-2.47559">
        <ele>53.799999237061</ele>
        <time>2021-12-16T09:41:34.000Z</time>
      </trkpt>
      <trkpt lat="47.27805" lon="-2.47596">
        <ele>54.200000762939</ele>
        <time>2021-12-16T09:41:39.000Z</time>
      </trkpt>
      <trkpt lat="47.27806" lon="-2.47603">
        <ele>54.599998474121</ele>
        <time>2021-12-16T09:41:40.000Z</time>
      </trkpt>
      <trkpt lat="47.27808" lon="-2.4761">
        <ele>55</ele>
        <time>2021-12-16T09:41:41.000Z</time>
      </trkpt>
      <trkpt lat="47.27808" lon="-2.47617">
        <ele>55.400001525879</ele>
        <time>2021-12-16T09:41:42.000Z</time>
      </trkpt>
      <trkpt lat="47.27808" lon="-2.47624">
        <ele>56</ele>
        <time>2021-12-16T09:41:43.000Z</time>
      </trkpt>
      <trkpt lat="47.27808" lon="-2.47632">
        <ele>56</ele>
        <time>2021-12-16T09:41:44.000Z</time>
      </trkpt>
      <trkpt lat="47.27812" lon="-2.47679">
        <ele>56</ele>
        <time>2021-12-16T09:41:50.000Z</time>
      </trkpt>
      <trkpt lat="47.27828" lon="-2.47732">
        <ele>56</ele>
        <time>2021-12-16T09:41:57.000Z</time>
      </trkpt>
      <trkpt lat="47.27838" lon="-2.47762">
        <ele>56.400001525879</ele>
        <time>2021-12-16T09:42:01.000Z</time>
      </trkpt>
      <trkpt lat="47.27841" lon="-2.47769">
        <ele>56.799999237061</ele>
        <time>2021-12-16T09:42:02.000Z</time>
      </trkpt>
      <trkpt lat="47.27843" lon="-2.47776">
        <ele>57.200000762939</ele>
        <time>2021-12-16T09:42:03.000Z</time>
      </trkpt>
      <trkpt lat="47.27846" lon="-2.47782">
        <ele>57.599998474121</ele>
        <time>2021-12-16T09:42:04.000Z</time>
      </trkpt>
      <trkpt lat="47.27848" lon="-2.47789">
        <ele>58</ele>
        <time>2021-12-16T09:42:05.000Z</time>
      </trkpt>
      <trkpt lat="47.27855" lon="-2.47817">
        <ele>58</ele>
        <time>2021-12-16T09:42:09.000Z</time>
      </trkpt>
      <trkpt lat="47.27866" lon="-2.47873">
        <ele>58</ele>
        <time>2021-12-16T09:42:16.000Z</time>
      </trkpt>
      <trkpt lat="47.27875" lon="-2.47934">
        <ele>58</ele>
        <time>2021-12-16T09:42:23.000Z</time>
      </trkpt>
      <trkpt lat="47.2788" lon="-2.4796">
        <ele>58</ele>
        <time>2021-12-16T09:42:26.000Z</time>
      </trkpt>
      <trkpt lat="47.27884" lon="-2.47978">
        <ele>58</ele>
        <time>2021-12-16T09:42:28.000Z</time>
      </trkpt>
      <trkpt lat="47.27893" lon="-2.48047">
        <ele>58</ele>
        <time>2021-12-16T09:42:35.000Z</time>
      </trkpt>
      <trkpt lat="47.27904" lon="-2.48123">
        <ele>57.599998474121</ele>
        <time>2021-12-16T09:42:42.000Z</time>
      </trkpt>
      <trkpt lat="47.27906" lon="-2.48134">
        <ele>57.200000762939</ele>
        <time>2021-12-16T09:42:43.000Z</time>
      </trkpt>
      <trkpt lat="47.27907" lon="-2.48145">
        <ele>56.799999237061</ele>
        <time>2021-12-16T09:42:44.000Z</time>
      </trkpt>
      <trkpt lat="47.27909" lon="-2.48156">
        <ele>56.400001525879</ele>
        <time>2021-12-16T09:42:45.000Z</time>
      </trkpt>
      <trkpt lat="47.27911" lon="-2.48166">
        <ele>56</ele>
        <time>2021-12-16T09:42:46.000Z</time>
      </trkpt>
      <trkpt lat="47.27918" lon="-2.48207">
        <ele>56</ele>
        <time>2021-12-16T09:42:50.000Z</time>
      </trkpt>
      <trkpt lat="47.27926" lon="-2.48262">
        <ele>56</ele>
        <time>2021-12-16T09:42:56.000Z</time>
      </trkpt>
      <trkpt lat="47.27928" lon="-2.48278">
        <ele>56</ele>
        <time>2021-12-16T09:42:58.000Z</time>
      </trkpt>
      <trkpt lat="47.27935" lon="-2.48289">
        <ele>56</ele>
        <time>2021-12-16T09:43:00.000Z</time>
      </trkpt>
      <trkpt lat="47.27951" lon="-2.48294">
        <ele>56</ele>
        <time>2021-12-16T09:43:03.000Z</time>
      </trkpt>
      <trkpt lat="47.27999" lon="-2.48312">
        <ele>56</ele>
        <time>2021-12-16T09:43:11.000Z</time>
      </trkpt>
      <trkpt lat="47.28054" lon="-2.4833">
        <ele>56</ele>
        <time>2021-12-16T09:43:20.000Z</time>
      </trkpt>
      <trkpt lat="47.2806" lon="-2.48332">
        <ele>56</ele>
        <time>2021-12-16T09:43:21.000Z</time>
      </trkpt>
      <trkpt lat="47.281" lon="-2.48346">
        <ele>56</ele>
        <time>2021-12-16T09:43:28.000Z</time>
      </trkpt>
      <trkpt lat="47.28138" lon="-2.48361">
        <ele>56</ele>
        <time>2021-12-16T09:43:35.000Z</time>
      </trkpt>
      <trkpt lat="47.28149" lon="-2.48363">
        <ele>56</ele>
        <time>2021-12-16T09:43:37.000Z</time>
      </trkpt>
      <trkpt lat="47.28166" lon="-2.4836">
        <ele>56</ele>
        <time>2021-12-16T09:43:40.000Z</time>
      </trkpt>
      <trkpt lat="47.28178" lon="-2.4836">
        <ele>56</ele>
        <time>2021-12-16T09:43:42.000Z</time>
      </trkpt>
      <trkpt lat="47.28187" lon="-2.48361">
        <ele>56</ele>
        <time>2021-12-16T09:43:44.000Z</time>
      </trkpt>
      <trkpt lat="47.28191" lon="-2.48357">
        <ele>55.599998474121</ele>
        <time>2021-12-16T09:43:45.000Z</time>
      </trkpt>
      <trkpt lat="47.28194" lon="-2.48353">
        <ele>55.200000762939</ele>
        <time>2021-12-16T09:43:46.000Z</time>
      </trkpt>
      <trkpt lat="47.28197" lon="-2.4835">
        <ele>54.400001525879</ele>
        <time>2021-12-16T09:43:47.000Z</time>
      </trkpt>
      <trkpt lat="47.28201" lon="-2.48348">
        <ele>54</ele>
        <time>2021-12-16T09:43:48.000Z</time>
      </trkpt>
      <trkpt lat="47.28211" lon="-2.48346">
        <ele>54</ele>
        <time>2021-12-16T09:43:50.000Z</time>
      </trkpt>
      <trkpt lat="47.28222" lon="-2.48342">
        <ele>54</ele>
        <time>2021-12-16T09:43:52.000Z</time>
      </trkpt>
      <trkpt lat="47.28227" lon="-2.48341">
        <ele>54</ele>
        <time>2021-12-16T09:43:53.000Z</time>
      </trkpt>
      <trkpt lat="47.28238" lon="-2.48342">
        <ele>54</ele>
        <time>2021-12-16T09:43:55.000Z</time>
      </trkpt>
      <trkpt lat="47.28244" lon="-2.48345">
        <ele>53.599998474121</ele>
        <time>2021-12-16T09:43:56.000Z</time>
      </trkpt>
      <trkpt lat="47.28249" lon="-2.48349">
        <ele>53.200000762939</ele>
        <time>2021-12-16T09:43:57.000Z</time>
      </trkpt>
      <trkpt lat="47.28253" lon="-2.48356">
        <ele>52.599998474121</ele>
        <time>2021-12-16T09:43:58.000Z</time>
      </trkpt>
      <trkpt lat="47.28256" lon="-2.48363">
        <ele>52.200000762939</ele>
        <time>2021-12-16T09:43:59.000Z</time>
      </trkpt>
      <trkpt lat="47.2826" lon="-2.48369">
        <ele>51.799999237061</ele>
        <time>2021-12-16T09:44:00.000Z</time>
      </trkpt>
      <trkpt lat="47.28272" lon="-2.48371">
        <ele>51.799999237061</ele>
        <time>2021-12-16T09:44:02.000Z</time>
      </trkpt>
      <trkpt lat="47.28293" lon="-2.48368">
        <ele>51.799999237061</ele>
        <time>2021-12-16T09:44:06.000Z</time>
      </trkpt>
      <trkpt lat="47.28296" lon="-2.48372">
        <ele>51.400001525879</ele>
        <time>2021-12-16T09:44:07.000Z</time>
      </trkpt>
      <trkpt lat="47.28298" lon="-2.48378">
        <ele>51</ele>
        <time>2021-12-16T09:44:08.000Z</time>
      </trkpt>
      <trkpt lat="47.28301" lon="-2.48381">
        <ele>50.599998474121</ele>
        <time>2021-12-16T09:44:09.000Z</time>
      </trkpt>
      <trkpt lat="47.28304" lon="-2.48383">
        <ele>50</ele>
        <time>2021-12-16T09:44:10.000Z</time>
      </trkpt>
      <trkpt lat="47.28308" lon="-2.48383">
        <ele>49.599998474121</ele>
        <time>2021-12-16T09:44:11.000Z</time>
      </trkpt>
      <trkpt lat="47.28313" lon="-2.48382">
        <ele>49.599998474121</ele>
        <time>2021-12-16T09:44:12.000Z</time>
      </trkpt>
      <trkpt lat="47.28329" lon="-2.48371">
        <ele>49.599998474121</ele>
        <time>2021-12-16T09:44:16.000Z</time>
      </trkpt>
      <trkpt lat="47.28355" lon="-2.48355">
        <ele>49.599998474121</ele>
        <time>2021-12-16T09:44:22.000Z</time>
      </trkpt>
      <trkpt lat="47.2836" lon="-2.48355">
        <ele>49.599998474121</ele>
        <time>2021-12-16T09:44:23.000Z</time>
      </trkpt>
      <trkpt lat="47.28368" lon="-2.48354">
        <ele>49.599998474121</ele>
        <time>2021-12-16T09:44:25.000Z</time>
      </trkpt>
      <trkpt lat="47.28376" lon="-2.48352">
        <ele>49.599998474121</ele>
        <time>2021-12-16T09:44:27.000Z</time>
      </trkpt>
      <trkpt lat="47.28391" lon="-2.48349">
        <ele>49.599998474121</ele>
        <time>2021-12-16T09:44:31.000Z</time>
      </trkpt>
      <trkpt lat="47.28396" lon="-2.4835">
        <ele>49.599998474121</ele>
        <time>2021-12-16T09:44:32.000Z</time>
      </trkpt>
      <trkpt lat="47.28409" lon="-2.48359">
        <ele>49.599998474121</ele>
        <time>2021-12-16T09:44:35.000Z</time>
      </trkpt>
      <trkpt lat="47.28413" lon="-2.48362">
        <ele>49.599998474121</ele>
        <time>2021-12-16T09:44:36.000Z</time>
      </trkpt>
      <trkpt lat="47.28417" lon="-2.48367">
        <ele>49.599998474121</ele>
        <time>2021-12-16T09:44:37.000Z</time>
      </trkpt>
      <trkpt lat="47.28427" lon="-2.4838">
        <ele>49.599998474121</ele>
        <time>2021-12-16T09:44:40.000Z</time>
      </trkpt>
      <trkpt lat="47.28438" lon="-2.48391">
        <ele>49.599998474121</ele>
        <time>2021-12-16T09:44:43.000Z</time>
      </trkpt>
      <trkpt lat="47.28449" lon="-2.48407">
        <ele>49.599998474121</ele>
        <time>2021-12-16T09:44:47.000Z</time>
      </trkpt>
      <trkpt lat="47.28448" lon="-2.48414">
        <ele>49.599998474121</ele>
        <time>2021-12-16T09:44:49.000Z</time>
      </trkpt>
      <trkpt lat="47.28447" lon="-2.4842">
        <ele>49.599998474121</ele>
        <time>2021-12-16T09:44:50.000Z</time>
      </trkpt>
      <trkpt lat="47.28446" lon="-2.48431">
        <ele>49.599998474121</ele>
        <time>2021-12-16T09:44:52.000Z</time>
      </trkpt>
      <trkpt lat="47.28445" lon="-2.48451">
        <ele>49.599998474121</ele>
        <time>2021-12-16T09:44:55.000Z</time>
      </trkpt>
      <trkpt lat="47.28442" lon="-2.48502">
        <ele>49.599998474121</ele>
        <time>2021-12-16T09:45:02.000Z</time>
      </trkpt>
      <trkpt lat="47.2844" lon="-2.48509">
        <ele>49.599998474121</ele>
        <time>2021-12-16T09:45:03.000Z</time>
      </trkpt>
      <trkpt lat="47.28434" lon="-2.48527">
        <ele>49.599998474121</ele>
        <time>2021-12-16T09:45:06.000Z</time>
      </trkpt>
      <trkpt lat="47.28433" lon="-2.48534">
        <ele>49.599998474121</ele>
        <time>2021-12-16T09:45:07.000Z</time>
      </trkpt>
      <trkpt lat="47.28439" lon="-2.48545">
        <ele>49.599998474121</ele>
        <time>2021-12-16T09:45:09.000Z</time>
      </trkpt>
      <trkpt lat="47.28453" lon="-2.48553">
        <ele>49.599998474121</ele>
        <time>2021-12-16T09:45:12.000Z</time>
      </trkpt>
      <trkpt lat="47.28458" lon="-2.48555">
        <ele>49.599998474121</ele>
        <time>2021-12-16T09:45:13.000Z</time>
      </trkpt>
      <trkpt lat="47.2847" lon="-2.48565">
        <ele>49.599998474121</ele>
        <time>2021-12-16T09:45:16.000Z</time>
      </trkpt>
      <trkpt lat="47.28473" lon="-2.48575">
        <ele>49.599998474121</ele>
        <time>2021-12-16T09:45:18.000Z</time>
      </trkpt>
      <trkpt lat="47.28475" lon="-2.48588">
        <ele>49.599998474121</ele>
        <time>2021-12-16T09:45:20.000Z</time>
      </trkpt>
      <trkpt lat="47.2848" lon="-2.48603">
        <ele>49.599998474121</ele>
        <time>2021-12-16T09:45:23.000Z</time>
      </trkpt>
      <trkpt lat="47.2848" lon="-2.48609">
        <ele>49.599998474121</ele>
        <time>2021-12-16T09:45:24.000Z</time>
      </trkpt>
      <trkpt lat="47.28478" lon="-2.48621">
        <ele>49.599998474121</ele>
        <time>2021-12-16T09:45:26.000Z</time>
      </trkpt>
      <trkpt lat="47.28473" lon="-2.4865">
        <ele>49.599998474121</ele>
        <time>2021-12-16T09:45:31.000Z</time>
      </trkpt>
      <trkpt lat="47.28472" lon="-2.48656">
        <ele>49.599998474121</ele>
        <time>2021-12-16T09:45:32.000Z</time>
      </trkpt>
      <trkpt lat="47.28475" lon="-2.48684">
        <ele>49.599998474121</ele>
        <time>2021-12-16T09:45:36.000Z</time>
      </trkpt>
      <trkpt lat="47.28488" lon="-2.48702">
        <ele>49.599998474121</ele>
        <time>2021-12-16T09:45:40.000Z</time>
      </trkpt>
      <trkpt lat="47.28492" lon="-2.48706">
        <ele>49.599998474121</ele>
        <time>2021-12-16T09:45:41.000Z</time>
      </trkpt>
      <trkpt lat="47.28513" lon="-2.48734">
        <ele>49.599998474121</ele>
        <time>2021-12-16T09:45:47.000Z</time>
      </trkpt>
      <trkpt lat="47.28515" lon="-2.48738">
        <ele>49.599998474121</ele>
        <time>2021-12-16T09:45:48.000Z</time>
      </trkpt>
      <trkpt lat="47.28518" lon="-2.48743">
        <ele>50</ele>
        <time>2021-12-16T09:45:49.000Z</time>
      </trkpt>
      <trkpt lat="47.28521" lon="-2.48748">
        <ele>50.400001525879</ele>
        <time>2021-12-16T09:45:50.000Z</time>
      </trkpt>
      <trkpt lat="47.28524" lon="-2.48752">
        <ele>50.799999237061</ele>
        <time>2021-12-16T09:45:51.000Z</time>
      </trkpt>
      <trkpt lat="47.28527" lon="-2.48757">
        <ele>51.799999237061</ele>
        <time>2021-12-16T09:45:52.000Z</time>
      </trkpt>
      <trkpt lat="47.28533" lon="-2.48767">
        <ele>51.799999237061</ele>
        <time>2021-12-16T09:45:54.000Z</time>
      </trkpt>
      <trkpt lat="47.28542" lon="-2.48781">
        <ele>51.799999237061</ele>
        <time>2021-12-16T09:45:57.000Z</time>
      </trkpt>
      <trkpt lat="47.2855" lon="-2.48796">
        <ele>51.799999237061</ele>
        <time>2021-12-16T09:46:00.000Z</time>
      </trkpt>
      <trkpt lat="47.28563" lon="-2.48821">
        <ele>51.200000762939</ele>
        <time>2021-12-16T09:46:05.000Z</time>
      </trkpt>
      <trkpt lat="47.28566" lon="-2.48825">
        <ele>50.799999237061</ele>
        <time>2021-12-16T09:46:06.000Z</time>
      </trkpt>
      <trkpt lat="47.28569" lon="-2.48828">
        <ele>50.400001525879</ele>
        <time>2021-12-16T09:46:07.000Z</time>
      </trkpt>
      <trkpt lat="47.28572" lon="-2.48831">
        <ele>50</ele>
        <time>2021-12-16T09:46:08.000Z</time>
      </trkpt>
      <trkpt lat="47.28575" lon="-2.48835">
        <ele>49.599998474121</ele>
        <time>2021-12-16T09:46:09.000Z</time>
      </trkpt>
      <trkpt lat="47.28579" lon="-2.4885">
        <ele>49.599998474121</ele>
        <time>2021-12-16T09:46:12.000Z</time>
      </trkpt>
      <trkpt lat="47.28579" lon="-2.48885">
        <ele>49.599998474121</ele>
        <time>2021-12-16T09:46:18.000Z</time>
      </trkpt>
      <trkpt lat="47.28573" lon="-2.48907">
        <ele>49.599998474121</ele>
        <time>2021-12-16T09:46:22.000Z</time>
      </trkpt>
      <trkpt lat="47.2857" lon="-2.48911">
        <ele>49.599998474121</ele>
        <time>2021-12-16T09:46:23.000Z</time>
      </trkpt>
      <trkpt lat="47.28558" lon="-2.48914">
        <ele>49.599998474121</ele>
        <time>2021-12-16T09:46:26.000Z</time>
      </trkpt>
      <trkpt lat="47.2855" lon="-2.48918">
        <ele>49.599998474121</ele>
        <time>2021-12-16T09:46:28.000Z</time>
      </trkpt>
      <trkpt lat="47.28538" lon="-2.48924">
        <ele>49.599998474121</ele>
        <time>2021-12-16T09:46:31.000Z</time>
      </trkpt>
      <trkpt lat="47.2852" lon="-2.48927">
        <ele>49.599998474121</ele>
        <time>2021-12-16T09:46:35.000Z</time>
      </trkpt>
      <trkpt lat="47.28512" lon="-2.48926">
        <ele>49.599998474121</ele>
        <time>2021-12-16T09:46:37.000Z</time>
      </trkpt>
      <trkpt lat="47.28483" lon="-2.48922">
        <ele>49.599998474121</ele>
        <time>2021-12-16T09:46:44.000Z</time>
      </trkpt>
      <trkpt lat="47.28471" lon="-2.48929">
        <ele>49.599998474121</ele>
        <time>2021-12-16T09:46:49.000Z</time>
      </trkpt>
      <trkpt lat="47.2847" lon="-2.48932">
        <ele>49.599998474121</ele>
        <time>2021-12-16T09:46:50.000Z</time>
      </trkpt>
      <trkpt lat="47.28468" lon="-2.48945">
        <ele>49.599998474121</ele>
        <time>2021-12-16T09:46:53.000Z</time>
      </trkpt>
      <trkpt lat="47.28465" lon="-2.48953">
        <ele>49.599998474121</ele>
        <time>2021-12-16T09:46:55.000Z</time>
      </trkpt>
      <trkpt lat="47.28467" lon="-2.48964">
        <ele>49.599998474121</ele>
        <time>2021-12-16T09:46:58.000Z</time>
      </trkpt>
      <trkpt lat="47.28473" lon="-2.48969">
        <ele>50</ele>
        <time>2021-12-16T09:47:02.000Z</time>
      </trkpt>
      <trkpt lat="47.28475" lon="-2.4897">
        <ele>50.400001525879</ele>
        <time>2021-12-16T09:47:03.000Z</time>
      </trkpt>
      <trkpt lat="47.28477" lon="-2.48971">
        <ele>50.799999237061</ele>
        <time>2021-12-16T09:47:04.000Z</time>
      </trkpt>
      <trkpt lat="47.28479" lon="-2.48972">
        <ele>51.799999237061</ele>
        <time>2021-12-16T09:47:05.000Z</time>
      </trkpt>
      <trkpt lat="47.28488" lon="-2.48977">
        <ele>51.799999237061</ele>
        <time>2021-12-16T09:47:08.000Z</time>
      </trkpt>
      <trkpt lat="47.28503" lon="-2.48979">
        <ele>51.799999237061</ele>
        <time>2021-12-16T09:47:12.000Z</time>
      </trkpt>
      <trkpt lat="47.28507" lon="-2.48977">
        <ele>51.799999237061</ele>
        <time>2021-12-16T09:47:13.000Z</time>
      </trkpt>
      <trkpt lat="47.28511" lon="-2.48976">
        <ele>51.400001525879</ele>
        <time>2021-12-16T09:47:14.000Z</time>
      </trkpt>
      <trkpt lat="47.28516" lon="-2.48974">
        <ele>51</ele>
        <time>2021-12-16T09:47:15.000Z</time>
      </trkpt>
      <trkpt lat="47.2852" lon="-2.48973">
        <ele>50.599998474121</ele>
        <time>2021-12-16T09:47:16.000Z</time>
      </trkpt>
      <trkpt lat="47.28524" lon="-2.48972">
        <ele>50</ele>
        <time>2021-12-16T09:47:17.000Z</time>
      </trkpt>
      <trkpt lat="47.28528" lon="-2.48971">
        <ele>49.599998474121</ele>
        <time>2021-12-16T09:47:18.000Z</time>
      </trkpt>
      <trkpt lat="47.28536" lon="-2.4897">
        <ele>49.599998474121</ele>
        <time>2021-12-16T09:47:20.000Z</time>
      </trkpt>
      <trkpt lat="47.28557" lon="-2.48968">
        <ele>49.599998474121</ele>
        <time>2021-12-16T09:47:26.000Z</time>
      </trkpt>
      <trkpt lat="47.28578" lon="-2.48974">
        <ele>49.599998474121</ele>
        <time>2021-12-16T09:47:32.000Z</time>
      </trkpt>
      <trkpt lat="47.28589" lon="-2.48995">
        <ele>49.599998474121</ele>
        <time>2021-12-16T09:47:37.000Z</time>
      </trkpt>
      <trkpt lat="47.28597" lon="-2.49028">
        <ele>49.599998474121</ele>
        <time>2021-12-16T09:47:44.000Z</time>
      </trkpt>
      <trkpt lat="47.28597" lon="-2.4905">
        <ele>49.599998474121</ele>
        <time>2021-12-16T09:47:48.000Z</time>
      </trkpt>
      <trkpt lat="47.28597" lon="-2.49057">
        <ele>49.599998474121</ele>
        <time>2021-12-16T09:47:49.000Z</time>
      </trkpt>
      <trkpt lat="47.28596" lon="-2.49091">
        <ele>49.599998474121</ele>
        <time>2021-12-16T09:47:54.000Z</time>
      </trkpt>
      <trkpt lat="47.28597" lon="-2.49097">
        <ele>49.599998474121</ele>
        <time>2021-12-16T09:47:55.000Z</time>
      </trkpt>
      <trkpt lat="47.28598" lon="-2.49103">
        <ele>49.599998474121</ele>
        <time>2021-12-16T09:47:56.000Z</time>
      </trkpt>
      <trkpt lat="47.28602" lon="-2.49133">
        <ele>49.599998474121</ele>
        <time>2021-12-16T09:48:01.000Z</time>
      </trkpt>
      <trkpt lat="47.28608" lon="-2.49166">
        <ele>49.599998474121</ele>
        <time>2021-12-16T09:48:07.000Z</time>
      </trkpt>
      <trkpt lat="47.28611" lon="-2.492">
        <ele>49.599998474121</ele>
        <time>2021-12-16T09:48:12.000Z</time>
      </trkpt>
      <trkpt lat="47.28617" lon="-2.4923">
        <ele>49.599998474121</ele>
        <time>2021-12-16T09:48:17.000Z</time>
      </trkpt>
      <trkpt lat="47.2862" lon="-2.49243">
        <ele>49.599998474121</ele>
        <time>2021-12-16T09:48:19.000Z</time>
      </trkpt>
      <trkpt lat="47.28625" lon="-2.49267">
        <ele>49.599998474121</ele>
        <time>2021-12-16T09:48:23.000Z</time>
      </trkpt>
      <trkpt lat="47.28632" lon="-2.49311">
        <ele>49.599998474121</ele>
        <time>2021-12-16T09:48:30.000Z</time>
      </trkpt>
      <trkpt lat="47.28632" lon="-2.4933">
        <ele>49.599998474121</ele>
        <time>2021-12-16T09:48:33.000Z</time>
      </trkpt>
      <trkpt lat="47.2863" lon="-2.49347">
        <ele>49.599998474121</ele>
        <time>2021-12-16T09:48:36.000Z</time>
      </trkpt>
      <trkpt lat="47.28631" lon="-2.49394">
        <ele>49.599998474121</ele>
        <time>2021-12-16T09:48:43.000Z</time>
      </trkpt>
      <trkpt lat="47.28632" lon="-2.49401">
        <ele>49.599998474121</ele>
        <time>2021-12-16T09:48:44.000Z</time>
      </trkpt>
      <trkpt lat="47.28633" lon="-2.49425">
        <ele>49.599998474121</ele>
        <time>2021-12-16T09:48:48.000Z</time>
      </trkpt>
      <trkpt lat="47.28634" lon="-2.49432">
        <ele>49.599998474121</ele>
        <time>2021-12-16T09:48:49.000Z</time>
      </trkpt>
      <trkpt lat="47.28634" lon="-2.49465">
        <ele>49.599998474121</ele>
        <time>2021-12-16T09:48:54.000Z</time>
      </trkpt>
      <trkpt lat="47.28633" lon="-2.49508">
        <ele>49.599998474121</ele>
        <time>2021-12-16T09:49:00.000Z</time>
      </trkpt>
      <trkpt lat="47.28634" lon="-2.49534">
        <ele>49.599998474121</ele>
        <time>2021-12-16T09:49:04.000Z</time>
      </trkpt>
      <trkpt lat="47.28634" lon="-2.49547">
        <ele>49.599998474121</ele>
        <time>2021-12-16T09:49:06.000Z</time>
      </trkpt>
      <trkpt lat="47.28638" lon="-2.49603">
        <ele>49.599998474121</ele>
        <time>2021-12-16T09:49:14.000Z</time>
      </trkpt>
      <trkpt lat="47.28638" lon="-2.49624">
        <ele>49.200000762939</ele>
        <time>2021-12-16T09:49:17.000Z</time>
      </trkpt>
      <trkpt lat="47.28636" lon="-2.49631">
        <ele>48.799999237061</ele>
        <time>2021-12-16T09:49:18.000Z</time>
      </trkpt>
      <trkpt lat="47.28633" lon="-2.49635">
        <ele>48.400001525879</ele>
        <time>2021-12-16T09:49:19.000Z</time>
      </trkpt>
      <trkpt lat="47.28629" lon="-2.49638">
        <ele>48</ele>
        <time>2021-12-16T09:49:20.000Z</time>
      </trkpt>
      <trkpt lat="47.28625" lon="-2.49641">
        <ele>47.599998474121</ele>
        <time>2021-12-16T09:49:21.000Z</time>
      </trkpt>
      <trkpt lat="47.2862" lon="-2.49643">
        <ele>47.599998474121</ele>
        <time>2021-12-16T09:49:22.000Z</time>
      </trkpt>
      <trkpt lat="47.28599" lon="-2.49649">
        <ele>47.599998474121</ele>
        <time>2021-12-16T09:49:27.000Z</time>
      </trkpt>
      <trkpt lat="47.28571" lon="-2.49659">
        <ele>47.599998474121</ele>
        <time>2021-12-16T09:49:34.000Z</time>
      </trkpt>
      <trkpt lat="47.28552" lon="-2.49664">
        <ele>47.599998474121</ele>
        <time>2021-12-16T09:49:39.000Z</time>
      </trkpt>
      <trkpt lat="47.28537" lon="-2.49671">
        <ele>47.599998474121</ele>
        <time>2021-12-16T09:49:43.000Z</time>
      </trkpt>
      <trkpt lat="47.2853" lon="-2.49678">
        <ele>47.599998474121</ele>
        <time>2021-12-16T09:49:45.000Z</time>
      </trkpt>
      <trkpt lat="47.28518" lon="-2.49697">
        <ele>47.599998474121</ele>
        <time>2021-12-16T09:49:50.000Z</time>
      </trkpt>
      <trkpt lat="47.28518" lon="-2.49703">
        <ele>47.599998474121</ele>
        <time>2021-12-16T09:49:51.000Z</time>
      </trkpt>
      <trkpt lat="47.28519" lon="-2.49713">
        <ele>47.599998474121</ele>
        <time>2021-12-16T09:49:53.000Z</time>
      </trkpt>
      <trkpt lat="47.2851" lon="-2.49718">
        <ele>47.599998474121</ele>
        <time>2021-12-16T09:49:56.000Z</time>
      </trkpt>
      <trkpt lat="47.28507" lon="-2.49718">
        <ele>47.599998474121</ele>
        <time>2021-12-16T09:49:57.000Z</time>
      </trkpt>
      <trkpt lat="47.28488" lon="-2.49725">
        <ele>47.599998474121</ele>
        <time>2021-12-16T09:50:02.000Z</time>
      </trkpt>
      <trkpt lat="47.28467" lon="-2.4973">
        <ele>48</ele>
        <time>2021-12-16T09:50:07.000Z</time>
      </trkpt>
      <trkpt lat="47.28463" lon="-2.4973">
        <ele>48.400001525879</ele>
        <time>2021-12-16T09:50:08.000Z</time>
      </trkpt>
      <trkpt lat="47.28459" lon="-2.49731">
        <ele>48.799999237061</ele>
        <time>2021-12-16T09:50:09.000Z</time>
      </trkpt>
      <trkpt lat="47.28455" lon="-2.49731">
        <ele>49.200000762939</ele>
        <time>2021-12-16T09:50:10.000Z</time>
      </trkpt>
      <trkpt lat="47.28451" lon="-2.49732">
        <ele>49.799999237061</ele>
        <time>2021-12-16T09:50:11.000Z</time>
      </trkpt>
      <trkpt lat="47.28427" lon="-2.49734">
        <ele>49.799999237061</ele>
        <time>2021-12-16T09:50:17.000Z</time>
      </trkpt>
      <trkpt lat="47.28409" lon="-2.4973">
        <ele>49.799999237061</ele>
        <time>2021-12-16T09:50:22.000Z</time>
      </trkpt>
      <trkpt lat="47.28398" lon="-2.4974">
        <ele>49.799999237061</ele>
        <time>2021-12-16T09:50:26.000Z</time>
      </trkpt>
      <trkpt lat="47.28371" lon="-2.4976">
        <ele>49.799999237061</ele>
        <time>2021-12-16T09:50:34.000Z</time>
      </trkpt>
      <trkpt lat="47.28347" lon="-2.49775">
        <ele>49.799999237061</ele>
        <time>2021-12-16T09:50:41.000Z</time>
      </trkpt>
      <trkpt lat="47.28344" lon="-2.49784">
        <ele>49.799999237061</ele>
        <time>2021-12-16T09:50:43.000Z</time>
      </trkpt>
      <trkpt lat="47.28343" lon="-2.49795">
        <ele>49.799999237061</ele>
        <time>2021-12-16T09:50:45.000Z</time>
      </trkpt>
      <trkpt lat="47.28345" lon="-2.49822">
        <ele>49.799999237061</ele>
        <time>2021-12-16T09:50:50.000Z</time>
      </trkpt>
      <trkpt lat="47.28349" lon="-2.49826">
        <ele>49.799999237061</ele>
        <time>2021-12-16T09:50:51.000Z</time>
      </trkpt>
      <trkpt lat="47.28367" lon="-2.49831">
        <ele>49.799999237061</ele>
        <time>2021-12-16T09:50:55.000Z</time>
      </trkpt>
      <trkpt lat="47.28384" lon="-2.49838">
        <ele>49.799999237061</ele>
        <time>2021-12-16T09:50:59.000Z</time>
      </trkpt>
      <trkpt lat="47.28392" lon="-2.49848">
        <ele>49.799999237061</ele>
        <time>2021-12-16T09:51:01.000Z</time>
      </trkpt>
      <trkpt lat="47.28398" lon="-2.49874">
        <ele>49.799999237061</ele>
        <time>2021-12-16T09:51:05.000Z</time>
      </trkpt>
      <trkpt lat="47.28403" lon="-2.49888">
        <ele>49.799999237061</ele>
        <time>2021-12-16T09:51:07.000Z</time>
      </trkpt>
      <trkpt lat="47.28408" lon="-2.499">
        <ele>49.799999237061</ele>
        <time>2021-12-16T09:51:09.000Z</time>
      </trkpt>
      <trkpt lat="47.28416" lon="-2.49909">
        <ele>49.799999237061</ele>
        <time>2021-12-16T09:51:11.000Z</time>
      </trkpt>
      <trkpt lat="47.28434" lon="-2.49915">
        <ele>49.799999237061</ele>
        <time>2021-12-16T09:51:15.000Z</time>
      </trkpt>
      <trkpt lat="47.28446" lon="-2.49913">
        <ele>49.799999237061</ele>
        <time>2021-12-16T09:51:18.000Z</time>
      </trkpt>
      <trkpt lat="47.28453" lon="-2.49907">
        <ele>49.799999237061</ele>
        <time>2021-12-16T09:51:20.000Z</time>
      </trkpt>
      <trkpt lat="47.28468" lon="-2.49896">
        <ele>49.799999237061</ele>
        <time>2021-12-16T09:51:24.000Z</time>
      </trkpt>
      <trkpt lat="47.28483" lon="-2.49893">
        <ele>49.799999237061</ele>
        <time>2021-12-16T09:51:28.000Z</time>
      </trkpt>
      <trkpt lat="47.28487" lon="-2.49892">
        <ele>49.799999237061</ele>
        <time>2021-12-16T09:51:29.000Z</time>
      </trkpt>
      <trkpt lat="47.28518" lon="-2.49886">
        <ele>49.799999237061</ele>
        <time>2021-12-16T09:51:36.000Z</time>
      </trkpt>
      <trkpt lat="47.28522" lon="-2.49888">
        <ele>49.799999237061</ele>
        <time>2021-12-16T09:51:37.000Z</time>
      </trkpt>
      <trkpt lat="47.28527" lon="-2.49896">
        <ele>49.799999237061</ele>
        <time>2021-12-16T09:51:39.000Z</time>
      </trkpt>
      <trkpt lat="47.28531" lon="-2.49918">
        <ele>49.799999237061</ele>
        <time>2021-12-16T09:51:44.000Z</time>
      </trkpt>
      <trkpt lat="47.28533" lon="-2.49951">
        <ele>49.799999237061</ele>
        <time>2021-12-16T09:51:50.000Z</time>
      </trkpt>
      <trkpt lat="47.28537" lon="-2.49998">
        <ele>49.799999237061</ele>
        <time>2021-12-16T09:51:58.000Z</time>
      </trkpt>
      <trkpt lat="47.28544" lon="-2.5004">
        <ele>49.799999237061</ele>
        <time>2021-12-16T09:52:05.000Z</time>
      </trkpt>
      <trkpt lat="47.28548" lon="-2.50066">
        <ele>49.799999237061</ele>
        <time>2021-12-16T09:52:10.000Z</time>
      </trkpt>
      <trkpt lat="47.28549" lon="-2.50072">
        <ele>49.799999237061</ele>
        <time>2021-12-16T09:52:11.000Z</time>
      </trkpt>
      <trkpt lat="47.28552" lon="-2.50096">
        <ele>49.799999237061</ele>
        <time>2021-12-16T09:52:15.000Z</time>
      </trkpt>
      <trkpt lat="47.28555" lon="-2.50132">
        <ele>49.799999237061</ele>
        <time>2021-12-16T09:52:22.000Z</time>
      </trkpt>
      <trkpt lat="47.28555" lon="-2.50159">
        <ele>49.799999237061</ele>
        <time>2021-12-16T09:52:27.000Z</time>
      </trkpt>
      <trkpt lat="47.28548" lon="-2.50164">
        <ele>49.799999237061</ele>
        <time>2021-12-16T09:52:29.000Z</time>
      </trkpt>
      <trkpt lat="47.28544" lon="-2.50164">
        <ele>49.799999237061</ele>
        <time>2021-12-16T09:52:30.000Z</time>
      </trkpt>
      <trkpt lat="47.28532" lon="-2.50167">
        <ele>49.799999237061</ele>
        <time>2021-12-16T09:52:33.000Z</time>
      </trkpt>
      <trkpt lat="47.28519" lon="-2.50169">
        <ele>49.799999237061</ele>
        <time>2021-12-16T09:52:37.000Z</time>
      </trkpt>
      <trkpt lat="47.28511" lon="-2.50161">
        <ele>49.799999237061</ele>
        <time>2021-12-16T09:52:41.000Z</time>
      </trkpt>
      <trkpt lat="47.285" lon="-2.50162">
        <ele>49.799999237061</ele>
        <time>2021-12-16T09:52:46.000Z</time>
      </trkpt>
      <trkpt lat="47.28497" lon="-2.50179">
        <ele>49.799999237061</ele>
        <time>2021-12-16T09:52:50.000Z</time>
      </trkpt>
      <trkpt lat="47.28498" lon="-2.50203">
        <ele>49.799999237061</ele>
        <time>2021-12-16T09:52:55.000Z</time>
      </trkpt>
      <trkpt lat="47.28495" lon="-2.50224">
        <ele>49.799999237061</ele>
        <time>2021-12-16T09:53:00.000Z</time>
      </trkpt>
      <trkpt lat="47.28488" lon="-2.50239">
        <ele>49.799999237061</ele>
        <time>2021-12-16T09:53:05.000Z</time>
      </trkpt>
      <trkpt lat="47.28485" lon="-2.50252">
        <ele>49.799999237061</ele>
        <time>2021-12-16T09:53:09.000Z</time>
      </trkpt>
      <trkpt lat="47.28488" lon="-2.5026">
        <ele>49.799999237061</ele>
        <time>2021-12-16T09:53:12.000Z</time>
      </trkpt>
      <trkpt lat="47.2849" lon="-2.50264">
        <ele>49.799999237061</ele>
        <time>2021-12-16T09:53:14.000Z</time>
      </trkpt>
      <trkpt lat="47.28493" lon="-2.5027">
        <ele>49.799999237061</ele>
        <time>2021-12-16T09:53:16.000Z</time>
      </trkpt>
      <trkpt lat="47.28497" lon="-2.50272">
        <ele>49.799999237061</ele>
        <time>2021-12-16T09:53:17.000Z</time>
      </trkpt>
      <trkpt lat="47.28502" lon="-2.50275">
        <ele>49.799999237061</ele>
        <time>2021-12-16T09:53:19.000Z</time>
      </trkpt>
      <trkpt lat="47.2851" lon="-2.50277">
        <ele>49.799999237061</ele>
        <time>2021-12-16T09:53:22.000Z</time>
      </trkpt>
      <trkpt lat="47.28514" lon="-2.50279">
        <ele>49.799999237061</ele>
        <time>2021-12-16T09:53:25.000Z</time>
      </trkpt>
      <trkpt lat="47.28518" lon="-2.50281">
        <ele>49.799999237061</ele>
        <time>2021-12-16T09:55:45.000Z</time>
      </trkpt>
      <trkpt lat="47.28523" lon="-2.50283">
        <ele>49.799999237061</ele>
        <time>2021-12-16T09:55:48.000Z</time>
      </trkpt>
      <trkpt lat="47.28529" lon="-2.50287">
        <ele>49.799999237061</ele>
        <time>2021-12-16T09:55:51.000Z</time>
      </trkpt>
      <trkpt lat="47.28536" lon="-2.50293">
        <ele>49.799999237061</ele>
        <time>2021-12-16T09:55:54.000Z</time>
      </trkpt>
      <trkpt lat="47.28551" lon="-2.50306">
        <ele>49.799999237061</ele>
        <time>2021-12-16T09:56:00.000Z</time>
      </trkpt>
      <trkpt lat="47.28573" lon="-2.50322">
        <ele>49.799999237061</ele>
        <time>2021-12-16T09:56:07.000Z</time>
      </trkpt>
      <trkpt lat="47.28601" lon="-2.50327">
        <ele>49.799999237061</ele>
        <time>2021-12-16T09:56:14.000Z</time>
      </trkpt>
      <trkpt lat="47.28614" lon="-2.5033">
        <ele>49.799999237061</ele>
        <time>2021-12-16T09:56:17.000Z</time>
      </trkpt>
      <trkpt lat="47.28625" lon="-2.50336">
        <ele>49.799999237061</ele>
        <time>2021-12-16T09:56:20.000Z</time>
      </trkpt>
      <trkpt lat="47.28652" lon="-2.50356">
        <ele>49.799999237061</ele>
        <time>2021-12-16T09:56:27.000Z</time>
      </trkpt>
      <trkpt lat="47.28655" lon="-2.50359">
        <ele>49.799999237061</ele>
        <time>2021-12-16T09:56:28.000Z</time>
      </trkpt>
      <trkpt lat="47.28667" lon="-2.50368">
        <ele>49.799999237061</ele>
        <time>2021-12-16T09:56:31.000Z</time>
      </trkpt>
      <trkpt lat="47.28678" lon="-2.50379">
        <ele>49.799999237061</ele>
        <time>2021-12-16T09:56:34.000Z</time>
      </trkpt>
      <trkpt lat="47.28682" lon="-2.50382">
        <ele>49.799999237061</ele>
        <time>2021-12-16T09:56:35.000Z</time>
      </trkpt>
      <trkpt lat="47.28718" lon="-2.50414">
        <ele>49.799999237061</ele>
        <time>2021-12-16T09:56:44.000Z</time>
      </trkpt>
      <trkpt lat="47.28745" lon="-2.50449">
        <ele>49.799999237061</ele>
        <time>2021-12-16T09:56:51.000Z</time>
      </trkpt>
      <trkpt lat="47.2878" lon="-2.50478">
        <ele>49.799999237061</ele>
        <time>2021-12-16T09:56:58.000Z</time>
      </trkpt>
      <trkpt lat="47.28815" lon="-2.50504">
        <ele>49.799999237061</ele>
        <time>2021-12-16T09:57:05.000Z</time>
      </trkpt>
      <trkpt lat="47.28856" lon="-2.50532">
        <ele>49.799999237061</ele>
        <time>2021-12-16T09:57:13.000Z</time>
      </trkpt>
      <trkpt lat="47.28901" lon="-2.50561">
        <ele>49.799999237061</ele>
        <time>2021-12-16T09:57:22.000Z</time>
      </trkpt>
      <trkpt lat="47.28941" lon="-2.50589">
        <ele>49.799999237061</ele>
        <time>2021-12-16T09:57:30.000Z</time>
      </trkpt>
      <trkpt lat="47.2899" lon="-2.50622">
        <ele>49.799999237061</ele>
        <time>2021-12-16T09:57:40.000Z</time>
      </trkpt>
      <trkpt lat="47.29026" lon="-2.50648">
        <ele>49.799999237061</ele>
        <time>2021-12-16T09:57:48.000Z</time>
      </trkpt>
      <trkpt lat="47.29035" lon="-2.50654">
        <ele>49.799999237061</ele>
        <time>2021-12-16T09:57:50.000Z</time>
      </trkpt>
      <trkpt lat="47.29045" lon="-2.50655">
        <ele>49.799999237061</ele>
        <time>2021-12-16T09:57:53.000Z</time>
      </trkpt>
      <trkpt lat="47.2905" lon="-2.50636">
        <ele>49.799999237061</ele>
        <time>2021-12-16T09:57:56.000Z</time>
      </trkpt>
      <trkpt lat="47.29057" lon="-2.50608">
        <ele>49.799999237061</ele>
        <time>2021-12-16T09:58:00.000Z</time>
      </trkpt>
      <trkpt lat="47.29076" lon="-2.50558">
        <ele>49.799999237061</ele>
        <time>2021-12-16T09:58:08.000Z</time>
      </trkpt>
      <trkpt lat="47.29099" lon="-2.50498">
        <ele>49.799999237061</ele>
        <time>2021-12-16T09:58:18.000Z</time>
      </trkpt>
      <trkpt lat="47.29103" lon="-2.50488">
        <ele>49.799999237061</ele>
        <time>2021-12-16T09:58:20.000Z</time>
      </trkpt>
      <trkpt lat="47.29111" lon="-2.50467">
        <ele>49.799999237061</ele>
        <time>2021-12-16T09:58:24.000Z</time>
      </trkpt>
      <trkpt lat="47.29119" lon="-2.50455">
        <ele>49.799999237061</ele>
        <time>2021-12-16T09:58:27.000Z</time>
      </trkpt>
      <trkpt lat="47.29123" lon="-2.50454">
        <ele>49.799999237061</ele>
        <time>2021-12-16T09:58:28.000Z</time>
      </trkpt>
      <trkpt lat="47.29139" lon="-2.50461">
        <ele>49.799999237061</ele>
        <time>2021-12-16T09:58:32.000Z</time>
      </trkpt>
      <trkpt lat="47.29166" lon="-2.50477">
        <ele>49.799999237061</ele>
        <time>2021-12-16T09:58:39.000Z</time>
      </trkpt>
      <trkpt lat="47.29186" lon="-2.5049">
        <ele>49.799999237061</ele>
        <time>2021-12-16T09:58:44.000Z</time>
      </trkpt>
      <trkpt lat="47.29196" lon="-2.50501">
        <ele>49.799999237061</ele>
        <time>2021-12-16T09:58:47.000Z</time>
      </trkpt>
      <trkpt lat="47.2921" lon="-2.50516">
        <ele>50.200000762939</ele>
        <time>2021-12-16T09:58:51.000Z</time>
      </trkpt>
      <trkpt lat="47.29212" lon="-2.50521">
        <ele>50.599998474121</ele>
        <time>2021-12-16T09:58:52.000Z</time>
      </trkpt>
      <trkpt lat="47.29215" lon="-2.50525">
        <ele>51</ele>
        <time>2021-12-16T09:58:53.000Z</time>
      </trkpt>
      <trkpt lat="47.29218" lon="-2.5053">
        <ele>51.400001525879</ele>
        <time>2021-12-16T09:58:54.000Z</time>
      </trkpt>
      <trkpt lat="47.29219" lon="-2.50537">
        <ele>51.799999237061</ele>
        <time>2021-12-16T09:58:55.000Z</time>
      </trkpt>
      <trkpt lat="47.29219" lon="-2.50552">
        <ele>51.799999237061</ele>
        <time>2021-12-16T09:58:57.000Z</time>
      </trkpt>
      <trkpt lat="47.29212" lon="-2.50605">
        <ele>51.799999237061</ele>
        <time>2021-12-16T09:59:04.000Z</time>
      </trkpt>
      <trkpt lat="47.29211" lon="-2.50619">
        <ele>51.799999237061</ele>
        <time>2021-12-16T09:59:06.000Z</time>
      </trkpt>
      <trkpt lat="47.29212" lon="-2.50646">
        <ele>51.799999237061</ele>
        <time>2021-12-16T09:59:10.000Z</time>
      </trkpt>
      <trkpt lat="47.29218" lon="-2.5068">
        <ele>51.799999237061</ele>
        <time>2021-12-16T09:59:15.000Z</time>
      </trkpt>
      <trkpt lat="47.29219" lon="-2.50687">
        <ele>51.799999237061</ele>
        <time>2021-12-16T09:59:16.000Z</time>
      </trkpt>
      <trkpt lat="47.29216" lon="-2.50717">
        <ele>51.799999237061</ele>
        <time>2021-12-16T09:59:20.000Z</time>
      </trkpt>
      <trkpt lat="47.29208" lon="-2.50755">
        <ele>51.799999237061</ele>
        <time>2021-12-16T09:59:26.000Z</time>
      </trkpt>
      <trkpt lat="47.29206" lon="-2.50761">
        <ele>51.799999237061</ele>
        <time>2021-12-16T09:59:27.000Z</time>
      </trkpt>
      <trkpt lat="47.29205" lon="-2.50768">
        <ele>51.799999237061</ele>
        <time>2021-12-16T09:59:28.000Z</time>
      </trkpt>
      <trkpt lat="47.29207" lon="-2.50787">
        <ele>51.799999237061</ele>
        <time>2021-12-16T09:59:31.000Z</time>
      </trkpt>
      <trkpt lat="47.29213" lon="-2.50798">
        <ele>51.799999237061</ele>
        <time>2021-12-16T09:59:33.000Z</time>
      </trkpt>
      <trkpt lat="47.29222" lon="-2.50815">
        <ele>51.799999237061</ele>
        <time>2021-12-16T09:59:36.000Z</time>
      </trkpt>
      <trkpt lat="47.29242" lon="-2.50854">
        <ele>51.799999237061</ele>
        <time>2021-12-16T09:59:43.000Z</time>
      </trkpt>
      <trkpt lat="47.29248" lon="-2.50864">
        <ele>51.799999237061</ele>
        <time>2021-12-16T09:59:45.000Z</time>
      </trkpt>
      <trkpt lat="47.29255" lon="-2.50871">
        <ele>51.799999237061</ele>
        <time>2021-12-16T09:59:47.000Z</time>
      </trkpt>
      <trkpt lat="47.29266" lon="-2.50881">
        <ele>51.799999237061</ele>
        <time>2021-12-16T09:59:50.000Z</time>
      </trkpt>
      <trkpt lat="47.29273" lon="-2.50889">
        <ele>51.799999237061</ele>
        <time>2021-12-16T09:59:52.000Z</time>
      </trkpt>
      <trkpt lat="47.29285" lon="-2.50899">
        <ele>51.799999237061</ele>
        <time>2021-12-16T09:59:57.000Z</time>
      </trkpt>
      <trkpt lat="47.29294" lon="-2.50903">
        <ele>51.799999237061</ele>
        <time>2021-12-16T10:00:04.000Z</time>
      </trkpt>
      <trkpt lat="47.29303" lon="-2.509">
        <ele>51.799999237061</ele>
        <time>2021-12-16T10:00:10.000Z</time>
      </trkpt>
      <trkpt lat="47.29315" lon="-2.50908">
        <ele>51.799999237061</ele>
        <time>2021-12-16T10:00:16.000Z</time>
      </trkpt>
      <trkpt lat="47.29334" lon="-2.50922">
        <ele>51.799999237061</ele>
        <time>2021-12-16T10:00:21.000Z</time>
      </trkpt>
      <trkpt lat="47.29343" lon="-2.50929">
        <ele>51.400001525879</ele>
        <time>2021-12-16T10:00:23.000Z</time>
      </trkpt>
      <trkpt lat="47.29348" lon="-2.50931">
        <ele>51</ele>
        <time>2021-12-16T10:00:24.000Z</time>
      </trkpt>
      <trkpt lat="47.29353" lon="-2.50933">
        <ele>50.599998474121</ele>
        <time>2021-12-16T10:00:25.000Z</time>
      </trkpt>
      <trkpt lat="47.29358" lon="-2.50934">
        <ele>50.200000762939</ele>
        <time>2021-12-16T10:00:26.000Z</time>
      </trkpt>
      <trkpt lat="47.29362" lon="-2.50934">
        <ele>49.799999237061</ele>
        <time>2021-12-16T10:00:27.000Z</time>
      </trkpt>
      <trkpt lat="47.29367" lon="-2.50935">
        <ele>49.799999237061</ele>
        <time>2021-12-16T10:00:28.000Z</time>
      </trkpt>
      <trkpt lat="47.29378" lon="-2.50945">
        <ele>49.799999237061</ele>
        <time>2021-12-16T10:00:31.000Z</time>
      </trkpt>
      <trkpt lat="47.2939" lon="-2.50975">
        <ele>49.799999237061</ele>
        <time>2021-12-16T10:00:36.000Z</time>
      </trkpt>
      <trkpt lat="47.29392" lon="-2.5099">
        <ele>49.799999237061</ele>
        <time>2021-12-16T10:00:38.000Z</time>
      </trkpt>
      <trkpt lat="47.29395" lon="-2.51005">
        <ele>49.799999237061</ele>
        <time>2021-12-16T10:00:40.000Z</time>
      </trkpt>
      <trkpt lat="47.29398" lon="-2.51011">
        <ele>49.799999237061</ele>
        <time>2021-12-16T10:00:41.000Z</time>
      </trkpt>
      <trkpt lat="47.29413" lon="-2.51032">
        <ele>49.799999237061</ele>
        <time>2021-12-16T10:00:45.000Z</time>
      </trkpt>
      <trkpt lat="47.29416" lon="-2.51037">
        <ele>49.799999237061</ele>
        <time>2021-12-16T10:00:46.000Z</time>
      </trkpt>
      <trkpt lat="47.29444" lon="-2.51074">
        <ele>49.799999237061</ele>
        <time>2021-12-16T10:00:54.000Z</time>
      </trkpt>
      <trkpt lat="47.29466" lon="-2.51104">
        <ele>49.799999237061</ele>
        <time>2021-12-16T10:01:01.000Z</time>
      </trkpt>
      <trkpt lat="47.29485" lon="-2.5113">
        <ele>49.799999237061</ele>
        <time>2021-12-16T10:01:07.000Z</time>
      </trkpt>
      <trkpt lat="47.29491" lon="-2.51138">
        <ele>49.799999237061</ele>
        <time>2021-12-16T10:01:09.000Z</time>
      </trkpt>
      <trkpt lat="47.29499" lon="-2.51151">
        <ele>49.799999237061</ele>
        <time>2021-12-16T10:01:12.000Z</time>
      </trkpt>
      <trkpt lat="47.29502" lon="-2.51157">
        <ele>49.799999237061</ele>
        <time>2021-12-16T10:01:13.000Z</time>
      </trkpt>
      <trkpt lat="47.29515" lon="-2.51195">
        <ele>49.799999237061</ele>
        <time>2021-12-16T10:01:19.000Z</time>
      </trkpt>
      <trkpt lat="47.29527" lon="-2.51225">
        <ele>49.799999237061</ele>
        <time>2021-12-16T10:01:25.000Z</time>
      </trkpt>
      <trkpt lat="47.2953" lon="-2.51234">
        <ele>49.799999237061</ele>
        <time>2021-12-16T10:01:29.000Z</time>
      </trkpt>
      <trkpt lat="47.29531" lon="-2.51239">
        <ele>49.799999237061</ele>
        <time>2021-12-16T10:01:31.000Z</time>
      </trkpt>
      <trkpt lat="47.2953" lon="-2.51248">
        <ele>49.799999237061</ele>
        <time>2021-12-16T10:01:33.000Z</time>
      </trkpt>
      <trkpt lat="47.29533" lon="-2.51271">
        <ele>49.799999237061</ele>
        <time>2021-12-16T10:01:37.000Z</time>
      </trkpt>
      <trkpt lat="47.29535" lon="-2.51277">
        <ele>49.799999237061</ele>
        <time>2021-12-16T10:01:38.000Z</time>
      </trkpt>
      <trkpt lat="47.29546" lon="-2.5131">
        <ele>49.799999237061</ele>
        <time>2021-12-16T10:01:43.000Z</time>
      </trkpt>
      <trkpt lat="47.2956" lon="-2.51324">
        <ele>49.799999237061</ele>
        <time>2021-12-16T10:01:47.000Z</time>
      </trkpt>
      <trkpt lat="47.29564" lon="-2.51325">
        <ele>49.799999237061</ele>
        <time>2021-12-16T10:01:48.000Z</time>
      </trkpt>
      <trkpt lat="47.29595" lon="-2.51341">
        <ele>49.799999237061</ele>
        <time>2021-12-16T10:01:55.000Z</time>
      </trkpt>
      <trkpt lat="47.29621" lon="-2.51361">
        <ele>49.799999237061</ele>
        <time>2021-12-16T10:02:01.000Z</time>
      </trkpt>
      <trkpt lat="47.29654" lon="-2.51389">
        <ele>49.799999237061</ele>
        <time>2021-12-16T10:02:08.000Z</time>
      </trkpt>
      <trkpt lat="47.29701" lon="-2.51428">
        <ele>49.799999237061</ele>
        <time>2021-12-16T10:02:17.000Z</time>
      </trkpt>
      <trkpt lat="47.29736" lon="-2.51452">
        <ele>49.799999237061</ele>
        <time>2021-12-16T10:02:24.000Z</time>
      </trkpt>
      <trkpt lat="47.29776" lon="-2.51477">
        <ele>49.799999237061</ele>
        <time>2021-12-16T10:02:32.000Z</time>
      </trkpt>
      <trkpt lat="47.29806" lon="-2.51491">
        <ele>49.799999237061</ele>
        <time>2021-12-16T10:02:38.000Z</time>
      </trkpt>
      <trkpt lat="47.2981" lon="-2.51508">
        <ele>49.799999237061</ele>
        <time>2021-12-16T10:02:41.000Z</time>
      </trkpt>
      <trkpt lat="47.29817" lon="-2.51533">
        <ele>49.799999237061</ele>
        <time>2021-12-16T10:02:45.000Z</time>
      </trkpt>
      <trkpt lat="47.29835" lon="-2.51574">
        <ele>49.799999237061</ele>
        <time>2021-12-16T10:02:52.000Z</time>
      </trkpt>
      <trkpt lat="47.29847" lon="-2.51611">
        <ele>49.799999237061</ele>
        <time>2021-12-16T10:02:58.000Z</time>
      </trkpt>
      <trkpt lat="47.29851" lon="-2.51625">
        <ele>50.200000762939</ele>
        <time>2021-12-16T10:03:00.000Z</time>
      </trkpt>
      <trkpt lat="47.29852" lon="-2.51631">
        <ele>50.799999237061</ele>
        <time>2021-12-16T10:03:01.000Z</time>
      </trkpt>
      <trkpt lat="47.29854" lon="-2.51637">
        <ele>51.200000762939</ele>
        <time>2021-12-16T10:03:02.000Z</time>
      </trkpt>
      <trkpt lat="47.29856" lon="-2.51641">
        <ele>51.599998474121</ele>
        <time>2021-12-16T10:03:03.000Z</time>
      </trkpt>
      <trkpt lat="47.29857" lon="-2.51646">
        <ele>52</ele>
        <time>2021-12-16T10:03:04.000Z</time>
      </trkpt>
      <trkpt lat="47.29866" lon="-2.51677">
        <ele>52</ele>
        <time>2021-12-16T10:03:11.000Z</time>
      </trkpt>
      <trkpt lat="47.2987" lon="-2.51683">
        <ele>52</ele>
        <time>2021-12-16T10:03:13.000Z</time>
      </trkpt>
      <trkpt lat="47.29873" lon="-2.51683">
        <ele>52</ele>
        <time>2021-12-16T10:03:14.000Z</time>
      </trkpt>
      <trkpt lat="47.29878" lon="-2.51678">
        <ele>52</ele>
        <time>2021-12-16T10:03:17.000Z</time>
      </trkpt>
      <trkpt lat="47.29879" lon="-2.51677">
        <ele>52</ele>
        <time>2021-12-16T10:03:18.000Z</time>
      </trkpt>
      <trkpt lat="47.29881" lon="-2.51675">
        <ele>52</ele>
        <time>2021-12-16T10:03:20.000Z</time>
      </trkpt>
      <trkpt lat="47.29882" lon="-2.51675">
        <ele>52</ele>
        <time>2021-12-16T10:03:23.000Z</time>
      </trkpt>
      <trkpt lat="47.29882" lon="-2.51675">
        <ele>52</ele>
        <time>2021-12-16T10:03:25.000Z</time>
      </trkpt>
      <trkpt lat="47.29881" lon="-2.51678">
        <ele>52</ele>
        <time>2021-12-16T10:12:47.000Z</time>
      </trkpt>
      <trkpt lat="47.29877" lon="-2.51681">
        <ele>52</ele>
        <time>2021-12-16T10:12:49.000Z</time>
      </trkpt>
      <trkpt lat="47.29862" lon="-2.51686">
        <ele>52</ele>
        <time>2021-12-16T10:12:54.000Z</time>
      </trkpt>
      <trkpt lat="47.29846" lon="-2.51694">
        <ele>52</ele>
        <time>2021-12-16T10:12:59.000Z</time>
      </trkpt>
      <trkpt lat="47.29836" lon="-2.51696">
        <ele>52</ele>
        <time>2021-12-16T10:13:04.000Z</time>
      </trkpt>
      <trkpt lat="47.29828" lon="-2.51689">
        <ele>52</ele>
        <time>2021-12-16T10:13:09.000Z</time>
      </trkpt>
      <trkpt lat="47.29821" lon="-2.51668">
        <ele>52</ele>
        <time>2021-12-16T10:13:14.000Z</time>
      </trkpt>
      <trkpt lat="47.29814" lon="-2.51647">
        <ele>52</ele>
        <time>2021-12-16T10:13:18.000Z</time>
      </trkpt>
      <trkpt lat="47.29809" lon="-2.51635">
        <ele>52</ele>
        <time>2021-12-16T10:13:20.000Z</time>
      </trkpt>
      <trkpt lat="47.29792" lon="-2.51602">
        <ele>52</ele>
        <time>2021-12-16T10:13:26.000Z</time>
      </trkpt>
      <trkpt lat="47.29772" lon="-2.51565">
        <ele>52</ele>
        <time>2021-12-16T10:13:33.000Z</time>
      </trkpt>
      <trkpt lat="47.29769" lon="-2.51561">
        <ele>52</ele>
        <time>2021-12-16T10:13:34.000Z</time>
      </trkpt>
      <trkpt lat="47.29763" lon="-2.51552">
        <ele>52</ele>
        <time>2021-12-16T10:13:36.000Z</time>
      </trkpt>
      <trkpt lat="47.29752" lon="-2.5154">
        <ele>52</ele>
        <time>2021-12-16T10:13:39.000Z</time>
      </trkpt>
      <trkpt lat="47.29724" lon="-2.51521">
        <ele>52</ele>
        <time>2021-12-16T10:13:45.000Z</time>
      </trkpt>
      <trkpt lat="47.29715" lon="-2.51515">
        <ele>52</ele>
        <time>2021-12-16T10:13:47.000Z</time>
      </trkpt>
      <trkpt lat="47.29696" lon="-2.515">
        <ele>52</ele>
        <time>2021-12-16T10:13:51.000Z</time>
      </trkpt>
      <trkpt lat="47.29687" lon="-2.51493">
        <ele>52</ele>
        <time>2021-12-16T10:13:53.000Z</time>
      </trkpt>
      <trkpt lat="47.29665" lon="-2.51481">
        <ele>52</ele>
        <time>2021-12-16T10:13:57.000Z</time>
      </trkpt>
      <trkpt lat="47.2963" lon="-2.51456">
        <ele>52</ele>
        <time>2021-12-16T10:14:04.000Z</time>
      </trkpt>
      <trkpt lat="47.296" lon="-2.51434">
        <ele>52</ele>
        <time>2021-12-16T10:14:10.000Z</time>
      </trkpt>
      <trkpt lat="47.29574" lon="-2.51406">
        <ele>52</ele>
        <time>2021-12-16T10:14:17.000Z</time>
      </trkpt>
      <trkpt lat="47.29571" lon="-2.51401">
        <ele>52</ele>
        <time>2021-12-16T10:14:18.000Z</time>
      </trkpt>
      <trkpt lat="47.29555" lon="-2.5138">
        <ele>52</ele>
        <time>2021-12-16T10:14:22.000Z</time>
      </trkpt>
      <trkpt lat="47.29544" lon="-2.51369">
        <ele>52</ele>
        <time>2021-12-16T10:14:25.000Z</time>
      </trkpt>
      <trkpt lat="47.2954" lon="-2.5137">
        <ele>52</ele>
        <time>2021-12-16T10:14:26.000Z</time>
      </trkpt>
      <trkpt lat="47.29529" lon="-2.51383">
        <ele>52</ele>
        <time>2021-12-16T10:14:29.000Z</time>
      </trkpt>
      <trkpt lat="47.2952" lon="-2.51392">
        <ele>52</ele>
        <time>2021-12-16T10:14:31.000Z</time>
      </trkpt>
      <trkpt lat="47.29516" lon="-2.51394">
        <ele>52</ele>
        <time>2021-12-16T10:14:32.000Z</time>
      </trkpt>
      <trkpt lat="47.29506" lon="-2.51398">
        <ele>52</ele>
        <time>2021-12-16T10:14:34.000Z</time>
      </trkpt>
      <trkpt lat="47.29502" lon="-2.51399">
        <ele>52</ele>
        <time>2021-12-16T10:14:35.000Z</time>
      </trkpt>
      <trkpt lat="47.29485" lon="-2.51397">
        <ele>52</ele>
        <time>2021-12-16T10:14:39.000Z</time>
      </trkpt>
      <trkpt lat="47.29476" lon="-2.51389">
        <ele>52</ele>
        <time>2021-12-16T10:14:43.000Z</time>
      </trkpt>
      <trkpt lat="47.29469" lon="-2.51371">
        <ele>52</ele>
        <time>2021-12-16T10:14:47.000Z</time>
      </trkpt>
      <trkpt lat="47.29466" lon="-2.51369">
        <ele>52</ele>
        <time>2021-12-16T10:14:48.000Z</time>
      </trkpt>
      <trkpt lat="47.29455" lon="-2.51372">
        <ele>52</ele>
        <time>2021-12-16T10:14:51.000Z</time>
      </trkpt>
      <trkpt lat="47.29438" lon="-2.51376">
        <ele>52</ele>
        <time>2021-12-16T10:14:55.000Z</time>
      </trkpt>
      <trkpt lat="47.29434" lon="-2.51377">
        <ele>52</ele>
        <time>2021-12-16T10:14:56.000Z</time>
      </trkpt>
      <trkpt lat="47.29411" lon="-2.51382">
        <ele>52.400001525879</ele>
        <time>2021-12-16T10:15:02.000Z</time>
      </trkpt>
      <trkpt lat="47.29407" lon="-2.51385">
        <ele>52.799999237061</ele>
        <time>2021-12-16T10:15:03.000Z</time>
      </trkpt>
      <trkpt lat="47.29404" lon="-2.51386">
        <ele>53.200000762939</ele>
        <time>2021-12-16T10:15:04.000Z</time>
      </trkpt>
      <trkpt lat="47.294" lon="-2.51387">
        <ele>54</ele>
        <time>2021-12-16T10:15:05.000Z</time>
      </trkpt>
      <trkpt lat="47.29387" lon="-2.51391">
        <ele>54</ele>
        <time>2021-12-16T10:15:08.000Z</time>
      </trkpt>
      <trkpt lat="47.29365" lon="-2.51403">
        <ele>54</ele>
        <time>2021-12-16T10:15:13.000Z</time>
      </trkpt>
      <trkpt lat="47.29355" lon="-2.51411">
        <ele>54</ele>
        <time>2021-12-16T10:15:15.000Z</time>
      </trkpt>
      <trkpt lat="47.29345" lon="-2.5142">
        <ele>54</ele>
        <time>2021-12-16T10:15:17.000Z</time>
      </trkpt>
      <trkpt lat="47.29331" lon="-2.51434">
        <ele>54</ele>
        <time>2021-12-16T10:15:20.000Z</time>
      </trkpt>
      <trkpt lat="47.29318" lon="-2.51456">
        <ele>54</ele>
        <time>2021-12-16T10:15:24.000Z</time>
      </trkpt>
      <trkpt lat="47.29302" lon="-2.51483">
        <ele>54</ele>
        <time>2021-12-16T10:15:29.000Z</time>
      </trkpt>
      <trkpt lat="47.29298" lon="-2.51488">
        <ele>54</ele>
        <time>2021-12-16T10:15:30.000Z</time>
      </trkpt>
      <trkpt lat="47.29293" lon="-2.51493">
        <ele>54</ele>
        <time>2021-12-16T10:15:31.000Z</time>
      </trkpt>
      <trkpt lat="47.29274" lon="-2.51514">
        <ele>54</ele>
        <time>2021-12-16T10:15:36.000Z</time>
      </trkpt>
      <trkpt lat="47.29242" lon="-2.51543">
        <ele>54</ele>
        <time>2021-12-16T10:15:44.000Z</time>
      </trkpt>
      <trkpt lat="47.29224" lon="-2.51565">
        <ele>54</ele>
        <time>2021-12-16T10:15:49.000Z</time>
      </trkpt>
      <trkpt lat="47.29218" lon="-2.51575">
        <ele>54</ele>
        <time>2021-12-16T10:15:51.000Z</time>
      </trkpt>
      <trkpt lat="47.29215" lon="-2.5158">
        <ele>54</ele>
        <time>2021-12-16T10:15:52.000Z</time>
      </trkpt>
      <trkpt lat="47.29198" lon="-2.51613">
        <ele>54.400001525879</ele>
        <time>2021-12-16T10:15:58.000Z</time>
      </trkpt>
      <trkpt lat="47.29196" lon="-2.51619">
        <ele>55</ele>
        <time>2021-12-16T10:15:59.000Z</time>
      </trkpt>
      <trkpt lat="47.29194" lon="-2.51625">
        <ele>55.400001525879</ele>
        <time>2021-12-16T10:16:00.000Z</time>
      </trkpt>
      <trkpt lat="47.29192" lon="-2.51631">
        <ele>55.799999237061</ele>
        <time>2021-12-16T10:16:01.000Z</time>
      </trkpt>
      <trkpt lat="47.29191" lon="-2.51638">
        <ele>56.200000762939</ele>
        <time>2021-12-16T10:16:02.000Z</time>
      </trkpt>
      <trkpt lat="47.29186" lon="-2.51655">
        <ele>56.200000762939</ele>
        <time>2021-12-16T10:16:05.000Z</time>
      </trkpt>
      <trkpt lat="47.29185" lon="-2.51665">
        <ele>56.200000762939</ele>
        <time>2021-12-16T10:16:07.000Z</time>
      </trkpt>
      <trkpt lat="47.29178" lon="-2.51689">
        <ele>56.200000762939</ele>
        <time>2021-12-16T10:16:13.000Z</time>
      </trkpt>
      <trkpt lat="47.29175" lon="-2.51691">
        <ele>56.200000762939</ele>
        <time>2021-12-16T10:16:16.000Z</time>
      </trkpt>
      <trkpt lat="47.29175" lon="-2.51691">
        <ele>56.599998474121</ele>
        <time>2021-12-16T10:16:17.000Z</time>
      </trkpt>
      <trkpt lat="47.29172" lon="-2.51693">
        <ele>58</ele>
        <time>2021-12-16T10:16:20.000Z</time>
      </trkpt>
      <trkpt lat="47.29169" lon="-2.51694">
        <ele>58.400001525879</ele>
        <time>2021-12-16T10:16:21.000Z</time>
      </trkpt>
      <trkpt lat="47.29158" lon="-2.51697">
        <ele>58.400001525879</ele>
        <time>2021-12-16T10:16:24.000Z</time>
      </trkpt>
      <trkpt lat="47.29153" lon="-2.51697">
        <ele>58.400001525879</ele>
        <time>2021-12-16T10:16:25.000Z</time>
      </trkpt>
      <trkpt lat="47.29135" lon="-2.517">
        <ele>58.400001525879</ele>
        <time>2021-12-16T10:16:29.000Z</time>
      </trkpt>
      <trkpt lat="47.29107" lon="-2.51714">
        <ele>58.400001525879</ele>
        <time>2021-12-16T10:16:35.000Z</time>
      </trkpt>
      <trkpt lat="47.29063" lon="-2.51736">
        <ele>58.400001525879</ele>
        <time>2021-12-16T10:16:44.000Z</time>
      </trkpt>
      <trkpt lat="47.29054" lon="-2.51743">
        <ele>58.400001525879</ele>
        <time>2021-12-16T10:16:46.000Z</time>
      </trkpt>
      <trkpt lat="47.29048" lon="-2.51758">
        <ele>58.400001525879</ele>
        <time>2021-12-16T10:16:48.000Z</time>
      </trkpt>
      <trkpt lat="47.29035" lon="-2.5178">
        <ele>58.400001525879</ele>
        <time>2021-12-16T10:16:52.000Z</time>
      </trkpt>
      <trkpt lat="47.29026" lon="-2.5179">
        <ele>58.400001525879</ele>
        <time>2021-12-16T10:16:54.000Z</time>
      </trkpt>
      <trkpt lat="47.29004" lon="-2.51812">
        <ele>58.400001525879</ele>
        <time>2021-12-16T10:16:59.000Z</time>
      </trkpt>
      <trkpt lat="47.28995" lon="-2.51819">
        <ele>58.799999237061</ele>
        <time>2021-12-16T10:17:01.000Z</time>
      </trkpt>
      <trkpt lat="47.28991" lon="-2.51822">
        <ele>59.599998474121</ele>
        <time>2021-12-16T10:17:02.000Z</time>
      </trkpt>
      <trkpt lat="47.28986" lon="-2.51826">
        <ele>60</ele>
        <time>2021-12-16T10:17:03.000Z</time>
      </trkpt>
      <trkpt lat="47.28982" lon="-2.51828">
        <ele>60.400001525879</ele>
        <time>2021-12-16T10:17:04.000Z</time>
      </trkpt>
      <trkpt lat="47.28977" lon="-2.51831">
        <ele>60.400001525879</ele>
        <time>2021-12-16T10:17:05.000Z</time>
      </trkpt>
      <trkpt lat="47.28955" lon="-2.51843">
        <ele>60.400001525879</ele>
        <time>2021-12-16T10:17:10.000Z</time>
      </trkpt>
      <trkpt lat="47.28951" lon="-2.51843">
        <ele>60.400001525879</ele>
        <time>2021-12-16T10:17:11.000Z</time>
      </trkpt>
      <trkpt lat="47.28942" lon="-2.5183">
        <ele>60.400001525879</ele>
        <time>2021-12-16T10:17:14.000Z</time>
      </trkpt>
      <trkpt lat="47.28938" lon="-2.51817">
        <ele>60.400001525879</ele>
        <time>2021-12-16T10:17:18.000Z</time>
      </trkpt>
      <trkpt lat="47.28938" lon="-2.51809">
        <ele>60.400001525879</ele>
        <time>2021-12-16T10:17:24.000Z</time>
      </trkpt>
      <trkpt lat="47.28934" lon="-2.51811">
        <ele>60.400001525879</ele>
        <time>2021-12-16T10:17:39.000Z</time>
      </trkpt>
      <trkpt lat="47.28928" lon="-2.51824">
        <ele>60.400001525879</ele>
        <time>2021-12-16T10:17:43.000Z</time>
      </trkpt>
      <trkpt lat="47.28919" lon="-2.51834">
        <ele>60.400001525879</ele>
        <time>2021-12-16T10:17:47.000Z</time>
      </trkpt>
      <trkpt lat="47.28917" lon="-2.51833">
        <ele>60.400001525879</ele>
        <time>2021-12-16T10:17:48.000Z</time>
      </trkpt>
      <trkpt lat="47.28907" lon="-2.5183">
        <ele>60.400001525879</ele>
        <time>2021-12-16T10:17:51.000Z</time>
      </trkpt>
      <trkpt lat="47.28884" lon="-2.51822">
        <ele>60.400001525879</ele>
        <time>2021-12-16T10:17:56.000Z</time>
      </trkpt>
      <trkpt lat="47.28865" lon="-2.51816">
        <ele>60.799999237061</ele>
        <time>2021-12-16T10:18:01.000Z</time>
      </trkpt>
      <trkpt lat="47.2886" lon="-2.51814">
        <ele>61.200000762939</ele>
        <time>2021-12-16T10:18:02.000Z</time>
      </trkpt>
      <trkpt lat="47.28856" lon="-2.51811">
        <ele>61.599998474121</ele>
        <time>2021-12-16T10:18:03.000Z</time>
      </trkpt>
      <trkpt lat="47.28853" lon="-2.51808">
        <ele>62</ele>
        <time>2021-12-16T10:18:04.000Z</time>
      </trkpt>
      <trkpt lat="47.2885" lon="-2.51808">
        <ele>62.400001525879</ele>
        <time>2021-12-16T10:18:05.000Z</time>
      </trkpt>
      <trkpt lat="47.28847" lon="-2.51808">
        <ele>62.400001525879</ele>
        <time>2021-12-16T10:18:06.000Z</time>
      </trkpt>
      <trkpt lat="47.28821" lon="-2.51811">
        <ele>62.400001525879</ele>
        <time>2021-12-16T10:18:13.000Z</time>
      </trkpt>
      <trkpt lat="47.28788" lon="-2.51821">
        <ele>62.400001525879</ele>
        <time>2021-12-16T10:18:20.000Z</time>
      </trkpt>
      <trkpt lat="47.28748" lon="-2.51838">
        <ele>62.400001525879</ele>
        <time>2021-12-16T10:18:26.000Z</time>
      </trkpt>
      <trkpt lat="47.28742" lon="-2.5184">
        <ele>62.400001525879</ele>
        <time>2021-12-16T10:18:27.000Z</time>
      </trkpt>
      <trkpt lat="47.28735" lon="-2.51841">
        <ele>62</ele>
        <time>2021-12-16T10:18:28.000Z</time>
      </trkpt>
      <trkpt lat="47.28729" lon="-2.51842">
        <ele>61.599998474121</ele>
        <time>2021-12-16T10:18:29.000Z</time>
      </trkpt>
      <trkpt lat="47.28724" lon="-2.51842">
        <ele>61.200000762939</ele>
        <time>2021-12-16T10:18:30.000Z</time>
      </trkpt>
      <trkpt lat="47.28719" lon="-2.51841">
        <ele>60.799999237061</ele>
        <time>2021-12-16T10:18:31.000Z</time>
      </trkpt>
      <trkpt lat="47.28714" lon="-2.5184">
        <ele>60.400001525879</ele>
        <time>2021-12-16T10:18:32.000Z</time>
      </trkpt>
      <trkpt lat="47.28703" lon="-2.51837">
        <ele>60.400001525879</ele>
        <time>2021-12-16T10:18:34.000Z</time>
      </trkpt>
      <trkpt lat="47.28688" lon="-2.51829">
        <ele>60.400001525879</ele>
        <time>2021-12-16T10:18:37.000Z</time>
      </trkpt>
      <trkpt lat="47.28675" lon="-2.51819">
        <ele>60.400001525879</ele>
        <time>2021-12-16T10:18:40.000Z</time>
      </trkpt>
      <trkpt lat="47.28662" lon="-2.51808">
        <ele>60.400001525879</ele>
        <time>2021-12-16T10:18:43.000Z</time>
      </trkpt>
      <trkpt lat="47.28632" lon="-2.51778">
        <ele>60.400001525879</ele>
        <time>2021-12-16T10:18:50.000Z</time>
      </trkpt>
      <trkpt lat="47.28627" lon="-2.51774">
        <ele>60</ele>
        <time>2021-12-16T10:18:51.000Z</time>
      </trkpt>
      <trkpt lat="47.28623" lon="-2.51769">
        <ele>59.599998474121</ele>
        <time>2021-12-16T10:18:52.000Z</time>
      </trkpt>
      <trkpt lat="47.28618" lon="-2.51765">
        <ele>59.200000762939</ele>
        <time>2021-12-16T10:18:53.000Z</time>
      </trkpt>
      <trkpt lat="47.28614" lon="-2.51761">
        <ele>58.799999237061</ele>
        <time>2021-12-16T10:18:54.000Z</time>
      </trkpt>
      <trkpt lat="47.2861" lon="-2.51756">
        <ele>58.400001525879</ele>
        <time>2021-12-16T10:18:55.000Z</time>
      </trkpt>
      <trkpt lat="47.28603" lon="-2.51742">
        <ele>58.400001525879</ele>
        <time>2021-12-16T10:18:57.000Z</time>
      </trkpt>
      <trkpt lat="47.28597" lon="-2.51713">
        <ele>58.400001525879</ele>
        <time>2021-12-16T10:19:00.000Z</time>
      </trkpt>
      <trkpt lat="47.28594" lon="-2.51696">
        <ele>58.400001525879</ele>
        <time>2021-12-16T10:19:02.000Z</time>
      </trkpt>
      <trkpt lat="47.28588" lon="-2.51661">
        <ele>58.400001525879</ele>
        <time>2021-12-16T10:19:06.000Z</time>
      </trkpt>
      <trkpt lat="47.28585" lon="-2.51652">
        <ele>58.400001525879</ele>
        <time>2021-12-16T10:19:07.000Z</time>
      </trkpt>
      <trkpt lat="47.28573" lon="-2.51629">
        <ele>58.400001525879</ele>
        <time>2021-12-16T10:19:10.000Z</time>
      </trkpt>
      <trkpt lat="47.28569" lon="-2.51621">
        <ele>58.400001525879</ele>
        <time>2021-12-16T10:19:11.000Z</time>
      </trkpt>
      <trkpt lat="47.28566" lon="-2.51613">
        <ele>57.799999237061</ele>
        <time>2021-12-16T10:19:12.000Z</time>
      </trkpt>
      <trkpt lat="47.28563" lon="-2.51604">
        <ele>57.400001525879</ele>
        <time>2021-12-16T10:19:13.000Z</time>
      </trkpt>
      <trkpt lat="47.2856" lon="-2.51596">
        <ele>57</ele>
        <time>2021-12-16T10:19:14.000Z</time>
      </trkpt>
      <trkpt lat="47.2856" lon="-2.51588">
        <ele>56.599998474121</ele>
        <time>2021-12-16T10:19:15.000Z</time>
      </trkpt>
      <trkpt lat="47.2856" lon="-2.5158">
        <ele>56.200000762939</ele>
        <time>2021-12-16T10:19:16.000Z</time>
      </trkpt>
      <trkpt lat="47.2856" lon="-2.51559">
        <ele>56.200000762939</ele>
        <time>2021-12-16T10:19:19.000Z</time>
      </trkpt>
      <trkpt lat="47.28559" lon="-2.51537">
        <ele>56.200000762939</ele>
        <time>2021-12-16T10:19:22.000Z</time>
      </trkpt>
      <trkpt lat="47.28557" lon="-2.51531">
        <ele>56.200000762939</ele>
        <time>2021-12-16T10:19:23.000Z</time>
      </trkpt>
      <trkpt lat="47.28545" lon="-2.51524">
        <ele>56.200000762939</ele>
        <time>2021-12-16T10:19:26.000Z</time>
      </trkpt>
      <trkpt lat="47.28536" lon="-2.51518">
        <ele>56.200000762939</ele>
        <time>2021-12-16T10:19:28.000Z</time>
      </trkpt>
      <trkpt lat="47.28532" lon="-2.51515">
        <ele>56.200000762939</ele>
        <time>2021-12-16T10:19:29.000Z</time>
      </trkpt>
      <trkpt lat="47.28528" lon="-2.51512">
        <ele>56.200000762939</ele>
        <time>2021-12-16T10:19:30.000Z</time>
      </trkpt>
      <trkpt lat="47.28513" lon="-2.51502">
        <ele>56.200000762939</ele>
        <time>2021-12-16T10:19:34.000Z</time>
      </trkpt>
      <trkpt lat="47.28509" lon="-2.51498">
        <ele>56.200000762939</ele>
        <time>2021-12-16T10:19:35.000Z</time>
      </trkpt>
      <trkpt lat="47.28505" lon="-2.51494">
        <ele>56.200000762939</ele>
        <time>2021-12-16T10:19:36.000Z</time>
      </trkpt>
      <trkpt lat="47.28487" lon="-2.51471">
        <ele>56.200000762939</ele>
        <time>2021-12-16T10:19:41.000Z</time>
      </trkpt>
      <trkpt lat="47.28473" lon="-2.51457">
        <ele>56.200000762939</ele>
        <time>2021-12-16T10:19:45.000Z</time>
      </trkpt>
      <trkpt lat="47.28471" lon="-2.51454">
        <ele>56.200000762939</ele>
        <time>2021-12-16T10:19:46.000Z</time>
      </trkpt>
      <trkpt lat="47.28467" lon="-2.51444">
        <ele>56.200000762939</ele>
        <time>2021-12-16T10:19:49.000Z</time>
      </trkpt>
      <trkpt lat="47.28462" lon="-2.5143">
        <ele>56.200000762939</ele>
        <time>2021-12-16T10:19:53.000Z</time>
      </trkpt>
      <trkpt lat="47.28452" lon="-2.51417">
        <ele>56.200000762939</ele>
        <time>2021-12-16T10:19:56.000Z</time>
      </trkpt>
      <trkpt lat="47.2845" lon="-2.51411">
        <ele>56.200000762939</ele>
        <time>2021-12-16T10:19:57.000Z</time>
      </trkpt>
      <trkpt lat="47.28446" lon="-2.51397">
        <ele>56.200000762939</ele>
        <time>2021-12-16T10:19:59.000Z</time>
      </trkpt>
      <trkpt lat="47.28443" lon="-2.51376">
        <ele>56.200000762939</ele>
        <time>2021-12-16T10:20:02.000Z</time>
      </trkpt>
      <trkpt lat="47.28443" lon="-2.51368">
        <ele>56.200000762939</ele>
        <time>2021-12-16T10:20:03.000Z</time>
      </trkpt>
      <trkpt lat="47.28441" lon="-2.51338">
        <ele>56.200000762939</ele>
        <time>2021-12-16T10:20:07.000Z</time>
      </trkpt>
      <trkpt lat="47.2844" lon="-2.51332">
        <ele>56.200000762939</ele>
        <time>2021-12-16T10:20:08.000Z</time>
      </trkpt>
      <trkpt lat="47.28433" lon="-2.51314">
        <ele>56.200000762939</ele>
        <time>2021-12-16T10:20:11.000Z</time>
      </trkpt>
      <trkpt lat="47.28412" lon="-2.51276">
        <ele>56.200000762939</ele>
        <time>2021-12-16T10:20:17.000Z</time>
      </trkpt>
      <trkpt lat="47.28391" lon="-2.51259">
        <ele>56.200000762939</ele>
        <time>2021-12-16T10:20:21.000Z</time>
      </trkpt>
      <trkpt lat="47.28343" lon="-2.51225">
        <ele>56.200000762939</ele>
        <time>2021-12-16T10:20:29.000Z</time>
      </trkpt>
      <trkpt lat="47.2831" lon="-2.51199">
        <ele>56.200000762939</ele>
        <time>2021-12-16T10:20:35.000Z</time>
      </trkpt>
      <trkpt lat="47.28296" lon="-2.51173">
        <ele>56.200000762939</ele>
        <time>2021-12-16T10:20:39.000Z</time>
      </trkpt>
      <trkpt lat="47.2829" lon="-2.51158">
        <ele>56.200000762939</ele>
        <time>2021-12-16T10:20:41.000Z</time>
      </trkpt>
      <trkpt lat="47.2828" lon="-2.51126">
        <ele>56.200000762939</ele>
        <time>2021-12-16T10:20:45.000Z</time>
      </trkpt>
      <trkpt lat="47.28261" lon="-2.51066">
        <ele>56.200000762939</ele>
        <time>2021-12-16T10:20:53.000Z</time>
      </trkpt>
      <trkpt lat="47.28247" lon="-2.51011">
        <ele>56.200000762939</ele>
        <time>2021-12-16T10:21:00.000Z</time>
      </trkpt>
      <trkpt lat="47.28239" lon="-2.50951">
        <ele>56.200000762939</ele>
        <time>2021-12-16T10:21:07.000Z</time>
      </trkpt>
      <trkpt lat="47.28228" lon="-2.50882">
        <ele>56.200000762939</ele>
        <time>2021-12-16T10:21:15.000Z</time>
      </trkpt>
      <trkpt lat="47.28215" lon="-2.50823">
        <ele>56.200000762939</ele>
        <time>2021-12-16T10:21:22.000Z</time>
      </trkpt>
      <trkpt lat="47.28208" lon="-2.50773">
        <ele>56.200000762939</ele>
        <time>2021-12-16T10:21:28.000Z</time>
      </trkpt>
      <trkpt lat="47.28203" lon="-2.50719">
        <ele>56.200000762939</ele>
        <time>2021-12-16T10:21:35.000Z</time>
      </trkpt>
      <trkpt lat="47.28211" lon="-2.50688">
        <ele>56.200000762939</ele>
        <time>2021-12-16T10:21:39.000Z</time>
      </trkpt>
      <trkpt lat="47.28212" lon="-2.50679">
        <ele>56.200000762939</ele>
        <time>2021-12-16T10:21:40.000Z</time>
      </trkpt>
      <trkpt lat="47.28216" lon="-2.50655">
        <ele>56.200000762939</ele>
        <time>2021-12-16T10:21:43.000Z</time>
      </trkpt>
      <trkpt lat="47.2822" lon="-2.5064">
        <ele>56.200000762939</ele>
        <time>2021-12-16T10:21:45.000Z</time>
      </trkpt>
      <trkpt lat="47.28235" lon="-2.50581">
        <ele>56.200000762939</ele>
        <time>2021-12-16T10:21:53.000Z</time>
      </trkpt>
      <trkpt lat="47.28239" lon="-2.50565">
        <ele>56.200000762939</ele>
        <time>2021-12-16T10:21:55.000Z</time>
      </trkpt>
      <trkpt lat="47.28244" lon="-2.50544">
        <ele>56.200000762939</ele>
        <time>2021-12-16T10:21:58.000Z</time>
      </trkpt>
      <trkpt lat="47.28259" lon="-2.50489">
        <ele>56.200000762939</ele>
        <time>2021-12-16T10:22:06.000Z</time>
      </trkpt>
      <trkpt lat="47.28269" lon="-2.50453">
        <ele>55.400001525879</ele>
        <time>2021-12-16T10:22:11.000Z</time>
      </trkpt>
      <trkpt lat="47.28271" lon="-2.50445">
        <ele>55</ele>
        <time>2021-12-16T10:22:12.000Z</time>
      </trkpt>
      <trkpt lat="47.28273" lon="-2.50438">
        <ele>54.599998474121</ele>
        <time>2021-12-16T10:22:13.000Z</time>
      </trkpt>
      <trkpt lat="47.28275" lon="-2.50429">
        <ele>54.200000762939</ele>
        <time>2021-12-16T10:22:14.000Z</time>
      </trkpt>
      <trkpt lat="47.28281" lon="-2.50398">
        <ele>54.200000762939</ele>
        <time>2021-12-16T10:22:18.000Z</time>
      </trkpt>
      <trkpt lat="47.28282" lon="-2.5039">
        <ele>54.200000762939</ele>
        <time>2021-12-16T10:22:19.000Z</time>
      </trkpt>
      <trkpt lat="47.28282" lon="-2.50334">
        <ele>54.200000762939</ele>
        <time>2021-12-16T10:22:26.000Z</time>
      </trkpt>
      <trkpt lat="47.28277" lon="-2.5031">
        <ele>54.200000762939</ele>
        <time>2021-12-16T10:22:29.000Z</time>
      </trkpt>
      <trkpt lat="47.28272" lon="-2.50295">
        <ele>54.200000762939</ele>
        <time>2021-12-16T10:22:31.000Z</time>
      </trkpt>
      <trkpt lat="47.28258" lon="-2.50267">
        <ele>54.200000762939</ele>
        <time>2021-12-16T10:22:35.000Z</time>
      </trkpt>
      <trkpt lat="47.28249" lon="-2.50254">
        <ele>54.200000762939</ele>
        <time>2021-12-16T10:22:37.000Z</time>
      </trkpt>
      <trkpt lat="47.28232" lon="-2.5023">
        <ele>54.200000762939</ele>
        <time>2021-12-16T10:22:41.000Z</time>
      </trkpt>
      <trkpt lat="47.28224" lon="-2.50215">
        <ele>54.200000762939</ele>
        <time>2021-12-16T10:22:43.000Z</time>
      </trkpt>
      <trkpt lat="47.2821" lon="-2.50184">
        <ele>54.200000762939</ele>
        <time>2021-12-16T10:22:47.000Z</time>
      </trkpt>
      <trkpt lat="47.28207" lon="-2.50176">
        <ele>54.200000762939</ele>
        <time>2021-12-16T10:22:48.000Z</time>
      </trkpt>
      <trkpt lat="47.28199" lon="-2.50151">
        <ele>54.200000762939</ele>
        <time>2021-12-16T10:22:51.000Z</time>
      </trkpt>
      <trkpt lat="47.28194" lon="-2.50125">
        <ele>54.200000762939</ele>
        <time>2021-12-16T10:22:54.000Z</time>
      </trkpt>
      <trkpt lat="47.28182" lon="-2.50073">
        <ele>54.200000762939</ele>
        <time>2021-12-16T10:23:00.000Z</time>
      </trkpt>
      <trkpt lat="47.2818" lon="-2.50065">
        <ele>54.200000762939</ele>
        <time>2021-12-16T10:23:01.000Z</time>
      </trkpt>
      <trkpt lat="47.28173" lon="-2.50017">
        <ele>54.200000762939</ele>
        <time>2021-12-16T10:23:07.000Z</time>
      </trkpt>
      <trkpt lat="47.28166" lon="-2.49964">
        <ele>54.200000762939</ele>
        <time>2021-12-16T10:23:13.000Z</time>
      </trkpt>
      <trkpt lat="47.28155" lon="-2.49915">
        <ele>54.200000762939</ele>
        <time>2021-12-16T10:23:19.000Z</time>
      </trkpt>
      <trkpt lat="47.28154" lon="-2.49897">
        <ele>54.200000762939</ele>
        <time>2021-12-16T10:23:21.000Z</time>
      </trkpt>
      <trkpt lat="47.28151" lon="-2.49863">
        <ele>54.200000762939</ele>
        <time>2021-12-16T10:23:25.000Z</time>
      </trkpt>
      <trkpt lat="47.28144" lon="-2.49806">
        <ele>54.200000762939</ele>
        <time>2021-12-16T10:23:32.000Z</time>
      </trkpt>
      <trkpt lat="47.28137" lon="-2.49757">
        <ele>54.200000762939</ele>
        <time>2021-12-16T10:23:38.000Z</time>
      </trkpt>
      <trkpt lat="47.28136" lon="-2.49749">
        <ele>54.599998474121</ele>
        <time>2021-12-16T10:23:39.000Z</time>
      </trkpt>
      <trkpt lat="47.28136" lon="-2.49741">
        <ele>55</ele>
        <time>2021-12-16T10:23:40.000Z</time>
      </trkpt>
      <trkpt lat="47.28135" lon="-2.49733">
        <ele>55.400001525879</ele>
        <time>2021-12-16T10:23:41.000Z</time>
      </trkpt>
      <trkpt lat="47.28134" lon="-2.49725">
        <ele>55.799999237061</ele>
        <time>2021-12-16T10:23:42.000Z</time>
      </trkpt>
      <trkpt lat="47.28132" lon="-2.49717">
        <ele>56.200000762939</ele>
        <time>2021-12-16T10:23:43.000Z</time>
      </trkpt>
      <trkpt lat="47.28131" lon="-2.49699">
        <ele>56.200000762939</ele>
        <time>2021-12-16T10:23:45.000Z</time>
      </trkpt>
      <trkpt lat="47.28122" lon="-2.49654">
        <ele>56.200000762939</ele>
        <time>2021-12-16T10:23:51.000Z</time>
      </trkpt>
      <trkpt lat="47.2812" lon="-2.49647">
        <ele>56.200000762939</ele>
        <time>2021-12-16T10:23:52.000Z</time>
      </trkpt>
      <trkpt lat="47.28115" lon="-2.49635">
        <ele>56.200000762939</ele>
        <time>2021-12-16T10:23:54.000Z</time>
      </trkpt>
      <trkpt lat="47.28104" lon="-2.49619">
        <ele>56.200000762939</ele>
        <time>2021-12-16T10:23:57.000Z</time>
      </trkpt>
      <trkpt lat="47.28081" lon="-2.49585">
        <ele>56.200000762939</ele>
        <time>2021-12-16T10:24:03.000Z</time>
      </trkpt>
      <trkpt lat="47.28053" lon="-2.49542">
        <ele>56.200000762939</ele>
        <time>2021-12-16T10:24:10.000Z</time>
      </trkpt>
      <trkpt lat="47.28046" lon="-2.49532">
        <ele>56.200000762939</ele>
        <time>2021-12-16T10:24:12.000Z</time>
      </trkpt>
      <trkpt lat="47.2804" lon="-2.4952">
        <ele>56.200000762939</ele>
        <time>2021-12-16T10:24:14.000Z</time>
      </trkpt>
      <trkpt lat="47.28038" lon="-2.49514">
        <ele>56.200000762939</ele>
        <time>2021-12-16T10:24:15.000Z</time>
      </trkpt>
      <trkpt lat="47.2803" lon="-2.49501">
        <ele>56.200000762939</ele>
        <time>2021-12-16T10:24:19.000Z</time>
      </trkpt>
      <trkpt lat="47.28015" lon="-2.4948">
        <ele>56.200000762939</ele>
        <time>2021-12-16T10:24:25.000Z</time>
      </trkpt>
      <trkpt lat="47.27996" lon="-2.49453">
        <ele>56.200000762939</ele>
        <time>2021-12-16T10:24:32.000Z</time>
      </trkpt>
      <trkpt lat="47.2798" lon="-2.49429">
        <ele>56.200000762939</ele>
        <time>2021-12-16T10:24:38.000Z</time>
      </trkpt>
      <trkpt lat="47.27954" lon="-2.49392">
        <ele>56.599998474121</ele>
        <time>2021-12-16T10:24:47.000Z</time>
      </trkpt>
      <trkpt lat="47.27951" lon="-2.49387">
        <ele>57</ele>
        <time>2021-12-16T10:24:48.000Z</time>
      </trkpt>
      <trkpt lat="47.27948" lon="-2.49383">
        <ele>57.599998474121</ele>
        <time>2021-12-16T10:24:49.000Z</time>
      </trkpt>
      <trkpt lat="47.27944" lon="-2.49378">
        <ele>58</ele>
        <time>2021-12-16T10:24:50.000Z</time>
      </trkpt>
      <trkpt lat="47.27941" lon="-2.49374">
        <ele>58.400001525879</ele>
        <time>2021-12-16T10:24:51.000Z</time>
      </trkpt>
      <trkpt lat="47.27927" lon="-2.49355">
        <ele>58.400001525879</ele>
        <time>2021-12-16T10:24:55.000Z</time>
      </trkpt>
      <trkpt lat="47.27899" lon="-2.49316">
        <ele>58.400001525879</ele>
        <time>2021-12-16T10:25:03.000Z</time>
      </trkpt>
      <trkpt lat="47.27864" lon="-2.49276">
        <ele>58.400001525879</ele>
        <time>2021-12-16T10:25:13.000Z</time>
      </trkpt>
      <trkpt lat="47.27852" lon="-2.49254">
        <ele>58.400001525879</ele>
        <time>2021-12-16T10:25:18.000Z</time>
      </trkpt>
      <trkpt lat="47.27858" lon="-2.4923">
        <ele>58.400001525879</ele>
        <time>2021-12-16T10:25:22.000Z</time>
      </trkpt>
      <trkpt lat="47.2786" lon="-2.49224">
        <ele>58.400001525879</ele>
        <time>2021-12-16T10:25:23.000Z</time>
      </trkpt>
      <trkpt lat="47.27869" lon="-2.49193">
        <ele>58.400001525879</ele>
        <time>2021-12-16T10:25:28.000Z</time>
      </trkpt>
      <trkpt lat="47.27871" lon="-2.49187">
        <ele>58.400001525879</ele>
        <time>2021-12-16T10:25:29.000Z</time>
      </trkpt>
      <trkpt lat="47.27888" lon="-2.49132">
        <ele>58.400001525879</ele>
        <time>2021-12-16T10:25:37.000Z</time>
      </trkpt>
      <trkpt lat="47.27904" lon="-2.49071">
        <ele>58.400001525879</ele>
        <time>2021-12-16T10:25:46.000Z</time>
      </trkpt>
      <trkpt lat="47.2792" lon="-2.49013">
        <ele>58.400001525879</ele>
        <time>2021-12-16T10:25:54.000Z</time>
      </trkpt>
      <trkpt lat="47.27925" lon="-2.48999">
        <ele>58.400001525879</ele>
        <time>2021-12-16T10:25:56.000Z</time>
      </trkpt>
      <trkpt lat="47.27934" lon="-2.48984">
        <ele>58.400001525879</ele>
        <time>2021-12-16T10:25:59.000Z</time>
      </trkpt>
      <trkpt lat="47.27939" lon="-2.48962">
        <ele>58.400001525879</ele>
        <time>2021-12-16T10:26:02.000Z</time>
      </trkpt>
      <trkpt lat="47.27941" lon="-2.48955">
        <ele>58.400001525879</ele>
        <time>2021-12-16T10:26:03.000Z</time>
      </trkpt>
      <trkpt lat="47.2795" lon="-2.48934">
        <ele>58.400001525879</ele>
        <time>2021-12-16T10:26:06.000Z</time>
      </trkpt>
      <trkpt lat="47.27955" lon="-2.48922">
        <ele>58.400001525879</ele>
        <time>2021-12-16T10:26:08.000Z</time>
      </trkpt>
      <trkpt lat="47.27962" lon="-2.48896">
        <ele>58.400001525879</ele>
        <time>2021-12-16T10:26:13.000Z</time>
      </trkpt>
      <trkpt lat="47.27966" lon="-2.48874">
        <ele>58.400001525879</ele>
        <time>2021-12-16T10:26:19.000Z</time>
      </trkpt>
      <trkpt lat="47.27972" lon="-2.4886">
        <ele>58.400001525879</ele>
        <time>2021-12-16T10:26:25.000Z</time>
      </trkpt>
      <trkpt lat="47.27975" lon="-2.48848">
        <ele>58.400001525879</ele>
        <time>2021-12-16T10:26:31.000Z</time>
      </trkpt>
      <trkpt lat="47.27975" lon="-2.48843">
        <ele>58.400001525879</ele>
        <time>2021-12-16T10:26:34.000Z</time>
      </trkpt>
      <trkpt lat="47.27975" lon="-2.48838">
        <ele>58.400001525879</ele>
        <time>2021-12-16T10:26:37.000Z</time>
      </trkpt>
      <trkpt lat="47.27978" lon="-2.48825">
        <ele>58.400001525879</ele>
        <time>2021-12-16T10:26:43.000Z</time>
      </trkpt>
      <trkpt lat="47.27983" lon="-2.48805">
        <ele>58.400001525879</ele>
        <time>2021-12-16T10:26:49.000Z</time>
      </trkpt>
      <trkpt lat="47.2798" lon="-2.48784">
        <ele>58.400001525879</ele>
        <time>2021-12-16T10:26:54.000Z</time>
      </trkpt>
      <trkpt lat="47.2798" lon="-2.48771">
        <ele>58.400001525879</ele>
        <time>2021-12-16T10:26:57.000Z</time>
      </trkpt>
      <trkpt lat="47.27983" lon="-2.48765">
        <ele>58.799999237061</ele>
        <time>2021-12-16T10:26:59.000Z</time>
      </trkpt>
      <trkpt lat="47.27985" lon="-2.48761">
        <ele>59.200000762939</ele>
        <time>2021-12-16T10:27:00.000Z</time>
      </trkpt>
      <trkpt lat="47.27986" lon="-2.48756">
        <ele>59.599998474121</ele>
        <time>2021-12-16T10:27:01.000Z</time>
      </trkpt>
      <trkpt lat="47.27987" lon="-2.48751">
        <ele>60</ele>
        <time>2021-12-16T10:27:02.000Z</time>
      </trkpt>
      <trkpt lat="47.27987" lon="-2.48745">
        <ele>60.400001525879</ele>
        <time>2021-12-16T10:27:03.000Z</time>
      </trkpt>
      <trkpt lat="47.27987" lon="-2.4874">
        <ele>60.400001525879</ele>
        <time>2021-12-16T10:27:04.000Z</time>
      </trkpt>
      <trkpt lat="47.27981" lon="-2.48706">
        <ele>60.400001525879</ele>
        <time>2021-12-16T10:27:10.000Z</time>
      </trkpt>
      <trkpt lat="47.27971" lon="-2.48669">
        <ele>60.400001525879</ele>
        <time>2021-12-16T10:27:16.000Z</time>
      </trkpt>
      <trkpt lat="47.27952" lon="-2.4862">
        <ele>60.400001525879</ele>
        <time>2021-12-16T10:27:24.000Z</time>
      </trkpt>
      <trkpt lat="47.27934" lon="-2.48571">
        <ele>60.400001525879</ele>
        <time>2021-12-16T10:27:31.000Z</time>
      </trkpt>
      <trkpt lat="47.27919" lon="-2.48521">
        <ele>60.400001525879</ele>
        <time>2021-12-16T10:27:38.000Z</time>
      </trkpt>
      <trkpt lat="47.27902" lon="-2.48474">
        <ele>60.400001525879</ele>
        <time>2021-12-16T10:27:45.000Z</time>
      </trkpt>
      <trkpt lat="47.2788" lon="-2.48411">
        <ele>60.400001525879</ele>
        <time>2021-12-16T10:27:54.000Z</time>
      </trkpt>
      <trkpt lat="47.2786" lon="-2.48362">
        <ele>60.400001525879</ele>
        <time>2021-12-16T10:28:01.000Z</time>
      </trkpt>
      <trkpt lat="47.27842" lon="-2.48312">
        <ele>60.400001525879</ele>
        <time>2021-12-16T10:28:08.000Z</time>
      </trkpt>
      <trkpt lat="47.27823" lon="-2.48265">
        <ele>60.400001525879</ele>
        <time>2021-12-16T10:28:15.000Z</time>
      </trkpt>
      <trkpt lat="47.27807" lon="-2.48217">
        <ele>60.400001525879</ele>
        <time>2021-12-16T10:28:22.000Z</time>
      </trkpt>
      <trkpt lat="47.27792" lon="-2.48177">
        <ele>60.799999237061</ele>
        <time>2021-12-16T10:28:28.000Z</time>
      </trkpt>
      <trkpt lat="47.2779" lon="-2.48171">
        <ele>61.400001525879</ele>
        <time>2021-12-16T10:28:29.000Z</time>
      </trkpt>
      <trkpt lat="47.27787" lon="-2.48165">
        <ele>61.799999237061</ele>
        <time>2021-12-16T10:28:30.000Z</time>
      </trkpt>
      <trkpt lat="47.27785" lon="-2.48158">
        <ele>62.200000762939</ele>
        <time>2021-12-16T10:28:31.000Z</time>
      </trkpt>
      <trkpt lat="47.27783" lon="-2.48152">
        <ele>62.599998474121</ele>
        <time>2021-12-16T10:28:32.000Z</time>
      </trkpt>
      <trkpt lat="47.27772" lon="-2.48122">
        <ele>62.599998474121</ele>
        <time>2021-12-16T10:28:37.000Z</time>
      </trkpt>
      <trkpt lat="47.2777" lon="-2.48116">
        <ele>63</ele>
        <time>2021-12-16T10:28:38.000Z</time>
      </trkpt>
      <trkpt lat="47.27768" lon="-2.4811">
        <ele>63.400001525879</ele>
        <time>2021-12-16T10:28:39.000Z</time>
      </trkpt>
      <trkpt lat="47.27766" lon="-2.48104">
        <ele>63.799999237061</ele>
        <time>2021-12-16T10:28:40.000Z</time>
      </trkpt>
      <trkpt lat="47.27764" lon="-2.48097">
        <ele>64.199996948242</ele>
        <time>2021-12-16T10:28:41.000Z</time>
      </trkpt>
      <trkpt lat="47.27763" lon="-2.48091">
        <ele>64.599998474121</ele>
        <time>2021-12-16T10:28:42.000Z</time>
      </trkpt>
      <trkpt lat="47.27762" lon="-2.48085">
        <ele>64.599998474121</ele>
        <time>2021-12-16T10:28:43.000Z</time>
      </trkpt>
      <trkpt lat="47.27758" lon="-2.48053">
        <ele>64.599998474121</ele>
        <time>2021-12-16T10:28:49.000Z</time>
      </trkpt>
      <trkpt lat="47.27756" lon="-2.48051">
        <ele>64.599998474121</ele>
        <time>2021-12-16T10:28:50.000Z</time>
      </trkpt>
      <trkpt lat="47.27752" lon="-2.48049">
        <ele>64.599998474121</ele>
        <time>2021-12-16T10:28:52.000Z</time>
      </trkpt>
      <trkpt lat="47.27748" lon="-2.48052">
        <ele>64.599998474121</ele>
        <time>2021-12-16T10:28:54.000Z</time>
      </trkpt>
      <trkpt lat="47.27744" lon="-2.48055">
        <ele>64.599998474121</ele>
        <time>2021-12-16T10:28:56.000Z</time>
      </trkpt>
      <trkpt lat="47.27735" lon="-2.48062">
        <ele>65</ele>
        <time>2021-12-16T10:28:58.000Z</time>
      </trkpt>
      <trkpt lat="47.27731" lon="-2.48066">
        <ele>65.599998474121</ele>
        <time>2021-12-16T10:28:59.000Z</time>
      </trkpt>
      <trkpt lat="47.27728" lon="-2.48069">
        <ele>66</ele>
        <time>2021-12-16T10:29:00.000Z</time>
      </trkpt>
      <trkpt lat="47.27724" lon="-2.48071">
        <ele>66.400001525879</ele>
        <time>2021-12-16T10:29:01.000Z</time>
      </trkpt>
      <trkpt lat="47.27719" lon="-2.48073">
        <ele>67</ele>
        <time>2021-12-16T10:29:02.000Z</time>
      </trkpt>
      <trkpt lat="47.2771" lon="-2.48079">
        <ele>67</ele>
        <time>2021-12-16T10:29:04.000Z</time>
      </trkpt>
      <trkpt lat="47.27705" lon="-2.4808">
        <ele>67</ele>
        <time>2021-12-16T10:29:05.000Z</time>
      </trkpt>
      <trkpt lat="47.27682" lon="-2.48084">
        <ele>67</ele>
        <time>2021-12-16T10:29:09.000Z</time>
      </trkpt>
      <trkpt lat="47.27628" lon="-2.48094">
        <ele>67</ele>
        <time>2021-12-16T10:29:18.000Z</time>
      </trkpt>
      <trkpt lat="47.27623" lon="-2.48094">
        <ele>67</ele>
        <time>2021-12-16T10:29:19.000Z</time>
      </trkpt>
      <trkpt lat="47.27616" lon="-2.48083">
        <ele>67</ele>
        <time>2021-12-16T10:29:21.000Z</time>
      </trkpt>
      <trkpt lat="47.27615" lon="-2.48061">
        <ele>67</ele>
        <time>2021-12-16T10:29:24.000Z</time>
      </trkpt>
      <trkpt lat="47.27617" lon="-2.48047">
        <ele>67</ele>
        <time>2021-12-16T10:29:26.000Z</time>
      </trkpt>
      <trkpt lat="47.27618" lon="-2.48041">
        <ele>67</ele>
        <time>2021-12-16T10:29:27.000Z</time>
      </trkpt>
      <trkpt lat="47.27622" lon="-2.48029">
        <ele>67</ele>
        <time>2021-12-16T10:29:29.000Z</time>
      </trkpt>
      <trkpt lat="47.27624" lon="-2.48004">
        <ele>67</ele>
        <time>2021-12-16T10:29:33.000Z</time>
      </trkpt>
      <trkpt lat="47.27614" lon="-2.47986">
        <ele>67</ele>
        <time>2021-12-16T10:29:36.000Z</time>
      </trkpt>
      <trkpt lat="47.27611" lon="-2.4798">
        <ele>67</ele>
        <time>2021-12-16T10:29:37.000Z</time>
      </trkpt>
      <trkpt lat="47.27608" lon="-2.47973">
        <ele>67</ele>
        <time>2021-12-16T10:29:38.000Z</time>
      </trkpt>
      <trkpt lat="47.27602" lon="-2.47949">
        <ele>66.400001525879</ele>
        <time>2021-12-16T10:29:41.000Z</time>
      </trkpt>
      <trkpt lat="47.27599" lon="-2.47939">
        <ele>66</ele>
        <time>2021-12-16T10:29:42.000Z</time>
      </trkpt>
      <trkpt lat="47.27596" lon="-2.4793">
        <ele>65.400001525879</ele>
        <time>2021-12-16T10:29:43.000Z</time>
      </trkpt>
      <trkpt lat="47.27593" lon="-2.4792">
        <ele>65</ele>
        <time>2021-12-16T10:29:44.000Z</time>
      </trkpt>
      <trkpt lat="47.27591" lon="-2.4791">
        <ele>64.400001525879</ele>
        <time>2021-12-16T10:29:45.000Z</time>
      </trkpt>
      <trkpt lat="47.27588" lon="-2.479">
        <ele>64.400001525879</ele>
        <time>2021-12-16T10:29:46.000Z</time>
      </trkpt>
      <trkpt lat="47.27579" lon="-2.4787">
        <ele>64</ele>
        <time>2021-12-16T10:29:49.000Z</time>
      </trkpt>
      <trkpt lat="47.27577" lon="-2.47861">
        <ele>63.599998474121</ele>
        <time>2021-12-16T10:29:50.000Z</time>
      </trkpt>
      <trkpt lat="47.27575" lon="-2.47852">
        <ele>63.200000762939</ele>
        <time>2021-12-16T10:29:51.000Z</time>
      </trkpt>
      <trkpt lat="47.27574" lon="-2.47844">
        <ele>62.799999237061</ele>
        <time>2021-12-16T10:29:52.000Z</time>
      </trkpt>
      <trkpt lat="47.27572" lon="-2.47836">
        <ele>62.400001525879</ele>
        <time>2021-12-16T10:29:53.000Z</time>
      </trkpt>
      <trkpt lat="47.27564" lon="-2.47798">
        <ele>62.400001525879</ele>
        <time>2021-12-16T10:29:58.000Z</time>
      </trkpt>
      <trkpt lat="47.2756" lon="-2.47785">
        <ele>62</ele>
        <time>2021-12-16T10:30:00.000Z</time>
      </trkpt>
      <trkpt lat="47.27558" lon="-2.4778">
        <ele>61</ele>
        <time>2021-12-16T10:30:01.000Z</time>
      </trkpt>
      <trkpt lat="47.27556" lon="-2.47775">
        <ele>60.599998474121</ele>
        <time>2021-12-16T10:30:02.000Z</time>
      </trkpt>
      <trkpt lat="47.27555" lon="-2.47769">
        <ele>60.200000762939</ele>
        <time>2021-12-16T10:30:03.000Z</time>
      </trkpt>
      <trkpt lat="47.27543" lon="-2.47727">
        <ele>60.200000762939</ele>
        <time>2021-12-16T10:30:10.000Z</time>
      </trkpt>
      <trkpt lat="47.27537" lon="-2.47689">
        <ele>60.200000762939</ele>
        <time>2021-12-16T10:30:15.000Z</time>
      </trkpt>
      <trkpt lat="47.27537" lon="-2.47681">
        <ele>60.200000762939</ele>
        <time>2021-12-16T10:30:16.000Z</time>
      </trkpt>
      <trkpt lat="47.27531" lon="-2.47652">
        <ele>60.200000762939</ele>
        <time>2021-12-16T10:30:20.000Z</time>
      </trkpt>
      <trkpt lat="47.2752" lon="-2.47619">
        <ele>59.599998474121</ele>
        <time>2021-12-16T10:30:25.000Z</time>
      </trkpt>
      <trkpt lat="47.27517" lon="-2.47613">
        <ele>58.799999237061</ele>
        <time>2021-12-16T10:30:26.000Z</time>
      </trkpt>
      <trkpt lat="47.27514" lon="-2.47611">
        <ele>58.400001525879</ele>
        <time>2021-12-16T10:30:27.000Z</time>
      </trkpt>
      <trkpt lat="47.27509" lon="-2.47608">
        <ele>58</ele>
        <time>2021-12-16T10:30:28.000Z</time>
      </trkpt>
      <trkpt lat="47.27504" lon="-2.47607">
        <ele>58</ele>
        <time>2021-12-16T10:30:29.000Z</time>
      </trkpt>
      <trkpt lat="47.27499" lon="-2.47605">
        <ele>58</ele>
        <time>2021-12-16T10:30:30.000Z</time>
      </trkpt>
      <trkpt lat="47.27495" lon="-2.47605">
        <ele>58</ele>
        <time>2021-12-16T10:30:31.000Z</time>
      </trkpt>
      <trkpt lat="47.27479" lon="-2.47607">
        <ele>58</ele>
        <time>2021-12-16T10:30:34.000Z</time>
      </trkpt>
      <trkpt lat="47.27468" lon="-2.47612">
        <ele>58</ele>
        <time>2021-12-16T10:30:36.000Z</time>
      </trkpt>
      <trkpt lat="47.27457" lon="-2.47621">
        <ele>58</ele>
        <time>2021-12-16T10:30:38.000Z</time>
      </trkpt>
      <trkpt lat="47.27446" lon="-2.47642">
        <ele>58</ele>
        <time>2021-12-16T10:30:41.000Z</time>
      </trkpt>
      <trkpt lat="47.27443" lon="-2.47648">
        <ele>58</ele>
        <time>2021-12-16T10:30:42.000Z</time>
      </trkpt>
      <trkpt lat="47.27433" lon="-2.47665">
        <ele>58</ele>
        <time>2021-12-16T10:30:45.000Z</time>
      </trkpt>
      <trkpt lat="47.27425" lon="-2.47675">
        <ele>58</ele>
        <time>2021-12-16T10:30:47.000Z</time>
      </trkpt>
      <trkpt lat="47.2742" lon="-2.47678">
        <ele>58</ele>
        <time>2021-12-16T10:30:48.000Z</time>
      </trkpt>
      <trkpt lat="47.27407" lon="-2.47678">
        <ele>58</ele>
        <time>2021-12-16T10:30:51.000Z</time>
      </trkpt>
      <trkpt lat="47.27398" lon="-2.47669">
        <ele>58</ele>
        <time>2021-12-16T10:30:53.000Z</time>
      </trkpt>
      <trkpt lat="47.27389" lon="-2.47662">
        <ele>58</ele>
        <time>2021-12-16T10:30:55.000Z</time>
      </trkpt>
      <trkpt lat="47.27358" lon="-2.47638">
        <ele>58</ele>
        <time>2021-12-16T10:31:02.000Z</time>
      </trkpt>
      <trkpt lat="47.27348" lon="-2.47628">
        <ele>58.400001525879</ele>
        <time>2021-12-16T10:31:05.000Z</time>
      </trkpt>
      <trkpt lat="47.27345" lon="-2.47625">
        <ele>59</ele>
        <time>2021-12-16T10:31:06.000Z</time>
      </trkpt>
      <trkpt lat="47.27342" lon="-2.47622">
        <ele>59.400001525879</ele>
        <time>2021-12-16T10:31:07.000Z</time>
      </trkpt>
      <trkpt lat="47.27339" lon="-2.47619">
        <ele>59.799999237061</ele>
        <time>2021-12-16T10:31:08.000Z</time>
      </trkpt>
      <trkpt lat="47.27336" lon="-2.47617">
        <ele>60.400001525879</ele>
        <time>2021-12-16T10:31:09.000Z</time>
      </trkpt>
      <trkpt lat="47.27333" lon="-2.47615">
        <ele>60.799999237061</ele>
        <time>2021-12-16T10:31:10.000Z</time>
      </trkpt>
      <trkpt lat="47.27331" lon="-2.47613">
        <ele>61.200000762939</ele>
        <time>2021-12-16T10:31:11.000Z</time>
      </trkpt>
      <trkpt lat="47.27328" lon="-2.47614">
        <ele>61.599998474121</ele>
        <time>2021-12-16T10:31:12.000Z</time>
      </trkpt>
      <trkpt lat="47.27325" lon="-2.47615">
        <ele>62</ele>
        <time>2021-12-16T10:31:13.000Z</time>
      </trkpt>
      <trkpt lat="47.27323" lon="-2.47613">
        <ele>62.400001525879</ele>
        <time>2021-12-16T10:31:14.000Z</time>
      </trkpt>
      <trkpt lat="47.27317" lon="-2.47607">
        <ele>62.400001525879</ele>
        <time>2021-12-16T10:31:16.000Z</time>
      </trkpt>
      <trkpt lat="47.27315" lon="-2.47603">
        <ele>62.400001525879</ele>
        <time>2021-12-16T10:31:17.000Z</time>
      </trkpt>
      <trkpt lat="47.27312" lon="-2.47598">
        <ele>62.400001525879</ele>
        <time>2021-12-16T10:31:18.000Z</time>
      </trkpt>
      <trkpt lat="47.27306" lon="-2.47588">
        <ele>62.400001525879</ele>
        <time>2021-12-16T10:31:21.000Z</time>
      </trkpt>
      <trkpt lat="47.27302" lon="-2.47576">
        <ele>62.799999237061</ele>
        <time>2021-12-16T10:31:25.000Z</time>
      </trkpt>
      <trkpt lat="47.27305" lon="-2.47574">
        <ele>63.200000762939</ele>
        <time>2021-12-16T10:31:26.000Z</time>
      </trkpt>
      <trkpt lat="47.27306" lon="-2.4757">
        <ele>63.599998474121</ele>
        <time>2021-12-16T10:31:27.000Z</time>
      </trkpt>
      <trkpt lat="47.27307" lon="-2.47566">
        <ele>64</ele>
        <time>2021-12-16T10:31:28.000Z</time>
      </trkpt>
      <trkpt lat="47.27305" lon="-2.47563">
        <ele>64.400001525879</ele>
        <time>2021-12-16T10:31:29.000Z</time>
      </trkpt>
      <trkpt lat="47.27301" lon="-2.47556">
        <ele>64.400001525879</ele>
        <time>2021-12-16T10:31:31.000Z</time>
      </trkpt>
      <trkpt lat="47.27298" lon="-2.47552">
        <ele>64.400001525879</ele>
        <time>2021-12-16T10:31:32.000Z</time>
      </trkpt>
      <trkpt lat="47.27291" lon="-2.47528">
        <ele>64.400001525879</ele>
        <time>2021-12-16T10:31:36.000Z</time>
      </trkpt>
      <trkpt lat="47.2728" lon="-2.47484">
        <ele>64.400001525879</ele>
        <time>2021-12-16T10:31:42.000Z</time>
      </trkpt>
      <trkpt lat="47.27274" lon="-2.4745">
        <ele>64.400001525879</ele>
        <time>2021-12-16T10:31:47.000Z</time>
      </trkpt>
      <trkpt lat="47.27272" lon="-2.47444">
        <ele>64.400001525879</ele>
        <time>2021-12-16T10:31:48.000Z</time>
      </trkpt>
      <trkpt lat="47.2727" lon="-2.47422">
        <ele>64.400001525879</ele>
        <time>2021-12-16T10:31:52.000Z</time>
      </trkpt>
      <trkpt lat="47.27273" lon="-2.4741">
        <ele>64.400001525879</ele>
        <time>2021-12-16T10:31:54.000Z</time>
      </trkpt>
      <trkpt lat="47.27278" lon="-2.474">
        <ele>64.400001525879</ele>
        <time>2021-12-16T10:31:56.000Z</time>
      </trkpt>
      <trkpt lat="47.27285" lon="-2.47392">
        <ele>64.400001525879</ele>
        <time>2021-12-16T10:31:58.000Z</time>
      </trkpt>
      <trkpt lat="47.27294" lon="-2.47379">
        <ele>64.400001525879</ele>
        <time>2021-12-16T10:32:01.000Z</time>
      </trkpt>
      <trkpt lat="47.27296" lon="-2.4736">
        <ele>64.400001525879</ele>
        <time>2021-12-16T10:32:04.000Z</time>
      </trkpt>
      <trkpt lat="47.27296" lon="-2.4734">
        <ele>64.400001525879</ele>
        <time>2021-12-16T10:32:07.000Z</time>
      </trkpt>
      <trkpt lat="47.27298" lon="-2.47328">
        <ele>64.400001525879</ele>
        <time>2021-12-16T10:32:09.000Z</time>
      </trkpt>
      <trkpt lat="47.27307" lon="-2.47316">
        <ele>64.400001525879</ele>
        <time>2021-12-16T10:32:12.000Z</time>
      </trkpt>
      <trkpt lat="47.2732" lon="-2.47309">
        <ele>64.400001525879</ele>
        <time>2021-12-16T10:32:15.000Z</time>
      </trkpt>
      <trkpt lat="47.27324" lon="-2.47304">
        <ele>64.400001525879</ele>
        <time>2021-12-16T10:32:16.000Z</time>
      </trkpt>
      <trkpt lat="47.27344" lon="-2.47298">
        <ele>64.400001525879</ele>
        <time>2021-12-16T10:32:20.000Z</time>
      </trkpt>
      <trkpt lat="47.2735" lon="-2.47297">
        <ele>64.400001525879</ele>
        <time>2021-12-16T10:32:21.000Z</time>
      </trkpt>
      <trkpt lat="47.27355" lon="-2.47295">
        <ele>64.400001525879</ele>
        <time>2021-12-16T10:32:22.000Z</time>
      </trkpt>
      <trkpt lat="47.2737" lon="-2.47285">
        <ele>64.400001525879</ele>
        <time>2021-12-16T10:32:25.000Z</time>
      </trkpt>
      <trkpt lat="47.27374" lon="-2.47282">
        <ele>63.799999237061</ele>
        <time>2021-12-16T10:32:26.000Z</time>
      </trkpt>
      <trkpt lat="47.27378" lon="-2.47278">
        <ele>63.400001525879</ele>
        <time>2021-12-16T10:32:27.000Z</time>
      </trkpt>
      <trkpt lat="47.27382" lon="-2.47273">
        <ele>63</ele>
        <time>2021-12-16T10:32:28.000Z</time>
      </trkpt>
      <trkpt lat="47.27387" lon="-2.47269">
        <ele>62.400001525879</ele>
        <time>2021-12-16T10:32:29.000Z</time>
      </trkpt>
      <trkpt lat="47.27391" lon="-2.47265">
        <ele>62</ele>
        <time>2021-12-16T10:32:30.000Z</time>
      </trkpt>
      <trkpt lat="47.27401" lon="-2.47257">
        <ele>62</ele>
        <time>2021-12-16T10:32:32.000Z</time>
      </trkpt>
      <trkpt lat="47.27428" lon="-2.47241">
        <ele>62</ele>
        <time>2021-12-16T10:32:38.000Z</time>
      </trkpt>
      <trkpt lat="47.27438" lon="-2.47236">
        <ele>61.400001525879</ele>
        <time>2021-12-16T10:32:40.000Z</time>
      </trkpt>
      <trkpt lat="47.27444" lon="-2.47232">
        <ele>61</ele>
        <time>2021-12-16T10:32:41.000Z</time>
      </trkpt>
      <trkpt lat="47.27449" lon="-2.47228">
        <ele>60.599998474121</ele>
        <time>2021-12-16T10:32:42.000Z</time>
      </trkpt>
      <trkpt lat="47.27454" lon="-2.47224">
        <ele>60.200000762939</ele>
        <time>2021-12-16T10:32:43.000Z</time>
      </trkpt>
      <trkpt lat="47.27459" lon="-2.4722">
        <ele>59.599998474121</ele>
        <time>2021-12-16T10:32:44.000Z</time>
      </trkpt>
      <trkpt lat="47.27492" lon="-2.47199">
        <ele>59.599998474121</ele>
        <time>2021-12-16T10:32:51.000Z</time>
      </trkpt>
      <trkpt lat="47.27496" lon="-2.47196">
        <ele>59.599998474121</ele>
        <time>2021-12-16T10:32:52.000Z</time>
      </trkpt>
      <trkpt lat="47.27506" lon="-2.47183">
        <ele>59.599998474121</ele>
        <time>2021-12-16T10:32:55.000Z</time>
      </trkpt>
      <trkpt lat="47.27501" lon="-2.47165">
        <ele>59.200000762939</ele>
        <time>2021-12-16T10:32:58.000Z</time>
      </trkpt>
      <trkpt lat="47.27499" lon="-2.47159">
        <ele>58.799999237061</ele>
        <time>2021-12-16T10:32:59.000Z</time>
      </trkpt>
      <trkpt lat="47.27497" lon="-2.47152">
        <ele>58.400001525879</ele>
        <time>2021-12-16T10:33:00.000Z</time>
      </trkpt>
      <trkpt lat="47.27494" lon="-2.47146">
        <ele>58</ele>
        <time>2021-12-16T10:33:01.000Z</time>
      </trkpt>
      <trkpt lat="47.27492" lon="-2.47139">
        <ele>57.599998474121</ele>
        <time>2021-12-16T10:33:02.000Z</time>
      </trkpt>
      <trkpt lat="47.27482" lon="-2.47112">
        <ele>57.599998474121</ele>
        <time>2021-12-16T10:33:06.000Z</time>
      </trkpt>
      <trkpt lat="47.27464" lon="-2.4706">
        <ele>57.599998474121</ele>
        <time>2021-12-16T10:33:14.000Z</time>
      </trkpt>
      <trkpt lat="47.27462" lon="-2.47054">
        <ele>57.599998474121</ele>
        <time>2021-12-16T10:33:15.000Z</time>
      </trkpt>
      <trkpt lat="47.27454" lon="-2.47033">
        <ele>58</ele>
        <time>2021-12-16T10:33:18.000Z</time>
      </trkpt>
      <trkpt lat="47.27452" lon="-2.47025">
        <ele>58.799999237061</ele>
        <time>2021-12-16T10:33:19.000Z</time>
      </trkpt>
      <trkpt lat="47.27449" lon="-2.47019">
        <ele>59.400001525879</ele>
        <time>2021-12-16T10:33:20.000Z</time>
      </trkpt>
      <trkpt lat="47.27447" lon="-2.47012">
        <ele>59.799999237061</ele>
        <time>2021-12-16T10:33:21.000Z</time>
      </trkpt>
      <trkpt lat="47.27437" lon="-2.4698">
        <ele>59.799999237061</ele>
        <time>2021-12-16T10:33:26.000Z</time>
      </trkpt>
      <trkpt lat="47.27436" lon="-2.46973">
        <ele>59.799999237061</ele>
        <time>2021-12-16T10:33:27.000Z</time>
      </trkpt>
      <trkpt lat="47.27438" lon="-2.46954">
        <ele>59.799999237061</ele>
        <time>2021-12-16T10:33:30.000Z</time>
      </trkpt>
      <trkpt lat="47.27441" lon="-2.46948">
        <ele>60.200000762939</ele>
        <time>2021-12-16T10:33:31.000Z</time>
      </trkpt>
      <trkpt lat="47.27445" lon="-2.46944">
        <ele>60.599998474121</ele>
        <time>2021-12-16T10:33:32.000Z</time>
      </trkpt>
      <trkpt lat="47.27449" lon="-2.4694">
        <ele>61</ele>
        <time>2021-12-16T10:33:33.000Z</time>
      </trkpt>
      <trkpt lat="47.27453" lon="-2.46937">
        <ele>61.400001525879</ele>
        <time>2021-12-16T10:33:34.000Z</time>
      </trkpt>
      <trkpt lat="47.27458" lon="-2.46935">
        <ele>61.799999237061</ele>
        <time>2021-12-16T10:33:35.000Z</time>
      </trkpt>
      <trkpt lat="47.27463" lon="-2.46932">
        <ele>61.799999237061</ele>
        <time>2021-12-16T10:33:36.000Z</time>
      </trkpt>
      <trkpt lat="47.27472" lon="-2.46923">
        <ele>61.799999237061</ele>
        <time>2021-12-16T10:33:38.000Z</time>
      </trkpt>
      <trkpt lat="47.27482" lon="-2.46895">
        <ele>61.799999237061</ele>
        <time>2021-12-16T10:33:42.000Z</time>
      </trkpt>
      <trkpt lat="47.27479" lon="-2.46867">
        <ele>61.799999237061</ele>
        <time>2021-12-16T10:33:46.000Z</time>
      </trkpt>
      <trkpt lat="47.27475" lon="-2.46854">
        <ele>61.799999237061</ele>
        <time>2021-12-16T10:33:48.000Z</time>
      </trkpt>
      <trkpt lat="47.27466" lon="-2.46826">
        <ele>61.799999237061</ele>
        <time>2021-12-16T10:33:52.000Z</time>
      </trkpt>
      <trkpt lat="47.27452" lon="-2.4678">
        <ele>61.400001525879</ele>
        <time>2021-12-16T10:33:58.000Z</time>
      </trkpt>
      <trkpt lat="47.2745" lon="-2.46772">
        <ele>61</ele>
        <time>2021-12-16T10:33:59.000Z</time>
      </trkpt>
      <trkpt lat="47.27448" lon="-2.46763">
        <ele>60.599998474121</ele>
        <time>2021-12-16T10:34:00.000Z</time>
      </trkpt>
      <trkpt lat="47.27445" lon="-2.46755">
        <ele>60.200000762939</ele>
        <time>2021-12-16T10:34:01.000Z</time>
      </trkpt>
      <trkpt lat="47.27442" lon="-2.46746">
        <ele>59.799999237061</ele>
        <time>2021-12-16T10:34:02.000Z</time>
      </trkpt>
      <trkpt lat="47.27426" lon="-2.46694">
        <ele>59.799999237061</ele>
        <time>2021-12-16T10:34:08.000Z</time>
      </trkpt>
      <trkpt lat="47.27406" lon="-2.46625">
        <ele>59.799999237061</ele>
        <time>2021-12-16T10:34:16.000Z</time>
      </trkpt>
      <trkpt lat="47.27382" lon="-2.46549">
        <ele>59.799999237061</ele>
        <time>2021-12-16T10:34:25.000Z</time>
      </trkpt>
      <trkpt lat="47.27361" lon="-2.4648">
        <ele>59.799999237061</ele>
        <time>2021-12-16T10:34:33.000Z</time>
      </trkpt>
      <trkpt lat="47.2734" lon="-2.46418">
        <ele>59.799999237061</ele>
        <time>2021-12-16T10:34:40.000Z</time>
      </trkpt>
      <trkpt lat="47.27313" lon="-2.46343">
        <ele>59.799999237061</ele>
        <time>2021-12-16T10:34:49.000Z</time>
      </trkpt>
      <trkpt lat="47.27311" lon="-2.46335">
        <ele>59.799999237061</ele>
        <time>2021-12-16T10:34:50.000Z</time>
      </trkpt>
      <trkpt lat="47.27301" lon="-2.4631">
        <ele>59.400001525879</ele>
        <time>2021-12-16T10:34:53.000Z</time>
      </trkpt>
      <trkpt lat="47.27298" lon="-2.46302">
        <ele>59</ele>
        <time>2021-12-16T10:34:54.000Z</time>
      </trkpt>
      <trkpt lat="47.27294" lon="-2.46294">
        <ele>58.400001525879</ele>
        <time>2021-12-16T10:34:55.000Z</time>
      </trkpt>
      <trkpt lat="47.27291" lon="-2.46286">
        <ele>58</ele>
        <time>2021-12-16T10:34:56.000Z</time>
      </trkpt>
      <trkpt lat="47.27288" lon="-2.46279">
        <ele>57.599998474121</ele>
        <time>2021-12-16T10:34:57.000Z</time>
      </trkpt>
      <trkpt lat="47.27285" lon="-2.46272">
        <ele>57.599998474121</ele>
        <time>2021-12-16T10:34:58.000Z</time>
      </trkpt>
      <trkpt lat="47.2726" lon="-2.46213">
        <ele>57.599998474121</ele>
        <time>2021-12-16T10:35:06.000Z</time>
      </trkpt>
      <trkpt lat="47.27243" lon="-2.46165">
        <ele>57.599998474121</ele>
        <time>2021-12-16T10:35:12.000Z</time>
      </trkpt>
      <trkpt lat="47.2723" lon="-2.46106">
        <ele>57.599998474121</ele>
        <time>2021-12-16T10:35:19.000Z</time>
      </trkpt>
      <trkpt lat="47.27215" lon="-2.46029">
        <ele>57.599998474121</ele>
        <time>2021-12-16T10:35:28.000Z</time>
      </trkpt>
      <trkpt lat="47.27194" lon="-2.45964">
        <ele>57.599998474121</ele>
        <time>2021-12-16T10:35:36.000Z</time>
      </trkpt>
      <trkpt lat="47.27173" lon="-2.45911">
        <ele>57.599998474121</ele>
        <time>2021-12-16T10:35:44.000Z</time>
      </trkpt>
      <trkpt lat="47.27171" lon="-2.45906">
        <ele>57.599998474121</ele>
        <time>2021-12-16T10:35:45.000Z</time>
      </trkpt>
      <trkpt lat="47.27163" lon="-2.45889">
        <ele>57.599998474121</ele>
        <time>2021-12-16T10:35:48.000Z</time>
      </trkpt>
      <trkpt lat="47.27161" lon="-2.45883">
        <ele>57.599998474121</ele>
        <time>2021-12-16T10:35:49.000Z</time>
      </trkpt>
      <trkpt lat="47.27157" lon="-2.45869">
        <ele>57.599998474121</ele>
        <time>2021-12-16T10:35:51.000Z</time>
      </trkpt>
      <trkpt lat="47.27155" lon="-2.45861">
        <ele>58</ele>
        <time>2021-12-16T10:35:52.000Z</time>
      </trkpt>
      <trkpt lat="47.27152" lon="-2.45854">
        <ele>58.599998474121</ele>
        <time>2021-12-16T10:35:53.000Z</time>
      </trkpt>
      <trkpt lat="47.27149" lon="-2.45847">
        <ele>59</ele>
        <time>2021-12-16T10:35:54.000Z</time>
      </trkpt>
      <trkpt lat="47.27146" lon="-2.4584">
        <ele>59.400001525879</ele>
        <time>2021-12-16T10:35:55.000Z</time>
      </trkpt>
      <trkpt lat="47.27143" lon="-2.45833">
        <ele>59.799999237061</ele>
        <time>2021-12-16T10:35:56.000Z</time>
      </trkpt>
      <trkpt lat="47.27121" lon="-2.45786">
        <ele>59.799999237061</ele>
        <time>2021-12-16T10:36:03.000Z</time>
      </trkpt>
      <trkpt lat="47.27105" lon="-2.45756">
        <ele>59.799999237061</ele>
        <time>2021-12-16T10:36:08.000Z</time>
      </trkpt>
      <trkpt lat="47.27098" lon="-2.45746">
        <ele>59.799999237061</ele>
        <time>2021-12-16T10:36:10.000Z</time>
      </trkpt>
      <trkpt lat="47.27098" lon="-2.45733">
        <ele>59.799999237061</ele>
        <time>2021-12-16T10:36:13.000Z</time>
      </trkpt>
      <trkpt lat="47.27113" lon="-2.45727">
        <ele>59.799999237061</ele>
        <time>2021-12-16T10:36:17.000Z</time>
      </trkpt>
      <trkpt lat="47.27145" lon="-2.45716">
        <ele>59.799999237061</ele>
        <time>2021-12-16T10:36:23.000Z</time>
      </trkpt>
      <trkpt lat="47.27168" lon="-2.45711">
        <ele>59.799999237061</ele>
        <time>2021-12-16T10:36:27.000Z</time>
      </trkpt>
      <trkpt lat="47.27174" lon="-2.45711">
        <ele>59.799999237061</ele>
        <time>2021-12-16T10:36:28.000Z</time>
      </trkpt>
      <trkpt lat="47.2718" lon="-2.4571">
        <ele>59.799999237061</ele>
        <time>2021-12-16T10:36:29.000Z</time>
      </trkpt>
      <trkpt lat="47.27208" lon="-2.45704">
        <ele>59.799999237061</ele>
        <time>2021-12-16T10:36:34.000Z</time>
      </trkpt>
      <trkpt lat="47.27214" lon="-2.45702">
        <ele>59.799999237061</ele>
        <time>2021-12-16T10:36:35.000Z</time>
      </trkpt>
      <trkpt lat="47.27233" lon="-2.45687">
        <ele>59.799999237061</ele>
        <time>2021-12-16T10:36:39.000Z</time>
      </trkpt>
      <trkpt lat="47.27238" lon="-2.45682">
        <ele>59.799999237061</ele>
        <time>2021-12-16T10:36:40.000Z</time>
      </trkpt>
      <trkpt lat="47.27258" lon="-2.4567">
        <ele>59.799999237061</ele>
        <time>2021-12-16T10:36:44.000Z</time>
      </trkpt>
      <trkpt lat="47.27289" lon="-2.45653">
        <ele>59.799999237061</ele>
        <time>2021-12-16T10:36:50.000Z</time>
      </trkpt>
      <trkpt lat="47.27316" lon="-2.45634">
        <ele>59.799999237061</ele>
        <time>2021-12-16T10:36:56.000Z</time>
      </trkpt>
      <trkpt lat="47.2732" lon="-2.4563">
        <ele>59.799999237061</ele>
        <time>2021-12-16T10:36:57.000Z</time>
      </trkpt>
      <trkpt lat="47.27325" lon="-2.45608">
        <ele>59.799999237061</ele>
        <time>2021-12-16T10:37:00.000Z</time>
      </trkpt>
      <trkpt lat="47.27337" lon="-2.45594">
        <ele>59.799999237061</ele>
        <time>2021-12-16T10:37:03.000Z</time>
      </trkpt>
      <trkpt lat="47.27341" lon="-2.4559">
        <ele>59.799999237061</ele>
        <time>2021-12-16T10:37:04.000Z</time>
      </trkpt>
      <trkpt lat="47.27362" lon="-2.45579">
        <ele>59.799999237061</ele>
        <time>2021-12-16T10:37:08.000Z</time>
      </trkpt>
      <trkpt lat="47.27373" lon="-2.45574">
        <ele>59.799999237061</ele>
        <time>2021-12-16T10:37:10.000Z</time>
      </trkpt>
      <trkpt lat="47.27389" lon="-2.45571">
        <ele>59.799999237061</ele>
        <time>2021-12-16T10:37:13.000Z</time>
      </trkpt>
      <trkpt lat="47.27415" lon="-2.45564">
        <ele>59.400001525879</ele>
        <time>2021-12-16T10:37:18.000Z</time>
      </trkpt>
      <trkpt lat="47.2742" lon="-2.45561">
        <ele>59</ele>
        <time>2021-12-16T10:37:19.000Z</time>
      </trkpt>
      <trkpt lat="47.27426" lon="-2.45557">
        <ele>58.599998474121</ele>
        <time>2021-12-16T10:37:20.000Z</time>
      </trkpt>
      <trkpt lat="47.2743" lon="-2.45552">
        <ele>58.200000762939</ele>
        <time>2021-12-16T10:37:21.000Z</time>
      </trkpt>
      <trkpt lat="47.27434" lon="-2.45545">
        <ele>57.799999237061</ele>
        <time>2021-12-16T10:37:22.000Z</time>
      </trkpt>
      <trkpt lat="47.27437" lon="-2.45522">
        <ele>57.799999237061</ele>
        <time>2021-12-16T10:37:25.000Z</time>
      </trkpt>
      <trkpt lat="47.27447" lon="-2.45507">
        <ele>57.799999237061</ele>
        <time>2021-12-16T10:37:28.000Z</time>
      </trkpt>
      <trkpt lat="47.27452" lon="-2.45504">
        <ele>57.799999237061</ele>
        <time>2021-12-16T10:37:29.000Z</time>
      </trkpt>
      <trkpt lat="47.27474" lon="-2.4549">
        <ele>57.799999237061</ele>
        <time>2021-12-16T10:37:34.000Z</time>
      </trkpt>
      <trkpt lat="47.27491" lon="-2.45475">
        <ele>57.799999237061</ele>
        <time>2021-12-16T10:37:38.000Z</time>
      </trkpt>
      <trkpt lat="47.27494" lon="-2.4547">
        <ele>57.799999237061</ele>
        <time>2021-12-16T10:37:39.000Z</time>
      </trkpt>
      <trkpt lat="47.27494" lon="-2.45449">
        <ele>57.799999237061</ele>
        <time>2021-12-16T10:37:42.000Z</time>
      </trkpt>
      <trkpt lat="47.27489" lon="-2.45411">
        <ele>57.799999237061</ele>
        <time>2021-12-16T10:37:47.000Z</time>
      </trkpt>
      <trkpt lat="47.27489" lon="-2.45404">
        <ele>57.799999237061</ele>
        <time>2021-12-16T10:37:48.000Z</time>
      </trkpt>
      <trkpt lat="47.27501" lon="-2.45397">
        <ele>57.799999237061</ele>
        <time>2021-12-16T10:37:51.000Z</time>
      </trkpt>
      <trkpt lat="47.27533" lon="-2.45385">
        <ele>57.799999237061</ele>
        <time>2021-12-16T10:37:58.000Z</time>
      </trkpt>
      <trkpt lat="47.27564" lon="-2.45373">
        <ele>57.799999237061</ele>
        <time>2021-12-16T10:38:04.000Z</time>
      </trkpt>
      <trkpt lat="47.27568" lon="-2.45371">
        <ele>57.799999237061</ele>
        <time>2021-12-16T10:38:05.000Z</time>
      </trkpt>
      <trkpt lat="47.27604" lon="-2.45361">
        <ele>57.799999237061</ele>
        <time>2021-12-16T10:38:13.000Z</time>
      </trkpt>
      <trkpt lat="47.27613" lon="-2.45359">
        <ele>57.799999237061</ele>
        <time>2021-12-16T10:38:15.000Z</time>
      </trkpt>
      <trkpt lat="47.27619" lon="-2.45351">
        <ele>57.799999237061</ele>
        <time>2021-12-16T10:38:17.000Z</time>
      </trkpt>
      <trkpt lat="47.27618" lon="-2.45332">
        <ele>57.799999237061</ele>
        <time>2021-12-16T10:38:20.000Z</time>
      </trkpt>
      <trkpt lat="47.27616" lon="-2.45309">
        <ele>57.799999237061</ele>
        <time>2021-12-16T10:38:23.000Z</time>
      </trkpt>
      <trkpt lat="47.27615" lon="-2.45302">
        <ele>57.400001525879</ele>
        <time>2021-12-16T10:38:24.000Z</time>
      </trkpt>
      <trkpt lat="47.27614" lon="-2.45294">
        <ele>57</ele>
        <time>2021-12-16T10:38:25.000Z</time>
      </trkpt>
      <trkpt lat="47.27613" lon="-2.45286">
        <ele>56.599998474121</ele>
        <time>2021-12-16T10:38:26.000Z</time>
      </trkpt>
      <trkpt lat="47.27612" lon="-2.45279">
        <ele>56.200000762939</ele>
        <time>2021-12-16T10:38:27.000Z</time>
      </trkpt>
      <trkpt lat="47.27611" lon="-2.45271">
        <ele>55.799999237061</ele>
        <time>2021-12-16T10:38:28.000Z</time>
      </trkpt>
      <trkpt lat="47.27606" lon="-2.45222">
        <ele>55.799999237061</ele>
        <time>2021-12-16T10:38:34.000Z</time>
      </trkpt>
      <trkpt lat="47.27603" lon="-2.45197">
        <ele>55.799999237061</ele>
        <time>2021-12-16T10:38:37.000Z</time>
      </trkpt>
      <trkpt lat="47.27599" lon="-2.45171">
        <ele>55.799999237061</ele>
        <time>2021-12-16T10:38:40.000Z</time>
      </trkpt>
      <trkpt lat="47.27592" lon="-2.45118">
        <ele>55.400001525879</ele>
        <time>2021-12-16T10:38:46.000Z</time>
      </trkpt>
      <trkpt lat="47.2759" lon="-2.4511">
        <ele>55</ele>
        <time>2021-12-16T10:38:47.000Z</time>
      </trkpt>
      <trkpt lat="47.27588" lon="-2.45102">
        <ele>54.599998474121</ele>
        <time>2021-12-16T10:38:48.000Z</time>
      </trkpt>
      <trkpt lat="47.27585" lon="-2.45095">
        <ele>54</ele>
        <time>2021-12-16T10:38:49.000Z</time>
      </trkpt>
      <trkpt lat="47.27582" lon="-2.45087">
        <ele>53.599998474121</ele>
        <time>2021-12-16T10:38:50.000Z</time>
      </trkpt>
      <trkpt lat="47.27579" lon="-2.4508">
        <ele>53.599998474121</ele>
        <time>2021-12-16T10:38:51.000Z</time>
      </trkpt>
      <trkpt lat="47.27572" lon="-2.45067">
        <ele>53.599998474121</ele>
        <time>2021-12-16T10:38:53.000Z</time>
      </trkpt>
      <trkpt lat="47.27546" lon="-2.45014">
        <ele>53.599998474121</ele>
        <time>2021-12-16T10:39:01.000Z</time>
      </trkpt>
      <trkpt lat="47.27528" lon="-2.44959">
        <ele>53.599998474121</ele>
        <time>2021-12-16T10:39:09.000Z</time>
      </trkpt>
      <trkpt lat="47.27512" lon="-2.44903">
        <ele>53.599998474121</ele>
        <time>2021-12-16T10:39:17.000Z</time>
      </trkpt>
      <trkpt lat="47.27504" lon="-2.44863">
        <ele>53.599998474121</ele>
        <time>2021-12-16T10:39:23.000Z</time>
      </trkpt>
      <trkpt lat="47.27507" lon="-2.44843">
        <ele>54.200000762939</ele>
        <time>2021-12-16T10:39:26.000Z</time>
      </trkpt>
      <trkpt lat="47.27511" lon="-2.44838">
        <ele>54.599998474121</ele>
        <time>2021-12-16T10:39:27.000Z</time>
      </trkpt>
      <trkpt lat="47.27515" lon="-2.44834">
        <ele>55</ele>
        <time>2021-12-16T10:39:28.000Z</time>
      </trkpt>
      <trkpt lat="47.2752" lon="-2.4483">
        <ele>56</ele>
        <time>2021-12-16T10:39:29.000Z</time>
      </trkpt>
      <trkpt lat="47.27524" lon="-2.44826">
        <ele>56</ele>
        <time>2021-12-16T10:39:30.000Z</time>
      </trkpt>
      <trkpt lat="47.27536" lon="-2.44813">
        <ele>56</ele>
        <time>2021-12-16T10:39:33.000Z</time>
      </trkpt>
      <trkpt lat="47.27537" lon="-2.44808">
        <ele>56</ele>
        <time>2021-12-16T10:39:34.000Z</time>
      </trkpt>
      <trkpt lat="47.27537" lon="-2.44802">
        <ele>55.599998474121</ele>
        <time>2021-12-16T10:39:35.000Z</time>
      </trkpt>
      <trkpt lat="47.27535" lon="-2.44796">
        <ele>55.200000762939</ele>
        <time>2021-12-16T10:39:36.000Z</time>
      </trkpt>
      <trkpt lat="47.27534" lon="-2.4479">
        <ele>54.799999237061</ele>
        <time>2021-12-16T10:39:37.000Z</time>
      </trkpt>
      <trkpt lat="47.27532" lon="-2.44783">
        <ele>54.200000762939</ele>
        <time>2021-12-16T10:39:38.000Z</time>
      </trkpt>
      <trkpt lat="47.27531" lon="-2.44776">
        <ele>53.799999237061</ele>
        <time>2021-12-16T10:39:39.000Z</time>
      </trkpt>
      <trkpt lat="47.27525" lon="-2.44744">
        <ele>53.799999237061</ele>
        <time>2021-12-16T10:39:43.000Z</time>
      </trkpt>
      <trkpt lat="47.27514" lon="-2.44705">
        <ele>53.799999237061</ele>
        <time>2021-12-16T10:39:48.000Z</time>
      </trkpt>
      <trkpt lat="47.27507" lon="-2.44691">
        <ele>53.799999237061</ele>
        <time>2021-12-16T10:39:50.000Z</time>
      </trkpt>
      <trkpt lat="47.27496" lon="-2.44672">
        <ele>53.799999237061</ele>
        <time>2021-12-16T10:39:53.000Z</time>
      </trkpt>
      <trkpt lat="47.2748" lon="-2.44647">
        <ele>53.799999237061</ele>
        <time>2021-12-16T10:39:57.000Z</time>
      </trkpt>
      <trkpt lat="47.27476" lon="-2.4464">
        <ele>53.799999237061</ele>
        <time>2021-12-16T10:39:58.000Z</time>
      </trkpt>
      <trkpt lat="47.27468" lon="-2.4462">
        <ele>53.799999237061</ele>
        <time>2021-12-16T10:40:01.000Z</time>
      </trkpt>
      <trkpt lat="47.27464" lon="-2.44614">
        <ele>53.799999237061</ele>
        <time>2021-12-16T10:40:02.000Z</time>
      </trkpt>
      <trkpt lat="47.27457" lon="-2.44601">
        <ele>53.799999237061</ele>
        <time>2021-12-16T10:40:04.000Z</time>
      </trkpt>
      <trkpt lat="47.27452" lon="-2.4458">
        <ele>53.799999237061</ele>
        <time>2021-12-16T10:40:07.000Z</time>
      </trkpt>
      <trkpt lat="47.27451" lon="-2.44573">
        <ele>53.799999237061</ele>
        <time>2021-12-16T10:40:08.000Z</time>
      </trkpt>
      <trkpt lat="47.2745" lon="-2.44533">
        <ele>53.799999237061</ele>
        <time>2021-12-16T10:40:13.000Z</time>
      </trkpt>
      <trkpt lat="47.27442" lon="-2.44503">
        <ele>53.799999237061</ele>
        <time>2021-12-16T10:40:17.000Z</time>
      </trkpt>
      <trkpt lat="47.27438" lon="-2.44472">
        <ele>53.799999237061</ele>
        <time>2021-12-16T10:40:21.000Z</time>
      </trkpt>
      <trkpt lat="47.27436" lon="-2.4444">
        <ele>53.799999237061</ele>
        <time>2021-12-16T10:40:25.000Z</time>
      </trkpt>
      <trkpt lat="47.27437" lon="-2.44426">
        <ele>53.799999237061</ele>
        <time>2021-12-16T10:40:27.000Z</time>
      </trkpt>
      <trkpt lat="47.2744" lon="-2.44394">
        <ele>53.799999237061</ele>
        <time>2021-12-16T10:40:32.000Z</time>
      </trkpt>
      <trkpt lat="47.27438" lon="-2.4438">
        <ele>53.799999237061</ele>
        <time>2021-12-16T10:40:34.000Z</time>
      </trkpt>
      <trkpt lat="47.27429" lon="-2.44326">
        <ele>53.799999237061</ele>
        <time>2021-12-16T10:40:41.000Z</time>
      </trkpt>
      <trkpt lat="47.27423" lon="-2.44263">
        <ele>53.799999237061</ele>
        <time>2021-12-16T10:40:49.000Z</time>
      </trkpt>
      <trkpt lat="47.27418" lon="-2.44221">
        <ele>53.799999237061</ele>
        <time>2021-12-16T10:40:55.000Z</time>
      </trkpt>
      <trkpt lat="47.27411" lon="-2.44169">
        <ele>53.799999237061</ele>
        <time>2021-12-16T10:41:03.000Z</time>
      </trkpt>
      <trkpt lat="47.2741" lon="-2.44164">
        <ele>54.400001525879</ele>
        <time>2021-12-16T10:41:04.000Z</time>
      </trkpt>
      <trkpt lat="47.27409" lon="-2.44158">
        <ele>54.799999237061</ele>
        <time>2021-12-16T10:41:05.000Z</time>
      </trkpt>
      <trkpt lat="47.27409" lon="-2.44153">
        <ele>55.200000762939</ele>
        <time>2021-12-16T10:41:06.000Z</time>
      </trkpt>
      <trkpt lat="47.2741" lon="-2.44148">
        <ele>55.599998474121</ele>
        <time>2021-12-16T10:41:07.000Z</time>
      </trkpt>
      <trkpt lat="47.27413" lon="-2.44144">
        <ele>56</ele>
        <time>2021-12-16T10:41:08.000Z</time>
      </trkpt>
      <trkpt lat="47.27426" lon="-2.44135">
        <ele>56</ele>
        <time>2021-12-16T10:41:11.000Z</time>
      </trkpt>
      <trkpt lat="47.27431" lon="-2.44132">
        <ele>56</ele>
        <time>2021-12-16T10:41:12.000Z</time>
      </trkpt>
      <trkpt lat="47.27468" lon="-2.44107">
        <ele>56</ele>
        <time>2021-12-16T10:41:20.000Z</time>
      </trkpt>
      <trkpt lat="47.27506" lon="-2.44083">
        <ele>56</ele>
        <time>2021-12-16T10:41:28.000Z</time>
      </trkpt>
      <trkpt lat="47.27546" lon="-2.4406">
        <ele>56</ele>
        <time>2021-12-16T10:41:36.000Z</time>
      </trkpt>
      <trkpt lat="47.27551" lon="-2.44059">
        <ele>56</ele>
        <time>2021-12-16T10:41:37.000Z</time>
      </trkpt>
      <trkpt lat="47.27573" lon="-2.44056">
        <ele>56</ele>
        <time>2021-12-16T10:41:41.000Z</time>
      </trkpt>
      <trkpt lat="47.27618" lon="-2.44053">
        <ele>55.599998474121</ele>
        <time>2021-12-16T10:41:49.000Z</time>
      </trkpt>
      <trkpt lat="47.27624" lon="-2.44052">
        <ele>55.200000762939</ele>
        <time>2021-12-16T10:41:50.000Z</time>
      </trkpt>
      <trkpt lat="47.2763" lon="-2.44051">
        <ele>54.799999237061</ele>
        <time>2021-12-16T10:41:51.000Z</time>
      </trkpt>
      <trkpt lat="47.27636" lon="-2.4405">
        <ele>54.200000762939</ele>
        <time>2021-12-16T10:41:52.000Z</time>
      </trkpt>
      <trkpt lat="47.27641" lon="-2.44049">
        <ele>53.799999237061</ele>
        <time>2021-12-16T10:41:53.000Z</time>
      </trkpt>
      <trkpt lat="47.27652" lon="-2.44047">
        <ele>53.799999237061</ele>
        <time>2021-12-16T10:41:55.000Z</time>
      </trkpt>
      <trkpt lat="47.27658" lon="-2.44048">
        <ele>53.799999237061</ele>
        <time>2021-12-16T10:41:56.000Z</time>
      </trkpt>
      <trkpt lat="47.27669" lon="-2.44048">
        <ele>53.799999237061</ele>
        <time>2021-12-16T10:41:58.000Z</time>
      </trkpt>
      <trkpt lat="47.27684" lon="-2.44045">
        <ele>53.799999237061</ele>
        <time>2021-12-16T10:42:01.000Z</time>
      </trkpt>
      <trkpt lat="47.27702" lon="-2.44038">
        <ele>53.799999237061</ele>
        <time>2021-12-16T10:42:05.000Z</time>
      </trkpt>
      <trkpt lat="47.27711" lon="-2.44036">
        <ele>53.799999237061</ele>
        <time>2021-12-16T10:42:07.000Z</time>
      </trkpt>
      <trkpt lat="47.27719" lon="-2.44022">
        <ele>53.799999237061</ele>
        <time>2021-12-16T10:42:10.000Z</time>
      </trkpt>
      <trkpt lat="47.27721" lon="-2.44016">
        <ele>53.799999237061</ele>
        <time>2021-12-16T10:42:11.000Z</time>
      </trkpt>
      <trkpt lat="47.27735" lon="-2.43971">
        <ele>53.799999237061</ele>
        <time>2021-12-16T10:42:18.000Z</time>
      </trkpt>
      <trkpt lat="47.2775" lon="-2.43918">
        <ele>53.799999237061</ele>
        <time>2021-12-16T10:42:26.000Z</time>
      </trkpt>
      <trkpt lat="47.2776" lon="-2.43878">
        <ele>53.799999237061</ele>
        <time>2021-12-16T10:42:32.000Z</time>
      </trkpt>
      <trkpt lat="47.27765" lon="-2.43855">
        <ele>53.799999237061</ele>
        <time>2021-12-16T10:42:36.000Z</time>
      </trkpt>
      <trkpt lat="47.27762" lon="-2.43836">
        <ele>53.799999237061</ele>
        <time>2021-12-16T10:42:41.000Z</time>
      </trkpt>
      <trkpt lat="47.27762" lon="-2.43829">
        <ele>53.799999237061</ele>
        <time>2021-12-16T10:42:42.000Z</time>
      </trkpt>
      <trkpt lat="47.27764" lon="-2.43816">
        <ele>53.799999237061</ele>
        <time>2021-12-16T10:42:44.000Z</time>
      </trkpt>
      <trkpt lat="47.27777" lon="-2.43796">
        <ele>53.799999237061</ele>
        <time>2021-12-16T10:42:48.000Z</time>
      </trkpt>
      <trkpt lat="47.27781" lon="-2.43791">
        <ele>53.799999237061</ele>
        <time>2021-12-16T10:42:49.000Z</time>
      </trkpt>
      <trkpt lat="47.27789" lon="-2.43772">
        <ele>53.799999237061</ele>
        <time>2021-12-16T10:42:52.000Z</time>
      </trkpt>
      <trkpt lat="47.27791" lon="-2.43766">
        <ele>53.799999237061</ele>
        <time>2021-12-16T10:42:53.000Z</time>
      </trkpt>
      <trkpt lat="47.27799" lon="-2.43733">
        <ele>53.799999237061</ele>
        <time>2021-12-16T10:42:58.000Z</time>
      </trkpt>
      <trkpt lat="47.27812" lon="-2.43685">
        <ele>53.799999237061</ele>
        <time>2021-12-16T10:43:05.000Z</time>
      </trkpt>
      <trkpt lat="47.27825" lon="-2.43633">
        <ele>53.799999237061</ele>
        <time>2021-12-16T10:43:12.000Z</time>
      </trkpt>
      <trkpt lat="47.27841" lon="-2.43565">
        <ele>53.799999237061</ele>
        <time>2021-12-16T10:43:21.000Z</time>
      </trkpt>
      <trkpt lat="47.27852" lon="-2.43502">
        <ele>53.799999237061</ele>
        <time>2021-12-16T10:43:29.000Z</time>
      </trkpt>
      <trkpt lat="47.27859" lon="-2.43443">
        <ele>53.799999237061</ele>
        <time>2021-12-16T10:43:37.000Z</time>
      </trkpt>
      <trkpt lat="47.27861" lon="-2.4342">
        <ele>53.799999237061</ele>
        <time>2021-12-16T10:43:40.000Z</time>
      </trkpt>
      <trkpt lat="47.27861" lon="-2.43398">
        <ele>53.799999237061</ele>
        <time>2021-12-16T10:43:43.000Z</time>
      </trkpt>
      <trkpt lat="47.27856" lon="-2.4337">
        <ele>53.799999237061</ele>
        <time>2021-12-16T10:43:47.000Z</time>
      </trkpt>
      <trkpt lat="47.27856" lon="-2.43363">
        <ele>53.799999237061</ele>
        <time>2021-12-16T10:43:48.000Z</time>
      </trkpt>
      <trkpt lat="47.27865" lon="-2.43344">
        <ele>53.799999237061</ele>
        <time>2021-12-16T10:43:51.000Z</time>
      </trkpt>
      <trkpt lat="47.27871" lon="-2.43315">
        <ele>53.799999237061</ele>
        <time>2021-12-16T10:43:55.000Z</time>
      </trkpt>
      <trkpt lat="47.2787" lon="-2.43279">
        <ele>53.799999237061</ele>
        <time>2021-12-16T10:44:00.000Z</time>
      </trkpt>
      <trkpt lat="47.27868" lon="-2.43227">
        <ele>53.799999237061</ele>
        <time>2021-12-16T10:44:07.000Z</time>
      </trkpt>
      <trkpt lat="47.27864" lon="-2.43187">
        <ele>53.799999237061</ele>
        <time>2021-12-16T10:44:13.000Z</time>
      </trkpt>
      <trkpt lat="47.27863" lon="-2.43181">
        <ele>53.799999237061</ele>
        <time>2021-12-16T10:44:14.000Z</time>
      </trkpt>
      <trkpt lat="47.27861" lon="-2.43162">
        <ele>53.799999237061</ele>
        <time>2021-12-16T10:44:17.000Z</time>
      </trkpt>
      <trkpt lat="47.27859" lon="-2.4314">
        <ele>53.799999237061</ele>
        <time>2021-12-16T10:44:20.000Z</time>
      </trkpt>
      <trkpt lat="47.27856" lon="-2.43097">
        <ele>53.799999237061</ele>
        <time>2021-12-16T10:44:26.000Z</time>
      </trkpt>
      <trkpt lat="47.27856" lon="-2.43083">
        <ele>53.799999237061</ele>
        <time>2021-12-16T10:44:28.000Z</time>
      </trkpt>
      <trkpt lat="47.2785" lon="-2.43048">
        <ele>53.799999237061</ele>
        <time>2021-12-16T10:44:33.000Z</time>
      </trkpt>
      <trkpt lat="47.27838" lon="-2.43037">
        <ele>53.799999237061</ele>
        <time>2021-12-16T10:44:36.000Z</time>
      </trkpt>
      <trkpt lat="47.27834" lon="-2.43034">
        <ele>53.799999237061</ele>
        <time>2021-12-16T10:44:37.000Z</time>
      </trkpt>
      <trkpt lat="47.27814" lon="-2.43016">
        <ele>53.799999237061</ele>
        <time>2021-12-16T10:44:43.000Z</time>
      </trkpt>
      <trkpt lat="47.27813" lon="-2.42996">
        <ele>53.799999237061</ele>
        <time>2021-12-16T10:44:46.000Z</time>
      </trkpt>
      <trkpt lat="47.27813" lon="-2.42982">
        <ele>53.799999237061</ele>
        <time>2021-12-16T10:44:48.000Z</time>
      </trkpt>
      <trkpt lat="47.27812" lon="-2.42975">
        <ele>53.799999237061</ele>
        <time>2021-12-16T10:44:49.000Z</time>
      </trkpt>
      <trkpt lat="47.27808" lon="-2.42941">
        <ele>53.799999237061</ele>
        <time>2021-12-16T10:44:54.000Z</time>
      </trkpt>
      <trkpt lat="47.27805" lon="-2.42928">
        <ele>53.799999237061</ele>
        <time>2021-12-16T10:44:56.000Z</time>
      </trkpt>
      <trkpt lat="47.27796" lon="-2.42877">
        <ele>53.799999237061</ele>
        <time>2021-12-16T10:45:04.000Z</time>
      </trkpt>
      <trkpt lat="47.27796" lon="-2.42871">
        <ele>53.799999237061</ele>
        <time>2021-12-16T10:45:05.000Z</time>
      </trkpt>
      <trkpt lat="47.27798" lon="-2.42847">
        <ele>53.799999237061</ele>
        <time>2021-12-16T10:45:09.000Z</time>
      </trkpt>
      <trkpt lat="47.27805" lon="-2.4282">
        <ele>53.799999237061</ele>
        <time>2021-12-16T10:45:15.000Z</time>
      </trkpt>
      <trkpt lat="47.27823" lon="-2.42815">
        <ele>53.799999237061</ele>
        <time>2021-12-16T10:45:20.000Z</time>
      </trkpt>
      <trkpt lat="47.27825" lon="-2.42811">
        <ele>53.799999237061</ele>
        <time>2021-12-16T10:45:21.000Z</time>
      </trkpt>
      <trkpt lat="47.27827" lon="-2.42802">
        <ele>53.799999237061</ele>
        <time>2021-12-16T10:45:23.000Z</time>
      </trkpt>
      <trkpt lat="47.27827" lon="-2.42786">
        <ele>53.799999237061</ele>
        <time>2021-12-16T10:45:26.000Z</time>
      </trkpt>
      <trkpt lat="47.27826" lon="-2.42775">
        <ele>53.799999237061</ele>
        <time>2021-12-16T10:45:28.000Z</time>
      </trkpt>
      <trkpt lat="47.27826" lon="-2.42769">
        <ele>53.799999237061</ele>
        <time>2021-12-16T10:45:29.000Z</time>
      </trkpt>
      <trkpt lat="47.27828" lon="-2.42747">
        <ele>53.799999237061</ele>
        <time>2021-12-16T10:45:32.000Z</time>
      </trkpt>
      <trkpt lat="47.2783" lon="-2.42725">
        <ele>53.799999237061</ele>
        <time>2021-12-16T10:45:35.000Z</time>
      </trkpt>
      <trkpt lat="47.27833" lon="-2.42721">
        <ele>53.799999237061</ele>
        <time>2021-12-16T10:45:36.000Z</time>
      </trkpt>
      <trkpt lat="47.27849" lon="-2.42715">
        <ele>53.799999237061</ele>
        <time>2021-12-16T10:45:39.000Z</time>
      </trkpt>
      <trkpt lat="47.27877" lon="-2.42705">
        <ele>53.799999237061</ele>
        <time>2021-12-16T10:45:44.000Z</time>
      </trkpt>
      <trkpt lat="47.27897" lon="-2.42691">
        <ele>53.799999237061</ele>
        <time>2021-12-16T10:45:48.000Z</time>
      </trkpt>
      <trkpt lat="47.27904" lon="-2.42683">
        <ele>53.799999237061</ele>
        <time>2021-12-16T10:45:50.000Z</time>
      </trkpt>
      <trkpt lat="47.27915" lon="-2.42679">
        <ele>53.799999237061</ele>
        <time>2021-12-16T10:45:53.000Z</time>
      </trkpt>
      <trkpt lat="47.27924" lon="-2.42674">
        <ele>53.799999237061</ele>
        <time>2021-12-16T10:45:56.000Z</time>
      </trkpt>
      <trkpt lat="47.27932" lon="-2.42669">
        <ele>53.799999237061</ele>
        <time>2021-12-16T10:45:58.000Z</time>
      </trkpt>
      <trkpt lat="47.27957" lon="-2.42652">
        <ele>53.799999237061</ele>
        <time>2021-12-16T10:46:04.000Z</time>
      </trkpt>
      <trkpt lat="47.27967" lon="-2.42646">
        <ele>53.799999237061</ele>
        <time>2021-12-16T10:46:06.000Z</time>
      </trkpt>
      <trkpt lat="47.27987" lon="-2.42641">
        <ele>53.799999237061</ele>
        <time>2021-12-16T10:46:10.000Z</time>
      </trkpt>
      <trkpt lat="47.28008" lon="-2.42631">
        <ele>53.799999237061</ele>
        <time>2021-12-16T10:46:14.000Z</time>
      </trkpt>
      <trkpt lat="47.28013" lon="-2.42627">
        <ele>53.799999237061</ele>
        <time>2021-12-16T10:46:15.000Z</time>
      </trkpt>
      <trkpt lat="47.28036" lon="-2.42604">
        <ele>53.799999237061</ele>
        <time>2021-12-16T10:46:20.000Z</time>
      </trkpt>
      <trkpt lat="47.28041" lon="-2.426">
        <ele>53.799999237061</ele>
        <time>2021-12-16T10:46:21.000Z</time>
      </trkpt>
      <trkpt lat="47.2805" lon="-2.42595">
        <ele>53.799999237061</ele>
        <time>2021-12-16T10:46:23.000Z</time>
      </trkpt>
      <trkpt lat="47.28064" lon="-2.42588">
        <ele>53.799999237061</ele>
        <time>2021-12-16T10:46:26.000Z</time>
      </trkpt>
      <trkpt lat="47.28078" lon="-2.42571">
        <ele>53.799999237061</ele>
        <time>2021-12-16T10:46:30.000Z</time>
      </trkpt>
      <trkpt lat="47.28086" lon="-2.42553">
        <ele>53.799999237061</ele>
        <time>2021-12-16T10:46:35.000Z</time>
      </trkpt>
      <trkpt lat="47.28096" lon="-2.42543">
        <ele>53.799999237061</ele>
        <time>2021-12-16T10:46:39.000Z</time>
      </trkpt>
      <trkpt lat="47.28105" lon="-2.4254">
        <ele>53.799999237061</ele>
        <time>2021-12-16T10:46:41.000Z</time>
      </trkpt>
      <trkpt lat="47.28113" lon="-2.42538">
        <ele>53.799999237061</ele>
        <time>2021-12-16T10:46:43.000Z</time>
      </trkpt>
      <trkpt lat="47.28118" lon="-2.42536">
        <ele>53.799999237061</ele>
        <time>2021-12-16T10:46:44.000Z</time>
      </trkpt>
      <trkpt lat="47.28156" lon="-2.42528">
        <ele>53.799999237061</ele>
        <time>2021-12-16T10:46:51.000Z</time>
      </trkpt>
      <trkpt lat="47.28183" lon="-2.42525">
        <ele>53.799999237061</ele>
        <time>2021-12-16T10:46:56.000Z</time>
      </trkpt>
      <trkpt lat="47.28188" lon="-2.42526">
        <ele>53.799999237061</ele>
        <time>2021-12-16T10:46:57.000Z</time>
      </trkpt>
      <trkpt lat="47.282" lon="-2.42523">
        <ele>53.799999237061</ele>
        <time>2021-12-16T10:47:00.000Z</time>
      </trkpt>
      <trkpt lat="47.28209" lon="-2.42508">
        <ele>53.799999237061</ele>
        <time>2021-12-16T10:47:03.000Z</time>
      </trkpt>
      <trkpt lat="47.28213" lon="-2.42503">
        <ele>53.799999237061</ele>
        <time>2021-12-16T10:47:04.000Z</time>
      </trkpt>
      <trkpt lat="47.28235" lon="-2.42468">
        <ele>53.799999237061</ele>
        <time>2021-12-16T10:47:10.000Z</time>
      </trkpt>
      <trkpt lat="47.28254" lon="-2.4242">
        <ele>53.799999237061</ele>
        <time>2021-12-16T10:47:17.000Z</time>
      </trkpt>
      <trkpt lat="47.28258" lon="-2.42405">
        <ele>53.799999237061</ele>
        <time>2021-12-16T10:47:19.000Z</time>
      </trkpt>
      <trkpt lat="47.28262" lon="-2.42376">
        <ele>53.799999237061</ele>
        <time>2021-12-16T10:47:23.000Z</time>
      </trkpt>
      <trkpt lat="47.28268" lon="-2.42332">
        <ele>53.799999237061</ele>
        <time>2021-12-16T10:47:29.000Z</time>
      </trkpt>
      <trkpt lat="47.28268" lon="-2.42325">
        <ele>53.799999237061</ele>
        <time>2021-12-16T10:47:30.000Z</time>
      </trkpt>
      <trkpt lat="47.28271" lon="-2.42274">
        <ele>53.799999237061</ele>
        <time>2021-12-16T10:47:37.000Z</time>
      </trkpt>
      <trkpt lat="47.28277" lon="-2.42238">
        <ele>53.799999237061</ele>
        <time>2021-12-16T10:47:42.000Z</time>
      </trkpt>
      <trkpt lat="47.28279" lon="-2.42224">
        <ele>53.799999237061</ele>
        <time>2021-12-16T10:47:44.000Z</time>
      </trkpt>
      <trkpt lat="47.28281" lon="-2.42217">
        <ele>53.799999237061</ele>
        <time>2021-12-16T10:47:45.000Z</time>
      </trkpt>
      <trkpt lat="47.2829" lon="-2.42158">
        <ele>53.799999237061</ele>
        <time>2021-12-16T10:47:53.000Z</time>
      </trkpt>
      <trkpt lat="47.283" lon="-2.42091">
        <ele>53.799999237061</ele>
        <time>2021-12-16T10:48:02.000Z</time>
      </trkpt>
      <trkpt lat="47.28308" lon="-2.4204">
        <ele>53.799999237061</ele>
        <time>2021-12-16T10:48:09.000Z</time>
      </trkpt>
      <trkpt lat="47.28317" lon="-2.41991">
        <ele>53.799999237061</ele>
        <time>2021-12-16T10:48:16.000Z</time>
      </trkpt>
      <trkpt lat="47.2833" lon="-2.41943">
        <ele>53.799999237061</ele>
        <time>2021-12-16T10:48:23.000Z</time>
      </trkpt>
      <trkpt lat="47.28346" lon="-2.41877">
        <ele>53.799999237061</ele>
        <time>2021-12-16T10:48:32.000Z</time>
      </trkpt>
      <trkpt lat="47.28361" lon="-2.4181">
        <ele>53.799999237061</ele>
        <time>2021-12-16T10:48:41.000Z</time>
      </trkpt>
      <trkpt lat="47.28375" lon="-2.41749">
        <ele>53.799999237061</ele>
        <time>2021-12-16T10:48:49.000Z</time>
      </trkpt>
      <trkpt lat="47.28391" lon="-2.41687">
        <ele>53.799999237061</ele>
        <time>2021-12-16T10:48:57.000Z</time>
      </trkpt>
      <trkpt lat="47.284" lon="-2.4164">
        <ele>53.799999237061</ele>
        <time>2021-12-16T10:49:03.000Z</time>
      </trkpt>
      <trkpt lat="47.28406" lon="-2.41587">
        <ele>53.799999237061</ele>
        <time>2021-12-16T10:49:10.000Z</time>
      </trkpt>
      <trkpt lat="47.28412" lon="-2.41527">
        <ele>53.799999237061</ele>
        <time>2021-12-16T10:49:18.000Z</time>
      </trkpt>
      <trkpt lat="47.28418" lon="-2.41456">
        <ele>53.799999237061</ele>
        <time>2021-12-16T10:49:27.000Z</time>
      </trkpt>
      <trkpt lat="47.28428" lon="-2.41403">
        <ele>53.799999237061</ele>
        <time>2021-12-16T10:49:34.000Z</time>
      </trkpt>
      <trkpt lat="47.28429" lon="-2.41396">
        <ele>53.799999237061</ele>
        <time>2021-12-16T10:49:35.000Z</time>
      </trkpt>
      <trkpt lat="47.2844" lon="-2.41359">
        <ele>53.799999237061</ele>
        <time>2021-12-16T10:49:40.000Z</time>
      </trkpt>
      <trkpt lat="47.28452" lon="-2.41308">
        <ele>53.799999237061</ele>
        <time>2021-12-16T10:49:47.000Z</time>
      </trkpt>
      <trkpt lat="47.28456" lon="-2.41276">
        <ele>53.799999237061</ele>
        <time>2021-12-16T10:49:52.000Z</time>
      </trkpt>
      <trkpt lat="47.28456" lon="-2.4127">
        <ele>53.799999237061</ele>
        <time>2021-12-16T10:49:53.000Z</time>
      </trkpt>
      <trkpt lat="47.28463" lon="-2.41254">
        <ele>53.799999237061</ele>
        <time>2021-12-16T10:49:57.000Z</time>
      </trkpt>
      <trkpt lat="47.28479" lon="-2.41254">
        <ele>53.799999237061</ele>
        <time>2021-12-16T10:50:01.000Z</time>
      </trkpt>
      <trkpt lat="47.28491" lon="-2.41238">
        <ele>53.799999237061</ele>
        <time>2021-12-16T10:50:05.000Z</time>
      </trkpt>
      <trkpt lat="47.28495" lon="-2.4122">
        <ele>53.799999237061</ele>
        <time>2021-12-16T10:50:08.000Z</time>
      </trkpt>
      <trkpt lat="47.28497" lon="-2.41215">
        <ele>53.799999237061</ele>
        <time>2021-12-16T10:50:09.000Z</time>
      </trkpt>
      <trkpt lat="47.28512" lon="-2.41201">
        <ele>53.799999237061</ele>
        <time>2021-12-16T10:50:14.000Z</time>
      </trkpt>
      <trkpt lat="47.28531" lon="-2.41199">
        <ele>53.799999237061</ele>
        <time>2021-12-16T10:50:18.000Z</time>
      </trkpt>
      <trkpt lat="47.2856" lon="-2.41204">
        <ele>53.799999237061</ele>
        <time>2021-12-16T10:50:23.000Z</time>
      </trkpt>
      <trkpt lat="47.28581" lon="-2.41208">
        <ele>53.400001525879</ele>
        <time>2021-12-16T10:50:26.000Z</time>
      </trkpt>
      <trkpt lat="47.28588" lon="-2.4121">
        <ele>53</ele>
        <time>2021-12-16T10:50:27.000Z</time>
      </trkpt>
      <trkpt lat="47.28596" lon="-2.41211">
        <ele>52.599998474121</ele>
        <time>2021-12-16T10:50:28.000Z</time>
      </trkpt>
      <trkpt lat="47.28603" lon="-2.41212">
        <ele>52.200000762939</ele>
        <time>2021-12-16T10:50:29.000Z</time>
      </trkpt>
      <trkpt lat="47.2861" lon="-2.41213">
        <ele>51.799999237061</ele>
        <time>2021-12-16T10:50:30.000Z</time>
      </trkpt>
      <trkpt lat="47.28641" lon="-2.4122">
        <ele>51.799999237061</ele>
        <time>2021-12-16T10:50:35.000Z</time>
      </trkpt>
      <trkpt lat="47.28676" lon="-2.41227">
        <ele>51.799999237061</ele>
        <time>2021-12-16T10:50:42.000Z</time>
      </trkpt>
      <trkpt lat="47.28705" lon="-2.41235">
        <ele>52.200000762939</ele>
        <time>2021-12-16T10:50:48.000Z</time>
      </trkpt>
      <trkpt lat="47.28709" lon="-2.41237">
        <ele>52.599998474121</ele>
        <time>2021-12-16T10:50:49.000Z</time>
      </trkpt>
      <trkpt lat="47.28713" lon="-2.41238">
        <ele>53</ele>
        <time>2021-12-16T10:50:50.000Z</time>
      </trkpt>
      <trkpt lat="47.28718" lon="-2.4124">
        <ele>53.400001525879</ele>
        <time>2021-12-16T10:50:51.000Z</time>
      </trkpt>
      <trkpt lat="47.28722" lon="-2.41241">
        <ele>54</ele>
        <time>2021-12-16T10:50:52.000Z</time>
      </trkpt>
      <trkpt lat="47.28735" lon="-2.41248">
        <ele>54</ele>
        <time>2021-12-16T10:50:55.000Z</time>
      </trkpt>
      <trkpt lat="47.28742" lon="-2.41255">
        <ele>54</ele>
        <time>2021-12-16T10:50:57.000Z</time>
      </trkpt>
      <trkpt lat="47.28751" lon="-2.41269">
        <ele>54</ele>
        <time>2021-12-16T10:51:00.000Z</time>
      </trkpt>
      <trkpt lat="47.28763" lon="-2.41274">
        <ele>54</ele>
        <time>2021-12-16T10:51:03.000Z</time>
      </trkpt>
      <trkpt lat="47.28774" lon="-2.41264">
        <ele>54.400001525879</ele>
        <time>2021-12-16T10:51:06.000Z</time>
      </trkpt>
      <trkpt lat="47.28777" lon="-2.41259">
        <ele>54.799999237061</ele>
        <time>2021-12-16T10:51:07.000Z</time>
      </trkpt>
      <trkpt lat="47.28779" lon="-2.41252">
        <ele>55.200000762939</ele>
        <time>2021-12-16T10:51:08.000Z</time>
      </trkpt>
      <trkpt lat="47.2878" lon="-2.41246">
        <ele>55.599998474121</ele>
        <time>2021-12-16T10:51:09.000Z</time>
      </trkpt>
      <trkpt lat="47.28781" lon="-2.41239">
        <ele>56</ele>
        <time>2021-12-16T10:51:10.000Z</time>
      </trkpt>
      <trkpt lat="47.28775" lon="-2.41219">
        <ele>56</ele>
        <time>2021-12-16T10:51:13.000Z</time>
      </trkpt>
      <trkpt lat="47.28771" lon="-2.4119">
        <ele>56</ele>
        <time>2021-12-16T10:51:17.000Z</time>
      </trkpt>
      <trkpt lat="47.28768" lon="-2.41175">
        <ele>56</ele>
        <time>2021-12-16T10:51:19.000Z</time>
      </trkpt>
      <trkpt lat="47.28762" lon="-2.41154">
        <ele>56</ele>
        <time>2021-12-16T10:51:22.000Z</time>
      </trkpt>
      <trkpt lat="47.28749" lon="-2.41102">
        <ele>56</ele>
        <time>2021-12-16T10:51:29.000Z</time>
      </trkpt>
      <trkpt lat="47.28732" lon="-2.41042">
        <ele>56</ele>
        <time>2021-12-16T10:51:38.000Z</time>
      </trkpt>
      <trkpt lat="47.28718" lon="-2.40989">
        <ele>56</ele>
        <time>2021-12-16T10:51:45.000Z</time>
      </trkpt>
      <trkpt lat="47.28707" lon="-2.40927">
        <ele>56</ele>
        <time>2021-12-16T10:51:53.000Z</time>
      </trkpt>
      <trkpt lat="47.28707" lon="-2.40871">
        <ele>56</ele>
        <time>2021-12-16T10:52:00.000Z</time>
      </trkpt>
      <trkpt lat="47.28713" lon="-2.40825">
        <ele>56</ele>
        <time>2021-12-16T10:52:06.000Z</time>
      </trkpt>
      <trkpt lat="47.2873" lon="-2.40779">
        <ele>56</ele>
        <time>2021-12-16T10:52:13.000Z</time>
      </trkpt>
      <trkpt lat="47.28733" lon="-2.40772">
        <ele>55.599998474121</ele>
        <time>2021-12-16T10:52:14.000Z</time>
      </trkpt>
      <trkpt lat="47.28736" lon="-2.40766">
        <ele>55.200000762939</ele>
        <time>2021-12-16T10:52:15.000Z</time>
      </trkpt>
      <trkpt lat="47.2874" lon="-2.40759">
        <ele>54.799999237061</ele>
        <time>2021-12-16T10:52:16.000Z</time>
      </trkpt>
      <trkpt lat="47.28743" lon="-2.40754">
        <ele>53.799999237061</ele>
        <time>2021-12-16T10:52:17.000Z</time>
      </trkpt>
      <trkpt lat="47.28751" lon="-2.40741">
        <ele>53.799999237061</ele>
        <time>2021-12-16T10:52:19.000Z</time>
      </trkpt>
      <trkpt lat="47.28777" lon="-2.40709">
        <ele>53.799999237061</ele>
        <time>2021-12-16T10:52:25.000Z</time>
      </trkpt>
      <trkpt lat="47.28782" lon="-2.40704">
        <ele>53.799999237061</ele>
        <time>2021-12-16T10:52:26.000Z</time>
      </trkpt>
      <trkpt lat="47.28819" lon="-2.40669">
        <ele>53.799999237061</ele>
        <time>2021-12-16T10:52:34.000Z</time>
      </trkpt>
      <trkpt lat="47.28849" lon="-2.40647">
        <ele>53.799999237061</ele>
        <time>2021-12-16T10:52:40.000Z</time>
      </trkpt>
      <trkpt lat="47.28892" lon="-2.4062">
        <ele>53.799999237061</ele>
        <time>2021-12-16T10:52:48.000Z</time>
      </trkpt>
      <trkpt lat="47.28936" lon="-2.40592">
        <ele>53.799999237061</ele>
        <time>2021-12-16T10:52:56.000Z</time>
      </trkpt>
      <trkpt lat="47.28979" lon="-2.4056">
        <ele>53.799999237061</ele>
        <time>2021-12-16T10:53:04.000Z</time>
      </trkpt>
      <trkpt lat="47.29013" lon="-2.40525">
        <ele>53.799999237061</ele>
        <time>2021-12-16T10:53:11.000Z</time>
      </trkpt>
      <trkpt lat="47.29048" lon="-2.40477">
        <ele>53.799999237061</ele>
        <time>2021-12-16T10:53:19.000Z</time>
      </trkpt>
      <trkpt lat="47.29074" lon="-2.40427">
        <ele>53.799999237061</ele>
        <time>2021-12-16T10:53:26.000Z</time>
      </trkpt>
      <trkpt lat="47.291" lon="-2.40371">
        <ele>53.799999237061</ele>
        <time>2021-12-16T10:53:34.000Z</time>
      </trkpt>
      <trkpt lat="47.29127" lon="-2.40317">
        <ele>53.799999237061</ele>
        <time>2021-12-16T10:53:42.000Z</time>
      </trkpt>
      <trkpt lat="47.29149" lon="-2.40269">
        <ele>53.799999237061</ele>
        <time>2021-12-16T10:53:49.000Z</time>
      </trkpt>
      <trkpt lat="47.29173" lon="-2.40218">
        <ele>53.799999237061</ele>
        <time>2021-12-16T10:53:56.000Z</time>
      </trkpt>
      <trkpt lat="47.29205" lon="-2.40153">
        <ele>53.799999237061</ele>
        <time>2021-12-16T10:54:05.000Z</time>
      </trkpt>
      <trkpt lat="47.29235" lon="-2.40089">
        <ele>53.799999237061</ele>
        <time>2021-12-16T10:54:14.000Z</time>
      </trkpt>
      <trkpt lat="47.29264" lon="-2.40028">
        <ele>53.799999237061</ele>
        <time>2021-12-16T10:54:23.000Z</time>
      </trkpt>
      <trkpt lat="47.29286" lon="-2.39982">
        <ele>53.799999237061</ele>
        <time>2021-12-16T10:54:30.000Z</time>
      </trkpt>
      <trkpt lat="47.29316" lon="-2.39929">
        <ele>53.799999237061</ele>
        <time>2021-12-16T10:54:39.000Z</time>
      </trkpt>
      <trkpt lat="47.29345" lon="-2.39894">
        <ele>53.799999237061</ele>
        <time>2021-12-16T10:54:46.000Z</time>
      </trkpt>
      <trkpt lat="47.29378" lon="-2.39862">
        <ele>53.799999237061</ele>
        <time>2021-12-16T10:54:54.000Z</time>
      </trkpt>
      <trkpt lat="47.29394" lon="-2.39851">
        <ele>53.799999237061</ele>
        <time>2021-12-16T10:54:58.000Z</time>
      </trkpt>
      <trkpt lat="47.29401" lon="-2.39846">
        <ele>53.799999237061</ele>
        <time>2021-12-16T10:55:00.000Z</time>
      </trkpt>
      <trkpt lat="47.29412" lon="-2.39843">
        <ele>53.799999237061</ele>
        <time>2021-12-16T10:55:03.000Z</time>
      </trkpt>
      <trkpt lat="47.29415" lon="-2.39837">
        <ele>53.799999237061</ele>
        <time>2021-12-16T10:55:05.000Z</time>
      </trkpt>
      <trkpt lat="47.29412" lon="-2.39822">
        <ele>53.799999237061</ele>
        <time>2021-12-16T10:55:08.000Z</time>
      </trkpt>
      <trkpt lat="47.2941" lon="-2.39817">
        <ele>53.799999237061</ele>
        <time>2021-12-16T10:55:09.000Z</time>
      </trkpt>
      <trkpt lat="47.29409" lon="-2.39812">
        <ele>53.799999237061</ele>
        <time>2021-12-16T10:55:10.000Z</time>
      </trkpt>
      <trkpt lat="47.29409" lon="-2.39792">
        <ele>53.799999237061</ele>
        <time>2021-12-16T10:55:13.000Z</time>
      </trkpt>
      <trkpt lat="47.29402" lon="-2.39766">
        <ele>53.799999237061</ele>
        <time>2021-12-16T10:55:17.000Z</time>
      </trkpt>
      <trkpt lat="47.29387" lon="-2.3974">
        <ele>53.799999237061</ele>
        <time>2021-12-16T10:55:22.000Z</time>
      </trkpt>
      <trkpt lat="47.29383" lon="-2.39735">
        <ele>53.799999237061</ele>
        <time>2021-12-16T10:55:23.000Z</time>
      </trkpt>
      <trkpt lat="47.2936" lon="-2.39708">
        <ele>53.799999237061</ele>
        <time>2021-12-16T10:55:29.000Z</time>
      </trkpt>
      <trkpt lat="47.29328" lon="-2.39673">
        <ele>53.799999237061</ele>
        <time>2021-12-16T10:55:37.000Z</time>
      </trkpt>
      <trkpt lat="47.29324" lon="-2.3967">
        <ele>53.799999237061</ele>
        <time>2021-12-16T10:55:38.000Z</time>
      </trkpt>
      <trkpt lat="47.29303" lon="-2.3965">
        <ele>53.799999237061</ele>
        <time>2021-12-16T10:55:43.000Z</time>
      </trkpt>
      <trkpt lat="47.29263" lon="-2.39619">
        <ele>53.799999237061</ele>
        <time>2021-12-16T10:55:52.000Z</time>
      </trkpt>
      <trkpt lat="47.29228" lon="-2.39595">
        <ele>53.799999237061</ele>
        <time>2021-12-16T10:55:59.000Z</time>
      </trkpt>
      <trkpt lat="47.29176" lon="-2.39565">
        <ele>53.799999237061</ele>
        <time>2021-12-16T10:56:09.000Z</time>
      </trkpt>
      <trkpt lat="47.29153" lon="-2.39552">
        <ele>53.799999237061</ele>
        <time>2021-12-16T10:56:14.000Z</time>
      </trkpt>
      <trkpt lat="47.29148" lon="-2.3955">
        <ele>53.799999237061</ele>
        <time>2021-12-16T10:56:15.000Z</time>
      </trkpt>
      <trkpt lat="47.2913" lon="-2.39543">
        <ele>53.799999237061</ele>
        <time>2021-12-16T10:56:19.000Z</time>
      </trkpt>
      <trkpt lat="47.2912" lon="-2.39543">
        <ele>53.799999237061</ele>
        <time>2021-12-16T10:56:21.000Z</time>
      </trkpt>
      <trkpt lat="47.29111" lon="-2.3953">
        <ele>53.799999237061</ele>
        <time>2021-12-16T10:56:24.000Z</time>
      </trkpt>
      <trkpt lat="47.29113" lon="-2.39515">
        <ele>53.799999237061</ele>
        <time>2021-12-16T10:56:27.000Z</time>
      </trkpt>
      <trkpt lat="47.29119" lon="-2.39507">
        <ele>53.799999237061</ele>
        <time>2021-12-16T10:56:29.000Z</time>
      </trkpt>
      <trkpt lat="47.29125" lon="-2.39496">
        <ele>53.799999237061</ele>
        <time>2021-12-16T10:56:31.000Z</time>
      </trkpt>
      <trkpt lat="47.29131" lon="-2.39475">
        <ele>53.799999237061</ele>
        <time>2021-12-16T10:56:34.000Z</time>
      </trkpt>
      <trkpt lat="47.29134" lon="-2.3946">
        <ele>53.799999237061</ele>
        <time>2021-12-16T10:56:36.000Z</time>
      </trkpt>
      <trkpt lat="47.29136" lon="-2.39445">
        <ele>53.799999237061</ele>
        <time>2021-12-16T10:56:38.000Z</time>
      </trkpt>
      <trkpt lat="47.29136" lon="-2.39421">
        <ele>53.799999237061</ele>
        <time>2021-12-16T10:56:41.000Z</time>
      </trkpt>
      <trkpt lat="47.29134" lon="-2.39374">
        <ele>53.799999237061</ele>
        <time>2021-12-16T10:56:47.000Z</time>
      </trkpt>
      <trkpt lat="47.2913" lon="-2.39369">
        <ele>53.799999237061</ele>
        <time>2021-12-16T10:56:48.000Z</time>
      </trkpt>
      <trkpt lat="47.29118" lon="-2.39367">
        <ele>53.799999237061</ele>
        <time>2021-12-16T10:56:51.000Z</time>
      </trkpt>
      <trkpt lat="47.29111" lon="-2.39373">
        <ele>53.799999237061</ele>
        <time>2021-12-16T10:56:53.000Z</time>
      </trkpt>
      <trkpt lat="47.29107" lon="-2.39376">
        <ele>54.200000762939</ele>
        <time>2021-12-16T10:56:54.000Z</time>
      </trkpt>
      <trkpt lat="47.29104" lon="-2.39377">
        <ele>54.599998474121</ele>
        <time>2021-12-16T10:56:55.000Z</time>
      </trkpt>
      <trkpt lat="47.291" lon="-2.39378">
        <ele>55.200000762939</ele>
        <time>2021-12-16T10:56:56.000Z</time>
      </trkpt>
      <trkpt lat="47.29096" lon="-2.39378">
        <ele>55.599998474121</ele>
        <time>2021-12-16T10:56:57.000Z</time>
      </trkpt>
      <trkpt lat="47.29093" lon="-2.39375">
        <ele>56</ele>
        <time>2021-12-16T10:56:58.000Z</time>
      </trkpt>
      <trkpt lat="47.29089" lon="-2.39372">
        <ele>56</ele>
        <time>2021-12-16T10:56:59.000Z</time>
      </trkpt>
      <trkpt lat="47.29072" lon="-2.39356">
        <ele>56</ele>
        <time>2021-12-16T10:57:03.000Z</time>
      </trkpt>
      <trkpt lat="47.29067" lon="-2.39353">
        <ele>56</ele>
        <time>2021-12-16T10:57:04.000Z</time>
      </trkpt>
      <trkpt lat="47.29029" lon="-2.39335">
        <ele>56</ele>
        <time>2021-12-16T10:57:10.000Z</time>
      </trkpt>
      <trkpt lat="47.28989" lon="-2.39319">
        <ele>56</ele>
        <time>2021-12-16T10:57:17.000Z</time>
      </trkpt>
      <trkpt lat="47.28984" lon="-2.39318">
        <ele>55.599998474121</ele>
        <time>2021-12-16T10:57:18.000Z</time>
      </trkpt>
      <trkpt lat="47.2898" lon="-2.39317">
        <ele>55.200000762939</ele>
        <time>2021-12-16T10:57:19.000Z</time>
      </trkpt>
      <trkpt lat="47.28974" lon="-2.39318">
        <ele>54.799999237061</ele>
        <time>2021-12-16T10:57:20.000Z</time>
      </trkpt>
      <trkpt lat="47.28969" lon="-2.39318">
        <ele>54.400001525879</ele>
        <time>2021-12-16T10:57:21.000Z</time>
      </trkpt>
      <trkpt lat="47.28964" lon="-2.39319">
        <ele>54</ele>
        <time>2021-12-16T10:57:22.000Z</time>
      </trkpt>
      <trkpt lat="47.28954" lon="-2.39318">
        <ele>54</ele>
        <time>2021-12-16T10:57:24.000Z</time>
      </trkpt>
      <trkpt lat="47.28947" lon="-2.3931">
        <ele>54</ele>
        <time>2021-12-16T10:57:26.000Z</time>
      </trkpt>
      <trkpt lat="47.2894" lon="-2.39282">
        <ele>54</ele>
        <time>2021-12-16T10:57:30.000Z</time>
      </trkpt>
      <trkpt lat="47.28939" lon="-2.39275">
        <ele>54</ele>
        <time>2021-12-16T10:57:31.000Z</time>
      </trkpt>
      <trkpt lat="47.28936" lon="-2.39254">
        <ele>54</ele>
        <time>2021-12-16T10:57:34.000Z</time>
      </trkpt>
      <trkpt lat="47.28935" lon="-2.39231">
        <ele>54</ele>
        <time>2021-12-16T10:57:37.000Z</time>
      </trkpt>
      <trkpt lat="47.28935" lon="-2.39216">
        <ele>54.400001525879</ele>
        <time>2021-12-16T10:57:39.000Z</time>
      </trkpt>
      <trkpt lat="47.28934" lon="-2.39209">
        <ele>54.799999237061</ele>
        <time>2021-12-16T10:57:40.000Z</time>
      </trkpt>
      <trkpt lat="47.28934" lon="-2.39202">
        <ele>55.200000762939</ele>
        <time>2021-12-16T10:57:41.000Z</time>
      </trkpt>
      <trkpt lat="47.28934" lon="-2.39195">
        <ele>55.599998474121</ele>
        <time>2021-12-16T10:57:42.000Z</time>
      </trkpt>
      <trkpt lat="47.28934" lon="-2.39188">
        <ele>56.200000762939</ele>
        <time>2021-12-16T10:57:43.000Z</time>
      </trkpt>
      <trkpt lat="47.28933" lon="-2.39173">
        <ele>56.200000762939</ele>
        <time>2021-12-16T10:57:45.000Z</time>
      </trkpt>
      <trkpt lat="47.28937" lon="-2.3913">
        <ele>56.200000762939</ele>
        <time>2021-12-16T10:57:51.000Z</time>
      </trkpt>
      <trkpt lat="47.28945" lon="-2.39073">
        <ele>56.200000762939</ele>
        <time>2021-12-16T10:57:59.000Z</time>
      </trkpt>
      <trkpt lat="47.28951" lon="-2.39014">
        <ele>56.200000762939</ele>
        <time>2021-12-16T10:58:07.000Z</time>
      </trkpt>
      <trkpt lat="47.28955" lon="-2.38946">
        <ele>56.200000762939</ele>
        <time>2021-12-16T10:58:16.000Z</time>
      </trkpt>
      <trkpt lat="47.28958" lon="-2.38884">
        <ele>56.200000762939</ele>
        <time>2021-12-16T10:58:24.000Z</time>
      </trkpt>
      <trkpt lat="47.28961" lon="-2.38821">
        <ele>56.200000762939</ele>
        <time>2021-12-16T10:58:32.000Z</time>
      </trkpt>
      <trkpt lat="47.28959" lon="-2.38752">
        <ele>56.200000762939</ele>
        <time>2021-12-16T10:58:41.000Z</time>
      </trkpt>
      <trkpt lat="47.28958" lon="-2.3867">
        <ele>56.200000762939</ele>
        <time>2021-12-16T10:58:52.000Z</time>
      </trkpt>
      <trkpt lat="47.28957" lon="-2.38602">
        <ele>56.200000762939</ele>
        <time>2021-12-16T10:59:01.000Z</time>
      </trkpt>
      <trkpt lat="47.28952" lon="-2.38541">
        <ele>56.200000762939</ele>
        <time>2021-12-16T10:59:09.000Z</time>
      </trkpt>
      <trkpt lat="47.28946" lon="-2.38481">
        <ele>56.200000762939</ele>
        <time>2021-12-16T10:59:17.000Z</time>
      </trkpt>
      <trkpt lat="47.28943" lon="-2.38429">
        <ele>56.200000762939</ele>
        <time>2021-12-16T10:59:24.000Z</time>
      </trkpt>
      <trkpt lat="47.28936" lon="-2.38352">
        <ele>56.200000762939</ele>
        <time>2021-12-16T10:59:34.000Z</time>
      </trkpt>
      <trkpt lat="47.28934" lon="-2.38289">
        <ele>56.200000762939</ele>
        <time>2021-12-16T10:59:42.000Z</time>
      </trkpt>
      <trkpt lat="47.28935" lon="-2.38274">
        <ele>56.200000762939</ele>
        <time>2021-12-16T10:59:44.000Z</time>
      </trkpt>
      <trkpt lat="47.28937" lon="-2.38242">
        <ele>56.200000762939</ele>
        <time>2021-12-16T10:59:48.000Z</time>
      </trkpt>
      <trkpt lat="47.28936" lon="-2.38235">
        <ele>56.200000762939</ele>
        <time>2021-12-16T10:59:49.000Z</time>
      </trkpt>
      <trkpt lat="47.28928" lon="-2.38225">
        <ele>56.200000762939</ele>
        <time>2021-12-16T10:59:51.000Z</time>
      </trkpt>
      <trkpt lat="47.28916" lon="-2.38215">
        <ele>56.200000762939</ele>
        <time>2021-12-16T10:59:54.000Z</time>
      </trkpt>
      <trkpt lat="47.28912" lon="-2.38212">
        <ele>56.200000762939</ele>
        <time>2021-12-16T10:59:55.000Z</time>
      </trkpt>
      <trkpt lat="47.28908" lon="-2.38208">
        <ele>56.200000762939</ele>
        <time>2021-12-16T10:59:56.000Z</time>
      </trkpt>
      <trkpt lat="47.28899" lon="-2.38195">
        <ele>56.200000762939</ele>
        <time>2021-12-16T10:59:59.000Z</time>
      </trkpt>
      <trkpt lat="47.28898" lon="-2.38188">
        <ele>56.200000762939</ele>
        <time>2021-12-16T11:00:00.000Z</time>
      </trkpt>
      <trkpt lat="47.28902" lon="-2.38167">
        <ele>56.200000762939</ele>
        <time>2021-12-16T11:00:03.000Z</time>
      </trkpt>
      <trkpt lat="47.28906" lon="-2.38115">
        <ele>56.200000762939</ele>
        <time>2021-12-16T11:00:10.000Z</time>
      </trkpt>
      <trkpt lat="47.28909" lon="-2.38061">
        <ele>56.200000762939</ele>
        <time>2021-12-16T11:00:17.000Z</time>
      </trkpt>
      <trkpt lat="47.28911" lon="-2.38">
        <ele>56.200000762939</ele>
        <time>2021-12-16T11:00:25.000Z</time>
      </trkpt>
      <trkpt lat="47.28917" lon="-2.37921">
        <ele>56.200000762939</ele>
        <time>2021-12-16T11:00:35.000Z</time>
      </trkpt>
      <trkpt lat="47.28922" lon="-2.37854">
        <ele>56.200000762939</ele>
        <time>2021-12-16T11:00:44.000Z</time>
      </trkpt>
      <trkpt lat="47.28925" lon="-2.37797">
        <ele>56.200000762939</ele>
        <time>2021-12-16T11:00:52.000Z</time>
      </trkpt>
      <trkpt lat="47.2893" lon="-2.37747">
        <ele>56.200000762939</ele>
        <time>2021-12-16T11:00:59.000Z</time>
      </trkpt>
      <trkpt lat="47.28937" lon="-2.37697">
        <ele>56.200000762939</ele>
        <time>2021-12-16T11:01:06.000Z</time>
      </trkpt>
      <trkpt lat="47.28937" lon="-2.37655">
        <ele>56.200000762939</ele>
        <time>2021-12-16T11:01:12.000Z</time>
      </trkpt>
      <trkpt lat="47.28935" lon="-2.37649">
        <ele>56.200000762939</ele>
        <time>2021-12-16T11:01:13.000Z</time>
      </trkpt>
      <trkpt lat="47.2892" lon="-2.37645">
        <ele>56.200000762939</ele>
        <time>2021-12-16T11:01:16.000Z</time>
      </trkpt>
      <trkpt lat="47.28915" lon="-2.37646">
        <ele>56.200000762939</ele>
        <time>2021-12-16T11:01:17.000Z</time>
      </trkpt>
      <trkpt lat="47.2889" lon="-2.37652">
        <ele>56.200000762939</ele>
        <time>2021-12-16T11:01:22.000Z</time>
      </trkpt>
      <trkpt lat="47.28871" lon="-2.37654">
        <ele>56.200000762939</ele>
        <time>2021-12-16T11:01:26.000Z</time>
      </trkpt>
      <trkpt lat="47.28863" lon="-2.3765">
        <ele>56.200000762939</ele>
        <time>2021-12-16T11:01:28.000Z</time>
      </trkpt>
      <trkpt lat="47.28861" lon="-2.37634">
        <ele>56.200000762939</ele>
        <time>2021-12-16T11:01:31.000Z</time>
      </trkpt>
      <trkpt lat="47.28862" lon="-2.37619">
        <ele>56.200000762939</ele>
        <time>2021-12-16T11:01:34.000Z</time>
      </trkpt>
      <trkpt lat="47.28863" lon="-2.37602">
        <ele>56.200000762939</ele>
        <time>2021-12-16T11:01:37.000Z</time>
      </trkpt>
      <trkpt lat="47.28872" lon="-2.3758">
        <ele>56.200000762939</ele>
        <time>2021-12-16T11:01:42.000Z</time>
      </trkpt>
      <trkpt lat="47.28876" lon="-2.37572">
        <ele>56.599998474121</ele>
        <time>2021-12-16T11:01:44.000Z</time>
      </trkpt>
      <trkpt lat="47.28878" lon="-2.37567">
        <ele>57.400001525879</ele>
        <time>2021-12-16T11:01:45.000Z</time>
      </trkpt>
      <trkpt lat="47.2888" lon="-2.37563">
        <ele>58</ele>
        <time>2021-12-16T11:01:46.000Z</time>
      </trkpt>
      <trkpt lat="47.28882" lon="-2.3756">
        <ele>58.400001525879</ele>
        <time>2021-12-16T11:01:47.000Z</time>
      </trkpt>
      <trkpt lat="47.28883" lon="-2.37557">
        <ele>58.400001525879</ele>
        <time>2021-12-16T11:01:48.000Z</time>
      </trkpt>
      <trkpt lat="47.28884" lon="-2.37555">
        <ele>58.400001525879</ele>
        <time>2021-12-16T11:01:49.000Z</time>
      </trkpt>
      <trkpt lat="47.28883" lon="-2.37554">
        <ele>58.400001525879</ele>
        <time>2021-12-16T11:01:51.000Z</time>
      </trkpt>
      <trkpt lat="47.28881" lon="-2.37549">
        <ele>58.400001525879</ele>
        <time>2021-12-16T11:01:54.000Z</time>
      </trkpt>
      <trkpt lat="47.28882" lon="-2.37529">
        <ele>58.400001525879</ele>
        <time>2021-12-16T11:01:58.000Z</time>
      </trkpt>
      <trkpt lat="47.28881" lon="-2.37518">
        <ele>58.400001525879</ele>
        <time>2021-12-16T11:02:00.000Z</time>
      </trkpt>
      <trkpt lat="47.2888" lon="-2.37506">
        <ele>58.400001525879</ele>
        <time>2021-12-16T11:02:02.000Z</time>
      </trkpt>
      <trkpt lat="47.28879" lon="-2.37499">
        <ele>58.400001525879</ele>
        <time>2021-12-16T11:02:03.000Z</time>
      </trkpt>
      <trkpt lat="47.28876" lon="-2.37475">
        <ele>58.400001525879</ele>
        <time>2021-12-16T11:02:07.000Z</time>
      </trkpt>
      <trkpt lat="47.28874" lon="-2.37463">
        <ele>58.400001525879</ele>
        <time>2021-12-16T11:02:09.000Z</time>
      </trkpt>
      <trkpt lat="47.28871" lon="-2.37437">
        <ele>58.400001525879</ele>
        <time>2021-12-16T11:02:13.000Z</time>
      </trkpt>
      <trkpt lat="47.28865" lon="-2.37386">
        <ele>58.400001525879</ele>
        <time>2021-12-16T11:02:21.000Z</time>
      </trkpt>
      <trkpt lat="47.28861" lon="-2.37347">
        <ele>58.400001525879</ele>
        <time>2021-12-16T11:02:27.000Z</time>
      </trkpt>
      <trkpt lat="47.28858" lon="-2.37301">
        <ele>58.400001525879</ele>
        <time>2021-12-16T11:02:34.000Z</time>
      </trkpt>
      <trkpt lat="47.28858" lon="-2.37295">
        <ele>58.400001525879</ele>
        <time>2021-12-16T11:02:35.000Z</time>
      </trkpt>
      <trkpt lat="47.28857" lon="-2.37276">
        <ele>58.400001525879</ele>
        <time>2021-12-16T11:02:38.000Z</time>
      </trkpt>
      <trkpt lat="47.28855" lon="-2.37264">
        <ele>58.400001525879</ele>
        <time>2021-12-16T11:02:40.000Z</time>
      </trkpt>
      <trkpt lat="47.28852" lon="-2.3725">
        <ele>58.400001525879</ele>
        <time>2021-12-16T11:02:42.000Z</time>
      </trkpt>
      <trkpt lat="47.28845" lon="-2.37235">
        <ele>58.400001525879</ele>
        <time>2021-12-16T11:02:45.000Z</time>
      </trkpt>
      <trkpt lat="47.28839" lon="-2.37209">
        <ele>58.400001525879</ele>
        <time>2021-12-16T11:02:50.000Z</time>
      </trkpt>
      <trkpt lat="47.28835" lon="-2.37171">
        <ele>58.799999237061</ele>
        <time>2021-12-16T11:02:56.000Z</time>
      </trkpt>
      <trkpt lat="47.28833" lon="-2.37164">
        <ele>59.200000762939</ele>
        <time>2021-12-16T11:02:57.000Z</time>
      </trkpt>
      <trkpt lat="47.28832" lon="-2.37157">
        <ele>59.599998474121</ele>
        <time>2021-12-16T11:02:58.000Z</time>
      </trkpt>
      <trkpt lat="47.28831" lon="-2.37151">
        <ele>60.400001525879</ele>
        <time>2021-12-16T11:02:59.000Z</time>
      </trkpt>
      <trkpt lat="47.28828" lon="-2.37134">
        <ele>60.400001525879</ele>
        <time>2021-12-16T11:03:02.000Z</time>
      </trkpt>
      <trkpt lat="47.2883" lon="-2.37109">
        <ele>60.400001525879</ele>
        <time>2021-12-16T11:03:07.000Z</time>
      </trkpt>
      <trkpt lat="47.28833" lon="-2.37075">
        <ele>60.400001525879</ele>
        <time>2021-12-16T11:03:13.000Z</time>
      </trkpt>
      <trkpt lat="47.28824" lon="-2.37049">
        <ele>60.400001525879</ele>
        <time>2021-12-16T11:03:17.000Z</time>
      </trkpt>
      <trkpt lat="47.28818" lon="-2.37036">
        <ele>60.400001525879</ele>
        <time>2021-12-16T11:03:19.000Z</time>
      </trkpt>
      <trkpt lat="47.28814" lon="-2.37023">
        <ele>60.400001525879</ele>
        <time>2021-12-16T11:03:21.000Z</time>
      </trkpt>
      <trkpt lat="47.28796" lon="-2.36979">
        <ele>60.400001525879</ele>
        <time>2021-12-16T11:03:29.000Z</time>
      </trkpt>
      <trkpt lat="47.28794" lon="-2.36973">
        <ele>60.400001525879</ele>
        <time>2021-12-16T11:03:30.000Z</time>
      </trkpt>
      <trkpt lat="47.28789" lon="-2.36956">
        <ele>60.400001525879</ele>
        <time>2021-12-16T11:03:33.000Z</time>
      </trkpt>
      <trkpt lat="47.28788" lon="-2.3695">
        <ele>60.400001525879</ele>
        <time>2021-12-16T11:03:34.000Z</time>
      </trkpt>
      <trkpt lat="47.28778" lon="-2.36916">
        <ele>60.400001525879</ele>
        <time>2021-12-16T11:03:40.000Z</time>
      </trkpt>
      <trkpt lat="47.28775" lon="-2.36915">
        <ele>60.400001525879</ele>
        <time>2021-12-16T11:03:41.000Z</time>
      </trkpt>
      <trkpt lat="47.28765" lon="-2.36908">
        <ele>60.400001525879</ele>
        <time>2021-12-16T11:03:44.000Z</time>
      </trkpt>
      <trkpt lat="47.28763" lon="-2.36907">
        <ele>60.799999237061</ele>
        <time>2021-12-16T11:03:45.000Z</time>
      </trkpt>
      <trkpt lat="47.28761" lon="-2.36906">
        <ele>61.200000762939</ele>
        <time>2021-12-16T11:03:46.000Z</time>
      </trkpt>
      <trkpt lat="47.28758" lon="-2.36905">
        <ele>61.599998474121</ele>
        <time>2021-12-16T11:03:47.000Z</time>
      </trkpt>
      <trkpt lat="47.28756" lon="-2.36904">
        <ele>62.400001525879</ele>
        <time>2021-12-16T11:03:48.000Z</time>
      </trkpt>
      <trkpt lat="47.28745" lon="-2.36908">
        <ele>63</ele>
        <time>2021-12-16T11:03:53.000Z</time>
      </trkpt>
      <trkpt lat="47.28744" lon="-2.36908">
        <ele>63.400001525879</ele>
        <time>2021-12-16T11:03:54.000Z</time>
      </trkpt>
      <trkpt lat="47.28742" lon="-2.36908">
        <ele>63.799999237061</ele>
        <time>2021-12-16T11:03:55.000Z</time>
      </trkpt>
      <trkpt lat="47.2874" lon="-2.36908">
        <ele>64.199996948242</ele>
        <time>2021-12-16T11:03:56.000Z</time>
      </trkpt>
      <trkpt lat="47.28739" lon="-2.36909">
        <ele>64.800003051758</ele>
        <time>2021-12-16T11:03:57.000Z</time>
      </trkpt>
      <trkpt lat="47.28731" lon="-2.36912">
        <ele>64.800003051758</ele>
        <time>2021-12-16T11:04:00.000Z</time>
      </trkpt>
      <trkpt lat="47.28726" lon="-2.36913">
        <ele>65.199996948242</ele>
        <time>2021-12-16T11:04:02.000Z</time>
      </trkpt>
      <trkpt lat="47.28723" lon="-2.36912">
        <ele>65.599998474121</ele>
        <time>2021-12-16T11:04:03.000Z</time>
      </trkpt>
      <trkpt lat="47.28721" lon="-2.36912">
        <ele>66</ele>
        <time>2021-12-16T11:04:04.000Z</time>
      </trkpt>
      <trkpt lat="47.28718" lon="-2.3691">
        <ele>66.400001525879</ele>
        <time>2021-12-16T11:04:05.000Z</time>
      </trkpt>
      <trkpt lat="47.28717" lon="-2.36909">
        <ele>66.800003051758</ele>
        <time>2021-12-16T11:04:06.000Z</time>
      </trkpt>
      <trkpt lat="47.28714" lon="-2.36903">
        <ele>67.199996948242</ele>
        <time>2021-12-16T11:04:08.000Z</time>
      </trkpt>
      <trkpt lat="47.28713" lon="-2.36901">
        <ele>67.599998474121</ele>
        <time>2021-12-16T11:04:09.000Z</time>
      </trkpt>
      <trkpt lat="47.28712" lon="-2.36898">
        <ele>68</ele>
        <time>2021-12-16T11:04:10.000Z</time>
      </trkpt>
      <trkpt lat="47.28711" lon="-2.36896">
        <ele>68.599998474121</ele>
        <time>2021-12-16T11:04:11.000Z</time>
      </trkpt>
      <trkpt lat="47.28709" lon="-2.36893">
        <ele>69</ele>
        <time>2021-12-16T11:04:12.000Z</time>
      </trkpt>
      <trkpt lat="47.28696" lon="-2.36874">
        <ele>69</ele>
        <time>2021-12-16T11:04:19.000Z</time>
      </trkpt>
      <trkpt lat="47.28695" lon="-2.3687">
        <ele>69.400001525879</ele>
        <time>2021-12-16T11:04:20.000Z</time>
      </trkpt>
      <trkpt lat="47.28694" lon="-2.36866">
        <ele>69.800003051758</ele>
        <time>2021-12-16T11:04:21.000Z</time>
      </trkpt>
      <trkpt lat="47.28692" lon="-2.36862">
        <ele>70.199996948242</ele>
        <time>2021-12-16T11:04:22.000Z</time>
      </trkpt>
      <trkpt lat="47.2869" lon="-2.36859">
        <ele>70.599998474121</ele>
        <time>2021-12-16T11:04:23.000Z</time>
      </trkpt>
      <trkpt lat="47.28689" lon="-2.36855">
        <ele>71</ele>
        <time>2021-12-16T11:04:24.000Z</time>
      </trkpt>
      <trkpt lat="47.28684" lon="-2.36846">
        <ele>71</ele>
        <time>2021-12-16T11:04:27.000Z</time>
      </trkpt>
      <trkpt lat="47.28674" lon="-2.36821">
        <ele>71</ele>
        <time>2021-12-16T11:04:34.000Z</time>
      </trkpt>
      <trkpt lat="47.2867" lon="-2.36805">
        <ele>71.400001525879</ele>
        <time>2021-12-16T11:04:39.000Z</time>
      </trkpt>
      <trkpt lat="47.28669" lon="-2.36803">
        <ele>71.800003051758</ele>
        <time>2021-12-16T11:04:40.000Z</time>
      </trkpt>
      <trkpt lat="47.28668" lon="-2.36801">
        <ele>72.199996948242</ele>
        <time>2021-12-16T11:04:41.000Z</time>
      </trkpt>
      <trkpt lat="47.28666" lon="-2.36799">
        <ele>72.800003051758</ele>
        <time>2021-12-16T11:04:42.000Z</time>
      </trkpt>
      <trkpt lat="47.28664" lon="-2.36796">
        <ele>73.199996948242</ele>
        <time>2021-12-16T11:04:43.000Z</time>
      </trkpt>
      <trkpt lat="47.28662" lon="-2.36795">
        <ele>73.199996948242</ele>
        <time>2021-12-16T11:04:44.000Z</time>
      </trkpt>
      <trkpt lat="47.28659" lon="-2.36797">
        <ele>73.199996948242</ele>
        <time>2021-12-16T11:04:45.000Z</time>
      </trkpt>
      <trkpt lat="47.28648" lon="-2.36807">
        <ele>73.199996948242</ele>
        <time>2021-12-16T11:04:48.000Z</time>
      </trkpt>
      <trkpt lat="47.28645" lon="-2.36812">
        <ele>73.199996948242</ele>
        <time>2021-12-16T11:04:49.000Z</time>
      </trkpt>
      <trkpt lat="47.28619" lon="-2.36839">
        <ele>72.800003051758</ele>
        <time>2021-12-16T11:04:55.000Z</time>
      </trkpt>
      <trkpt lat="47.28613" lon="-2.36843">
        <ele>72.199996948242</ele>
        <time>2021-12-16T11:04:56.000Z</time>
      </trkpt>
      <trkpt lat="47.28607" lon="-2.36843">
        <ele>71.800003051758</ele>
        <time>2021-12-16T11:04:57.000Z</time>
      </trkpt>
      <trkpt lat="47.28601" lon="-2.36842">
        <ele>71.400001525879</ele>
        <time>2021-12-16T11:04:58.000Z</time>
      </trkpt>
      <trkpt lat="47.28596" lon="-2.36838">
        <ele>71</ele>
        <time>2021-12-16T11:04:59.000Z</time>
      </trkpt>
      <trkpt lat="47.28585" lon="-2.36822">
        <ele>71</ele>
        <time>2021-12-16T11:05:02.000Z</time>
      </trkpt>
      <trkpt lat="47.28579" lon="-2.3681">
        <ele>71</ele>
        <time>2021-12-16T11:05:04.000Z</time>
      </trkpt>
      <trkpt lat="47.2857" lon="-2.36791">
        <ele>71</ele>
        <time>2021-12-16T11:05:08.000Z</time>
      </trkpt>
      <trkpt lat="47.28554" lon="-2.36759">
        <ele>71</ele>
        <time>2021-12-16T11:05:15.000Z</time>
      </trkpt>
      <trkpt lat="47.28541" lon="-2.36737">
        <ele>71</ele>
        <time>2021-12-16T11:05:21.000Z</time>
      </trkpt>
      <trkpt lat="47.2854" lon="-2.36733">
        <ele>71.400001525879</ele>
        <time>2021-12-16T11:05:22.000Z</time>
      </trkpt>
      <trkpt lat="47.28538" lon="-2.36729">
        <ele>71.800003051758</ele>
        <time>2021-12-16T11:05:23.000Z</time>
      </trkpt>
      <trkpt lat="47.28536" lon="-2.36726">
        <ele>72.199996948242</ele>
        <time>2021-12-16T11:05:24.000Z</time>
      </trkpt>
      <trkpt lat="47.28534" lon="-2.36723">
        <ele>72.599998474121</ele>
        <time>2021-12-16T11:05:25.000Z</time>
      </trkpt>
      <trkpt lat="47.28532" lon="-2.36719">
        <ele>73</ele>
        <time>2021-12-16T11:05:26.000Z</time>
      </trkpt>
      <trkpt lat="47.28526" lon="-2.36707">
        <ele>73</ele>
        <time>2021-12-16T11:05:30.000Z</time>
      </trkpt>
      <trkpt lat="47.28521" lon="-2.36698">
        <ele>73.400001525879</ele>
        <time>2021-12-16T11:05:33.000Z</time>
      </trkpt>
      <trkpt lat="47.28519" lon="-2.36696">
        <ele>73.800003051758</ele>
        <time>2021-12-16T11:05:34.000Z</time>
      </trkpt>
      <trkpt lat="47.28517" lon="-2.36693">
        <ele>74.199996948242</ele>
        <time>2021-12-16T11:05:35.000Z</time>
      </trkpt>
      <trkpt lat="47.28516" lon="-2.36691">
        <ele>74.599998474121</ele>
        <time>2021-12-16T11:05:36.000Z</time>
      </trkpt>
      <trkpt lat="47.28514" lon="-2.36688">
        <ele>75</ele>
        <time>2021-12-16T11:05:37.000Z</time>
      </trkpt>
      <trkpt lat="47.28507" lon="-2.3668">
        <ele>75</ele>
        <time>2021-12-16T11:05:44.000Z</time>
      </trkpt>
      <trkpt lat="47.28504" lon="-2.36679">
        <ele>75</ele>
        <time>2021-12-16T11:05:55.000Z</time>
      </trkpt>
      <trkpt lat="47.28499" lon="-2.36677">
        <ele>75</ele>
        <time>2021-12-16T11:05:57.000Z</time>
      </trkpt>
      <trkpt lat="47.28496" lon="-2.36673">
        <ele>75</ele>
        <time>2021-12-16T11:05:58.000Z</time>
      </trkpt>
      <trkpt lat="47.28494" lon="-2.36665">
        <ele>75</ele>
        <time>2021-12-16T11:06:00.000Z</time>
      </trkpt>
      <trkpt lat="47.28493" lon="-2.3666">
        <ele>75.400001525879</ele>
        <time>2021-12-16T11:06:01.000Z</time>
      </trkpt>
      <trkpt lat="47.28493" lon="-2.36655">
        <ele>75.800003051758</ele>
        <time>2021-12-16T11:06:02.000Z</time>
      </trkpt>
      <trkpt lat="47.28491" lon="-2.36649">
        <ele>76.199996948242</ele>
        <time>2021-12-16T11:06:03.000Z</time>
      </trkpt>
      <trkpt lat="47.2849" lon="-2.36643">
        <ele>76.599998474121</ele>
        <time>2021-12-16T11:06:04.000Z</time>
      </trkpt>
      <trkpt lat="47.28489" lon="-2.36638">
        <ele>77</ele>
        <time>2021-12-16T11:06:05.000Z</time>
      </trkpt>
      <trkpt lat="47.28487" lon="-2.36634">
        <ele>77</ele>
        <time>2021-12-16T11:06:06.000Z</time>
      </trkpt>
      <trkpt lat="47.28477" lon="-2.36597">
        <ele>77</ele>
        <time>2021-12-16T11:06:13.000Z</time>
      </trkpt>
      <trkpt lat="47.28471" lon="-2.36565">
        <ele>77</ele>
        <time>2021-12-16T11:06:19.000Z</time>
      </trkpt>
      <trkpt lat="47.28483" lon="-2.36548">
        <ele>77</ele>
        <time>2021-12-16T11:06:23.000Z</time>
      </trkpt>
      <trkpt lat="47.28487" lon="-2.36544">
        <ele>77</ele>
        <time>2021-12-16T11:06:24.000Z</time>
      </trkpt>
      <trkpt lat="47.28502" lon="-2.36524">
        <ele>77.400001525879</ele>
        <time>2021-12-16T11:06:29.000Z</time>
      </trkpt>
      <trkpt lat="47.28505" lon="-2.3652">
        <ele>77.800003051758</ele>
        <time>2021-12-16T11:06:30.000Z</time>
      </trkpt>
      <trkpt lat="47.28508" lon="-2.36517">
        <ele>78.199996948242</ele>
        <time>2021-12-16T11:06:31.000Z</time>
      </trkpt>
      <trkpt lat="47.2851" lon="-2.36514">
        <ele>78.800003051758</ele>
        <time>2021-12-16T11:06:32.000Z</time>
      </trkpt>
      <trkpt lat="47.28512" lon="-2.36511">
        <ele>79.199996948242</ele>
        <time>2021-12-16T11:06:33.000Z</time>
      </trkpt>
      <trkpt lat="47.28522" lon="-2.36497">
        <ele>79.199996948242</ele>
        <time>2021-12-16T11:06:38.000Z</time>
      </trkpt>
      <trkpt lat="47.28523" lon="-2.36492">
        <ele>79.599998474121</ele>
        <time>2021-12-16T11:06:40.000Z</time>
      </trkpt>
      <trkpt lat="47.28522" lon="-2.36487">
        <ele>80</ele>
        <time>2021-12-16T11:06:41.000Z</time>
      </trkpt>
      <trkpt lat="47.28522" lon="-2.36483">
        <ele>80.800003051758</ele>
        <time>2021-12-16T11:06:42.000Z</time>
      </trkpt>
      <trkpt lat="47.28522" lon="-2.3648">
        <ele>81.199996948242</ele>
        <time>2021-12-16T11:06:43.000Z</time>
      </trkpt>
      <trkpt lat="47.28516" lon="-2.36463">
        <ele>81.199996948242</ele>
        <time>2021-12-16T11:06:47.000Z</time>
      </trkpt>
      <trkpt lat="47.28502" lon="-2.36444">
        <ele>81.199996948242</ele>
        <time>2021-12-16T11:06:52.000Z</time>
      </trkpt>
      <trkpt lat="47.28485" lon="-2.36432">
        <ele>81.199996948242</ele>
        <time>2021-12-16T11:06:57.000Z</time>
      </trkpt>
      <trkpt lat="47.28478" lon="-2.36425">
        <ele>81.199996948242</ele>
        <time>2021-12-16T11:07:01.000Z</time>
      </trkpt>
      <trkpt lat="47.28475" lon="-2.36422">
        <ele>81.599998474121</ele>
        <time>2021-12-16T11:07:03.000Z</time>
      </trkpt>
      <trkpt lat="47.28473" lon="-2.3642">
        <ele>82.199996948242</ele>
        <time>2021-12-16T11:07:04.000Z</time>
      </trkpt>
      <trkpt lat="47.28471" lon="-2.36418">
        <ele>82.599998474121</ele>
        <time>2021-12-16T11:07:05.000Z</time>
      </trkpt>
      <trkpt lat="47.2847" lon="-2.36414">
        <ele>83.400001525879</ele>
        <time>2021-12-16T11:07:06.000Z</time>
      </trkpt>
      <trkpt lat="47.28466" lon="-2.36408">
        <ele>83.400001525879</ele>
        <time>2021-12-16T11:07:08.000Z</time>
      </trkpt>
      <trkpt lat="47.2845" lon="-2.3639">
        <ele>83</ele>
        <time>2021-12-16T11:07:14.000Z</time>
      </trkpt>
      <trkpt lat="47.28446" lon="-2.36386">
        <ele>82.599998474121</ele>
        <time>2021-12-16T11:07:15.000Z</time>
      </trkpt>
      <trkpt lat="47.28442" lon="-2.36384">
        <ele>82.199996948242</ele>
        <time>2021-12-16T11:07:16.000Z</time>
      </trkpt>
      <trkpt lat="47.28437" lon="-2.36381">
        <ele>81.800003051758</ele>
        <time>2021-12-16T11:07:17.000Z</time>
      </trkpt>
      <trkpt lat="47.28433" lon="-2.3638">
        <ele>81.400001525879</ele>
        <time>2021-12-16T11:07:18.000Z</time>
      </trkpt>
      <trkpt lat="47.28423" lon="-2.36373">
        <ele>81.400001525879</ele>
        <time>2021-12-16T11:07:20.000Z</time>
      </trkpt>
      <trkpt lat="47.28413" lon="-2.36354">
        <ele>81.400001525879</ele>
        <time>2021-12-16T11:07:24.000Z</time>
      </trkpt>
      <trkpt lat="47.28411" lon="-2.3635">
        <ele>81.400001525879</ele>
        <time>2021-12-16T11:07:25.000Z</time>
      </trkpt>
      <trkpt lat="47.28393" lon="-2.36335">
        <ele>81.400001525879</ele>
        <time>2021-12-16T11:07:30.000Z</time>
      </trkpt>
      <trkpt lat="47.28391" lon="-2.36332">
        <ele>80.400001525879</ele>
        <time>2021-12-16T11:07:31.000Z</time>
      </trkpt>
      <trkpt lat="47.28387" lon="-2.36329">
        <ele>80</ele>
        <time>2021-12-16T11:07:32.000Z</time>
      </trkpt>
      <trkpt lat="47.28384" lon="-2.36326">
        <ele>79.599998474121</ele>
        <time>2021-12-16T11:07:33.000Z</time>
      </trkpt>
      <trkpt lat="47.28381" lon="-2.36324">
        <ele>79</ele>
        <time>2021-12-16T11:07:34.000Z</time>
      </trkpt>
      <trkpt lat="47.28377" lon="-2.36322">
        <ele>79</ele>
        <time>2021-12-16T11:07:35.000Z</time>
      </trkpt>
      <trkpt lat="47.28364" lon="-2.36305">
        <ele>79</ele>
        <time>2021-12-16T11:07:39.000Z</time>
      </trkpt>
      <trkpt lat="47.28363" lon="-2.363">
        <ele>79</ele>
        <time>2021-12-16T11:07:40.000Z</time>
      </trkpt>
      <trkpt lat="47.28364" lon="-2.36294">
        <ele>78.599998474121</ele>
        <time>2021-12-16T11:07:41.000Z</time>
      </trkpt>
      <trkpt lat="47.28364" lon="-2.36289">
        <ele>78.199996948242</ele>
        <time>2021-12-16T11:07:42.000Z</time>
      </trkpt>
      <trkpt lat="47.28363" lon="-2.3628">
        <ele>77.800003051758</ele>
        <time>2021-12-16T11:07:43.000Z</time>
      </trkpt>
      <trkpt lat="47.28361" lon="-2.36274">
        <ele>77.400001525879</ele>
        <time>2021-12-16T11:07:44.000Z</time>
      </trkpt>
      <trkpt lat="47.2836" lon="-2.36268">
        <ele>77</ele>
        <time>2021-12-16T11:07:45.000Z</time>
      </trkpt>
      <trkpt lat="47.28356" lon="-2.36265">
        <ele>77</ele>
        <time>2021-12-16T11:07:46.000Z</time>
      </trkpt>
      <trkpt lat="47.28353" lon="-2.36262">
        <ele>77</ele>
        <time>2021-12-16T11:07:47.000Z</time>
      </trkpt>
      <trkpt lat="47.28334" lon="-2.36256">
        <ele>77</ele>
        <time>2021-12-16T11:07:51.000Z</time>
      </trkpt>
      <trkpt lat="47.28311" lon="-2.3625">
        <ele>76</ele>
        <time>2021-12-16T11:07:56.000Z</time>
      </trkpt>
      <trkpt lat="47.28307" lon="-2.36249">
        <ele>75.599998474121</ele>
        <time>2021-12-16T11:07:57.000Z</time>
      </trkpt>
      <trkpt lat="47.28301" lon="-2.36247">
        <ele>75.199996948242</ele>
        <time>2021-12-16T11:07:58.000Z</time>
      </trkpt>
      <trkpt lat="47.28296" lon="-2.36246">
        <ele>74.800003051758</ele>
        <time>2021-12-16T11:07:59.000Z</time>
      </trkpt>
      <trkpt lat="47.28285" lon="-2.36242">
        <ele>74.800003051758</ele>
        <time>2021-12-16T11:08:01.000Z</time>
      </trkpt>
      <trkpt lat="47.28281" lon="-2.36237">
        <ele>74.800003051758</ele>
        <time>2021-12-16T11:08:02.000Z</time>
      </trkpt>
      <trkpt lat="47.28267" lon="-2.36214">
        <ele>74.800003051758</ele>
        <time>2021-12-16T11:08:06.000Z</time>
      </trkpt>
      <trkpt lat="47.28265" lon="-2.36208">
        <ele>74.800003051758</ele>
        <time>2021-12-16T11:08:07.000Z</time>
      </trkpt>
      <trkpt lat="47.2825" lon="-2.36169">
        <ele>74.800003051758</ele>
        <time>2021-12-16T11:08:13.000Z</time>
      </trkpt>
      <trkpt lat="47.28249" lon="-2.36165">
        <ele>74.800003051758</ele>
        <time>2021-12-16T11:08:14.000Z</time>
      </trkpt>
      <trkpt lat="47.28247" lon="-2.36159">
        <ele>74.400001525879</ele>
        <time>2021-12-16T11:08:15.000Z</time>
      </trkpt>
      <trkpt lat="47.28244" lon="-2.36153">
        <ele>74</ele>
        <time>2021-12-16T11:08:16.000Z</time>
      </trkpt>
      <trkpt lat="47.28243" lon="-2.36147">
        <ele>73.599998474121</ele>
        <time>2021-12-16T11:08:17.000Z</time>
      </trkpt>
      <trkpt lat="47.28242" lon="-2.36142">
        <ele>73.199996948242</ele>
        <time>2021-12-16T11:08:18.000Z</time>
      </trkpt>
      <trkpt lat="47.28241" lon="-2.36138">
        <ele>72.599998474121</ele>
        <time>2021-12-16T11:08:19.000Z</time>
      </trkpt>
      <trkpt lat="47.28238" lon="-2.36132">
        <ele>73.599998474121</ele>
        <time>2021-12-16T11:08:21.000Z</time>
      </trkpt>
      <trkpt lat="47.28237" lon="-2.36129">
        <ele>74.199996948242</ele>
        <time>2021-12-16T11:08:22.000Z</time>
      </trkpt>
      <trkpt lat="47.28236" lon="-2.36126">
        <ele>74.599998474121</ele>
        <time>2021-12-16T11:08:23.000Z</time>
      </trkpt>
      <trkpt lat="47.28234" lon="-2.36123">
        <ele>75</ele>
        <time>2021-12-16T11:08:24.000Z</time>
      </trkpt>
      <trkpt lat="47.28226" lon="-2.36107">
        <ele>75</ele>
        <time>2021-12-16T11:08:29.000Z</time>
      </trkpt>
      <trkpt lat="47.28216" lon="-2.36079">
        <ele>75</ele>
        <time>2021-12-16T11:08:34.000Z</time>
      </trkpt>
      <trkpt lat="47.28201" lon="-2.36038">
        <ele>75</ele>
        <time>2021-12-16T11:08:40.000Z</time>
      </trkpt>
      <trkpt lat="47.28189" lon="-2.36013">
        <ele>75</ele>
        <time>2021-12-16T11:08:45.000Z</time>
      </trkpt>
      <trkpt lat="47.28179" lon="-2.35985">
        <ele>75</ele>
        <time>2021-12-16T11:08:51.000Z</time>
      </trkpt>
      <trkpt lat="47.28172" lon="-2.35965">
        <ele>75</ele>
        <time>2021-12-16T11:08:57.000Z</time>
      </trkpt>
      <trkpt lat="47.28161" lon="-2.35947">
        <ele>75</ele>
        <time>2021-12-16T11:09:04.000Z</time>
      </trkpt>
      <trkpt lat="47.2815" lon="-2.35926">
        <ele>75</ele>
        <time>2021-12-16T11:09:13.000Z</time>
      </trkpt>
      <trkpt lat="47.28148" lon="-2.35918">
        <ele>75.400001525879</ele>
        <time>2021-12-16T11:09:16.000Z</time>
      </trkpt>
      <trkpt lat="47.28147" lon="-2.35916">
        <ele>76</ele>
        <time>2021-12-16T11:09:17.000Z</time>
      </trkpt>
      <trkpt lat="47.28146" lon="-2.35914">
        <ele>76.400001525879</ele>
        <time>2021-12-16T11:09:18.000Z</time>
      </trkpt>
      <trkpt lat="47.28145" lon="-2.35912">
        <ele>76.800003051758</ele>
        <time>2021-12-16T11:09:19.000Z</time>
      </trkpt>
      <trkpt lat="47.28143" lon="-2.3591">
        <ele>77.199996948242</ele>
        <time>2021-12-16T11:09:20.000Z</time>
      </trkpt>
      <trkpt lat="47.28141" lon="-2.35907">
        <ele>77.199996948242</ele>
        <time>2021-12-16T11:09:21.000Z</time>
      </trkpt>
      <trkpt lat="47.28125" lon="-2.35883">
        <ele>77.199996948242</ele>
        <time>2021-12-16T11:09:28.000Z</time>
      </trkpt>
      <trkpt lat="47.28111" lon="-2.35863">
        <ele>77.199996948242</ele>
        <time>2021-12-16T11:09:34.000Z</time>
      </trkpt>
      <trkpt lat="47.2811" lon="-2.3586">
        <ele>77.199996948242</ele>
        <time>2021-12-16T11:09:35.000Z</time>
      </trkpt>
      <trkpt lat="47.28103" lon="-2.35848">
        <ele>77.199996948242</ele>
        <time>2021-12-16T11:09:38.000Z</time>
      </trkpt>
      <trkpt lat="47.28085" lon="-2.3582">
        <ele>77.199996948242</ele>
        <time>2021-12-16T11:09:45.000Z</time>
      </trkpt>
      <trkpt lat="47.28075" lon="-2.35802">
        <ele>77.199996948242</ele>
        <time>2021-12-16T11:09:49.000Z</time>
      </trkpt>
      <trkpt lat="47.28075" lon="-2.35798">
        <ele>77.199996948242</ele>
        <time>2021-12-16T11:09:50.000Z</time>
      </trkpt>
      <trkpt lat="47.28081" lon="-2.35776">
        <ele>77.199996948242</ele>
        <time>2021-12-16T11:09:57.000Z</time>
      </trkpt>
      <trkpt lat="47.28082" lon="-2.35755">
        <ele>77.199996948242</ele>
        <time>2021-12-16T11:10:02.000Z</time>
      </trkpt>
      <trkpt lat="47.28083" lon="-2.35748">
        <ele>77.599998474121</ele>
        <time>2021-12-16T11:10:04.000Z</time>
      </trkpt>
      <trkpt lat="47.28084" lon="-2.35744">
        <ele>78</ele>
        <time>2021-12-16T11:10:05.000Z</time>
      </trkpt>
      <trkpt lat="47.28085" lon="-2.3574">
        <ele>78.599998474121</ele>
        <time>2021-12-16T11:10:06.000Z</time>
      </trkpt>
      <trkpt lat="47.28086" lon="-2.35736">
        <ele>79</ele>
        <time>2021-12-16T11:10:07.000Z</time>
      </trkpt>
      <trkpt lat="47.28088" lon="-2.35733">
        <ele>79.400001525879</ele>
        <time>2021-12-16T11:10:08.000Z</time>
      </trkpt>
      <trkpt lat="47.28089" lon="-2.3573">
        <ele>79.400001525879</ele>
        <time>2021-12-16T11:10:09.000Z</time>
      </trkpt>
      <trkpt lat="47.28091" lon="-2.35724">
        <ele>79.800003051758</ele>
        <time>2021-12-16T11:10:11.000Z</time>
      </trkpt>
      <trkpt lat="47.28092" lon="-2.3572">
        <ele>80.199996948242</ele>
        <time>2021-12-16T11:10:12.000Z</time>
      </trkpt>
      <trkpt lat="47.28093" lon="-2.35716">
        <ele>80.599998474121</ele>
        <time>2021-12-16T11:10:13.000Z</time>
      </trkpt>
      <trkpt lat="47.28093" lon="-2.35713">
        <ele>81</ele>
        <time>2021-12-16T11:10:14.000Z</time>
      </trkpt>
      <trkpt lat="47.28094" lon="-2.3571">
        <ele>81.400001525879</ele>
        <time>2021-12-16T11:10:15.000Z</time>
      </trkpt>
      <trkpt lat="47.28092" lon="-2.35688">
        <ele>81.400001525879</ele>
        <time>2021-12-16T11:10:20.000Z</time>
      </trkpt>
      <trkpt lat="47.28085" lon="-2.3566">
        <ele>81.400001525879</ele>
        <time>2021-12-16T11:10:24.000Z</time>
      </trkpt>
      <trkpt lat="47.28083" lon="-2.35654">
        <ele>81.400001525879</ele>
        <time>2021-12-16T11:10:25.000Z</time>
      </trkpt>
      <trkpt lat="47.28081" lon="-2.35648">
        <ele>81</ele>
        <time>2021-12-16T11:10:26.000Z</time>
      </trkpt>
      <trkpt lat="47.28079" lon="-2.35643">
        <ele>80.599998474121</ele>
        <time>2021-12-16T11:10:27.000Z</time>
      </trkpt>
      <trkpt lat="47.28078" lon="-2.35637">
        <ele>80</ele>
        <time>2021-12-16T11:10:28.000Z</time>
      </trkpt>
      <trkpt lat="47.28077" lon="-2.35632">
        <ele>79.599998474121</ele>
        <time>2021-12-16T11:10:29.000Z</time>
      </trkpt>
      <trkpt lat="47.28076" lon="-2.35627">
        <ele>79</ele>
        <time>2021-12-16T11:10:30.000Z</time>
      </trkpt>
      <trkpt lat="47.28076" lon="-2.35623">
        <ele>78.400001525879</ele>
        <time>2021-12-16T11:10:31.000Z</time>
      </trkpt>
      <trkpt lat="47.28077" lon="-2.35618">
        <ele>77.800003051758</ele>
        <time>2021-12-16T11:10:32.000Z</time>
      </trkpt>
      <trkpt lat="47.28078" lon="-2.35615">
        <ele>77.199996948242</ele>
        <time>2021-12-16T11:10:33.000Z</time>
      </trkpt>
      <trkpt lat="47.28079" lon="-2.35613">
        <ele>76.400001525879</ele>
        <time>2021-12-16T11:10:34.000Z</time>
      </trkpt>
      <trkpt lat="47.28081" lon="-2.35613">
        <ele>76.400001525879</ele>
        <time>2021-12-16T11:10:36.000Z</time>
      </trkpt>
      <trkpt lat="47.28083" lon="-2.35616">
        <ele>76.400001525879</ele>
        <time>2021-12-16T11:10:38.000Z</time>
      </trkpt>
      <trkpt lat="47.28085" lon="-2.35623">
        <ele>76.400001525879</ele>
        <time>2021-12-16T11:10:43.000Z</time>
      </trkpt>
      <trkpt lat="47.28082" lon="-2.35611">
        <ele>74.400001525879</ele>
        <time>2021-12-16T11:20:15.000Z</time>
      </trkpt>
      <trkpt lat="47.28071" lon="-2.35604">
        <ele>74.400001525879</ele>
        <time>2021-12-16T11:20:23.000Z</time>
      </trkpt>
      <trkpt lat="47.2807" lon="-2.35605">
        <ele>74.400001525879</ele>
        <time>2021-12-16T11:20:24.000Z</time>
      </trkpt>
      <trkpt lat="47.2806" lon="-2.35605">
        <ele>74.400001525879</ele>
        <time>2021-12-16T11:20:29.000Z</time>
      </trkpt>
      <trkpt lat="47.28057" lon="-2.35604">
        <ele>74.400001525879</ele>
        <time>2021-12-16T11:20:30.000Z</time>
      </trkpt>
      <trkpt lat="47.28041" lon="-2.35597">
        <ele>74.400001525879</ele>
        <time>2021-12-16T11:20:35.000Z</time>
      </trkpt>
      <trkpt lat="47.28035" lon="-2.35582">
        <ele>74.400001525879</ele>
        <time>2021-12-16T11:20:38.000Z</time>
      </trkpt>
      <trkpt lat="47.28033" lon="-2.35576">
        <ele>74.400001525879</ele>
        <time>2021-12-16T11:20:39.000Z</time>
      </trkpt>
      <trkpt lat="47.28031" lon="-2.35569">
        <ele>74.400001525879</ele>
        <time>2021-12-16T11:20:40.000Z</time>
      </trkpt>
      <trkpt lat="47.2802" lon="-2.35556">
        <ele>74.400001525879</ele>
        <time>2021-12-16T11:20:43.000Z</time>
      </trkpt>
      <trkpt lat="47.28013" lon="-2.35556">
        <ele>74</ele>
        <time>2021-12-16T11:20:45.000Z</time>
      </trkpt>
      <trkpt lat="47.2801" lon="-2.35557">
        <ele>73.599998474121</ele>
        <time>2021-12-16T11:20:46.000Z</time>
      </trkpt>
      <trkpt lat="47.28007" lon="-2.35558">
        <ele>73.199996948242</ele>
        <time>2021-12-16T11:20:47.000Z</time>
      </trkpt>
      <trkpt lat="47.28005" lon="-2.35559">
        <ele>72.599998474121</ele>
        <time>2021-12-16T11:20:48.000Z</time>
      </trkpt>
      <trkpt lat="47.28003" lon="-2.35557">
        <ele>72.199996948242</ele>
        <time>2021-12-16T11:20:49.000Z</time>
      </trkpt>
      <trkpt lat="47.28" lon="-2.3555">
        <ele>72.199996948242</ele>
        <time>2021-12-16T11:20:51.000Z</time>
      </trkpt>
      <trkpt lat="47.27999" lon="-2.35539">
        <ele>72.199996948242</ele>
        <time>2021-12-16T11:20:53.000Z</time>
      </trkpt>
      <trkpt lat="47.27998" lon="-2.35533">
        <ele>72.199996948242</ele>
        <time>2021-12-16T11:20:54.000Z</time>
      </trkpt>
      <trkpt lat="47.27993" lon="-2.35519">
        <ele>72.199996948242</ele>
        <time>2021-12-16T11:20:56.000Z</time>
      </trkpt>
      <trkpt lat="47.27986" lon="-2.35504">
        <ele>72.199996948242</ele>
        <time>2021-12-16T11:20:58.000Z</time>
      </trkpt>
      <trkpt lat="47.27979" lon="-2.35489">
        <ele>71.800003051758</ele>
        <time>2021-12-16T11:21:00.000Z</time>
      </trkpt>
      <trkpt lat="47.27975" lon="-2.35481">
        <ele>71.400001525879</ele>
        <time>2021-12-16T11:21:01.000Z</time>
      </trkpt>
      <trkpt lat="47.27971" lon="-2.35474">
        <ele>71</ele>
        <time>2021-12-16T11:21:02.000Z</time>
      </trkpt>
      <trkpt lat="47.27967" lon="-2.35469">
        <ele>70.599998474121</ele>
        <time>2021-12-16T11:21:03.000Z</time>
      </trkpt>
      <trkpt lat="47.27963" lon="-2.35465">
        <ele>70.199996948242</ele>
        <time>2021-12-16T11:21:04.000Z</time>
      </trkpt>
      <trkpt lat="47.27953" lon="-2.3546">
        <ele>70.199996948242</ele>
        <time>2021-12-16T11:21:06.000Z</time>
      </trkpt>
      <trkpt lat="47.2794" lon="-2.35451">
        <ele>70.199996948242</ele>
        <time>2021-12-16T11:21:09.000Z</time>
      </trkpt>
      <trkpt lat="47.27932" lon="-2.35443">
        <ele>70.199996948242</ele>
        <time>2021-12-16T11:21:11.000Z</time>
      </trkpt>
      <trkpt lat="47.27911" lon="-2.35416">
        <ele>70.199996948242</ele>
        <time>2021-12-16T11:21:17.000Z</time>
      </trkpt>
      <trkpt lat="47.27884" lon="-2.3538">
        <ele>70.199996948242</ele>
        <time>2021-12-16T11:21:25.000Z</time>
      </trkpt>
      <trkpt lat="47.27868" lon="-2.35365">
        <ele>70.199996948242</ele>
        <time>2021-12-16T11:21:29.000Z</time>
      </trkpt>
      <trkpt lat="47.27862" lon="-2.35364">
        <ele>70.199996948242</ele>
        <time>2021-12-16T11:21:30.000Z</time>
      </trkpt>
      <trkpt lat="47.27826" lon="-2.35365">
        <ele>70.199996948242</ele>
        <time>2021-12-16T11:21:36.000Z</time>
      </trkpt>
      <trkpt lat="47.27809" lon="-2.35363">
        <ele>70.199996948242</ele>
        <time>2021-12-16T11:21:39.000Z</time>
      </trkpt>
      <trkpt lat="47.278" lon="-2.35354">
        <ele>69.800003051758</ele>
        <time>2021-12-16T11:21:41.000Z</time>
      </trkpt>
      <trkpt lat="47.27797" lon="-2.35346">
        <ele>69.400001525879</ele>
        <time>2021-12-16T11:21:42.000Z</time>
      </trkpt>
      <trkpt lat="47.27795" lon="-2.35338">
        <ele>68.800003051758</ele>
        <time>2021-12-16T11:21:43.000Z</time>
      </trkpt>
      <trkpt lat="47.27793" lon="-2.3533">
        <ele>68.400001525879</ele>
        <time>2021-12-16T11:21:44.000Z</time>
      </trkpt>
      <trkpt lat="47.27791" lon="-2.35321">
        <ele>68</ele>
        <time>2021-12-16T11:21:45.000Z</time>
      </trkpt>
      <trkpt lat="47.27788" lon="-2.35305">
        <ele>68</ele>
        <time>2021-12-16T11:21:47.000Z</time>
      </trkpt>
      <trkpt lat="47.27781" lon="-2.35273">
        <ele>68</ele>
        <time>2021-12-16T11:21:51.000Z</time>
      </trkpt>
      <trkpt lat="47.27774" lon="-2.35235">
        <ele>68</ele>
        <time>2021-12-16T11:21:56.000Z</time>
      </trkpt>
      <trkpt lat="47.27773" lon="-2.3522">
        <ele>68</ele>
        <time>2021-12-16T11:21:58.000Z</time>
      </trkpt>
      <trkpt lat="47.27771" lon="-2.35213">
        <ele>68</ele>
        <time>2021-12-16T11:21:59.000Z</time>
      </trkpt>
      <trkpt lat="47.27764" lon="-2.35204">
        <ele>68</ele>
        <time>2021-12-16T11:22:01.000Z</time>
      </trkpt>
      <trkpt lat="47.2775" lon="-2.35203">
        <ele>68</ele>
        <time>2021-12-16T11:22:04.000Z</time>
      </trkpt>
      <trkpt lat="47.27718" lon="-2.35211">
        <ele>68</ele>
        <time>2021-12-16T11:22:11.000Z</time>
      </trkpt>
      <trkpt lat="47.27701" lon="-2.35216">
        <ele>68.400001525879</ele>
        <time>2021-12-16T11:22:15.000Z</time>
      </trkpt>
      <trkpt lat="47.27696" lon="-2.35218">
        <ele>68.800003051758</ele>
        <time>2021-12-16T11:22:16.000Z</time>
      </trkpt>
      <trkpt lat="47.27692" lon="-2.35219">
        <ele>69.400001525879</ele>
        <time>2021-12-16T11:22:17.000Z</time>
      </trkpt>
      <trkpt lat="47.27688" lon="-2.3522">
        <ele>69.800003051758</ele>
        <time>2021-12-16T11:22:18.000Z</time>
      </trkpt>
      <trkpt lat="47.27683" lon="-2.35221">
        <ele>70.199996948242</ele>
        <time>2021-12-16T11:22:19.000Z</time>
      </trkpt>
      <trkpt lat="47.2768" lon="-2.35221">
        <ele>70.199996948242</ele>
        <time>2021-12-16T11:22:20.000Z</time>
      </trkpt>
      <trkpt lat="47.27676" lon="-2.35219">
        <ele>70.199996948242</ele>
        <time>2021-12-16T11:22:21.000Z</time>
      </trkpt>
      <trkpt lat="47.27673" lon="-2.3521">
        <ele>70.199996948242</ele>
        <time>2021-12-16T11:22:23.000Z</time>
      </trkpt>
      <trkpt lat="47.27673" lon="-2.35193">
        <ele>70.599998474121</ele>
        <time>2021-12-16T11:22:26.000Z</time>
      </trkpt>
      <trkpt lat="47.27672" lon="-2.35188">
        <ele>71</ele>
        <time>2021-12-16T11:22:27.000Z</time>
      </trkpt>
      <trkpt lat="47.27671" lon="-2.35183">
        <ele>71.400001525879</ele>
        <time>2021-12-16T11:22:28.000Z</time>
      </trkpt>
      <trkpt lat="47.27671" lon="-2.35178">
        <ele>71.800003051758</ele>
        <time>2021-12-16T11:22:29.000Z</time>
      </trkpt>
      <trkpt lat="47.27668" lon="-2.35174">
        <ele>72.199996948242</ele>
        <time>2021-12-16T11:22:30.000Z</time>
      </trkpt>
      <trkpt lat="47.27662" lon="-2.3517">
        <ele>72.199996948242</ele>
        <time>2021-12-16T11:22:32.000Z</time>
      </trkpt>
      <trkpt lat="47.27652" lon="-2.35171">
        <ele>72.199996948242</ele>
        <time>2021-12-16T11:22:35.000Z</time>
      </trkpt>
      <trkpt lat="47.27641" lon="-2.35172">
        <ele>72.199996948242</ele>
        <time>2021-12-16T11:22:38.000Z</time>
      </trkpt>
      <trkpt lat="47.27617" lon="-2.3517">
        <ele>72.599998474121</ele>
        <time>2021-12-16T11:22:44.000Z</time>
      </trkpt>
      <trkpt lat="47.27613" lon="-2.35168">
        <ele>73</ele>
        <time>2021-12-16T11:22:45.000Z</time>
      </trkpt>
      <trkpt lat="47.27611" lon="-2.35164">
        <ele>73.599998474121</ele>
        <time>2021-12-16T11:22:46.000Z</time>
      </trkpt>
      <trkpt lat="47.27609" lon="-2.3516">
        <ele>74</ele>
        <time>2021-12-16T11:22:47.000Z</time>
      </trkpt>
      <trkpt lat="47.27608" lon="-2.35154">
        <ele>74.400001525879</ele>
        <time>2021-12-16T11:22:48.000Z</time>
      </trkpt>
      <trkpt lat="47.27601" lon="-2.35136">
        <ele>74.400001525879</ele>
        <time>2021-12-16T11:22:52.000Z</time>
      </trkpt>
      <trkpt lat="47.27588" lon="-2.35135">
        <ele>74.400001525879</ele>
        <time>2021-12-16T11:22:56.000Z</time>
      </trkpt>
      <trkpt lat="47.27567" lon="-2.35136">
        <ele>74.400001525879</ele>
        <time>2021-12-16T11:23:01.000Z</time>
      </trkpt>
      <trkpt lat="47.27542" lon="-2.35139">
        <ele>74.400001525879</ele>
        <time>2021-12-16T11:23:07.000Z</time>
      </trkpt>
      <trkpt lat="47.27533" lon="-2.35137">
        <ele>75.199996948242</ele>
        <time>2021-12-16T11:23:09.000Z</time>
      </trkpt>
      <trkpt lat="47.27528" lon="-2.35135">
        <ele>75.599998474121</ele>
        <time>2021-12-16T11:23:10.000Z</time>
      </trkpt>
      <trkpt lat="47.27524" lon="-2.35133">
        <ele>76</ele>
        <time>2021-12-16T11:23:11.000Z</time>
      </trkpt>
      <trkpt lat="47.2752" lon="-2.35131">
        <ele>76.400001525879</ele>
        <time>2021-12-16T11:23:12.000Z</time>
      </trkpt>
      <trkpt lat="47.27511" lon="-2.35127">
        <ele>76.400001525879</ele>
        <time>2021-12-16T11:23:14.000Z</time>
      </trkpt>
      <trkpt lat="47.27504" lon="-2.3513">
        <ele>76.400001525879</ele>
        <time>2021-12-16T11:23:16.000Z</time>
      </trkpt>
      <trkpt lat="47.2749" lon="-2.35143">
        <ele>76.400001525879</ele>
        <time>2021-12-16T11:23:20.000Z</time>
      </trkpt>
      <trkpt lat="47.27485" lon="-2.35145">
        <ele>76.400001525879</ele>
        <time>2021-12-16T11:23:21.000Z</time>
      </trkpt>
      <trkpt lat="47.27461" lon="-2.35159">
        <ele>76.400001525879</ele>
        <time>2021-12-16T11:23:26.000Z</time>
      </trkpt>
      <trkpt lat="47.27439" lon="-2.35169">
        <ele>76</ele>
        <time>2021-12-16T11:23:30.000Z</time>
      </trkpt>
      <trkpt lat="47.27435" lon="-2.3517">
        <ele>75.599998474121</ele>
        <time>2021-12-16T11:23:31.000Z</time>
      </trkpt>
      <trkpt lat="47.27431" lon="-2.35169">
        <ele>75</ele>
        <time>2021-12-16T11:23:32.000Z</time>
      </trkpt>
      <trkpt lat="47.27427" lon="-2.35166">
        <ele>74.599998474121</ele>
        <time>2021-12-16T11:23:33.000Z</time>
      </trkpt>
      <trkpt lat="47.27425" lon="-2.35161">
        <ele>74.199996948242</ele>
        <time>2021-12-16T11:23:34.000Z</time>
      </trkpt>
      <trkpt lat="47.27424" lon="-2.35156">
        <ele>74.199996948242</ele>
        <time>2021-12-16T11:23:35.000Z</time>
      </trkpt>
      <trkpt lat="47.27423" lon="-2.3515">
        <ele>74.199996948242</ele>
        <time>2021-12-16T11:23:36.000Z</time>
      </trkpt>
      <trkpt lat="47.27415" lon="-2.35113">
        <ele>74.199996948242</ele>
        <time>2021-12-16T11:23:42.000Z</time>
      </trkpt>
      <trkpt lat="47.27404" lon="-2.35063">
        <ele>74.199996948242</ele>
        <time>2021-12-16T11:23:50.000Z</time>
      </trkpt>
      <trkpt lat="47.27401" lon="-2.35058">
        <ele>74.199996948242</ele>
        <time>2021-12-16T11:23:51.000Z</time>
      </trkpt>
      <trkpt lat="47.27392" lon="-2.35057">
        <ele>74.199996948242</ele>
        <time>2021-12-16T11:23:53.000Z</time>
      </trkpt>
      <trkpt lat="47.27383" lon="-2.3506">
        <ele>74.199996948242</ele>
        <time>2021-12-16T11:23:55.000Z</time>
      </trkpt>
      <trkpt lat="47.27373" lon="-2.35066">
        <ele>74.199996948242</ele>
        <time>2021-12-16T11:23:57.000Z</time>
      </trkpt>
      <trkpt lat="47.27368" lon="-2.35068">
        <ele>73.800003051758</ele>
        <time>2021-12-16T11:23:58.000Z</time>
      </trkpt>
      <trkpt lat="47.27363" lon="-2.35072">
        <ele>73.199996948242</ele>
        <time>2021-12-16T11:23:59.000Z</time>
      </trkpt>
      <trkpt lat="47.27357" lon="-2.35074">
        <ele>72.800003051758</ele>
        <time>2021-12-16T11:24:00.000Z</time>
      </trkpt>
      <trkpt lat="47.27352" lon="-2.35078">
        <ele>72.400001525879</ele>
        <time>2021-12-16T11:24:01.000Z</time>
      </trkpt>
      <trkpt lat="47.27346" lon="-2.35081">
        <ele>71.800003051758</ele>
        <time>2021-12-16T11:24:02.000Z</time>
      </trkpt>
      <trkpt lat="47.2734" lon="-2.35084">
        <ele>71.800003051758</ele>
        <time>2021-12-16T11:24:03.000Z</time>
      </trkpt>
      <trkpt lat="47.2732" lon="-2.35094">
        <ele>71.400001525879</ele>
        <time>2021-12-16T11:24:06.000Z</time>
      </trkpt>
      <trkpt lat="47.27315" lon="-2.35097">
        <ele>71</ele>
        <time>2021-12-16T11:24:07.000Z</time>
      </trkpt>
      <trkpt lat="47.2731" lon="-2.35099">
        <ele>70.599998474121</ele>
        <time>2021-12-16T11:24:08.000Z</time>
      </trkpt>
      <trkpt lat="47.27306" lon="-2.35102">
        <ele>70.199996948242</ele>
        <time>2021-12-16T11:24:09.000Z</time>
      </trkpt>
      <trkpt lat="47.27302" lon="-2.35104">
        <ele>69.800003051758</ele>
        <time>2021-12-16T11:24:10.000Z</time>
      </trkpt>
      <trkpt lat="47.27298" lon="-2.35106">
        <ele>69.199996948242</ele>
        <time>2021-12-16T11:24:11.000Z</time>
      </trkpt>
      <trkpt lat="47.27293" lon="-2.35109">
        <ele>68.800003051758</ele>
        <time>2021-12-16T11:24:12.000Z</time>
      </trkpt>
      <trkpt lat="47.27288" lon="-2.35111">
        <ele>68.199996948242</ele>
        <time>2021-12-16T11:24:13.000Z</time>
      </trkpt>
      <trkpt lat="47.27282" lon="-2.35114">
        <ele>67.800003051758</ele>
        <time>2021-12-16T11:24:14.000Z</time>
      </trkpt>
      <trkpt lat="47.2726" lon="-2.35122">
        <ele>67.800003051758</ele>
        <time>2021-12-16T11:24:18.000Z</time>
      </trkpt>
      <trkpt lat="47.27255" lon="-2.3512">
        <ele>67.800003051758</ele>
        <time>2021-12-16T11:24:19.000Z</time>
      </trkpt>
      <trkpt lat="47.27251" lon="-2.35115">
        <ele>67.199996948242</ele>
        <time>2021-12-16T11:24:20.000Z</time>
      </trkpt>
      <trkpt lat="47.27247" lon="-2.35108">
        <ele>66.800003051758</ele>
        <time>2021-12-16T11:24:21.000Z</time>
      </trkpt>
      <trkpt lat="47.27243" lon="-2.35101">
        <ele>66.400001525879</ele>
        <time>2021-12-16T11:24:22.000Z</time>
      </trkpt>
      <trkpt lat="47.2724" lon="-2.35094">
        <ele>65.599998474121</ele>
        <time>2021-12-16T11:24:23.000Z</time>
      </trkpt>
      <trkpt lat="47.27216" lon="-2.35036">
        <ele>65.599998474121</ele>
        <time>2021-12-16T11:24:31.000Z</time>
      </trkpt>
      <trkpt lat="47.27195" lon="-2.34979">
        <ele>65.599998474121</ele>
        <time>2021-12-16T11:24:40.000Z</time>
      </trkpt>
      <trkpt lat="47.27174" lon="-2.34916">
        <ele>65.599998474121</ele>
        <time>2021-12-16T11:24:48.000Z</time>
      </trkpt>
      <trkpt lat="47.27159" lon="-2.34869">
        <ele>65.599998474121</ele>
        <time>2021-12-16T11:24:54.000Z</time>
      </trkpt>
      <trkpt lat="47.27144" lon="-2.34803">
        <ele>65.599998474121</ele>
        <time>2021-12-16T11:25:02.000Z</time>
      </trkpt>
      <trkpt lat="47.27131" lon="-2.34736">
        <ele>65.599998474121</ele>
        <time>2021-12-16T11:25:10.000Z</time>
      </trkpt>
      <trkpt lat="47.27119" lon="-2.3468">
        <ele>65.599998474121</ele>
        <time>2021-12-16T11:25:17.000Z</time>
      </trkpt>
      <trkpt lat="47.27115" lon="-2.34664">
        <ele>65.199996948242</ele>
        <time>2021-12-16T11:25:19.000Z</time>
      </trkpt>
      <trkpt lat="47.27113" lon="-2.34656">
        <ele>64.800003051758</ele>
        <time>2021-12-16T11:25:20.000Z</time>
      </trkpt>
      <trkpt lat="47.27112" lon="-2.34648">
        <ele>64.400001525879</ele>
        <time>2021-12-16T11:25:21.000Z</time>
      </trkpt>
      <trkpt lat="47.2711" lon="-2.3464">
        <ele>64</ele>
        <time>2021-12-16T11:25:22.000Z</time>
      </trkpt>
      <trkpt lat="47.27108" lon="-2.34633">
        <ele>63.599998474121</ele>
        <time>2021-12-16T11:25:23.000Z</time>
      </trkpt>
      <trkpt lat="47.27103" lon="-2.34611">
        <ele>63.599998474121</ele>
        <time>2021-12-16T11:25:26.000Z</time>
      </trkpt>
      <trkpt lat="47.27087" lon="-2.34545">
        <ele>63.599998474121</ele>
        <time>2021-12-16T11:25:35.000Z</time>
      </trkpt>
      <trkpt lat="47.27071" lon="-2.34476">
        <ele>63.599998474121</ele>
        <time>2021-12-16T11:25:44.000Z</time>
      </trkpt>
      <trkpt lat="47.27057" lon="-2.34417">
        <ele>63.599998474121</ele>
        <time>2021-12-16T11:25:52.000Z</time>
      </trkpt>
      <trkpt lat="47.27047" lon="-2.3437">
        <ele>63.599998474121</ele>
        <time>2021-12-16T11:25:59.000Z</time>
      </trkpt>
      <trkpt lat="47.27042" lon="-2.34351">
        <ele>63.599998474121</ele>
        <time>2021-12-16T11:26:02.000Z</time>
      </trkpt>
      <trkpt lat="47.27038" lon="-2.34334">
        <ele>63.599998474121</ele>
        <time>2021-12-16T11:26:05.000Z</time>
      </trkpt>
      <trkpt lat="47.27035" lon="-2.34328">
        <ele>63.599998474121</ele>
        <time>2021-12-16T11:26:07.000Z</time>
      </trkpt>
      <trkpt lat="47.27033" lon="-2.34326">
        <ele>63.599998474121</ele>
        <time>2021-12-16T11:26:08.000Z</time>
      </trkpt>
      <trkpt lat="47.27028" lon="-2.34324">
        <ele>63.599998474121</ele>
        <time>2021-12-16T11:26:13.000Z</time>
      </trkpt>
      <trkpt lat="47.27026" lon="-2.34324">
        <ele>63.599998474121</ele>
        <time>2021-12-16T11:26:15.000Z</time>
      </trkpt>
      <trkpt lat="47.27022" lon="-2.34322">
        <ele>63.599998474121</ele>
        <time>2021-12-16T11:26:18.000Z</time>
      </trkpt>
      <trkpt lat="47.27013" lon="-2.34321">
        <ele>63.599998474121</ele>
        <time>2021-12-16T11:26:22.000Z</time>
      </trkpt>
      <trkpt lat="47.27011" lon="-2.34321">
        <ele>63.599998474121</ele>
        <time>2021-12-16T11:26:23.000Z</time>
      </trkpt>
      <trkpt lat="47.27003" lon="-2.3432">
        <ele>63.599998474121</ele>
        <time>2021-12-16T11:26:25.000Z</time>
      </trkpt>
      <trkpt lat="47.26977" lon="-2.34315">
        <ele>63.599998474121</ele>
        <time>2021-12-16T11:26:30.000Z</time>
      </trkpt>
      <trkpt lat="47.26929" lon="-2.34308">
        <ele>63.599998474121</ele>
        <time>2021-12-16T11:26:39.000Z</time>
      </trkpt>
      <trkpt lat="47.26924" lon="-2.34307">
        <ele>63.599998474121</ele>
        <time>2021-12-16T11:26:40.000Z</time>
      </trkpt>
      <trkpt lat="47.26913" lon="-2.34298">
        <ele>63.599998474121</ele>
        <time>2021-12-16T11:26:43.000Z</time>
      </trkpt>
      <trkpt lat="47.26897" lon="-2.3428">
        <ele>63.599998474121</ele>
        <time>2021-12-16T11:26:47.000Z</time>
      </trkpt>
      <trkpt lat="47.26892" lon="-2.34277">
        <ele>63.599998474121</ele>
        <time>2021-12-16T11:26:48.000Z</time>
      </trkpt>
      <trkpt lat="47.26854" lon="-2.34251">
        <ele>63.599998474121</ele>
        <time>2021-12-16T11:26:56.000Z</time>
      </trkpt>
      <trkpt lat="47.26827" lon="-2.34233">
        <ele>63.599998474121</ele>
        <time>2021-12-16T11:27:02.000Z</time>
      </trkpt>
      <trkpt lat="47.26798" lon="-2.34213">
        <ele>63.599998474121</ele>
        <time>2021-12-16T11:27:09.000Z</time>
      </trkpt>
      <trkpt lat="47.26767" lon="-2.34189">
        <ele>63.599998474121</ele>
        <time>2021-12-16T11:27:16.000Z</time>
      </trkpt>
      <trkpt lat="47.26744" lon="-2.34174">
        <ele>63.599998474121</ele>
        <time>2021-12-16T11:27:22.000Z</time>
      </trkpt>
      <trkpt lat="47.26736" lon="-2.34168">
        <ele>63.599998474121</ele>
        <time>2021-12-16T11:27:27.000Z</time>
      </trkpt>
      <trkpt lat="47.26724" lon="-2.34161">
        <ele>63.599998474121</ele>
        <time>2021-12-16T11:27:31.000Z</time>
      </trkpt>
      <trkpt lat="47.26701" lon="-2.34146">
        <ele>63.599998474121</ele>
        <time>2021-12-16T11:27:37.000Z</time>
      </trkpt>
      <trkpt lat="47.26677" lon="-2.34124">
        <ele>63.599998474121</ele>
        <time>2021-12-16T11:27:43.000Z</time>
      </trkpt>
      <trkpt lat="47.26647" lon="-2.34103">
        <ele>63.599998474121</ele>
        <time>2021-12-16T11:27:50.000Z</time>
      </trkpt>
      <trkpt lat="47.26613" lon="-2.34077">
        <ele>63.599998474121</ele>
        <time>2021-12-16T11:27:58.000Z</time>
      </trkpt>
      <trkpt lat="47.26586" lon="-2.34059">
        <ele>63.599998474121</ele>
        <time>2021-12-16T11:28:04.000Z</time>
      </trkpt>
      <trkpt lat="47.26569" lon="-2.34048">
        <ele>63.599998474121</ele>
        <time>2021-12-16T11:28:08.000Z</time>
      </trkpt>
      <trkpt lat="47.26568" lon="-2.34042">
        <ele>63.599998474121</ele>
        <time>2021-12-16T11:28:09.000Z</time>
      </trkpt>
      <trkpt lat="47.2657" lon="-2.3402">
        <ele>63.599998474121</ele>
        <time>2021-12-16T11:28:13.000Z</time>
      </trkpt>
      <trkpt lat="47.26575" lon="-2.33999">
        <ele>63.599998474121</ele>
        <time>2021-12-16T11:28:18.000Z</time>
      </trkpt>
      <trkpt lat="47.26579" lon="-2.33977">
        <ele>63.599998474121</ele>
        <time>2021-12-16T11:28:22.000Z</time>
      </trkpt>
      <trkpt lat="47.26582" lon="-2.33958">
        <ele>63.599998474121</ele>
        <time>2021-12-16T11:28:25.000Z</time>
      </trkpt>
      <trkpt lat="47.26583" lon="-2.33951">
        <ele>63.599998474121</ele>
        <time>2021-12-16T11:28:26.000Z</time>
      </trkpt>
      <trkpt lat="47.26586" lon="-2.33922">
        <ele>63.599998474121</ele>
        <time>2021-12-16T11:28:30.000Z</time>
      </trkpt>
      <trkpt lat="47.2659" lon="-2.3387">
        <ele>63.599998474121</ele>
        <time>2021-12-16T11:28:37.000Z</time>
      </trkpt>
      <trkpt lat="47.2659" lon="-2.33856">
        <ele>63.599998474121</ele>
        <time>2021-12-16T11:28:39.000Z</time>
      </trkpt>
      <trkpt lat="47.2659" lon="-2.33843">
        <ele>63.599998474121</ele>
        <time>2021-12-16T11:28:41.000Z</time>
      </trkpt>
      <trkpt lat="47.26591" lon="-2.33836">
        <ele>63.599998474121</ele>
        <time>2021-12-16T11:28:42.000Z</time>
      </trkpt>
      <trkpt lat="47.26596" lon="-2.33784">
        <ele>63.599998474121</ele>
        <time>2021-12-16T11:28:49.000Z</time>
      </trkpt>
      <trkpt lat="47.26602" lon="-2.3374">
        <ele>63.599998474121</ele>
        <time>2021-12-16T11:28:55.000Z</time>
      </trkpt>
      <trkpt lat="47.26603" lon="-2.33732">
        <ele>63.200000762939</ele>
        <time>2021-12-16T11:28:56.000Z</time>
      </trkpt>
      <trkpt lat="47.26604" lon="-2.33725">
        <ele>62.799999237061</ele>
        <time>2021-12-16T11:28:57.000Z</time>
      </trkpt>
      <trkpt lat="47.26604" lon="-2.33718">
        <ele>62.400001525879</ele>
        <time>2021-12-16T11:28:58.000Z</time>
      </trkpt>
      <trkpt lat="47.26605" lon="-2.33713">
        <ele>62</ele>
        <time>2021-12-16T11:28:59.000Z</time>
      </trkpt>
      <trkpt lat="47.26604" lon="-2.33709">
        <ele>61.599998474121</ele>
        <time>2021-12-16T11:29:00.000Z</time>
      </trkpt>
      <trkpt lat="47.26603" lon="-2.33701">
        <ele>61.200000762939</ele>
        <time>2021-12-16T11:29:03.000Z</time>
      </trkpt>
      <trkpt lat="47.26602" lon="-2.337">
        <ele>60.799999237061</ele>
        <time>2021-12-16T11:29:04.000Z</time>
      </trkpt>
      <trkpt lat="47.26602" lon="-2.33699">
        <ele>60.200000762939</ele>
        <time>2021-12-16T11:29:05.000Z</time>
      </trkpt>
      <trkpt lat="47.26602" lon="-2.33699">
        <ele>59.799999237061</ele>
        <time>2021-12-16T11:29:06.000Z</time>
      </trkpt>
      <trkpt lat="47.26595" lon="-2.33695">
        <ele>59.400001525879</ele>
        <time>2021-12-16T11:29:21.000Z</time>
      </trkpt>
      <trkpt lat="47.2659" lon="-2.33694">
        <ele>59.400001525879</ele>
        <time>2021-12-16T11:29:23.000Z</time>
      </trkpt>
      <trkpt lat="47.26576" lon="-2.33686">
        <ele>59.400001525879</ele>
        <time>2021-12-16T11:29:27.000Z</time>
      </trkpt>
      <trkpt lat="47.26574" lon="-2.33666">
        <ele>59.400001525879</ele>
        <time>2021-12-16T11:29:30.000Z</time>
      </trkpt>
      <trkpt lat="47.26571" lon="-2.33632">
        <ele>59.400001525879</ele>
        <time>2021-12-16T11:29:34.000Z</time>
      </trkpt>
      <trkpt lat="47.2656" lon="-2.33559">
        <ele>59</ele>
        <time>2021-12-16T11:29:42.000Z</time>
      </trkpt>
      <trkpt lat="47.26558" lon="-2.33551">
        <ele>58.599998474121</ele>
        <time>2021-12-16T11:29:43.000Z</time>
      </trkpt>
      <trkpt lat="47.26556" lon="-2.33542">
        <ele>58.200000762939</ele>
        <time>2021-12-16T11:29:44.000Z</time>
      </trkpt>
      <trkpt lat="47.26554" lon="-2.33533">
        <ele>57.799999237061</ele>
        <time>2021-12-16T11:29:45.000Z</time>
      </trkpt>
      <trkpt lat="47.26552" lon="-2.33525">
        <ele>57.400001525879</ele>
        <time>2021-12-16T11:29:46.000Z</time>
      </trkpt>
      <trkpt lat="47.26548" lon="-2.33508">
        <ele>57.400001525879</ele>
        <time>2021-12-16T11:29:48.000Z</time>
      </trkpt>
      <trkpt lat="47.26545" lon="-2.33501">
        <ele>57.400001525879</ele>
        <time>2021-12-16T11:29:49.000Z</time>
      </trkpt>
      <trkpt lat="47.26538" lon="-2.33477">
        <ele>57.400001525879</ele>
        <time>2021-12-16T11:29:52.000Z</time>
      </trkpt>
      <trkpt lat="47.26536" lon="-2.33469">
        <ele>57.400001525879</ele>
        <time>2021-12-16T11:29:53.000Z</time>
      </trkpt>
      <trkpt lat="47.2653" lon="-2.33422">
        <ele>57.400001525879</ele>
        <time>2021-12-16T11:29:59.000Z</time>
      </trkpt>
      <trkpt lat="47.26528" lon="-2.33408">
        <ele>57.400001525879</ele>
        <time>2021-12-16T11:30:01.000Z</time>
      </trkpt>
      <trkpt lat="47.26525" lon="-2.33388">
        <ele>57.400001525879</ele>
        <time>2021-12-16T11:30:04.000Z</time>
      </trkpt>
      <trkpt lat="47.2652" lon="-2.33361">
        <ele>57</ele>
        <time>2021-12-16T11:30:08.000Z</time>
      </trkpt>
      <trkpt lat="47.26517" lon="-2.33357">
        <ele>56.599998474121</ele>
        <time>2021-12-16T11:30:09.000Z</time>
      </trkpt>
      <trkpt lat="47.26514" lon="-2.33353">
        <ele>55.599998474121</ele>
        <time>2021-12-16T11:30:10.000Z</time>
      </trkpt>
      <trkpt lat="47.2651" lon="-2.33351">
        <ele>55.200000762939</ele>
        <time>2021-12-16T11:30:11.000Z</time>
      </trkpt>
      <trkpt lat="47.26502" lon="-2.33347">
        <ele>55.200000762939</ele>
        <time>2021-12-16T11:30:13.000Z</time>
      </trkpt>
      <trkpt lat="47.2649" lon="-2.33345">
        <ele>55.200000762939</ele>
        <time>2021-12-16T11:30:18.000Z</time>
      </trkpt>
      <trkpt lat="47.26489" lon="-2.33344">
        <ele>55.200000762939</ele>
        <time>2021-12-16T11:30:20.000Z</time>
      </trkpt>
      <trkpt lat="47.26485" lon="-2.33336">
        <ele>55.200000762939</ele>
        <time>2021-12-16T11:30:23.000Z</time>
      </trkpt>
      <trkpt lat="47.26478" lon="-2.3332">
        <ele>55.200000762939</ele>
        <time>2021-12-16T11:30:27.000Z</time>
      </trkpt>
      <trkpt lat="47.26477" lon="-2.33298">
        <ele>55.200000762939</ele>
        <time>2021-12-16T11:30:31.000Z</time>
      </trkpt>
      <trkpt lat="47.26475" lon="-2.33276">
        <ele>55.200000762939</ele>
        <time>2021-12-16T11:30:35.000Z</time>
      </trkpt>
      <trkpt lat="47.26472" lon="-2.33273">
        <ele>55.200000762939</ele>
        <time>2021-12-16T11:30:36.000Z</time>
      </trkpt>
      <trkpt lat="47.26459" lon="-2.3327">
        <ele>55.200000762939</ele>
        <time>2021-12-16T11:30:39.000Z</time>
      </trkpt>
      <trkpt lat="47.26455" lon="-2.33269">
        <ele>55.200000762939</ele>
        <time>2021-12-16T11:30:40.000Z</time>
      </trkpt>
      <trkpt lat="47.2642" lon="-2.33266">
        <ele>55.200000762939</ele>
        <time>2021-12-16T11:30:47.000Z</time>
      </trkpt>
      <trkpt lat="47.26391" lon="-2.33259">
        <ele>55.200000762939</ele>
        <time>2021-12-16T11:30:53.000Z</time>
      </trkpt>
      <trkpt lat="47.26381" lon="-2.33244">
        <ele>55.200000762939</ele>
        <time>2021-12-16T11:30:56.000Z</time>
      </trkpt>
      <trkpt lat="47.26377" lon="-2.33216">
        <ele>55.200000762939</ele>
        <time>2021-12-16T11:31:00.000Z</time>
      </trkpt>
      <trkpt lat="47.26377" lon="-2.33208">
        <ele>55.200000762939</ele>
        <time>2021-12-16T11:31:01.000Z</time>
      </trkpt>
      <trkpt lat="47.26375" lon="-2.33149">
        <ele>55.200000762939</ele>
        <time>2021-12-16T11:31:09.000Z</time>
      </trkpt>
      <trkpt lat="47.2637" lon="-2.33092">
        <ele>55.200000762939</ele>
        <time>2021-12-16T11:31:17.000Z</time>
      </trkpt>
      <trkpt lat="47.26368" lon="-2.33043">
        <ele>55.200000762939</ele>
        <time>2021-12-16T11:31:24.000Z</time>
      </trkpt>
      <trkpt lat="47.26367" lon="-2.32996">
        <ele>55.200000762939</ele>
        <time>2021-12-16T11:31:31.000Z</time>
      </trkpt>
      <trkpt lat="47.26366" lon="-2.32989">
        <ele>55.200000762939</ele>
        <time>2021-12-16T11:31:32.000Z</time>
      </trkpt>
      <trkpt lat="47.26356" lon="-2.32975">
        <ele>55.200000762939</ele>
        <time>2021-12-16T11:31:35.000Z</time>
      </trkpt>
      <trkpt lat="47.26352" lon="-2.32972">
        <ele>55.200000762939</ele>
        <time>2021-12-16T11:31:36.000Z</time>
      </trkpt>
      <trkpt lat="47.26348" lon="-2.32968">
        <ele>55.200000762939</ele>
        <time>2021-12-16T11:31:37.000Z</time>
      </trkpt>
      <trkpt lat="47.26343" lon="-2.32955">
        <ele>55.200000762939</ele>
        <time>2021-12-16T11:31:39.000Z</time>
      </trkpt>
      <trkpt lat="47.2634" lon="-2.32941">
        <ele>55.200000762939</ele>
        <time>2021-12-16T11:31:41.000Z</time>
      </trkpt>
      <trkpt lat="47.26334" lon="-2.32922">
        <ele>55.200000762939</ele>
        <time>2021-12-16T11:31:44.000Z</time>
      </trkpt>
      <trkpt lat="47.26321" lon="-2.32877">
        <ele>55.200000762939</ele>
        <time>2021-12-16T11:31:51.000Z</time>
      </trkpt>
      <trkpt lat="47.26319" lon="-2.32872">
        <ele>55.200000762939</ele>
        <time>2021-12-16T11:31:52.000Z</time>
      </trkpt>
      <trkpt lat="47.26303" lon="-2.32857">
        <ele>55.200000762939</ele>
        <time>2021-12-16T11:31:56.000Z</time>
      </trkpt>
      <trkpt lat="47.26298" lon="-2.32855">
        <ele>55.200000762939</ele>
        <time>2021-12-16T11:31:57.000Z</time>
      </trkpt>
      <trkpt lat="47.26294" lon="-2.32852">
        <ele>55.200000762939</ele>
        <time>2021-12-16T11:31:58.000Z</time>
      </trkpt>
      <trkpt lat="47.26286" lon="-2.32836">
        <ele>55.200000762939</ele>
        <time>2021-12-16T11:32:01.000Z</time>
      </trkpt>
      <trkpt lat="47.26285" lon="-2.32822">
        <ele>55.200000762939</ele>
        <time>2021-12-16T11:32:03.000Z</time>
      </trkpt>
      <trkpt lat="47.2628" lon="-2.32803">
        <ele>55.200000762939</ele>
        <time>2021-12-16T11:32:06.000Z</time>
      </trkpt>
      <trkpt lat="47.2626" lon="-2.32758">
        <ele>55.200000762939</ele>
        <time>2021-12-16T11:32:14.000Z</time>
      </trkpt>
      <trkpt lat="47.26241" lon="-2.32731">
        <ele>55.200000762939</ele>
        <time>2021-12-16T11:32:20.000Z</time>
      </trkpt>
      <trkpt lat="47.2622" lon="-2.32701">
        <ele>55.599998474121</ele>
        <time>2021-12-16T11:32:27.000Z</time>
      </trkpt>
      <trkpt lat="47.26216" lon="-2.32698">
        <ele>56</ele>
        <time>2021-12-16T11:32:28.000Z</time>
      </trkpt>
      <trkpt lat="47.26212" lon="-2.32694">
        <ele>56.400001525879</ele>
        <time>2021-12-16T11:32:29.000Z</time>
      </trkpt>
      <trkpt lat="47.26209" lon="-2.32691">
        <ele>56.799999237061</ele>
        <time>2021-12-16T11:32:30.000Z</time>
      </trkpt>
      <trkpt lat="47.26206" lon="-2.32687">
        <ele>57.400001525879</ele>
        <time>2021-12-16T11:32:31.000Z</time>
      </trkpt>
      <trkpt lat="47.26189" lon="-2.32668">
        <ele>57.400001525879</ele>
        <time>2021-12-16T11:32:36.000Z</time>
      </trkpt>
      <trkpt lat="47.26173" lon="-2.32656">
        <ele>57.400001525879</ele>
        <time>2021-12-16T11:32:40.000Z</time>
      </trkpt>
      <trkpt lat="47.2616" lon="-2.32648">
        <ele>57.400001525879</ele>
        <time>2021-12-16T11:32:43.000Z</time>
      </trkpt>
      <trkpt lat="47.26124" lon="-2.32638">
        <ele>57.400001525879</ele>
        <time>2021-12-16T11:32:51.000Z</time>
      </trkpt>
      <trkpt lat="47.26095" lon="-2.3264">
        <ele>57.400001525879</ele>
        <time>2021-12-16T11:32:57.000Z</time>
      </trkpt>
      <trkpt lat="47.26054" lon="-2.32646">
        <ele>57.400001525879</ele>
        <time>2021-12-16T11:33:05.000Z</time>
      </trkpt>
      <trkpt lat="47.26013" lon="-2.32652">
        <ele>57.400001525879</ele>
        <time>2021-12-16T11:33:13.000Z</time>
      </trkpt>
      <trkpt lat="47.25985" lon="-2.32656">
        <ele>56.799999237061</ele>
        <time>2021-12-16T11:33:19.000Z</time>
      </trkpt>
      <trkpt lat="47.2598" lon="-2.32655">
        <ele>56.400001525879</ele>
        <time>2021-12-16T11:33:20.000Z</time>
      </trkpt>
      <trkpt lat="47.25975" lon="-2.32654">
        <ele>56</ele>
        <time>2021-12-16T11:33:21.000Z</time>
      </trkpt>
      <trkpt lat="47.2597" lon="-2.32654">
        <ele>55.599998474121</ele>
        <time>2021-12-16T11:33:22.000Z</time>
      </trkpt>
      <trkpt lat="47.25966" lon="-2.32655">
        <ele>55.200000762939</ele>
        <time>2021-12-16T11:33:23.000Z</time>
      </trkpt>
      <trkpt lat="47.2596" lon="-2.3265">
        <ele>55.200000762939</ele>
        <time>2021-12-16T11:33:25.000Z</time>
      </trkpt>
      <trkpt lat="47.2596" lon="-2.32631">
        <ele>55.200000762939</ele>
        <time>2021-12-16T11:33:28.000Z</time>
      </trkpt>
      <trkpt lat="47.2596" lon="-2.32625">
        <ele>55.200000762939</ele>
        <time>2021-12-16T11:33:29.000Z</time>
      </trkpt>
      <trkpt lat="47.25958" lon="-2.32612">
        <ele>55.200000762939</ele>
        <time>2021-12-16T11:33:31.000Z</time>
      </trkpt>
      <trkpt lat="47.25954" lon="-2.32593">
        <ele>55.200000762939</ele>
        <time>2021-12-16T11:33:34.000Z</time>
      </trkpt>
      <trkpt lat="47.25938" lon="-2.32535">
        <ele>55.200000762939</ele>
        <time>2021-12-16T11:33:43.000Z</time>
      </trkpt>
      <trkpt lat="47.2592" lon="-2.32481">
        <ele>55.200000762939</ele>
        <time>2021-12-16T11:33:52.000Z</time>
      </trkpt>
      <trkpt lat="47.25914" lon="-2.32472">
        <ele>55.200000762939</ele>
        <time>2021-12-16T11:33:54.000Z</time>
      </trkpt>
      <trkpt lat="47.25904" lon="-2.32462">
        <ele>55.200000762939</ele>
        <time>2021-12-16T11:33:57.000Z</time>
      </trkpt>
      <trkpt lat="47.25905" lon="-2.32446">
        <ele>55.200000762939</ele>
        <time>2021-12-16T11:34:00.000Z</time>
      </trkpt>
      <trkpt lat="47.25916" lon="-2.32435">
        <ele>55.200000762939</ele>
        <time>2021-12-16T11:34:03.000Z</time>
      </trkpt>
      <trkpt lat="47.2592" lon="-2.32431">
        <ele>55.200000762939</ele>
        <time>2021-12-16T11:34:04.000Z</time>
      </trkpt>
      <trkpt lat="47.25935" lon="-2.32413">
        <ele>55.200000762939</ele>
        <time>2021-12-16T11:34:08.000Z</time>
      </trkpt>
      <trkpt lat="47.25964" lon="-2.32376">
        <ele>55.200000762939</ele>
        <time>2021-12-16T11:34:16.000Z</time>
      </trkpt>
      <trkpt lat="47.25997" lon="-2.32336">
        <ele>55.200000762939</ele>
        <time>2021-12-16T11:34:25.000Z</time>
      </trkpt>
      <trkpt lat="47.26025" lon="-2.32298">
        <ele>55.200000762939</ele>
        <time>2021-12-16T11:34:33.000Z</time>
      </trkpt>
      <trkpt lat="47.26053" lon="-2.32269">
        <ele>55.200000762939</ele>
        <time>2021-12-16T11:34:40.000Z</time>
      </trkpt>
      <trkpt lat="47.26079" lon="-2.3224">
        <ele>55.200000762939</ele>
        <time>2021-12-16T11:34:47.000Z</time>
      </trkpt>
      <trkpt lat="47.26097" lon="-2.32215">
        <ele>55.200000762939</ele>
        <time>2021-12-16T11:34:52.000Z</time>
      </trkpt>
      <trkpt lat="47.26103" lon="-2.32203">
        <ele>55.200000762939</ele>
        <time>2021-12-16T11:34:54.000Z</time>
      </trkpt>
      <trkpt lat="47.26117" lon="-2.32166">
        <ele>55.200000762939</ele>
        <time>2021-12-16T11:35:00.000Z</time>
      </trkpt>
      <trkpt lat="47.26129" lon="-2.3213">
        <ele>55.200000762939</ele>
        <time>2021-12-16T11:35:06.000Z</time>
      </trkpt>
      <trkpt lat="47.2614" lon="-2.32088">
        <ele>55.200000762939</ele>
        <time>2021-12-16T11:35:13.000Z</time>
      </trkpt>
      <trkpt lat="47.26154" lon="-2.32045">
        <ele>55.200000762939</ele>
        <time>2021-12-16T11:35:20.000Z</time>
      </trkpt>
      <trkpt lat="47.26158" lon="-2.32034">
        <ele>55.200000762939</ele>
        <time>2021-12-16T11:35:22.000Z</time>
      </trkpt>
      <trkpt lat="47.2617" lon="-2.32019">
        <ele>55.200000762939</ele>
        <time>2021-12-16T11:35:26.000Z</time>
      </trkpt>
      <trkpt lat="47.26183" lon="-2.32021">
        <ele>55.200000762939</ele>
        <time>2021-12-16T11:35:30.000Z</time>
      </trkpt>
      <trkpt lat="47.26193" lon="-2.32024">
        <ele>55.200000762939</ele>
        <time>2021-12-16T11:35:35.000Z</time>
      </trkpt>
      <trkpt lat="47.26196" lon="-2.32022">
        <ele>55.200000762939</ele>
        <time>2021-12-16T11:35:36.000Z</time>
      </trkpt>
      <trkpt lat="47.26199" lon="-2.32013">
        <ele>55.200000762939</ele>
        <time>2021-12-16T11:35:39.000Z</time>
      </trkpt>
      <trkpt lat="47.26206" lon="-2.32002">
        <ele>55.200000762939</ele>
        <time>2021-12-16T11:35:44.000Z</time>
      </trkpt>
      <trkpt lat="47.2621" lon="-2.31999">
        <ele>55.200000762939</ele>
        <time>2021-12-16T11:35:46.000Z</time>
      </trkpt>
      <trkpt lat="47.2622" lon="-2.31989">
        <ele>55.200000762939</ele>
        <time>2021-12-16T11:35:50.000Z</time>
      </trkpt>
      <trkpt lat="47.26235" lon="-2.31971">
        <ele>55.200000762939</ele>
        <time>2021-12-16T11:35:55.000Z</time>
      </trkpt>
      <trkpt lat="47.26251" lon="-2.31954">
        <ele>55.200000762939</ele>
        <time>2021-12-16T11:36:00.000Z</time>
      </trkpt>
      <trkpt lat="47.26252" lon="-2.31952">
        <ele>55.200000762939</ele>
        <time>2021-12-16T11:36:01.000Z</time>
      </trkpt>
      <trkpt lat="47.26255" lon="-2.31942">
        <ele>55.200000762939</ele>
        <time>2021-12-16T11:36:04.000Z</time>
      </trkpt>
      <trkpt lat="47.26264" lon="-2.31926">
        <ele>55.200000762939</ele>
        <time>2021-12-16T11:36:08.000Z</time>
      </trkpt>
      <trkpt lat="47.2628" lon="-2.31908">
        <ele>55.200000762939</ele>
        <time>2021-12-16T11:36:13.000Z</time>
      </trkpt>
      <trkpt lat="47.26296" lon="-2.31888">
        <ele>55.200000762939</ele>
        <time>2021-12-16T11:36:19.000Z</time>
      </trkpt>
      <trkpt lat="47.26299" lon="-2.31863">
        <ele>55.200000762939</ele>
        <time>2021-12-16T11:36:24.000Z</time>
      </trkpt>
      <trkpt lat="47.26301" lon="-2.31826">
        <ele>55.200000762939</ele>
        <time>2021-12-16T11:36:31.000Z</time>
      </trkpt>
      <trkpt lat="47.26303" lon="-2.31787">
        <ele>55.200000762939</ele>
        <time>2021-12-16T11:36:38.000Z</time>
      </trkpt>
      <trkpt lat="47.26303" lon="-2.31752">
        <ele>55.200000762939</ele>
        <time>2021-12-16T11:36:44.000Z</time>
      </trkpt>
      <trkpt lat="47.26302" lon="-2.31718">
        <ele>55.200000762939</ele>
        <time>2021-12-16T11:36:50.000Z</time>
      </trkpt>
      <trkpt lat="47.26307" lon="-2.31712">
        <ele>55.200000762939</ele>
        <time>2021-12-16T11:36:52.000Z</time>
      </trkpt>
      <trkpt lat="47.26311" lon="-2.3171">
        <ele>55.200000762939</ele>
        <time>2021-12-16T11:36:53.000Z</time>
      </trkpt>
      <trkpt lat="47.26333" lon="-2.31699">
        <ele>55.200000762939</ele>
        <time>2021-12-16T11:36:59.000Z</time>
      </trkpt>
      <trkpt lat="47.26337" lon="-2.31698">
        <ele>55.599998474121</ele>
        <time>2021-12-16T11:37:00.000Z</time>
      </trkpt>
      <trkpt lat="47.26341" lon="-2.31696">
        <ele>56</ele>
        <time>2021-12-16T11:37:01.000Z</time>
      </trkpt>
      <trkpt lat="47.26344" lon="-2.31695">
        <ele>56.400001525879</ele>
        <time>2021-12-16T11:37:02.000Z</time>
      </trkpt>
      <trkpt lat="47.26348" lon="-2.31694">
        <ele>56.799999237061</ele>
        <time>2021-12-16T11:37:03.000Z</time>
      </trkpt>
      <trkpt lat="47.26351" lon="-2.31691">
        <ele>57.200000762939</ele>
        <time>2021-12-16T11:37:04.000Z</time>
      </trkpt>
      <trkpt lat="47.26358" lon="-2.31688">
        <ele>57.200000762939</ele>
        <time>2021-12-16T11:37:06.000Z</time>
      </trkpt>
      <trkpt lat="47.26384" lon="-2.31673">
        <ele>57.200000762939</ele>
        <time>2021-12-16T11:37:13.000Z</time>
      </trkpt>
      <trkpt lat="47.26395" lon="-2.31667">
        <ele>57.599998474121</ele>
        <time>2021-12-16T11:37:16.000Z</time>
      </trkpt>
      <trkpt lat="47.26398" lon="-2.31665">
        <ele>58</ele>
        <time>2021-12-16T11:37:17.000Z</time>
      </trkpt>
      <trkpt lat="47.26401" lon="-2.31664">
        <ele>58.400001525879</ele>
        <time>2021-12-16T11:37:18.000Z</time>
      </trkpt>
      <trkpt lat="47.26404" lon="-2.31662">
        <ele>58.799999237061</ele>
        <time>2021-12-16T11:37:19.000Z</time>
      </trkpt>
      <trkpt lat="47.26407" lon="-2.3166">
        <ele>59.200000762939</ele>
        <time>2021-12-16T11:37:20.000Z</time>
      </trkpt>
      <trkpt lat="47.26412" lon="-2.31652">
        <ele>59.200000762939</ele>
        <time>2021-12-16T11:37:22.000Z</time>
      </trkpt>
      <trkpt lat="47.26411" lon="-2.31647">
        <ele>59.200000762939</ele>
        <time>2021-12-16T11:37:23.000Z</time>
      </trkpt>
      <trkpt lat="47.26408" lon="-2.31633">
        <ele>59.200000762939</ele>
        <time>2021-12-16T11:37:26.000Z</time>
      </trkpt>
      <trkpt lat="47.26409" lon="-2.31628">
        <ele>59.200000762939</ele>
        <time>2021-12-16T11:37:27.000Z</time>
      </trkpt>
      <trkpt lat="47.26408" lon="-2.31602">
        <ele>59.200000762939</ele>
        <time>2021-12-16T11:37:32.000Z</time>
      </trkpt>
      <trkpt lat="47.26408" lon="-2.31567">
        <ele>59.200000762939</ele>
        <time>2021-12-16T11:37:39.000Z</time>
      </trkpt>
      <trkpt lat="47.2641" lon="-2.3155">
        <ele>59.200000762939</ele>
        <time>2021-12-16T11:37:43.000Z</time>
      </trkpt>
      <trkpt lat="47.26413" lon="-2.31548">
        <ele>59.200000762939</ele>
        <time>2021-12-16T11:37:44.000Z</time>
      </trkpt>
      <trkpt lat="47.26415" lon="-2.31549">
        <ele>59.599998474121</ele>
        <time>2021-12-16T11:37:45.000Z</time>
      </trkpt>
      <trkpt lat="47.26417" lon="-2.31549">
        <ele>60</ele>
        <time>2021-12-16T11:37:46.000Z</time>
      </trkpt>
      <trkpt lat="47.26418" lon="-2.3155">
        <ele>60.400001525879</ele>
        <time>2021-12-16T11:37:47.000Z</time>
      </trkpt>
      <trkpt lat="47.26418" lon="-2.3155">
        <ele>60.799999237061</ele>
        <time>2021-12-16T11:37:48.000Z</time>
      </trkpt>
      <trkpt lat="47.26418" lon="-2.31551">
        <ele>61.200000762939</ele>
        <time>2021-12-16T11:37:49.000Z</time>
      </trkpt>
    </trkseg>
  </trk>
</gpx>